<?xml version="1.0" encoding="ISO-8859-1" standalone="yes"?>
<gpx
  version="1.1"
  creator="Touratech QV 4.0.79 Standard - http://www.ttqv.com"
  xmlns:xsi="http://www.w3.org/2001/XMLSchema-instance"  xmlns:topografix="http://www.topografix.com/GPX/Private/TopoGrafix/0/1"
  xmlns="http://www.topografix.com/GPX/1/1"
  xsi:schemaLocation="http://www.topografix.com/GPX/1/1 http://www.topografix.com/GPX/1/1/gpx.xsd">
<metadata>
  <time>2008-04-17T13:58:49Z</time>
  <bounds minlat="47.9805994" minlon="8.7473273" maxlat="48.8410521" maxlon="10.0952983"/>
</metadata>
<trk>
  <name>Komplett 2008</name>
  <trkseg>
    <trkpt lat="48.8409662" lon="10.0952983">
    <ele>436</ele>
    <time>2007-06-26T16:25:58Z</time>
    </trkpt>
    <trkpt lat="48.8410521" lon="10.0951266">
    <ele>435</ele>
    <time>2007-06-26T16:26:01Z</time>
    </trkpt>
    <trkpt lat="48.8409662" lon="10.0948477">
    <ele>433</ele>
    <time>2007-06-26T16:26:05Z</time>
    </trkpt>
    <trkpt lat="48.8404727" lon="10.0942683">
    <ele>430</ele>
    <time>2007-06-26T16:26:17Z</time>
    </trkpt>
    <trkpt lat="48.8404298" lon="10.0942254">
    <ele>435</ele>
    <time>2007-06-26T16:26:33Z</time>
    </trkpt>
    <trkpt lat="48.8404083" lon="10.0942469">
    <ele>445</ele>
    <time>2007-06-26T16:27:31Z</time>
    </trkpt>
    <trkpt lat="48.840301" lon="10.0940323">
    <ele>444</ele>
    <time>2007-06-26T16:27:35Z</time>
    </trkpt>
    <trkpt lat="48.83955" lon="10.0922298">
    <ele>439</ele>
    <time>2007-06-26T16:27:58Z</time>
    </trkpt>
    <trkpt lat="48.8391638" lon="10.0913501">
    <ele>438</ele>
    <time>2007-06-26T16:28:11Z</time>
    </trkpt>
    <trkpt lat="48.839035" lon="10.0912857">
    <ele>437</ele>
    <time>2007-06-26T16:28:14Z</time>
    </trkpt>
    <trkpt lat="48.8389063" lon="10.0914574">
    <ele>437</ele>
    <time>2007-06-26T16:28:43Z</time>
    </trkpt>
    <trkpt lat="48.8387346" lon="10.0914359">
    <ele>449</ele>
    <time>2007-06-26T16:29:49Z</time>
    </trkpt>
    <trkpt lat="48.8386917" lon="10.0911999">
    <ele>448</ele>
    <time>2007-06-26T16:29:53Z</time>
    </trkpt>
    <trkpt lat="48.8383269" lon="10.0894189">
    <ele>444</ele>
    <time>2007-06-26T16:30:13Z</time>
    </trkpt>
    <trkpt lat="48.8381767" lon="10.0887966">
    <ele>436</ele>
    <time>2007-06-26T16:31:53Z</time>
    </trkpt>
    <trkpt lat="48.8381982" lon="10.0887108">
    <ele>436</ele>
    <time>2007-06-26T16:31:56Z</time>
    </trkpt>
    <trkpt lat="48.8382196" lon="10.0886035">
    <ele>436</ele>
    <time>2007-06-26T16:31:58Z</time>
    </trkpt>
    <trkpt lat="48.838048" lon="10.0880671">
    <ele>436</ele>
    <time>2007-06-26T16:32:07Z</time>
    </trkpt>
    <trkpt lat="48.838048" lon="10.0880456">
    <ele>436</ele>
    <time>2007-06-26T16:32:08Z</time>
    </trkpt>
    <trkpt lat="48.8376617" lon="10.0880241">
    <ele>435</ele>
    <time>2007-06-26T16:32:20Z</time>
    </trkpt>
    <trkpt lat="48.8368034" lon="10.088861">
    <ele>435</ele>
    <time>2007-06-26T16:32:39Z</time>
    </trkpt>
    <trkpt lat="48.8360953" lon="10.0896549">
    <ele>436</ele>
    <time>2007-06-26T16:32:54Z</time>
    </trkpt>
    <trkpt lat="48.836031" lon="10.0897408">
    <ele>436</ele>
    <time>2007-06-26T16:33:00Z</time>
    </trkpt>
    <trkpt lat="48.836031" lon="10.0897622">
    <ele>433</ele>
    <time>2007-06-26T16:33:14Z</time>
    </trkpt>
    <trkpt lat="48.8360739" lon="10.0899553">
    <ele>434</ele>
    <time>2007-06-26T16:34:13Z</time>
    </trkpt>
    <trkpt lat="48.836031" lon="10.0899982">
    <ele>435</ele>
    <time>2007-06-26T16:34:29Z</time>
    </trkpt>
    <trkpt lat="48.8353872" lon="10.0886035">
    <ele>437</ele>
    <time>2007-06-26T16:34:47Z</time>
    </trkpt>
    <trkpt lat="48.834486" lon="10.0867367">
    <ele>436</ele>
    <time>2007-06-26T16:35:12Z</time>
    </trkpt>
    <trkpt lat="48.833735" lon="10.0850844">
    <ele>439</ele>
    <time>2007-06-26T16:35:36Z</time>
    </trkpt>
    <trkpt lat="48.8335633" lon="10.0846767">
    <ele>442</ele>
    <time>2007-06-26T16:35:47Z</time>
    </trkpt>
    <trkpt lat="48.8335204" lon="10.0846982">
    <ele>470</ele>
    <time>2007-06-26T16:36:36Z</time>
    </trkpt>
    <trkpt lat="48.8333917" lon="10.0844622">
    <ele>448</ele>
    <time>2007-06-26T16:36:47Z</time>
    </trkpt>
    <trkpt lat="48.8330698" lon="10.0837326">
    <ele>437</ele>
    <time>2007-06-26T16:37:01Z</time>
    </trkpt>
    <trkpt lat="48.8330483" lon="10.0836253">
    <ele>437</ele>
    <time>2007-06-26T16:37:15Z</time>
    </trkpt>
    <trkpt lat="48.8330269" lon="10.0836468">
    <ele>441</ele>
    <time>2007-06-26T16:37:46Z</time>
    </trkpt>
    <trkpt lat="48.8327479" lon="10.083046">
    <ele>442</ele>
    <time>2007-06-26T16:37:58Z</time>
    </trkpt>
    <trkpt lat="48.832705" lon="10.0829387">
    <ele>441</ele>
    <time>2007-06-26T16:38:46Z</time>
    </trkpt>
    <trkpt lat="48.8326836" lon="10.0829387">
    <ele>441</ele>
    <time>2007-06-26T16:39:12Z</time>
    </trkpt>
    <trkpt lat="48.8324046" lon="10.0829816">
    <ele>439</ele>
    <time>2007-06-26T16:39:18Z</time>
    </trkpt>
    <trkpt lat="48.8315678" lon="10.0835609">
    <ele>438</ele>
    <time>2007-06-26T16:39:35Z</time>
    </trkpt>
    <trkpt lat="48.8315678" lon="10.0835395">
    <ele>437</ele>
    <time>2007-06-26T16:39:45Z</time>
    </trkpt>
    <trkpt lat="48.8315463" lon="10.0834966">
    <ele>435</ele>
    <time>2007-06-26T16:40:34Z</time>
    </trkpt>
    <trkpt lat="48.8314605" lon="10.0836253">
    <ele>435</ele>
    <time>2007-06-26T16:40:38Z</time>
    </trkpt>
    <trkpt lat="48.8307309" lon="10.0838184">
    <ele>437</ele>
    <time>2007-06-26T16:40:51Z</time>
    </trkpt>
    <trkpt lat="48.8306022" lon="10.0838614">
    <ele>437</ele>
    <time>2007-06-26T16:40:53Z</time>
    </trkpt>
    <trkpt lat="48.8303876" lon="10.0839472">
    <ele>437</ele>
    <time>2007-06-26T16:40:57Z</time>
    </trkpt>
    <trkpt lat="48.8302374" lon="10.0838828">
    <ele>438</ele>
    <time>2007-06-26T16:41:03Z</time>
    </trkpt>
    <trkpt lat="48.8302159" lon="10.0838828">
    <ele>442</ele>
    <time>2007-06-26T16:41:17Z</time>
    </trkpt>
    <trkpt lat="48.8302159" lon="10.0838399">
    <ele>444</ele>
    <time>2007-06-26T16:42:04Z</time>
    </trkpt>
    <trkpt lat="48.8297868" lon="10.0831962">
    <ele>445</ele>
    <time>2007-06-26T16:42:17Z</time>
    </trkpt>
    <trkpt lat="48.8292718" lon="10.0821877">
    <ele>446</ele>
    <time>2007-06-26T16:42:34Z</time>
    </trkpt>
    <trkpt lat="48.8292074" lon="10.0822091">
    <ele>447</ele>
    <time>2007-06-26T16:42:43Z</time>
    </trkpt>
    <trkpt lat="48.829186" lon="10.0822949">
    <ele>448</ele>
    <time>2007-06-26T16:43:31Z</time>
    </trkpt>
    <trkpt lat="48.8283706" lon="10.0831962">
    <ele>480</ele>
    <time>2007-06-26T16:50:07Z</time>
    </trkpt>
    <trkpt lat="48.8292718" lon="10.0821877">
    <ele>439</ele>
    <time>2007-08-07T08:15:59Z</time>
    </trkpt>
    <trkpt lat="48.8281972" lon="10.0833591">
    <ele>444</ele>
    <time>2007-08-07T08:16:03Z</time>
    </trkpt>
    <trkpt lat="48.827338" lon="10.0838853">
    <ele>448</ele>
    <time>2007-08-07T08:16:06Z</time>
    </trkpt>
    <trkpt lat="48.827338" lon="10.0838853">
    <ele>457</ele>
    <time>2007-06-26T16:51:48Z</time>
    </trkpt>
    <trkpt lat="48.8265946" lon="10.0816561">
    <ele>471</ele>
    <time>2007-06-26T16:51:55Z</time>
    </trkpt>
    <trkpt lat="48.8264394" lon="10.0810719">
    <ele>466</ele>
    <time>2007-06-26T16:51:59Z</time>
    </trkpt>
    <trkpt lat="48.8257313" lon="10.080986">
    <ele>468</ele>
    <time>2007-06-26T16:52:08Z</time>
    </trkpt>
    <trkpt lat="48.8242936" lon="10.0811791">
    <ele>483</ele>
    <time>2007-06-26T16:52:21Z</time>
    </trkpt>
    <trkpt lat="48.8213754" lon="10.0815868">
    <ele>503</ele>
    <time>2007-06-26T16:52:46Z</time>
    </trkpt>
    <trkpt lat="48.8210535" lon="10.0812221">
    <ele>504</ele>
    <time>2007-06-26T16:52:50Z</time>
    </trkpt>
    <trkpt lat="48.8203025" lon="10.079205">
    <ele>511</ele>
    <time>2007-06-26T16:53:05Z</time>
    </trkpt>
    <trkpt lat="48.8201094" lon="10.0788832">
    <ele>513</ele>
    <time>2007-06-26T16:53:09Z</time>
    </trkpt>
    <trkpt lat="48.8199377" lon="10.078733">
    <ele>514</ele>
    <time>2007-06-26T16:53:12Z</time>
    </trkpt>
    <trkpt lat="48.8198304" lon="10.0785398">
    <ele>516</ele>
    <time>2007-06-26T16:53:16Z</time>
    </trkpt>
    <trkpt lat="48.8198304" lon="10.0784111">
    <ele>518</ele>
    <time>2007-06-26T16:53:27Z</time>
    </trkpt>
    <trkpt lat="48.8198304" lon="10.0784111">
    <ele>519</ele>
    <time>2007-06-26T16:54:28Z</time>
    </trkpt>
    <trkpt lat="48.819766" lon="10.0784111">
    <ele>533</ele>
    <time>2007-06-27T04:42:05Z</time>
    </trkpt>
    <trkpt lat="48.8197875" lon="10.0784326">
    <ele>530</ele>
    <time>2007-06-27T04:43:25Z</time>
    </trkpt>
    <trkpt lat="48.8197875" lon="10.078454">
    <ele>532</ele>
    <time>2007-06-27T04:43:59Z</time>
    </trkpt>
    <trkpt lat="48.819766" lon="10.0785184">
    <ele>532</ele>
    <time>2007-06-27T04:44:04Z</time>
    </trkpt>
    <trkpt lat="48.819015" lon="10.0781322">
    <ele>532</ele>
    <time>2007-06-27T04:44:18Z</time>
    </trkpt>
    <trkpt lat="48.8184357" lon="10.0776601">
    <ele>532</ele>
    <time>2007-06-27T04:44:26Z</time>
    </trkpt>
    <trkpt lat="48.8181782" lon="10.0769949">
    <ele>532</ele>
    <time>2007-06-27T04:44:33Z</time>
    </trkpt>
    <trkpt lat="48.8174272" lon="10.0751925">
    <ele>540</ele>
    <time>2007-06-27T04:44:51Z</time>
    </trkpt>
    <trkpt lat="48.8169358" lon="10.0743203">
    <ele>542</ele>
    <time>2007-06-27T04:45:04Z</time>
    </trkpt>
    <trkpt lat="48.8169358" lon="10.0743203">
    <ele>545</ele>
    <time>2007-06-27T04:45:23Z</time>
    </trkpt>
    <trkpt lat="48.8167743" lon="10.0745183">
    <ele>619</ele>
    <time>2007-06-27T04:46:34Z</time>
    </trkpt>
    <trkpt lat="48.8166241" lon="10.0749381">
    <ele>618</ele>
    <time>2007-06-27T04:46:40Z</time>
    </trkpt>
    <trkpt lat="48.8159737" lon="10.0747832">
    <ele>575</ele>
    <time>2007-06-27T04:46:43Z</time>
    </trkpt>
    <trkpt lat="48.8156618" lon="10.0739909">
    <ele>618</ele>
    <time>2007-06-27T04:46:47Z</time>
    </trkpt>
    <trkpt lat="48.8155995" lon="10.0735464">
    <ele>625</ele>
    <time>2007-06-27T04:47:00Z</time>
    </trkpt>
    <trkpt lat="48.815311" lon="10.0730971">
    <ele>623</ele>
    <time>2007-06-27T04:47:24Z</time>
    </trkpt>
    <trkpt lat="48.8151027" lon="10.0726093">
    <ele>622</ele>
    <time>2007-06-27T04:47:28Z</time>
    </trkpt>
    <trkpt lat="48.8146584" lon="10.0717538">
    <ele>622</ele>
    <time>2007-06-27T04:47:32Z</time>
    </trkpt>
    <trkpt lat="48.8146584" lon="10.0717538">
    <ele>572</ele>
    <time>2007-06-27T04:51:59Z</time>
    </trkpt>
    <trkpt lat="48.8144445" lon="10.0715232">
    <ele>639</ele>
    <time>2007-06-27T04:52:10Z</time>
    </trkpt>
    <trkpt lat="48.8144445" lon="10.0715232">
    <ele>656</ele>
    <time>2007-06-27T04:52:35Z</time>
    </trkpt>
    <trkpt lat="48.8144016" lon="10.0712657">
    <ele>639</ele>
    <time>2007-06-27T04:53:37Z</time>
    </trkpt>
    <trkpt lat="48.8143158" lon="10.0709867">
    <ele>639</ele>
    <time>2007-06-27T04:53:46Z</time>
    </trkpt>
    <trkpt lat="48.8143789" lon="10.0703379">
    <ele>639</ele>
    <time>2007-06-27T04:53:52Z</time>
    </trkpt>
    <trkpt lat="48.8143587" lon="10.0691199">
    <ele>637</ele>
    <time>2007-06-27T04:53:58Z</time>
    </trkpt>
    <trkpt lat="48.8145947" lon="10.0673819">
    <ele>635</ele>
    <time>2007-06-27T04:54:23Z</time>
    </trkpt>
    <trkpt lat="48.8147449" lon="10.0665879">
    <ele>633</ele>
    <time>2007-06-27T04:54:34Z</time>
    </trkpt>
    <trkpt lat="48.814702" lon="10.0664163">
    <ele>634</ele>
    <time>2007-06-27T04:54:37Z</time>
    </trkpt>
    <trkpt lat="48.8145947" lon="10.0661802">
    <ele>635</ele>
    <time>2007-06-27T04:54:43Z</time>
    </trkpt>
    <trkpt lat="48.8145947" lon="10.0661588">
    <ele>635</ele>
    <time>2007-06-27T04:54:45Z</time>
    </trkpt>
    <trkpt lat="48.8142514" lon="10.065794">
    <ele>635</ele>
    <time>2007-06-27T04:54:58Z</time>
    </trkpt>
    <trkpt lat="48.8133287" lon="10.064764">
    <ele>640</ele>
    <time>2007-06-27T04:55:24Z</time>
    </trkpt>
    <trkpt lat="48.8132644" lon="10.0646567">
    <ele>639</ele>
    <time>2007-06-27T04:55:38Z</time>
    </trkpt>
    <trkpt lat="48.8131785" lon="10.0644851">
    <ele>640</ele>
    <time>2007-06-27T04:55:53Z</time>
    </trkpt>
    <trkpt lat="48.8128567" lon="10.0633478">
    <ele>640</ele>
    <time>2007-06-27T04:56:15Z</time>
    </trkpt>
    <trkpt lat="48.8125134" lon="10.061996">
    <ele>640</ele>
    <time>2007-06-27T04:56:40Z</time>
    </trkpt>
    <trkpt lat="48.8118052" lon="10.0619316">
    <ele>643</ele>
    <time>2007-06-27T04:56:57Z</time>
    </trkpt>
    <trkpt lat="48.8114405" lon="10.0618672">
    <ele>642</ele>
    <time>2007-06-27T04:57:05Z</time>
    </trkpt>
    <trkpt lat="48.8109469" lon="10.0616956">
    <ele>643</ele>
    <time>2007-06-27T04:57:22Z</time>
    </trkpt>
    <trkpt lat="48.8107753" lon="10.061481">
    <ele>642</ele>
    <time>2007-06-27T04:57:42Z</time>
    </trkpt>
    <trkpt lat="48.810389" lon="10.0612235">
    <ele>641</ele>
    <time>2007-06-27T04:57:59Z</time>
    </trkpt>
    <trkpt lat="48.8102818" lon="10.0612664">
    <ele>640</ele>
    <time>2007-06-27T04:58:02Z</time>
    </trkpt>
    <trkpt lat="48.8101959" lon="10.0613523">
    <ele>640</ele>
    <time>2007-06-27T04:58:04Z</time>
    </trkpt>
    <trkpt lat="48.8101101" lon="10.0615025">
    <ele>640</ele>
    <time>2007-06-27T04:58:07Z</time>
    </trkpt>
    <trkpt lat="48.8100457" lon="10.0617814">
    <ele>641</ele>
    <time>2007-06-27T04:58:11Z</time>
    </trkpt>
    <trkpt lat="48.8099404946273" lon="10.0642308323459">
    <ele>642</ele>
    <time>2007-06-27T04:58:52Z</time>
    </trkpt>
    <trkpt lat="48.8099672401656" lon="10.0650797243238">
    <ele>644</ele>
    <time>2007-06-27T04:59:02Z</time>
    </trkpt>
    <trkpt lat="48.8089972590817" lon="10.0652476914351">
    <ele>639</ele>
    <time>2007-06-27T05:00:30Z</time>
    </trkpt>
    <trkpt lat="48.8082218" lon="10.0621462">
    <ele>633</ele>
    <time>2007-06-27T05:01:21Z</time>
    </trkpt>
    <trkpt lat="48.8078356" lon="10.0606012">
    <ele>633</ele>
    <time>2007-06-27T05:01:40Z</time>
    </trkpt>
    <trkpt lat="48.8077927" lon="10.0600004">
    <ele>635</ele>
    <time>2007-06-27T05:01:47Z</time>
    </trkpt>
    <trkpt lat="48.8074064" lon="10.0581765">
    <ele>642</ele>
    <time>2007-06-27T05:02:09Z</time>
    </trkpt>
    <trkpt lat="48.8074279" lon="10.0579834">
    <ele>644</ele>
    <time>2007-06-27T05:02:18Z</time>
    </trkpt>
    <trkpt lat="48.8074708" lon="10.0580049">
    <ele>657</ele>
    <time>2007-06-27T05:03:26Z</time>
    </trkpt>
    <trkpt lat="48.8075566" lon="10.0569534">
    <ele>657</ele>
    <time>2007-06-27T05:03:42Z</time>
    </trkpt>
    <trkpt lat="48.8075995" lon="10.056417">
    <ele>657</ele>
    <time>2007-06-27T05:03:53Z</time>
    </trkpt>
    <trkpt lat="48.8075995" lon="10.0555587">
    <ele>656</ele>
    <time>2007-06-27T05:04:02Z</time>
    </trkpt>
    <trkpt lat="48.8074493" lon="10.0530481">
    <ele>655</ele>
    <time>2007-06-27T05:04:28Z</time>
    </trkpt>
    <trkpt lat="48.807106" lon="10.05234">
    <ele>653</ele>
    <time>2007-06-27T05:04:40Z</time>
    </trkpt>
    <trkpt lat="48.8070416" lon="10.0522971">
    <ele>654</ele>
    <time>2007-06-27T05:05:00Z</time>
    </trkpt>
    <trkpt lat="48.8069773" lon="10.0522327">
    <ele>649</ele>
    <time>2007-06-27T05:05:23Z</time>
    </trkpt>
    <trkpt lat="48.8065696" lon="10.0514174">
    <ele>649</ele>
    <time>2007-06-27T05:05:33Z</time>
    </trkpt>
    <trkpt lat="48.805604" lon="10.0501513">
    <ele>647</ele>
    <time>2007-06-27T05:05:50Z</time>
    </trkpt>
    <trkpt lat="48.8048959" lon="10.0492501">
    <ele>647</ele>
    <time>2007-06-27T05:06:04Z</time>
    </trkpt>
    <trkpt lat="48.804059" lon="10.0490141">
    <ele>649</ele>
    <time>2007-06-27T05:06:15Z</time>
    </trkpt>
    <trkpt lat="48.8039732" lon="10.0489926">
    <ele>649</ele>
    <time>2007-06-27T05:06:16Z</time>
    </trkpt>
    <trkpt lat="48.8026428" lon="10.0487995">
    <ele>649</ele>
    <time>2007-06-27T05:06:35Z</time>
    </trkpt>
    <trkpt lat="48.8019133" lon="10.0475335">
    <ele>648</ele>
    <time>2007-06-27T05:06:52Z</time>
    </trkpt>
    <trkpt lat="48.8016129" lon="10.0469112">
    <ele>647</ele>
    <time>2007-06-27T05:07:04Z</time>
    </trkpt>
    <trkpt lat="48.8014627" lon="10.0465035">
    <ele>658</ele>
    <time>2007-06-27T05:09:04Z</time>
    </trkpt>
    <trkpt lat="48.8013124" lon="10.0464392">
    <ele>657</ele>
    <time>2007-06-27T05:09:08Z</time>
    </trkpt>
    <trkpt lat="48.8009691" lon="10.0462675">
    <ele>655</ele>
    <time>2007-06-27T05:09:14Z</time>
    </trkpt>
    <trkpt lat="48.799525" lon="10.0466896">
    <ele>656</ele>
    <time>2007-06-27T05:09:40Z</time>
    </trkpt>
    <trkpt lat="48.7992991" lon="10.0466648">
    <ele>662</ele>
    <time>2007-06-27T05:09:55Z</time>
    </trkpt>
    <trkpt lat="48.7989791" lon="10.0467386">
    <ele>664</ele>
    <time>2007-06-27T05:10:29Z</time>
    </trkpt>
    <trkpt lat="48.7987662" lon="10.0467543">
    <ele>664</ele>
    <time>2007-06-27T05:10:47Z</time>
    </trkpt>
    <trkpt lat="48.7984464" lon="10.0468081">
    <ele>663</ele>
    <time>2007-06-27T05:10:58Z</time>
    </trkpt>
    <trkpt lat="48.7981403" lon="10.0468219">
    <ele>650</ele>
    <time>2007-06-27T05:11:10Z</time>
    </trkpt>
    <trkpt lat="48.7978341" lon="10.0468558">
    <ele>660</ele>
    <time>2007-06-27T05:11:22Z</time>
    </trkpt>
    <trkpt lat="48.7972618" lon="10.0468841">
    <ele>662</ele>
    <time>2007-06-27T05:11:30Z</time>
    </trkpt>
    <trkpt lat="48.7961814" lon="10.0472039">
    <ele>662</ele>
    <time>2007-06-27T05:11:32Z</time>
    </trkpt>
    <trkpt lat="48.7955943" lon="10.0473931">
    <ele>661</ele>
    <time>2007-06-27T05:11:41Z</time>
    </trkpt>
    <trkpt lat="48.7955943" lon="10.0473931">
    <ele>618</ele>
    <time>2007-06-27T05:20:29Z</time>
    </trkpt>
    <trkpt lat="48.7955618" lon="10.0452805">
    <ele>622</ele>
    <time>2007-06-27T05:20:52Z</time>
    </trkpt>
    <trkpt lat="48.7955618" lon="10.0450015">
    <ele>623</ele>
    <time>2007-06-27T05:20:56Z</time>
    </trkpt>
    <trkpt lat="48.7954974" lon="10.0449371">
    <ele>623</ele>
    <time>2007-06-27T05:21:04Z</time>
    </trkpt>
    <trkpt lat="48.7954116" lon="10.0450444">
    <ele>624</ele>
    <time>2007-06-27T05:21:15Z</time>
    </trkpt>
    <trkpt lat="48.7952185" lon="10.0453877">
    <ele>624</ele>
    <time>2007-06-27T05:21:53Z</time>
    </trkpt>
    <trkpt lat="48.7945533" lon="10.046804">
    <ele>627</ele>
    <time>2007-06-27T05:22:08Z</time>
    </trkpt>
    <trkpt lat="48.7944245" lon="10.0471258">
    <ele>627</ele>
    <time>2007-06-27T05:22:11Z</time>
    </trkpt>
    <trkpt lat="48.7936306" lon="10.04807">
    <ele>634</ele>
    <time>2007-06-27T05:22:23Z</time>
    </trkpt>
    <trkpt lat="48.7933087" lon="10.048306">
    <ele>637</ele>
    <time>2007-06-27T05:22:28Z</time>
    </trkpt>
    <trkpt lat="48.7929654" lon="10.0486708">
    <ele>638</ele>
    <time>2007-06-27T05:22:34Z</time>
    </trkpt>
    <trkpt lat="48.7929940952619" lon="10.0501571145032">
    <ele>638</ele>
    <time>2007-06-27T05:22:50Z</time>
    </trkpt>
    <trkpt lat="48.7930019920146" lon="10.0517565137809">
    <ele>638</ele>
    <time>2007-06-27T05:23:01Z</time>
    </trkpt>
    <trkpt lat="48.7924504" lon="10.0517607">
    <ele>638</ele>
    <time>2007-06-27T05:23:05Z</time>
    </trkpt>
    <trkpt lat="48.7923646" lon="10.0517607">
    <ele>638</ele>
    <time>2007-06-27T05:23:07Z</time>
    </trkpt>
    <trkpt lat="48.7922573" lon="10.0516105">
    <ele>638</ele>
    <time>2007-06-27T05:23:10Z</time>
    </trkpt>
    <trkpt lat="48.7921715" lon="10.0511813">
    <ele>638</ele>
    <time>2007-06-27T05:23:15Z</time>
    </trkpt>
    <trkpt lat="48.7920213" lon="10.0501943">
    <ele>641</ele>
    <time>2007-06-27T05:23:30Z</time>
    </trkpt>
    <trkpt lat="48.7920427" lon="10.050087">
    <ele>662</ele>
    <time>2007-06-27T05:25:22Z</time>
    </trkpt>
    <trkpt lat="48.7911415" lon="10.0503445">
    <ele>666</ele>
    <time>2007-06-27T05:25:39Z</time>
    </trkpt>
    <trkpt lat="48.7897682" lon="10.0509882">
    <ele>667</ele>
    <time>2007-06-27T05:26:05Z</time>
    </trkpt>
    <trkpt lat="48.789618" lon="10.0510526">
    <ele>669</ele>
    <time>2007-06-27T05:27:09Z</time>
    </trkpt>
    <trkpt lat="48.7887812" lon="10.0512457">
    <ele>675</ele>
    <time>2007-06-27T05:27:23Z</time>
    </trkpt>
    <trkpt lat="48.7884378" lon="10.0513315">
    <ele>679</ele>
    <time>2007-06-27T05:27:29Z</time>
    </trkpt>
    <trkpt lat="48.7881374" lon="10.0515461">
    <ele>682</ele>
    <time>2007-06-27T05:27:38Z</time>
    </trkpt>
    <trkpt lat="48.7881374" lon="10.0515676">
    <ele>684</ele>
    <time>2007-06-27T05:28:03Z</time>
    </trkpt>
    <trkpt lat="48.7880087" lon="10.0514174">
    <ele>689</ele>
    <time>2007-06-27T05:29:05Z</time>
    </trkpt>
    <trkpt lat="48.7877512" lon="10.0512242">
    <ele>689</ele>
    <time>2007-06-27T05:29:10Z</time>
    </trkpt>
    <trkpt lat="48.7867641" lon="10.0506663">
    <ele>689</ele>
    <time>2007-06-27T05:29:17Z</time>
    </trkpt>
    <trkpt lat="48.7864637" lon="10.0506449">
    <ele>689</ele>
    <time>2007-06-27T05:29:21Z</time>
    </trkpt>
    <trkpt lat="48.7862062" lon="10.0506663">
    <ele>690</ele>
    <time>2007-06-27T05:29:23Z</time>
    </trkpt>
    <trkpt lat="48.7850904" lon="10.0507522">
    <ele>692</ele>
    <time>2007-06-27T05:29:42Z</time>
    </trkpt>
    <trkpt lat="48.783803" lon="10.0506234">
    <ele>694</ele>
    <time>2007-06-27T05:30:05Z</time>
    </trkpt>
    <trkpt lat="48.7837601" lon="10.0506234">
    <ele>696</ele>
    <time>2007-06-27T05:30:10Z</time>
    </trkpt>
    <trkpt lat="48.7838244" lon="10.0506449">
    <ele>696</ele>
    <time>2007-06-27T05:30:59Z</time>
    </trkpt>
    <trkpt lat="48.7837815" lon="10.0505376">
    <ele>696</ele>
    <time>2007-06-27T05:31:03Z</time>
    </trkpt>
    <trkpt lat="48.7836099" lon="10.0497866">
    <ele>696</ele>
    <time>2007-06-27T05:31:12Z</time>
    </trkpt>
    <trkpt lat="48.7823224" lon="10.0458169">
    <ele>695</ele>
    <time>2007-06-27T05:31:52Z</time>
    </trkpt>
    <trkpt lat="48.7823224" lon="10.0458169">
    <ele>696</ele>
    <time>2007-06-27T05:32:01Z</time>
    </trkpt>
    <trkpt lat="48.7822366" lon="10.045495">
    <ele>697</ele>
    <time>2007-06-27T05:32:40Z</time>
    </trkpt>
    <trkpt lat="48.7819147" lon="10.0453663">
    <ele>696</ele>
    <time>2007-06-27T05:32:47Z</time>
    </trkpt>
    <trkpt lat="48.781394815118" lon="10.045084463928">
    <ele>695</ele>
    <time>2007-06-27T05:33:05Z</time>
    </trkpt>
    <trkpt lat="48.7809191113426" lon="10.042999483483">
    <ele>694</ele>
    <time>2007-06-27T05:33:44Z</time>
    </trkpt>
    <trkpt lat="48.7791607" lon="10.0399234">
    <ele>694</ele>
    <time>2007-06-27T05:34:07Z</time>
    </trkpt>
    <trkpt lat="48.7791302" lon="10.039478">
    <ele>695</ele>
    <time>2007-06-27T05:34:16Z</time>
    </trkpt>
    <trkpt lat="48.7791896" lon="10.0389075">
    <ele>700</ele>
    <time>2007-06-27T05:34:43Z</time>
    </trkpt>
    <trkpt lat="48.779211" lon="10.0388861">
    <ele>709</ele>
    <time>2007-06-27T05:35:11Z</time>
    </trkpt>
    <trkpt lat="48.779254" lon="10.0387573">
    <ele>708</ele>
    <time>2007-06-27T05:35:15Z</time>
    </trkpt>
    <trkpt lat="48.7793827" lon="10.0384784">
    <ele>706</ele>
    <time>2007-06-27T05:35:20Z</time>
    </trkpt>
    <trkpt lat="48.77949" lon="10.0383067">
    <ele>705</ele>
    <time>2007-06-27T05:35:23Z</time>
    </trkpt>
    <trkpt lat="48.7793463" lon="10.0366041">
    <ele>704</ele>
    <time>2007-06-27T05:35:48Z</time>
    </trkpt>
    <trkpt lat="48.7794303" lon="10.0330209">
    <ele>704</ele>
    <time>2007-06-27T05:36:29Z</time>
    </trkpt>
    <trkpt lat="48.7793958" lon="10.0310839">
    <ele>701</ele>
    <time>2007-06-27T05:36:52Z</time>
    </trkpt>
    <trkpt lat="48.7794914" lon="10.0306384">
    <ele>714</ele>
    <time>2007-06-27T05:37:46Z</time>
    </trkpt>
    <trkpt lat="48.779677" lon="10.0299958">
    <ele>716</ele>
    <time>2007-06-27T05:38:01Z</time>
    </trkpt>
    <trkpt lat="48.7801259374962" lon="10.0286956822225">
    <ele>716</ele>
    <time>2007-06-27T05:38:15Z</time>
    </trkpt>
    <trkpt lat="48.7801791" lon="10.0266384">
    <ele>715</ele>
    <time>2007-06-27T05:38:45Z</time>
    </trkpt>
    <trkpt lat="48.7800908" lon="10.0233293">
    <ele>711</ele>
    <time>2007-06-27T05:39:01Z</time>
    </trkpt>
    <trkpt lat="48.7800479" lon="10.0233293">
    <ele>708</ele>
    <time>2007-06-27T05:39:41Z</time>
    </trkpt>
    <trkpt lat="48.7801337" lon="10.022707">
    <ele>706</ele>
    <time>2007-06-27T05:39:52Z</time>
    </trkpt>
    <trkpt lat="48.7801552" lon="10.0226426">
    <ele>706</ele>
    <time>2007-06-27T05:39:53Z</time>
    </trkpt>
    <trkpt lat="48.7801766" lon="10.022428">
    <ele>706</ele>
    <time>2007-06-27T05:39:56Z</time>
    </trkpt>
    <trkpt lat="48.7807765" lon="10.0214929">
    <ele>680</ele>
    <time>2007-06-27T05:40:10Z</time>
    </trkpt>
    <trkpt lat="48.7810216" lon="10.0191951">
    <ele>704</ele>
    <time>2007-06-27T05:40:25Z</time>
    </trkpt>
    <trkpt lat="48.7803918" lon="10.0180572">
    <ele>704</ele>
    <time>2007-06-27T05:40:41Z</time>
    </trkpt>
    <trkpt lat="48.7803918" lon="10.0180572">
    <ele>707</ele>
    <time>2007-06-27T05:41:16Z</time>
    </trkpt>
    <trkpt lat="48.7798548" lon="10.0150251">
    <ele>709</ele>
    <time>2007-06-27T05:41:23Z</time>
    </trkpt>
    <trkpt lat="48.7798762" lon="10.0148106">
    <ele>710</ele>
    <time>2007-06-27T05:41:25Z</time>
    </trkpt>
    <trkpt lat="48.7798119" lon="10.0131583">
    <ele>711</ele>
    <time>2007-06-27T05:41:43Z</time>
    </trkpt>
    <trkpt lat="48.7798333" lon="10.0130939">
    <ele>713</ele>
    <time>2007-06-27T05:41:44Z</time>
    </trkpt>
    <trkpt lat="48.7778567" lon="10.0133431">
    <ele>711</ele>
    <time>2007-06-27T05:42:02Z</time>
    </trkpt>
    <trkpt lat="48.7779272" lon="10.011225">
    <ele>691</ele>
    <time>2007-06-27T05:42:13Z</time>
    </trkpt>
    <trkpt lat="48.7788365" lon="10.0081033">
    <ele>710</ele>
    <time>2007-06-27T05:42:24Z</time>
    </trkpt>
    <trkpt lat="48.7806994" lon="10.0046865">
    <ele>709</ele>
    <time>2007-06-27T05:43:28Z</time>
    </trkpt>
    <trkpt lat="48.7811742" lon="10.0037801">
    <ele>709</ele>
    <time>2007-06-27T05:43:34Z</time>
    </trkpt>
    <trkpt lat="48.7812495" lon="10.0034595">
    <ele>703</ele>
    <time>2007-06-27T05:44:00Z</time>
    </trkpt>
    <trkpt lat="48.7812495" lon="10.0034595">
    <ele>701</ele>
    <time>2007-06-27T05:44:34Z</time>
    </trkpt>
    <trkpt lat="48.7811637" lon="10.001657">
    <ele>695</ele>
    <time>2007-06-27T05:44:47Z</time>
    </trkpt>
    <trkpt lat="48.7809706" lon="9.9999404">
    <ele>693</ele>
    <time>2007-06-27T05:44:58Z</time>
    </trkpt>
    <trkpt lat="48.7801766" lon="9.9971724">
    <ele>694</ele>
    <time>2007-06-27T05:45:17Z</time>
    </trkpt>
    <trkpt lat="48.7796402" lon="9.9956489">
    <ele>692</ele>
    <time>2007-06-27T05:45:29Z</time>
    </trkpt>
    <trkpt lat="48.7788892" lon="9.9939966">
    <ele>684</ele>
    <time>2007-06-27T05:45:45Z</time>
    </trkpt>
    <trkpt lat="48.7788463" lon="9.9938464">
    <ele>684</ele>
    <time>2007-06-27T05:45:54Z</time>
    </trkpt>
    <trkpt lat="48.7788463" lon="9.9938464">
    <ele>685</ele>
    <time>2007-06-27T05:46:25Z</time>
    </trkpt>
    <trkpt lat="48.7788892" lon="9.9936962">
    <ele>685</ele>
    <time>2007-06-27T05:46:29Z</time>
    </trkpt>
    <trkpt lat="48.7793183" lon="9.9928594">
    <ele>685</ele>
    <time>2007-06-27T05:46:39Z</time>
    </trkpt>
    <trkpt lat="48.7796617" lon="9.9920011">
    <ele>686</ele>
    <time>2007-06-27T05:46:46Z</time>
    </trkpt>
    <trkpt lat="48.7801766" lon="9.9899411">
    <ele>691</ele>
    <time>2007-06-27T05:47:03Z</time>
    </trkpt>
    <trkpt lat="48.7800096" lon="9.9864446">
    <ele>691</ele>
    <time>2007-06-27T05:47:10Z</time>
    </trkpt>
    <trkpt lat="48.7798767" lon="9.985814">
    <ele>688</ele>
    <time>2007-06-27T05:47:13Z</time>
    </trkpt>
    <trkpt lat="48.7798921" lon="9.9840088">
    <ele>690</ele>
    <time>2007-06-27T05:47:16Z</time>
    </trkpt>
    <trkpt lat="48.7798768" lon="9.983773">
    <ele>741</ele>
    <time>2007-06-27T05:50:07Z</time>
    </trkpt>
    <trkpt lat="48.7798119" lon="9.983418">
    <ele>746</ele>
    <time>2007-06-27T05:50:52Z</time>
    </trkpt>
    <trkpt lat="48.7798333" lon="9.9830532">
    <ele>744</ele>
    <time>2007-06-27T05:50:57Z</time>
    </trkpt>
    <trkpt lat="48.7798548" lon="9.9827099">
    <ele>740</ele>
    <time>2007-06-27T05:51:07Z</time>
    </trkpt>
    <trkpt lat="48.7798119" lon="9.9822164">
    <ele>736</ele>
    <time>2007-06-27T05:51:23Z</time>
    </trkpt>
    <trkpt lat="48.7796617" lon="9.981122">
    <ele>736</ele>
    <time>2007-06-27T05:51:32Z</time>
    </trkpt>
    <trkpt lat="48.7794042" lon="9.9794269">
    <ele>735</ele>
    <time>2007-06-27T05:51:48Z</time>
    </trkpt>
    <trkpt lat="48.77949" lon="9.9794054">
    <ele>726</ele>
    <time>2007-06-27T05:52:43Z</time>
    </trkpt>
    <trkpt lat="48.77949" lon="9.9793839">
    <ele>726</ele>
    <time>2007-06-27T05:52:46Z</time>
    </trkpt>
    <trkpt lat="48.7789106" lon="9.9795771">
    <ele>722</ele>
    <time>2007-06-27T05:52:55Z</time>
    </trkpt>
    <trkpt lat="48.7777734" lon="9.9797702">
    <ele>715</ele>
    <time>2007-06-27T05:53:10Z</time>
    </trkpt>
    <trkpt lat="48.7776446" lon="9.9797702">
    <ele>712</ele>
    <time>2007-06-27T05:53:18Z</time>
    </trkpt>
    <trkpt lat="48.7773442" lon="9.9797916">
    <ele>708</ele>
    <time>2007-06-27T05:53:35Z</time>
    </trkpt>
    <trkpt lat="48.7764215" lon="9.9800706">
    <ele>704</ele>
    <time>2007-06-27T05:53:45Z</time>
    </trkpt>
    <trkpt lat="48.7748551" lon="9.9800491">
    <ele>706</ele>
    <time>2007-06-27T05:54:00Z</time>
    </trkpt>
    <trkpt lat="48.7742543" lon="9.9799848">
    <ele>708</ele>
    <time>2007-06-27T05:54:07Z</time>
    </trkpt>
    <trkpt lat="48.7741685" lon="9.9798346">
    <ele>710</ele>
    <time>2007-06-27T05:54:14Z</time>
    </trkpt>
    <trkpt lat="48.7742329" lon="9.9793625">
    <ele>713</ele>
    <time>2007-06-27T05:54:53Z</time>
    </trkpt>
    <trkpt lat="48.7743831" lon="9.9774528">
    <ele>713</ele>
    <time>2007-06-27T05:55:09Z</time>
    </trkpt>
    <trkpt lat="48.7745976" lon="9.9752641">
    <ele>706</ele>
    <time>2007-06-27T05:55:25Z</time>
    </trkpt>
    <trkpt lat="48.7748122" lon="9.9731398">
    <ele>703</ele>
    <time>2007-06-27T05:55:42Z</time>
    </trkpt>
    <trkpt lat="48.7748337" lon="9.9730539">
    <ele>703</ele>
    <time>2007-06-27T05:55:50Z</time>
    </trkpt>
    <trkpt lat="48.7748551" lon="9.9730325">
    <ele>703</ele>
    <time>2007-06-27T05:56:52Z</time>
    </trkpt>
    <trkpt lat="48.7748337" lon="9.9727321">
    <ele>703</ele>
    <time>2007-06-27T05:56:56Z</time>
    </trkpt>
    <trkpt lat="48.7747049" lon="9.9706936">
    <ele>705</ele>
    <time>2007-06-27T05:57:10Z</time>
    </trkpt>
    <trkpt lat="48.7744689" lon="9.9670458">
    <ele>711</ele>
    <time>2007-06-27T05:57:36Z</time>
    </trkpt>
    <trkpt lat="48.7744689" lon="9.966445">
    <ele>714</ele>
    <time>2007-06-27T05:57:45Z</time>
    </trkpt>
    <trkpt lat="48.7744689" lon="9.966445">
    <ele>715</ele>
    <time>2007-06-27T05:58:08Z</time>
    </trkpt>
    <trkpt lat="48.7744904" lon="9.966445">
    <ele>713</ele>
    <time>2007-06-27T05:58:52Z</time>
    </trkpt>
    <trkpt lat="48.7744045" lon="9.9664021">
    <ele>714</ele>
    <time>2007-06-27T05:58:57Z</time>
    </trkpt>
    <trkpt lat="48.7744045" lon="9.9663806">
    <ele>714</ele>
    <time>2007-06-27T05:59:01Z</time>
    </trkpt>
    <trkpt lat="48.7744689" lon="9.9663377">
    <ele>715</ele>
    <time>2007-06-27T05:59:14Z</time>
    </trkpt>
    <trkpt lat="48.7746191" lon="9.9663162">
    <ele>710</ele>
    <time>2007-06-27T06:04:42Z</time>
    </trkpt>
    <trkpt lat="48.7748551" lon="9.9663591">
    <ele>709</ele>
    <time>2007-06-27T06:04:55Z</time>
    </trkpt>
    <trkpt lat="48.7749624" lon="9.9661446">
    <ele>707</ele>
    <time>2007-06-27T06:05:12Z</time>
    </trkpt>
    <trkpt lat="48.7750697" lon="9.9655223">
    <ele>709</ele>
    <time>2007-06-27T06:05:38Z</time>
    </trkpt>
    <trkpt lat="48.7751126" lon="9.9647927">
    <ele>709</ele>
    <time>2007-06-27T06:06:12Z</time>
    </trkpt>
    <trkpt lat="48.7751341" lon="9.9643636">
    <ele>711</ele>
    <time>2007-06-27T06:06:37Z</time>
    </trkpt>
    <trkpt lat="48.7752414" lon="9.9634838">
    <ele>711</ele>
    <time>2007-06-27T06:07:46Z</time>
    </trkpt>
    <trkpt lat="48.7755418" lon="9.9632478">
    <ele>714</ele>
    <time>2007-06-27T06:08:17Z</time>
    </trkpt>
    <trkpt lat="48.7759709" lon="9.9625397">
    <ele>716</ele>
    <time>2007-06-27T06:09:10Z</time>
    </trkpt>
    <trkpt lat="48.7762928" lon="9.9619603">
    <ele>718</ele>
    <time>2007-06-27T06:09:43Z</time>
    </trkpt>
    <trkpt lat="48.7765503" lon="9.9617243">
    <ele>722</ele>
    <time>2007-06-27T06:10:04Z</time>
    </trkpt>
    <trkpt lat="48.7768936" lon="9.961338">
    <ele>726</ele>
    <time>2007-06-27T06:10:35Z</time>
    </trkpt>
    <trkpt lat="48.777473" lon="9.9608016">
    <ele>726</ele>
    <time>2007-06-27T06:11:18Z</time>
    </trkpt>
    <trkpt lat="48.7778163" lon="9.9605012">
    <ele>729</ele>
    <time>2007-06-27T06:11:49Z</time>
    </trkpt>
    <trkpt lat="48.7779665" lon="9.9604154">
    <ele>736</ele>
    <time>2007-06-27T06:13:13Z</time>
    </trkpt>
    <trkpt lat="48.7783098" lon="9.960115">
    <ele>737</ele>
    <time>2007-06-27T06:13:39Z</time>
    </trkpt>
    <trkpt lat="48.7786961" lon="9.9597502">
    <ele>738</ele>
    <time>2007-06-27T06:14:06Z</time>
    </trkpt>
    <trkpt lat="48.7791038" lon="9.9594927">
    <ele>738</ele>
    <time>2007-06-27T06:14:35Z</time>
    </trkpt>
    <trkpt lat="48.7793827" lon="9.9593425">
    <ele>740</ele>
    <time>2007-06-27T06:14:57Z</time>
    </trkpt>
    <trkpt lat="48.7793827" lon="9.9593425">
    <ele>740</ele>
    <time>2007-06-27T06:14:59Z</time>
    </trkpt>
    <trkpt lat="48.7794099" lon="9.959358">
    <ele>692</ele>
    <time>2007-06-27T06:30:55Z</time>
    </trkpt>
    <trkpt lat="48.7795703" lon="9.9587854">
    <ele>691</ele>
    <time>2007-06-27T06:31:02Z</time>
    </trkpt>
    <trkpt lat="48.7797115" lon="9.9584479">
    <ele>694</ele>
    <time>2007-06-27T06:31:06Z</time>
    </trkpt>
    <trkpt lat="48.7798025" lon="9.9579001">
    <ele>697</ele>
    <time>2007-06-27T06:31:09Z</time>
    </trkpt>
    <trkpt lat="48.7798741" lon="9.9576136">
    <ele>708</ele>
    <time>2007-06-27T06:31:23Z</time>
    </trkpt>
    <trkpt lat="48.7800479" lon="9.9577761">
    <ele>708</ele>
    <time>2007-06-27T06:31:34Z</time>
    </trkpt>
    <trkpt lat="48.780005" lon="9.957819">
    <ele>708</ele>
    <time>2007-06-27T06:32:05Z</time>
    </trkpt>
    <trkpt lat="48.7803483" lon="9.9577761">
    <ele>709</ele>
    <time>2007-06-27T06:32:17Z</time>
    </trkpt>
    <trkpt lat="48.7815543" lon="9.9572793">
    <ele>714</ele>
    <time>2007-06-27T06:32:45Z</time>
    </trkpt>
    <trkpt lat="48.7822312" lon="9.9569781">
    <ele>714</ele>
    <time>2007-06-27T06:32:58Z</time>
    </trkpt>
    <trkpt lat="48.7837386" lon="9.956274">
    <ele>715</ele>
    <time>2007-06-27T06:33:16Z</time>
    </trkpt>
    <trkpt lat="48.784318" lon="9.9561667">
    <ele>714</ele>
    <time>2007-06-27T06:33:27Z</time>
    </trkpt>
    <trkpt lat="48.7845755" lon="9.9562526">
    <ele>714</ele>
    <time>2007-06-27T06:33:31Z</time>
    </trkpt>
    <trkpt lat="48.7854338" lon="9.9564886">
    <ele>714</ele>
    <time>2007-06-27T06:33:46Z</time>
    </trkpt>
    <trkpt lat="48.7864423" lon="9.9566388">
    <ele>715</ele>
    <time>2007-06-27T06:34:08Z</time>
    </trkpt>
    <trkpt lat="48.7880087" lon="9.9567461">
    <ele>715</ele>
    <time>2007-06-27T06:34:45Z</time>
    </trkpt>
    <trkpt lat="48.7884164" lon="9.9567676">
    <ele>715</ele>
    <time>2007-06-27T06:34:53Z</time>
    </trkpt>
    <trkpt lat="48.7886095" lon="9.9566603">
    <ele>710</ele>
    <time>2007-06-27T06:35:08Z</time>
    </trkpt>
    <trkpt lat="48.7892837" lon="9.9561229">
    <ele>699</ele>
    <time>2007-06-27T06:36:22Z</time>
    </trkpt>
    <trkpt lat="48.7893323" lon="9.9556815">
    <ele>699</ele>
    <time>2007-06-27T06:36:34Z</time>
    </trkpt>
    <trkpt lat="48.7893385" lon="9.9549331">
    <ele>699</ele>
    <time>2007-06-27T06:36:37Z</time>
    </trkpt>
    <trkpt lat="48.7892286" lon="9.9546248">
    <ele>699</ele>
    <time>2007-06-27T06:36:44Z</time>
    </trkpt>
    <trkpt lat="48.7891432" lon="9.9540789">
    <ele>699</ele>
    <time>2007-06-27T06:37:04Z</time>
    </trkpt>
    <trkpt lat="48.7890146" lon="9.9533279">
    <ele>699</ele>
    <time>2007-06-27T06:37:09Z</time>
    </trkpt>
    <trkpt lat="48.7888626" lon="9.9526786">
    <ele>696</ele>
    <time>2007-06-27T06:37:27Z</time>
    </trkpt>
    <trkpt lat="48.7879033" lon="9.9517758">
    <ele>696</ele>
    <time>2007-06-27T06:37:50Z</time>
    </trkpt>
    <trkpt lat="48.7879033" lon="9.9517758">
    <ele>696</ele>
    <time>2007-06-27T06:38:06Z</time>
    </trkpt>
    <trkpt lat="48.785281" lon="9.9508077">
    <ele>696</ele>
    <time>2007-06-27T06:38:09Z</time>
    </trkpt>
    <trkpt lat="48.7837505" lon="9.9510169">
    <ele>696</ele>
    <time>2007-06-27T06:38:24Z</time>
    </trkpt>
    <trkpt lat="48.7839746" lon="9.9502873">
    <ele>696</ele>
    <time>2007-06-27T06:38:26Z</time>
    </trkpt>
    <trkpt lat="48.7855411" lon="9.9490643">
    <ele>583</ele>
    <time>2007-06-27T06:38:35Z</time>
    </trkpt>
    <trkpt lat="48.7857342" lon="9.9484849">
    <ele>583</ele>
    <time>2007-06-27T06:38:41Z</time>
    </trkpt>
    <trkpt lat="48.7860131" lon="9.9471545">
    <ele>583</ele>
    <time>2007-06-27T06:38:50Z</time>
    </trkpt>
    <trkpt lat="48.7861419" lon="9.9454594">
    <ele>541</ele>
    <time>2007-06-27T06:39:04Z</time>
    </trkpt>
    <trkpt lat="48.7862706" lon="9.9452019">
    <ele>529</ele>
    <time>2007-06-27T06:39:11Z</time>
    </trkpt>
    <trkpt lat="48.786335" lon="9.9451804">
    <ele>526</ele>
    <time>2007-06-27T06:39:20Z</time>
    </trkpt>
    <trkpt lat="48.7863135" lon="9.9453092">
    <ele>526</ele>
    <time>2007-06-27T06:40:41Z</time>
    </trkpt>
    <trkpt lat="48.7872362" lon="9.9421763">
    <ele>526</ele>
    <time>2007-06-27T06:41:01Z</time>
    </trkpt>
    <trkpt lat="48.7871933" lon="9.942112">
    <ele>533</ele>
    <time>2007-06-27T06:41:21Z</time>
    </trkpt>
    <trkpt lat="48.7871718" lon="9.9417686">
    <ele>534</ele>
    <time>2007-06-27T06:41:45Z</time>
    </trkpt>
    <trkpt lat="48.7873435" lon="9.9408245">
    <ele>525</ele>
    <time>2007-06-27T06:41:57Z</time>
    </trkpt>
    <trkpt lat="48.7874293" lon="9.9401593">
    <ele>522</ele>
    <time>2007-06-27T06:42:03Z</time>
    </trkpt>
    <trkpt lat="48.7874508" lon="9.9396014">
    <ele>518</ele>
    <time>2007-06-27T06:42:09Z</time>
    </trkpt>
    <trkpt lat="48.7875795" lon="9.9385071">
    <ele>505</ele>
    <time>2007-06-27T06:42:19Z</time>
    </trkpt>
    <trkpt lat="48.7878156" lon="9.9374342">
    <ele>500</ele>
    <time>2007-06-27T06:42:29Z</time>
    </trkpt>
    <trkpt lat="48.7879658" lon="9.9370265">
    <ele>499</ele>
    <time>2007-06-27T06:42:34Z</time>
    </trkpt>
    <trkpt lat="48.7879014" lon="9.9366403">
    <ele>494</ele>
    <time>2007-06-27T06:42:39Z</time>
    </trkpt>
    <trkpt lat="48.787601" lon="9.9363828">
    <ele>489</ele>
    <time>2007-06-27T06:42:49Z</time>
    </trkpt>
    <trkpt lat="48.7876225" lon="9.9364257">
    <ele>480</ele>
    <time>2007-06-27T06:44:12Z</time>
    </trkpt>
    <trkpt lat="48.7876225" lon="9.9364257">
    <ele>480</ele>
    <time>2007-06-27T06:44:16Z</time>
    </trkpt>
    <trkpt lat="48.787601" lon="9.9362326">
    <ele>432</ele>
    <time>2007-06-27T07:34:01Z</time>
    </trkpt>
    <trkpt lat="48.787601" lon="9.9362326">
    <ele>432</ele>
    <time>2007-06-27T07:34:17Z</time>
    </trkpt>
    <trkpt lat="48.7873864" lon="9.9356318">
    <ele>463</ele>
    <time>2007-06-27T07:34:19Z</time>
    </trkpt>
    <trkpt lat="48.7873435" lon="9.9352884">
    <ele>462</ele>
    <time>2007-06-27T07:34:23Z</time>
    </trkpt>
    <trkpt lat="48.7872362" lon="9.9350953">
    <ele>463</ele>
    <time>2007-06-27T07:34:26Z</time>
    </trkpt>
    <trkpt lat="48.787086" lon="9.9349451">
    <ele>470</ele>
    <time>2007-06-27T07:34:36Z</time>
    </trkpt>
    <trkpt lat="48.7870646" lon="9.9347305">
    <ele>476</ele>
    <time>2007-06-27T07:35:33Z</time>
    </trkpt>
    <trkpt lat="48.7869573" lon="9.9345589">
    <ele>476</ele>
    <time>2007-06-27T07:35:37Z</time>
    </trkpt>
    <trkpt lat="48.7868714" lon="9.9344301">
    <ele>476</ele>
    <time>2007-06-27T07:35:39Z</time>
    </trkpt>
    <trkpt lat="48.7866139" lon="9.9341297">
    <ele>477</ele>
    <time>2007-06-27T07:35:43Z</time>
    </trkpt>
    <trkpt lat="48.7864423" lon="9.9339151">
    <ele>478</ele>
    <time>2007-06-27T07:35:46Z</time>
    </trkpt>
    <trkpt lat="48.7862062" lon="9.9336147">
    <ele>480</ele>
    <time>2007-06-27T07:35:50Z</time>
    </trkpt>
    <trkpt lat="48.7854338" lon="9.9331427">
    <ele>485</ele>
    <time>2007-06-27T07:36:04Z</time>
    </trkpt>
    <trkpt lat="48.7851119" lon="9.9329925">
    <ele>486</ele>
    <time>2007-06-27T07:36:10Z</time>
    </trkpt>
    <trkpt lat="48.7850046" lon="9.932735">
    <ele>487</ele>
    <time>2007-06-27T07:36:18Z</time>
    </trkpt>
    <trkpt lat="48.7848759" lon="9.9324346">
    <ele>492</ele>
    <time>2007-06-27T07:37:14Z</time>
    </trkpt>
    <trkpt lat="48.7842751" lon="9.9317694">
    <ele>491</ele>
    <time>2007-06-27T07:37:24Z</time>
    </trkpt>
    <trkpt lat="48.7831163" lon="9.9306536">
    <ele>493</ele>
    <time>2007-06-27T07:37:40Z</time>
    </trkpt>
    <trkpt lat="48.7816143" lon="9.9297309">
    <ele>494</ele>
    <time>2007-06-27T07:37:58Z</time>
    </trkpt>
    <trkpt lat="48.7810564" lon="9.9294519">
    <ele>492</ele>
    <time>2007-06-27T07:38:04Z</time>
    </trkpt>
    <trkpt lat="48.780756" lon="9.9290657">
    <ele>492</ele>
    <time>2007-06-27T07:38:08Z</time>
    </trkpt>
    <trkpt lat="48.7798548" lon="9.9269629">
    <ele>496</ele>
    <time>2007-06-27T07:38:22Z</time>
    </trkpt>
    <trkpt lat="48.7783957" lon="9.924345">
    <ele>509</ele>
    <time>2007-06-27T07:38:41Z</time>
    </trkpt>
    <trkpt lat="48.7771511" lon="9.9218345">
    <ele>513</ele>
    <time>2007-06-27T07:38:58Z</time>
    </trkpt>
    <trkpt lat="48.776722" lon="9.9210835">
    <ele>512</ele>
    <time>2007-06-27T07:39:04Z</time>
    </trkpt>
    <trkpt lat="48.7764645" lon="9.9208045">
    <ele>513</ele>
    <time>2007-06-27T07:39:08Z</time>
    </trkpt>
    <trkpt lat="48.775928" lon="9.9206758">
    <ele>514</ele>
    <time>2007-06-27T07:39:15Z</time>
    </trkpt>
    <trkpt lat="48.7757134" lon="9.9204397">
    <ele>513</ele>
    <time>2007-06-27T07:39:19Z</time>
    </trkpt>
    <trkpt lat="48.775413" lon="9.9199462">
    <ele>511</ele>
    <time>2007-06-27T07:39:25Z</time>
    </trkpt>
    <trkpt lat="48.7753272" lon="9.9198174">
    <ele>512</ele>
    <time>2007-06-27T07:39:27Z</time>
    </trkpt>
    <trkpt lat="48.7745762" lon="9.9183154">
    <ele>514</ele>
    <time>2007-06-27T07:39:45Z</time>
    </trkpt>
    <trkpt lat="48.7743831" lon="9.9179292">
    <ele>514</ele>
    <time>2007-06-27T07:39:50Z</time>
    </trkpt>
    <trkpt lat="48.7742543" lon="9.9174571">
    <ele>517</ele>
    <time>2007-06-27T07:39:55Z</time>
    </trkpt>
    <trkpt lat="48.7740397" lon="9.9158478">
    <ele>525</ele>
    <time>2007-06-27T07:40:07Z</time>
    </trkpt>
    <trkpt lat="48.7735248" lon="9.9137664">
    <ele>529</ele>
    <time>2007-06-27T07:40:22Z</time>
    </trkpt>
    <trkpt lat="48.7732458" lon="9.9134016">
    <ele>533</ele>
    <time>2007-06-27T07:40:28Z</time>
    </trkpt>
    <trkpt lat="48.7723231" lon="9.9128652">
    <ele>543</ele>
    <time>2007-06-27T07:40:40Z</time>
    </trkpt>
    <trkpt lat="48.7720656" lon="9.912436">
    <ele>546</ele>
    <time>2007-06-27T07:40:45Z</time>
    </trkpt>
    <trkpt lat="48.7718511" lon="9.9122429">
    <ele>550</ele>
    <time>2007-06-27T07:40:50Z</time>
    </trkpt>
    <trkpt lat="48.7711872" lon="9.9115985">
    <ele>555</ele>
    <time>2007-06-27T07:41:05Z</time>
    </trkpt>
    <trkpt lat="48.7709868" lon="9.9113568">
    <ele>554</ele>
    <time>2007-06-27T07:41:09Z</time>
    </trkpt>
    <trkpt lat="48.770765" lon="9.9109786">
    <ele>557</ele>
    <time>2007-06-27T07:41:18Z</time>
    </trkpt>
    <trkpt lat="48.7706109" lon="9.9105677">
    <ele>562</ele>
    <time>2007-06-27T07:41:27Z</time>
    </trkpt>
    <trkpt lat="48.770233" lon="9.9100167">
    <ele>565</ele>
    <time>2007-06-27T07:41:41Z</time>
    </trkpt>
    <trkpt lat="48.7697417" lon="9.9095997">
    <ele>566</ele>
    <time>2007-06-27T07:41:45Z</time>
    </trkpt>
    <trkpt lat="48.7695873" lon="9.9092228">
    <ele>567</ele>
    <time>2007-06-27T07:41:56Z</time>
    </trkpt>
    <trkpt lat="48.7694996" lon="9.9089492">
    <ele>584</ele>
    <time>2007-06-27T07:42:38Z</time>
    </trkpt>
    <trkpt lat="48.7695464" lon="9.9087119">
    <ele>589</ele>
    <time>2007-06-27T07:42:43Z</time>
    </trkpt>
    <trkpt lat="48.7692341" lon="9.9084002">
    <ele>603</ele>
    <time>2007-06-27T07:43:11Z</time>
    </trkpt>
    <trkpt lat="48.7693191" lon="9.9080157">
    <ele>608</ele>
    <time>2007-06-27T07:43:23Z</time>
    </trkpt>
    <trkpt lat="48.7693834" lon="9.9079728">
    <ele>636</ele>
    <time>2007-06-27T07:44:51Z</time>
    </trkpt>
    <trkpt lat="48.7693191" lon="9.9079084">
    <ele>638</ele>
    <time>2007-06-27T07:45:01Z</time>
    </trkpt>
    <trkpt lat="48.7692547" lon="9.907887">
    <ele>642</ele>
    <time>2007-06-27T07:45:58Z</time>
    </trkpt>
    <trkpt lat="48.7691474" lon="9.9078441">
    <ele>642</ele>
    <time>2007-06-27T07:46:01Z</time>
    </trkpt>
    <trkpt lat="48.7689114" lon="9.9080372">
    <ele>643</ele>
    <time>2007-06-27T07:46:06Z</time>
    </trkpt>
    <trkpt lat="48.7685037" lon="9.9085522">
    <ele>645</ele>
    <time>2007-06-27T07:46:19Z</time>
    </trkpt>
    <trkpt lat="48.7679672" lon="9.9098611">
    <ele>649</ele>
    <time>2007-06-27T07:46:46Z</time>
    </trkpt>
    <trkpt lat="48.7665939" lon="9.9118567">
    <ele>651</ele>
    <time>2007-06-27T07:47:25Z</time>
    </trkpt>
    <trkpt lat="48.766554" lon="9.9118547">
    <ele>651</ele>
    <time>2007-06-27T07:47:39Z</time>
    </trkpt>
    <trkpt lat="48.7657736" lon="9.913881">
    <ele>651</ele>
    <time>2007-06-27T07:47:54Z</time>
    </trkpt>
    <trkpt lat="48.7656762" lon="9.9148315">
    <ele>651</ele>
    <time>2007-06-27T07:48:24Z</time>
    </trkpt>
    <trkpt lat="48.7654013" lon="9.9154726">
    <ele>651</ele>
    <time>2007-06-27T07:48:26Z</time>
    </trkpt>
    <trkpt lat="48.7643873" lon="9.9157603">
    <ele>671</ele>
    <time>2007-06-27T07:48:33Z</time>
    </trkpt>
    <trkpt lat="48.7641152" lon="9.9160614">
    <ele>780</ele>
    <time>2007-06-27T07:48:40Z</time>
    </trkpt>
    <trkpt lat="48.7637301" lon="9.9164284">
    <ele>744</ele>
    <time>2007-06-27T07:50:42Z</time>
    </trkpt>
    <trkpt lat="48.7635684" lon="9.9166203">
    <ele>746</ele>
    <time>2007-06-27T07:51:08Z</time>
    </trkpt>
    <trkpt lat="48.763504" lon="9.9166203">
    <ele>746</ele>
    <time>2007-06-27T07:51:13Z</time>
    </trkpt>
    <trkpt lat="48.7630534" lon="9.9168348">
    <ele>745</ele>
    <time>2007-06-27T07:51:19Z</time>
    </trkpt>
    <trkpt lat="48.7618732" lon="9.9173927">
    <ele>745</ele>
    <time>2007-06-27T07:51:28Z</time>
    </trkpt>
    <trkpt lat="48.7617609081873" lon="9.91654596179846">
    <ele>745</ele>
    <time>2007-06-27T07:51:39Z</time>
    </trkpt>
    <trkpt lat="48.7617445" lon="9.9153543">
    <ele>740</ele>
    <time>2007-06-27T07:52:02Z</time>
    </trkpt>
    <trkpt lat="48.761723" lon="9.9153543">
    <ele>744</ele>
    <time>2007-06-27T07:52:47Z</time>
    </trkpt>
    <trkpt lat="48.7611222" lon="9.9155474">
    <ele>744</ele>
    <time>2007-06-27T07:52:57Z</time>
    </trkpt>
    <trkpt lat="48.7608647" lon="9.9155903">
    <ele>744</ele>
    <time>2007-06-27T07:53:01Z</time>
    </trkpt>
    <trkpt lat="48.7606502" lon="9.9154186">
    <ele>744</ele>
    <time>2007-06-27T07:53:05Z</time>
    </trkpt>
    <trkpt lat="48.7600279" lon="9.914968">
    <ele>736</ele>
    <time>2007-06-27T07:53:14Z</time>
    </trkpt>
    <trkpt lat="48.7598562" lon="9.9149036">
    <ele>734</ele>
    <time>2007-06-27T07:53:16Z</time>
    </trkpt>
    <trkpt lat="48.7592983" lon="9.9148607">
    <ele>725</ele>
    <time>2007-06-27T07:53:27Z</time>
    </trkpt>
    <trkpt lat="48.7591267" lon="9.9147534">
    <ele>709</ele>
    <time>2007-06-27T07:56:07Z</time>
    </trkpt>
    <trkpt lat="48.7584615" lon="9.9145603">
    <ele>712</ele>
    <time>2007-06-27T07:56:15Z</time>
    </trkpt>
    <trkpt lat="48.7572384" lon="9.913938">
    <ele>721</ele>
    <time>2007-06-27T07:56:31Z</time>
    </trkpt>
    <trkpt lat="48.7567234" lon="9.9135733">
    <ele>724</ele>
    <time>2007-06-27T07:56:41Z</time>
    </trkpt>
    <trkpt lat="48.7567663" lon="9.9136376">
    <ele>726</ele>
    <time>2007-06-27T07:57:02Z</time>
    </trkpt>
    <trkpt lat="48.7567878" lon="9.9136591">
    <ele>726</ele>
    <time>2007-06-27T07:57:41Z</time>
    </trkpt>
    <trkpt lat="48.7561655" lon="9.9133158">
    <ele>726</ele>
    <time>2007-06-27T07:57:54Z</time>
    </trkpt>
    <trkpt lat="48.7557149" lon="9.9131441">
    <ele>726</ele>
    <time>2007-06-27T07:58:02Z</time>
    </trkpt>
    <trkpt lat="48.7545347" lon="9.9131656">
    <ele>729</ele>
    <time>2007-06-27T07:58:16Z</time>
    </trkpt>
    <trkpt lat="48.7544714" lon="9.913132">
    <ele>713</ele>
    <time>2007-06-27T07:59:43Z</time>
    </trkpt>
    <trkpt lat="48.752861" lon="9.9144745">
    <ele>739</ele>
    <time>2007-06-27T08:00:41Z</time>
    </trkpt>
    <trkpt lat="48.7522112" lon="9.914655">
    <ele>739</ele>
    <time>2007-08-07T09:10:38Z</time>
    </trkpt>
    <trkpt lat="48.7512500257382" lon="9.91523282181345">
    <ele>747</ele>
    <time>2007-08-07T09:10:42Z</time>
    </trkpt>
    <trkpt lat="48.7498355" lon="9.9162769">
    <ele>748</ele>
    <time>2007-06-27T08:01:50Z</time>
    </trkpt>
    <trkpt lat="48.7498355" lon="9.916234">
    <ele>766</ele>
    <time>2007-06-27T08:02:58Z</time>
    </trkpt>
    <trkpt lat="48.7506617186948" lon="9.91287630998356">
    <ele>767</ele>
    <time>2007-06-27T08:03:19Z</time>
    </trkpt>
    <trkpt lat="48.7494297" lon="9.9110348">
    <ele>784</ele>
    <time>2007-06-27T08:03:44Z</time>
    </trkpt>
    <trkpt lat="48.7488937" lon="9.9105832">
    <ele>784</ele>
    <time>2007-06-27T08:03:51Z</time>
    </trkpt>
    <trkpt lat="48.7483764" lon="9.9106078">
    <ele>783</ele>
    <time>2007-06-27T08:04:02Z</time>
    </trkpt>
    <trkpt lat="48.7476084" lon="9.9110699">
    <ele>790</ele>
    <time>2007-06-27T08:04:23Z</time>
    </trkpt>
    <trkpt lat="48.7476084" lon="9.9110699">
    <ele>786</ele>
    <time>2007-06-27T08:06:47Z</time>
    </trkpt>
    <trkpt lat="48.7475996" lon="9.909336">
    <ele>771</ele>
    <time>2007-06-27T08:06:59Z</time>
    </trkpt>
    <trkpt lat="48.7463524491959" lon="9.90627129216827">
    <ele>786</ele>
    <time>2007-06-27T08:07:29Z</time>
    </trkpt>
    <trkpt lat="48.7460589" lon="9.9062133">
    <ele>769</ele>
    <time>2007-06-27T08:08:35Z</time>
    </trkpt>
    <trkpt lat="48.7459731" lon="9.9060631">
    <ele>772</ele>
    <time>2007-06-27T08:09:16Z</time>
    </trkpt>
    <trkpt lat="48.7461019" lon="9.9039173">
    <ele>772</ele>
    <time>2007-06-27T08:09:41Z</time>
    </trkpt>
    <trkpt lat="48.7461019" lon="9.9037242">
    <ele>772</ele>
    <time>2007-06-27T08:09:43Z</time>
    </trkpt>
    <trkpt lat="48.7458873" lon="9.9023509">
    <ele>772</ele>
    <time>2007-06-27T08:09:56Z</time>
    </trkpt>
    <trkpt lat="48.7458444" lon="9.9019217">
    <ele>772</ele>
    <time>2007-06-27T08:09:59Z</time>
    </trkpt>
    <trkpt lat="48.7453938" lon="9.8991966">
    <ele>771</ele>
    <time>2007-06-27T08:10:25Z</time>
    </trkpt>
    <trkpt lat="48.7441921" lon="9.8927164">
    <ele>772</ele>
    <time>2007-06-27T08:11:17Z</time>
    </trkpt>
    <trkpt lat="48.7437415" lon="9.8912787">
    <ele>774</ele>
    <time>2007-06-27T08:11:36Z</time>
    </trkpt>
    <trkpt lat="48.7437415" lon="9.8912787">
    <ele>775</ele>
    <time>2007-06-27T08:11:43Z</time>
    </trkpt>
    <trkpt lat="48.7436986" lon="9.8912144">
    <ele>777</ele>
    <time>2007-06-27T08:12:22Z</time>
    </trkpt>
    <trkpt lat="48.7441278" lon="9.8900986">
    <ele>776</ele>
    <time>2007-06-27T08:12:38Z</time>
    </trkpt>
    <trkpt lat="48.7444067" lon="9.8894119">
    <ele>776</ele>
    <time>2007-06-27T08:12:52Z</time>
    </trkpt>
    <trkpt lat="48.7444925" lon="9.8892617">
    <ele>776</ele>
    <time>2007-06-27T08:13:28Z</time>
    </trkpt>
    <trkpt lat="48.7445922" lon="9.8885118">
    <ele>776</ele>
    <time>2007-06-27T08:13:33Z</time>
    </trkpt>
    <trkpt lat="48.7447563" lon="9.8876308">
    <ele>776</ele>
    <time>2007-06-27T08:13:49Z</time>
    </trkpt>
    <trkpt lat="48.7447563" lon="9.8876308">
    <ele>775</ele>
    <time>2007-06-27T08:14:02Z</time>
    </trkpt>
    <trkpt lat="48.7451363" lon="9.8871589">
    <ele>758</ele>
    <time>2007-06-27T08:14:48Z</time>
    </trkpt>
    <trkpt lat="48.7450933" lon="9.8871803">
    <ele>756</ele>
    <time>2007-06-27T08:15:04Z</time>
    </trkpt>
    <trkpt lat="48.7452865" lon="9.8870945">
    <ele>758</ele>
    <time>2007-06-27T08:15:13Z</time>
    </trkpt>
    <trkpt lat="48.7453508" lon="9.8870945">
    <ele>761</ele>
    <time>2007-06-27T08:15:21Z</time>
    </trkpt>
    <trkpt lat="48.7454152" lon="9.8870945">
    <ele>778</ele>
    <time>2007-06-27T08:16:56Z</time>
    </trkpt>
    <trkpt lat="48.7465714179429" lon="9.88679626887487">
    <ele>778</ele>
    <time>2007-06-27T08:17:03Z</time>
    </trkpt>
    <trkpt lat="48.7482262" lon="9.8852921">
    <ele>778</ele>
    <time>2007-06-27T08:17:07Z</time>
    </trkpt>
    <trkpt lat="48.7488914" lon="9.8839402">
    <ele>778</ele>
    <time>2007-06-27T08:17:23Z</time>
    </trkpt>
    <trkpt lat="48.7494493" lon="9.8829961">
    <ele>780</ele>
    <time>2007-06-27T08:17:40Z</time>
    </trkpt>
    <trkpt lat="48.7495136" lon="9.8830175">
    <ele>782</ele>
    <time>2007-06-27T08:19:11Z</time>
    </trkpt>
    <trkpt lat="48.7503505" lon="9.8825455">
    <ele>783</ele>
    <time>2007-06-27T08:19:23Z</time>
    </trkpt>
    <trkpt lat="48.7493849" lon="9.8805928">
    <ele>783</ele>
    <time>2007-06-27T08:22:06Z</time>
    </trkpt>
    <trkpt lat="48.7497067" lon="9.8798633">
    <ele>775</ele>
    <time>2007-06-27T08:22:19Z</time>
    </trkpt>
    <trkpt lat="48.7501788" lon="9.8792624">
    <ele>774</ele>
    <time>2007-06-27T08:22:38Z</time>
    </trkpt>
    <trkpt lat="48.7490201" lon="9.8784471">
    <ele>725</ele>
    <time>2007-06-27T08:24:34Z</time>
    </trkpt>
    <trkpt lat="48.7487411" lon="9.8776317">
    <ele>712</ele>
    <time>2007-06-27T08:24:43Z</time>
    </trkpt>
    <trkpt lat="48.7479043" lon="9.8755074">
    <ele>685</ele>
    <time>2007-06-27T08:25:01Z</time>
    </trkpt>
    <trkpt lat="48.7478185" lon="9.8753142">
    <ele>684</ele>
    <time>2007-06-27T08:25:03Z</time>
    </trkpt>
    <trkpt lat="48.7479258" lon="9.874692">
    <ele>679</ele>
    <time>2007-06-27T08:25:10Z</time>
    </trkpt>
    <trkpt lat="48.7485332332145" lon="9.87425227188932">
    <ele>672</ele>
    <time>2007-06-27T08:25:25Z</time>
    </trkpt>
    <trkpt lat="48.7480735519961" lon="9.87261250423546">
    <ele>668</ele>
    <time>2007-06-27T08:25:53Z</time>
    </trkpt>
    <trkpt lat="48.7476254" lon="9.8713017">
    <ele>640</ele>
    <time>2007-06-27T08:28:36Z</time>
    </trkpt>
    <trkpt lat="48.7476254" lon="9.8712158">
    <ele>640</ele>
    <time>2007-06-27T08:28:38Z</time>
    </trkpt>
    <trkpt lat="48.7475395" lon="9.8710227">
    <ele>639</ele>
    <time>2007-06-27T08:28:41Z</time>
    </trkpt>
    <trkpt lat="48.7473464" lon="9.8699713">
    <ele>640</ele>
    <time>2007-06-27T08:28:49Z</time>
    </trkpt>
    <trkpt lat="48.7473893" lon="9.8693061">
    <ele>640</ele>
    <time>2007-06-27T08:28:53Z</time>
    </trkpt>
    <trkpt lat="48.7479258" lon="9.8666024">
    <ele>647</ele>
    <time>2007-06-27T08:29:08Z</time>
    </trkpt>
    <trkpt lat="48.7480116" lon="9.8662591">
    <ele>648</ele>
    <time>2007-06-27T08:29:10Z</time>
    </trkpt>
    <trkpt lat="48.7487197" lon="9.8655081">
    <ele>652</ele>
    <time>2007-06-27T08:29:17Z</time>
    </trkpt>
    <trkpt lat="48.7491059" lon="9.8648429">
    <ele>655</ele>
    <time>2007-06-27T08:29:22Z</time>
    </trkpt>
    <trkpt lat="48.7495136" lon="9.8631048">
    <ele>657</ele>
    <time>2007-06-27T08:29:33Z</time>
    </trkpt>
    <trkpt lat="48.749578" lon="9.8627615">
    <ele>657</ele>
    <time>2007-06-27T08:29:35Z</time>
    </trkpt>
    <trkpt lat="48.7495351" lon="9.8608088">
    <ele>664</ele>
    <time>2007-06-27T08:29:46Z</time>
    </trkpt>
    <trkpt lat="48.749299" lon="9.8601651">
    <ele>667</ele>
    <time>2007-06-27T08:29:51Z</time>
    </trkpt>
    <trkpt lat="48.7489557" lon="9.8597574">
    <ele>671</ele>
    <time>2007-06-27T08:29:56Z</time>
    </trkpt>
    <trkpt lat="48.748827" lon="9.8597789">
    <ele>673</ele>
    <time>2007-06-27T08:30:00Z</time>
    </trkpt>
    <trkpt lat="48.7488055" lon="9.8597789">
    <ele>678</ele>
    <time>2007-06-27T08:30:20Z</time>
    </trkpt>
    <trkpt lat="48.7485695" lon="9.8599935">
    <ele>684</ele>
    <time>2007-06-27T08:31:35Z</time>
    </trkpt>
    <trkpt lat="48.7484193" lon="9.8601437">
    <ele>685</ele>
    <time>2007-06-27T08:31:38Z</time>
    </trkpt>
    <trkpt lat="48.7482476" lon="9.8606157">
    <ele>685</ele>
    <time>2007-06-27T08:31:43Z</time>
    </trkpt>
    <trkpt lat="48.7478614" lon="9.8620963">
    <ele>682</ele>
    <time>2007-06-27T08:31:56Z</time>
    </trkpt>
    <trkpt lat="48.7471104" lon="9.8635769">
    <ele>682</ele>
    <time>2007-06-27T08:32:11Z</time>
    </trkpt>
    <trkpt lat="48.74681" lon="9.8638129">
    <ele>682</ele>
    <time>2007-06-27T08:32:15Z</time>
    </trkpt>
    <trkpt lat="48.74578" lon="9.8641777">
    <ele>681</ele>
    <time>2007-06-27T08:32:28Z</time>
    </trkpt>
    <trkpt lat="48.7452865" lon="9.8643708">
    <ele>679</ele>
    <time>2007-06-27T08:32:34Z</time>
    </trkpt>
    <trkpt lat="48.7449646" lon="9.864285">
    <ele>678</ele>
    <time>2007-06-27T08:32:38Z</time>
    </trkpt>
    <trkpt lat="48.7447286" lon="9.8641777">
    <ele>677</ele>
    <time>2007-06-27T08:32:41Z</time>
    </trkpt>
    <trkpt lat="48.7442994" lon="9.8643923">
    <ele>678</ele>
    <time>2007-06-27T08:32:47Z</time>
    </trkpt>
    <trkpt lat="48.7440848" lon="9.8646069">
    <ele>677</ele>
    <time>2007-06-27T08:32:50Z</time>
    </trkpt>
    <trkpt lat="48.7436128" lon="9.8647356">
    <ele>677</ele>
    <time>2007-06-27T08:32:56Z</time>
    </trkpt>
    <trkpt lat="48.7424755" lon="9.8643923">
    <ele>677</ele>
    <time>2007-06-27T08:33:10Z</time>
    </trkpt>
    <trkpt lat="48.7415314" lon="9.863534">
    <ele>683</ele>
    <time>2007-06-27T08:33:26Z</time>
    </trkpt>
    <trkpt lat="48.7414026" lon="9.8634052">
    <ele>683</ele>
    <time>2007-06-27T08:33:31Z</time>
    </trkpt>
    <trkpt lat="48.7414455" lon="9.8634267">
    <ele>683</ele>
    <time>2007-06-27T08:33:44Z</time>
    </trkpt>
    <trkpt lat="48.7414455" lon="9.8634481">
    <ele>684</ele>
    <time>2007-06-27T08:34:23Z</time>
    </trkpt>
    <trkpt lat="48.741188" lon="9.8631048">
    <ele>686</ele>
    <time>2007-06-27T08:34:32Z</time>
    </trkpt>
    <trkpt lat="48.7404799" lon="9.8622465">
    <ele>694</ele>
    <time>2007-06-27T08:34:46Z</time>
    </trkpt>
    <trkpt lat="48.7391067" lon="9.8620534">
    <ele>711</ele>
    <time>2007-06-27T08:35:06Z</time>
    </trkpt>
    <trkpt lat="48.7375188" lon="9.8619461">
    <ele>715</ele>
    <time>2007-06-27T08:35:29Z</time>
    </trkpt>
    <trkpt lat="48.7367249" lon="9.8617744">
    <ele>724</ele>
    <time>2007-06-27T08:35:41Z</time>
    </trkpt>
    <trkpt lat="48.7363815" lon="9.8617959">
    <ele>729</ele>
    <time>2007-06-27T08:35:47Z</time>
    </trkpt>
    <trkpt lat="48.7360168" lon="9.8619461">
    <ele>735</ele>
    <time>2007-06-27T08:35:57Z</time>
    </trkpt>
    <trkpt lat="48.7359953" lon="9.861989">
    <ele>741</ele>
    <time>2007-06-27T08:36:10Z</time>
    </trkpt>
    <trkpt lat="48.7358022" lon="9.8620749">
    <ele>746</ele>
    <time>2007-06-27T08:36:46Z</time>
    </trkpt>
    <trkpt lat="48.7350512" lon="9.8622894">
    <ele>748</ele>
    <time>2007-06-27T08:36:59Z</time>
    </trkpt>
    <trkpt lat="48.7345147" lon="9.8621178">
    <ele>748</ele>
    <time>2007-06-27T08:37:08Z</time>
    </trkpt>
    <trkpt lat="48.7343001" lon="9.861989">
    <ele>750</ele>
    <time>2007-06-27T08:37:18Z</time>
    </trkpt>
    <trkpt lat="48.734107" lon="9.8618603">
    <ele>756</ele>
    <time>2007-06-27T08:38:05Z</time>
    </trkpt>
    <trkpt lat="48.7337637" lon="9.8615813">
    <ele>755</ele>
    <time>2007-06-27T08:38:11Z</time>
    </trkpt>
    <trkpt lat="48.733592" lon="9.8612809">
    <ele>755</ele>
    <time>2007-06-27T08:38:15Z</time>
    </trkpt>
    <trkpt lat="48.7335062" lon="9.8608947">
    <ele>757</ele>
    <time>2007-06-27T08:38:24Z</time>
    </trkpt>
    <trkpt lat="48.7333989" lon="9.8605299">
    <ele>766</ele>
    <time>2007-06-27T08:39:55Z</time>
    </trkpt>
    <trkpt lat="48.7328196" lon="9.8580837">
    <ele>766</ele>
    <time>2007-06-27T08:40:19Z</time>
    </trkpt>
    <trkpt lat="48.7323689" lon="9.8574615">
    <ele>765</ele>
    <time>2007-06-27T08:40:31Z</time>
    </trkpt>
    <trkpt lat="48.732326" lon="9.8575258">
    <ele>765</ele>
    <time>2007-06-27T08:40:33Z</time>
    </trkpt>
    <trkpt lat="48.7322187" lon="9.8578048">
    <ele>765</ele>
    <time>2007-06-27T08:40:37Z</time>
    </trkpt>
    <trkpt lat="48.7320042" lon="9.8582339">
    <ele>765</ele>
    <time>2007-06-27T08:40:44Z</time>
    </trkpt>
    <trkpt lat="48.7314677" lon="9.8598218">
    <ele>766</ele>
    <time>2007-06-27T08:41:09Z</time>
    </trkpt>
    <trkpt lat="48.7315536" lon="9.8597789">
    <ele>761</ele>
    <time>2007-06-27T08:41:58Z</time>
    </trkpt>
    <trkpt lat="48.7314034" lon="9.8599505">
    <ele>760</ele>
    <time>2007-06-27T08:42:02Z</time>
    </trkpt>
    <trkpt lat="48.7311673" lon="9.860208">
    <ele>760</ele>
    <time>2007-06-27T08:42:07Z</time>
    </trkpt>
    <trkpt lat="48.7303734" lon="9.8613024">
    <ele>760</ele>
    <time>2007-06-27T08:42:29Z</time>
    </trkpt>
    <trkpt lat="48.7302876" lon="9.8613238">
    <ele>760</ele>
    <time>2007-06-27T08:42:31Z</time>
    </trkpt>
    <trkpt lat="48.7298369" lon="9.8611736">
    <ele>761</ele>
    <time>2007-06-27T08:42:44Z</time>
    </trkpt>
    <trkpt lat="48.7298155" lon="9.8610878">
    <ele>762</ele>
    <time>2007-06-27T08:43:04Z</time>
    </trkpt>
    <trkpt lat="48.729794" lon="9.8610878">
    <ele>763</ele>
    <time>2007-06-27T08:43:23Z</time>
    </trkpt>
    <trkpt lat="48.7297726" lon="9.8613667">
    <ele>763</ele>
    <time>2007-06-27T08:43:27Z</time>
    </trkpt>
    <trkpt lat="48.7297297" lon="9.862268">
    <ele>763</ele>
    <time>2007-06-27T08:43:42Z</time>
    </trkpt>
    <trkpt lat="48.7297082" lon="9.8624611">
    <ele>763</ele>
    <time>2007-06-27T08:43:46Z</time>
    </trkpt>
    <trkpt lat="48.7296009" lon="9.8624825">
    <ele>758</ele>
    <time>2007-06-27T08:43:53Z</time>
    </trkpt>
    <trkpt lat="48.7296224" lon="9.8623967">
    <ele>747</ele>
    <time>2007-06-27T08:45:30Z</time>
    </trkpt>
    <trkpt lat="48.7296224" lon="9.8624611">
    <ele>729</ele>
    <time>2007-06-27T08:46:16Z</time>
    </trkpt>
    <trkpt lat="48.7296224" lon="9.862504">
    <ele>726</ele>
    <time>2007-06-27T08:47:11Z</time>
    </trkpt>
    <trkpt lat="48.7284552" lon="9.8612453">
    <ele>719</ele>
    <time>2007-06-27T08:48:18Z</time>
    </trkpt>
    <trkpt lat="48.7284552" lon="9.8612453">
    <ele>650</ele>
    <time>2007-06-27T08:59:31Z</time>
    </trkpt>
    <trkpt lat="48.7281203" lon="9.8603582">
    <ele>730</ele>
    <time>2007-06-27T08:59:43Z</time>
    </trkpt>
    <trkpt lat="48.7276912" lon="9.8595428">
    <ele>736</ele>
    <time>2007-06-27T09:00:01Z</time>
    </trkpt>
    <trkpt lat="48.7277126" lon="9.8596931">
    <ele>738</ele>
    <time>2007-06-27T09:01:02Z</time>
    </trkpt>
    <trkpt lat="48.727026" lon="9.8613238">
    <ele>736</ele>
    <time>2007-06-27T09:01:07Z</time>
    </trkpt>
    <trkpt lat="48.7270904" lon="9.8619246">
    <ele>729</ele>
    <time>2007-06-27T09:01:16Z</time>
    </trkpt>
    <trkpt lat="48.7269187" lon="9.8619461">
    <ele>725</ele>
    <time>2007-06-27T09:01:20Z</time>
    </trkpt>
    <trkpt lat="48.726511" lon="9.861989">
    <ele>720</ele>
    <time>2007-06-27T09:01:29Z</time>
    </trkpt>
    <trkpt lat="48.7263823" lon="9.8624182">
    <ele>715</ele>
    <time>2007-06-27T09:01:35Z</time>
    </trkpt>
    <trkpt lat="48.7262321" lon="9.8633838">
    <ele>707</ele>
    <time>2007-06-27T09:01:46Z</time>
    </trkpt>
    <trkpt lat="48.7258887" lon="9.8634267">
    <ele>701</ele>
    <time>2007-06-27T09:01:54Z</time>
    </trkpt>
    <trkpt lat="48.7254167" lon="9.8638558">
    <ele>687</ele>
    <time>2007-06-27T09:02:02Z</time>
    </trkpt>
    <trkpt lat="48.7249231" lon="9.8641562">
    <ele>676</ele>
    <time>2007-06-27T09:02:08Z</time>
    </trkpt>
    <trkpt lat="48.7247086" lon="9.8641348">
    <ele>671</ele>
    <time>2007-06-27T09:02:11Z</time>
    </trkpt>
    <trkpt lat="48.7243009" lon="9.8643279">
    <ele>661</ele>
    <time>2007-06-27T09:02:17Z</time>
    </trkpt>
    <trkpt lat="48.724215" lon="9.8644137">
    <ele>655</ele>
    <time>2007-06-27T09:02:25Z</time>
    </trkpt>
    <trkpt lat="48.724215" lon="9.8644137">
    <ele>654</ele>
    <time>2007-06-27T09:02:52Z</time>
    </trkpt>
    <trkpt lat="48.7241507" lon="9.8648643">
    <ele>650</ele>
    <time>2007-06-27T09:02:58Z</time>
    </trkpt>
    <trkpt lat="48.7245154" lon="9.8673105">
    <ele>647</ele>
    <time>2007-06-27T09:03:18Z</time>
    </trkpt>
    <trkpt lat="48.7250173385452" lon="9.86833977816454">
    <ele>647</ele>
    <time>2007-06-27T09:03:29Z</time>
    </trkpt>
    <trkpt lat="48.7244592127366" lon="9.86782047257191">
    <ele>645</ele>
    <time>2007-06-27T09:03:33Z</time>
    </trkpt>
    <trkpt lat="48.7239680088359" lon="9.86737028820493">
    <ele>628</ele>
    <time>2007-06-27T09:03:51Z</time>
    </trkpt>
    <trkpt lat="48.7237859" lon="9.8676968">
    <ele>628</ele>
    <time>2007-06-27T09:03:53Z</time>
    </trkpt>
    <trkpt lat="48.723743" lon="9.8677611">
    <ele>627</ele>
    <time>2007-06-27T09:03:55Z</time>
    </trkpt>
    <trkpt lat="48.7243652" lon="9.8690486">
    <ele>611</ele>
    <time>2007-06-27T09:04:06Z</time>
    </trkpt>
    <trkpt lat="48.72473" lon="9.8697138">
    <ele>606</ele>
    <time>2007-06-27T09:04:11Z</time>
    </trkpt>
    <trkpt lat="48.7252021" lon="9.8703575">
    <ele>603</ele>
    <time>2007-06-27T09:04:17Z</time>
    </trkpt>
    <trkpt lat="48.7258458" lon="9.8709798">
    <ele>599</ele>
    <time>2007-06-27T09:04:24Z</time>
    </trkpt>
    <trkpt lat="48.7258244" lon="9.8715162">
    <ele>591</ele>
    <time>2007-06-27T09:04:30Z</time>
    </trkpt>
    <trkpt lat="48.7256527" lon="9.8727179">
    <ele>580</ele>
    <time>2007-06-27T09:04:39Z</time>
    </trkpt>
    <trkpt lat="48.7255669" lon="9.8743701">
    <ele>567</ele>
    <time>2007-06-27T09:04:50Z</time>
    </trkpt>
    <trkpt lat="48.7256742" lon="9.8749709">
    <ele>563</ele>
    <time>2007-06-27T09:04:55Z</time>
    </trkpt>
    <trkpt lat="48.7263823" lon="9.8762155">
    <ele>557</ele>
    <time>2007-06-27T09:05:08Z</time>
    </trkpt>
    <trkpt lat="48.72679" lon="9.8767304">
    <ele>556</ele>
    <time>2007-06-27T09:05:16Z</time>
    </trkpt>
    <trkpt lat="48.7267685" lon="9.876945">
    <ele>555</ele>
    <time>2007-06-27T09:05:20Z</time>
    </trkpt>
    <trkpt lat="48.7267256" lon="9.8769665">
    <ele>551</ele>
    <time>2007-06-27T09:05:41Z</time>
    </trkpt>
    <trkpt lat="48.7267256" lon="9.8769879">
    <ele>547</ele>
    <time>2007-06-27T09:06:34Z</time>
    </trkpt>
    <trkpt lat="48.7271333" lon="9.8777175">
    <ele>542</ele>
    <time>2007-06-27T09:06:47Z</time>
    </trkpt>
    <trkpt lat="48.7272835" lon="9.8780394">
    <ele>539</ele>
    <time>2007-06-27T09:06:58Z</time>
    </trkpt>
    <trkpt lat="48.7272406" lon="9.8780179">
    <ele>542</ele>
    <time>2007-06-27T09:07:35Z</time>
    </trkpt>
    <trkpt lat="48.7272406" lon="9.8783398">
    <ele>537</ele>
    <time>2007-06-27T09:08:00Z</time>
    </trkpt>
    <trkpt lat="48.727026" lon="9.8787045">
    <ele>536</ele>
    <time>2007-06-27T09:08:30Z</time>
    </trkpt>
    <trkpt lat="48.726747" lon="9.8791766">
    <ele>535</ele>
    <time>2007-06-27T09:08:35Z</time>
    </trkpt>
    <trkpt lat="48.7264466" lon="9.8799706">
    <ele>535</ele>
    <time>2007-06-27T09:08:42Z</time>
    </trkpt>
    <trkpt lat="48.7261248" lon="9.8804426">
    <ele>533</ele>
    <time>2007-06-27T09:08:47Z</time>
    </trkpt>
    <trkpt lat="48.7250733" lon="9.8813009">
    <ele>529</ele>
    <time>2007-06-27T09:09:02Z</time>
    </trkpt>
    <trkpt lat="48.7249875" lon="9.8812366">
    <ele>528</ele>
    <time>2007-06-27T09:09:09Z</time>
    </trkpt>
    <trkpt lat="48.7247086" lon="9.8811293">
    <ele>527</ele>
    <time>2007-06-27T09:10:11Z</time>
    </trkpt>
    <trkpt lat="48.7246656" lon="9.8811078">
    <ele>527</ele>
    <time>2007-06-27T09:10:12Z</time>
    </trkpt>
    <trkpt lat="48.7242579" lon="9.8812366">
    <ele>526</ele>
    <time>2007-06-27T09:10:19Z</time>
    </trkpt>
    <trkpt lat="48.7237" lon="9.8816657">
    <ele>523</ele>
    <time>2007-06-27T09:10:29Z</time>
    </trkpt>
    <trkpt lat="48.7228203" lon="9.8815584">
    <ele>524</ele>
    <time>2007-06-27T09:10:42Z</time>
    </trkpt>
    <trkpt lat="48.722434" lon="9.8813653">
    <ele>524</ele>
    <time>2007-06-27T09:10:47Z</time>
    </trkpt>
    <trkpt lat="48.7212968" lon="9.8818159">
    <ele>524</ele>
    <time>2007-06-27T09:11:02Z</time>
    </trkpt>
    <trkpt lat="48.7210608" lon="9.8819447">
    <ele>524</ele>
    <time>2007-06-27T09:11:05Z</time>
    </trkpt>
    <trkpt lat="48.7197089" lon="9.8827171">
    <ele>523</ele>
    <time>2007-06-27T09:11:21Z</time>
    </trkpt>
    <trkpt lat="48.7190223" lon="9.8828888">
    <ele>523</ele>
    <time>2007-06-27T09:11:29Z</time>
    </trkpt>
    <trkpt lat="48.7176704" lon="9.8829532">
    <ele>523</ele>
    <time>2007-06-27T09:11:45Z</time>
    </trkpt>
    <trkpt lat="48.7167478" lon="9.8828673">
    <ele>521</ele>
    <time>2007-06-27T09:11:59Z</time>
    </trkpt>
    <trkpt lat="48.715632" lon="9.8823738">
    <ele>522</ele>
    <time>2007-06-27T09:12:19Z</time>
    </trkpt>
    <trkpt lat="48.715117" lon="9.8820734">
    <ele>520</ele>
    <time>2007-06-27T09:12:32Z</time>
    </trkpt>
    <trkpt lat="48.7151599" lon="9.8820734">
    <ele>521</ele>
    <time>2007-06-27T09:13:41Z</time>
    </trkpt>
    <trkpt lat="48.714838" lon="9.8823094">
    <ele>520</ele>
    <time>2007-06-27T09:13:51Z</time>
    </trkpt>
    <trkpt lat="48.7144732" lon="9.8820519">
    <ele>517</ele>
    <time>2007-06-27T09:13:57Z</time>
    </trkpt>
    <trkpt lat="48.713572" lon="9.8814297">
    <ele>510</ele>
    <time>2007-06-27T09:14:11Z</time>
    </trkpt>
    <trkpt lat="48.7132072" lon="9.8811936">
    <ele>506</ele>
    <time>2007-06-27T09:14:20Z</time>
    </trkpt>
    <trkpt lat="48.7132502" lon="9.8812366">
    <ele>498</ele>
    <time>2007-06-27T09:15:28Z</time>
    </trkpt>
    <trkpt lat="48.7129927" lon="9.8817301">
    <ele>499</ele>
    <time>2007-06-27T09:15:36Z</time>
    </trkpt>
    <trkpt lat="48.7122846" lon="9.8827171">
    <ele>509</ele>
    <time>2007-06-27T09:15:48Z</time>
    </trkpt>
    <trkpt lat="48.71207" lon="9.8832536">
    <ele>513</ele>
    <time>2007-06-27T09:15:54Z</time>
    </trkpt>
    <trkpt lat="48.7120056" lon="9.8834252">
    <ele>517</ele>
    <time>2007-06-27T09:16:03Z</time>
    </trkpt>
    <trkpt lat="48.7119412" lon="9.8836613">
    <ele>523</ele>
    <time>2007-06-27T09:17:26Z</time>
    </trkpt>
    <trkpt lat="48.711791" lon="9.8838329">
    <ele>523</ele>
    <time>2007-06-27T09:17:30Z</time>
    </trkpt>
    <trkpt lat="48.7117052" lon="9.8838758">
    <ele>523</ele>
    <time>2007-06-27T09:17:39Z</time>
    </trkpt>
    <trkpt lat="48.7114692" lon="9.8840261">
    <ele>525</ele>
    <time>2007-06-27T09:18:05Z</time>
    </trkpt>
    <trkpt lat="48.7107825" lon="9.8847556">
    <ele>526</ele>
    <time>2007-06-27T09:18:17Z</time>
    </trkpt>
    <trkpt lat="48.7099457" lon="9.8854208">
    <ele>531</ele>
    <time>2007-06-27T09:18:30Z</time>
    </trkpt>
    <trkpt lat="48.7092376" lon="9.885807">
    <ele>535</ele>
    <time>2007-06-27T09:18:40Z</time>
    </trkpt>
    <trkpt lat="48.7086582" lon="9.8861074">
    <ele>536</ele>
    <time>2007-06-27T09:18:51Z</time>
    </trkpt>
    <trkpt lat="48.7086582" lon="9.8861289">
    <ele>535</ele>
    <time>2007-06-27T09:19:05Z</time>
    </trkpt>
    <trkpt lat="48.7086582" lon="9.8861289">
    <ele>533</ele>
    <time>2007-06-27T09:19:21Z</time>
    </trkpt>
    <trkpt lat="48.7084133" lon="9.8863799">
    <ele>485</ele>
    <time>2007-06-27T09:23:31Z</time>
    </trkpt>
    <trkpt lat="48.7075531" lon="9.8871461">
    <ele>543</ele>
    <time>2007-06-27T09:24:00Z</time>
    </trkpt>
    <trkpt lat="48.7067485" lon="9.8869872">
    <ele>488</ele>
    <time>2007-06-27T09:24:29Z</time>
    </trkpt>
    <trkpt lat="48.7065768" lon="9.8870301">
    <ele>495</ele>
    <time>2007-06-27T09:24:33Z</time>
    </trkpt>
    <trkpt lat="48.7062979" lon="9.8870945">
    <ele>500</ele>
    <time>2007-06-27T09:24:37Z</time>
    </trkpt>
    <trkpt lat="48.7054825" lon="9.8874807">
    <ele>514</ele>
    <time>2007-06-27T09:24:49Z</time>
    </trkpt>
    <trkpt lat="48.7053967" lon="9.8875022">
    <ele>519</ele>
    <time>2007-06-27T09:24:57Z</time>
    </trkpt>
    <trkpt lat="48.7053967" lon="9.8875022">
    <ele>524</ele>
    <time>2007-06-27T09:25:02Z</time>
    </trkpt>
    <trkpt lat="48.7053108" lon="9.887073">
    <ele>526</ele>
    <time>2007-06-27T09:25:09Z</time>
    </trkpt>
    <trkpt lat="48.7052679" lon="9.8867726">
    <ele>528</ele>
    <time>2007-06-27T09:25:12Z</time>
    </trkpt>
    <trkpt lat="48.7052679" lon="9.8866224">
    <ele>531</ele>
    <time>2007-06-27T09:25:20Z</time>
    </trkpt>
    <trkpt lat="48.7052679" lon="9.8865795">
    <ele>531</ele>
    <time>2007-06-27T09:25:22Z</time>
    </trkpt>
    <trkpt lat="48.7051392" lon="9.8865151">
    <ele>535</ele>
    <time>2007-06-27T09:25:30Z</time>
    </trkpt>
    <trkpt lat="48.7049246" lon="9.8866224">
    <ele>544</ele>
    <time>2007-06-27T09:26:30Z</time>
    </trkpt>
    <trkpt lat="48.7048817" lon="9.8866224">
    <ele>544</ele>
    <time>2007-06-27T09:26:31Z</time>
    </trkpt>
    <trkpt lat="48.70471" lon="9.8867083">
    <ele>545</ele>
    <time>2007-06-27T09:26:35Z</time>
    </trkpt>
    <trkpt lat="48.7044954" lon="9.8869443">
    <ele>544</ele>
    <time>2007-06-27T09:26:47Z</time>
    </trkpt>
    <trkpt lat="48.7042594" lon="9.8872662">
    <ele>546</ele>
    <time>2007-06-27T09:27:13Z</time>
    </trkpt>
    <trkpt lat="48.7041521" lon="9.8874378">
    <ele>540</ele>
    <time>2007-06-27T09:27:22Z</time>
    </trkpt>
    <trkpt lat="48.704195" lon="9.8874378">
    <ele>536</ele>
    <time>2007-06-27T09:28:05Z</time>
    </trkpt>
    <trkpt lat="48.7041736" lon="9.8874378">
    <ele>531</ele>
    <time>2007-06-27T09:29:23Z</time>
    </trkpt>
    <trkpt lat="48.7040448" lon="9.887588">
    <ele>532</ele>
    <time>2007-06-27T09:29:26Z</time>
    </trkpt>
    <trkpt lat="48.7030578" lon="9.8880816">
    <ele>535</ele>
    <time>2007-06-27T09:29:39Z</time>
    </trkpt>
    <trkpt lat="48.7029934" lon="9.8881245">
    <ele>535</ele>
    <time>2007-06-27T09:29:40Z</time>
    </trkpt>
    <trkpt lat="48.7022209" lon="9.8892617">
    <ele>540</ele>
    <time>2007-06-27T09:29:54Z</time>
    </trkpt>
    <trkpt lat="48.7015986" lon="9.8904419">
    <ele>543</ele>
    <time>2007-06-27T09:30:11Z</time>
    </trkpt>
    <trkpt lat="48.7015986" lon="9.8904634">
    <ele>545</ele>
    <time>2007-06-27T09:30:31Z</time>
    </trkpt>
    <trkpt lat="48.7013412" lon="9.8906994">
    <ele>551</ele>
    <time>2007-06-27T09:31:10Z</time>
    </trkpt>
    <trkpt lat="48.7011909" lon="9.8907852">
    <ele>552</ele>
    <time>2007-06-27T09:31:13Z</time>
    </trkpt>
    <trkpt lat="48.7007189" lon="9.8907852">
    <ele>553</ele>
    <time>2007-06-27T09:31:23Z</time>
    </trkpt>
    <trkpt lat="48.7005258" lon="9.8908925">
    <ele>552</ele>
    <time>2007-06-27T09:31:27Z</time>
    </trkpt>
    <trkpt lat="48.7003112" lon="9.8910213">
    <ele>556</ele>
    <time>2007-06-27T09:31:31Z</time>
    </trkpt>
    <trkpt lat="48.7000582" lon="9.8911579">
    <ele>560</ele>
    <time>2007-06-27T09:31:44Z</time>
    </trkpt>
    <trkpt lat="48.6997187" lon="9.8914576">
    <ele>563</ele>
    <time>2007-06-27T09:32:21Z</time>
    </trkpt>
    <trkpt lat="48.6992908" lon="9.8915519">
    <ele>562</ele>
    <time>2007-06-27T09:32:29Z</time>
    </trkpt>
    <trkpt lat="48.6992908" lon="9.8915519">
    <ele>642</ele>
    <time>2007-06-27T09:47:31Z</time>
    </trkpt>
    <trkpt lat="48.6976578" lon="9.8905042">
    <ele>629</ele>
    <time>2007-06-27T09:47:39Z</time>
    </trkpt>
    <trkpt lat="48.6964059" lon="9.8900342">
    <ele>631</ele>
    <time>2007-06-27T09:47:52Z</time>
    </trkpt>
    <trkpt lat="48.6963844" lon="9.8900771">
    <ele>631</ele>
    <time>2007-06-27T09:48:01Z</time>
    </trkpt>
    <trkpt lat="48.6961269" lon="9.8901629">
    <ele>637</ele>
    <time>2007-06-27T09:48:46Z</time>
    </trkpt>
    <trkpt lat="48.6953115" lon="9.8902702">
    <ele>634</ele>
    <time>2007-06-27T09:48:56Z</time>
    </trkpt>
    <trkpt lat="48.6942601" lon="9.8903561">
    <ele>630</ele>
    <time>2007-06-27T09:49:09Z</time>
    </trkpt>
    <trkpt lat="48.6934018" lon="9.8904634">
    <ele>633</ele>
    <time>2007-06-27T09:49:20Z</time>
    </trkpt>
    <trkpt lat="48.6924791" lon="9.8905921">
    <ele>634</ele>
    <time>2007-06-27T09:49:34Z</time>
    </trkpt>
    <trkpt lat="48.6923933" lon="9.8906565">
    <ele>632</ele>
    <time>2007-06-27T09:49:43Z</time>
    </trkpt>
    <trkpt lat="48.6922002" lon="9.890871">
    <ele>630</ele>
    <time>2007-06-27T09:50:53Z</time>
    </trkpt>
    <trkpt lat="48.6918998" lon="9.89115">
    <ele>629</ele>
    <time>2007-06-27T09:50:59Z</time>
    </trkpt>
    <trkpt lat="48.6917067" lon="9.8912787">
    <ele>629</ele>
    <time>2007-06-27T09:51:07Z</time>
    </trkpt>
    <trkpt lat="48.6916423" lon="9.8912573">
    <ele>629</ele>
    <time>2007-06-27T09:51:09Z</time>
    </trkpt>
    <trkpt lat="48.6914492" lon="9.8913002">
    <ele>628</ele>
    <time>2007-06-27T09:51:13Z</time>
    </trkpt>
    <trkpt lat="48.6911917" lon="9.8915148">
    <ele>627</ele>
    <time>2007-06-27T09:51:19Z</time>
    </trkpt>
    <trkpt lat="48.6909556" lon="9.891665">
    <ele>627</ele>
    <time>2007-06-27T09:51:28Z</time>
    </trkpt>
    <trkpt lat="48.6907411" lon="9.8919439">
    <ele>626</ele>
    <time>2007-06-27T09:52:47Z</time>
    </trkpt>
    <trkpt lat="48.6899257" lon="9.8925018">
    <ele>623</ele>
    <time>2007-06-27T09:52:57Z</time>
    </trkpt>
    <trkpt lat="48.6898398" lon="9.8925662">
    <ele>622</ele>
    <time>2007-06-27T09:52:58Z</time>
    </trkpt>
    <trkpt lat="48.6894751" lon="9.8925662">
    <ele>620</ele>
    <time>2007-06-27T09:53:02Z</time>
    </trkpt>
    <trkpt lat="48.688767" lon="9.8924589">
    <ele>616</ele>
    <time>2007-06-27T09:53:09Z</time>
    </trkpt>
    <trkpt lat="48.687222" lon="9.8926735">
    <ele>614</ele>
    <time>2007-06-27T09:53:26Z</time>
    </trkpt>
    <trkpt lat="48.686471" lon="9.8926735">
    <ele>615</ele>
    <time>2007-06-27T09:53:37Z</time>
    </trkpt>
    <trkpt lat="48.685411" lon="9.892665">
    <ele>609</ele>
    <time>2007-06-27T09:56:22Z</time>
    </trkpt>
    <trkpt lat="48.6848681" lon="9.8930968">
    <ele>608</ele>
    <time>2007-06-27T09:56:28Z</time>
    </trkpt>
    <trkpt lat="48.6839216" lon="9.8933856">
    <ele>607</ele>
    <time>2007-06-27T09:56:41Z</time>
    </trkpt>
    <trkpt lat="48.6827995" lon="9.8931281">
    <ele>607</ele>
    <time>2007-06-27T09:56:47Z</time>
    </trkpt>
    <trkpt lat="48.6824401" lon="9.8930878">
    <ele>607</ele>
    <time>2007-06-27T09:56:51Z</time>
    </trkpt>
    <trkpt lat="48.6825562" lon="9.8926146">
    <ele>589</ele>
    <time>2007-06-27T09:57:05Z</time>
    </trkpt>
    <trkpt lat="48.6816859" lon="9.8916221">
    <ele>581</ele>
    <time>2007-06-27T09:57:13Z</time>
    </trkpt>
    <trkpt lat="48.6812568" lon="9.8913431">
    <ele>578</ele>
    <time>2007-06-27T09:57:17Z</time>
    </trkpt>
    <trkpt lat="48.6810422" lon="9.8912573">
    <ele>576</ele>
    <time>2007-06-27T09:57:19Z</time>
    </trkpt>
    <trkpt lat="48.6800122" lon="9.890399">
    <ele>569</ele>
    <time>2007-06-27T09:57:29Z</time>
    </trkpt>
    <trkpt lat="48.6793256" lon="9.89012">
    <ele>567</ele>
    <time>2007-06-27T09:57:35Z</time>
    </trkpt>
    <trkpt lat="48.6786819" lon="9.8903346">
    <ele>564</ele>
    <time>2007-06-27T09:57:42Z</time>
    </trkpt>
    <trkpt lat="48.6785316" lon="9.8904419">
    <ele>565</ele>
    <time>2007-06-27T09:57:52Z</time>
    </trkpt>
    <trkpt lat="48.6782742" lon="9.8901629">
    <ele>564</ele>
    <time>2007-06-27T09:58:03Z</time>
    </trkpt>
    <trkpt lat="48.678124" lon="9.8899698">
    <ele>568</ele>
    <time>2007-06-27T09:58:14Z</time>
    </trkpt>
    <trkpt lat="48.678123" lon="9.8902617">
    <ele>555</ele>
    <time>2007-06-27T10:01:33Z</time>
    </trkpt>
    <trkpt lat="48.672594" lon="9.895867">
    <ele>544</ele>
    <time>2007-06-27T10:01:38Z</time>
    </trkpt>
    <trkpt lat="48.6703795" lon="9.8973212">
    <ele>539</ele>
    <time>2007-06-27T10:01:42Z</time>
    </trkpt>
    <trkpt lat="48.6673758" lon="9.8961818">
    <ele>569</ele>
    <time>2007-06-27T10:01:51Z</time>
    </trkpt>
    <trkpt lat="48.6673758" lon="9.8961818">
    <ele>516</ele>
    <time>2007-06-27T10:21:29Z</time>
    </trkpt>
    <trkpt lat="48.6650951" lon="9.8945801">
    <ele>518</ele>
    <time>2007-06-27T10:21:34Z</time>
    </trkpt>
    <trkpt lat="48.6636163" lon="9.893943">
    <ele>517</ele>
    <time>2007-06-27T10:21:37Z</time>
    </trkpt>
    <trkpt lat="48.6624354" lon="9.8925646">
    <ele>522</ele>
    <time>2007-06-27T10:21:39Z</time>
    </trkpt>
    <trkpt lat="48.6606789" lon="9.8923516">
    <ele>518</ele>
    <time>2007-06-27T10:22:10Z</time>
    </trkpt>
    <trkpt lat="48.6598849" lon="9.8923302">
    <ele>523</ele>
    <time>2007-06-27T10:23:38Z</time>
    </trkpt>
    <trkpt lat="48.6598849" lon="9.8923087">
    <ele>505</ele>
    <time>2007-06-27T10:25:20Z</time>
    </trkpt>
    <trkpt lat="48.6596504" lon="9.89221">
    <ele>508</ele>
    <time>2007-06-27T10:25:23Z</time>
    </trkpt>
    <trkpt lat="48.6593485" lon="9.89218">
    <ele>511</ele>
    <time>2007-06-27T10:25:50Z</time>
    </trkpt>
    <trkpt lat="48.6588867" lon="9.8921287">
    <ele>528</ele>
    <time>2007-06-27T10:26:05Z</time>
    </trkpt>
    <trkpt lat="48.658618" lon="9.8919882">
    <ele>518</ele>
    <time>2007-06-27T10:26:55Z</time>
    </trkpt>
    <trkpt lat="48.6582756" lon="9.8916435">
    <ele>522</ele>
    <time>2007-06-27T10:27:34Z</time>
    </trkpt>
    <trkpt lat="48.6579537" lon="9.8914719">
    <ele>524</ele>
    <time>2007-06-27T10:28:01Z</time>
    </trkpt>
    <trkpt lat="48.6576104" lon="9.8911071">
    <ele>528</ele>
    <time>2007-06-27T10:28:33Z</time>
    </trkpt>
    <trkpt lat="48.6574602" lon="9.8905921">
    <ele>528</ele>
    <time>2007-06-27T10:28:59Z</time>
    </trkpt>
    <trkpt lat="48.6573529" lon="9.8900342">
    <ele>531</ele>
    <time>2007-06-27T10:29:28Z</time>
    </trkpt>
    <trkpt lat="48.6575111" lon="9.8897629">
    <ele>532</ele>
    <time>2007-06-27T10:30:53Z</time>
    </trkpt>
    <trkpt lat="48.6575843" lon="9.8890176">
    <ele>541</ele>
    <time>2007-06-27T10:31:02Z</time>
    </trkpt>
    <trkpt lat="48.6575843" lon="9.8890176">
    <ele>540</ele>
    <time>2007-06-27T10:31:12Z</time>
    </trkpt>
    <trkpt lat="48.6571598" lon="9.8889184">
    <ele>545</ele>
    <time>2007-06-27T10:31:25Z</time>
    </trkpt>
    <trkpt lat="48.6567092" lon="9.889648">
    <ele>556</ele>
    <time>2007-06-27T10:32:01Z</time>
    </trkpt>
    <trkpt lat="48.6566019" lon="9.8898411">
    <ele>556</ele>
    <time>2007-06-27T10:33:20Z</time>
    </trkpt>
    <trkpt lat="48.656315" lon="9.8903527">
    <ele>553</ele>
    <time>2007-06-27T10:33:44Z</time>
    </trkpt>
    <trkpt lat="48.655696" lon="9.8919027">
    <ele>553</ele>
    <time>2007-06-27T10:33:59Z</time>
    </trkpt>
    <trkpt lat="48.6554646" lon="9.8922014">
    <ele>558</ele>
    <time>2007-06-27T10:34:31Z</time>
    </trkpt>
    <trkpt lat="48.6553144" lon="9.8924804">
    <ele>558</ele>
    <time>2007-06-27T10:34:57Z</time>
    </trkpt>
    <trkpt lat="48.6548638" lon="9.8927379">
    <ele>562</ele>
    <time>2007-06-27T10:36:59Z</time>
    </trkpt>
    <trkpt lat="48.6532974" lon="9.8942184">
    <ele>578</ele>
    <time>2007-06-27T10:39:15Z</time>
    </trkpt>
    <trkpt lat="48.6531258" lon="9.8943043">
    <ele>585</ele>
    <time>2007-06-27T10:39:29Z</time>
    </trkpt>
    <trkpt lat="48.6529756" lon="9.8942828">
    <ele>586</ele>
    <time>2007-06-27T10:39:41Z</time>
    </trkpt>
    <trkpt lat="48.6527181" lon="9.8938751">
    <ele>590</ele>
    <time>2007-06-27T10:40:03Z</time>
    </trkpt>
    <trkpt lat="48.6523533" lon="9.8934674">
    <ele>596</ele>
    <time>2007-06-27T10:40:36Z</time>
    </trkpt>
    <trkpt lat="48.6520529" lon="9.8934031">
    <ele>597</ele>
    <time>2007-06-27T10:40:58Z</time>
    </trkpt>
    <trkpt lat="48.6511131" lon="9.8943666">
    <ele>603</ele>
    <time>2007-06-27T10:41:10Z</time>
    </trkpt>
    <trkpt lat="48.6499495" lon="9.8936675">
    <ele>603</ele>
    <time>2007-06-27T10:41:16Z</time>
    </trkpt>
    <trkpt lat="48.6495844" lon="9.8914556">
    <ele>609</ele>
    <time>2007-06-27T10:41:19Z</time>
    </trkpt>
    <trkpt lat="48.6470745" lon="9.8875097">
    <ele>597</ele>
    <time>2007-06-27T10:41:22Z</time>
    </trkpt>
    <trkpt lat="48.6467519" lon="9.8856041">
    <ele>597</ele>
    <time>2007-06-27T10:41:28Z</time>
    </trkpt>
    <trkpt lat="48.6467519" lon="9.8856041">
    <ele>631</ele>
    <time>2007-06-27T11:38:31Z</time>
    </trkpt>
    <trkpt lat="48.647329" lon="9.8836463">
    <ele>639</ele>
    <time>2007-06-27T11:38:32Z</time>
    </trkpt>
    <trkpt lat="48.6484265" lon="9.8832321">
    <ele>651</ele>
    <time>2007-06-27T11:38:55Z</time>
    </trkpt>
    <trkpt lat="48.6487913" lon="9.8830175">
    <ele>651</ele>
    <time>2007-06-27T11:39:20Z</time>
    </trkpt>
    <trkpt lat="48.6493492" lon="9.8822665">
    <ele>650</ele>
    <time>2007-06-27T11:40:13Z</time>
    </trkpt>
    <trkpt lat="48.6494565" lon="9.8816013">
    <ele>649</ele>
    <time>2007-06-27T11:40:45Z</time>
    </trkpt>
    <trkpt lat="48.6493493" lon="9.881103">
    <ele>650</ele>
    <time>2007-06-27T11:41:52Z</time>
    </trkpt>
    <trkpt lat="48.6493493" lon="9.881103">
    <ele>650</ele>
    <time>2007-06-27T11:42:23Z</time>
    </trkpt>
    <trkpt lat="48.6498687" lon="9.8808067">
    <ele>653</ele>
    <time>2007-06-27T11:42:44Z</time>
    </trkpt>
    <trkpt lat="48.6501403" lon="9.8805739">
    <ele>648</ele>
    <time>2007-06-27T11:43:11Z</time>
    </trkpt>
    <trkpt lat="48.6504436" lon="9.8805499">
    <ele>648</ele>
    <time>2007-06-27T11:43:41Z</time>
    </trkpt>
    <trkpt lat="48.6504436" lon="9.8805499">
    <ele>648</ele>
    <time>2007-06-27T11:43:55Z</time>
    </trkpt>
    <trkpt lat="48.6508083" lon="9.8802066">
    <ele>648</ele>
    <time>2007-06-27T11:44:25Z</time>
    </trkpt>
    <trkpt lat="48.6511087" lon="9.8799706">
    <ele>648</ele>
    <time>2007-06-27T11:44:55Z</time>
    </trkpt>
    <trkpt lat="48.6526168" lon="9.8801081">
    <ele>648</ele>
    <time>2007-06-27T11:45:53Z</time>
    </trkpt>
    <trkpt lat="48.6526168" lon="9.8801081">
    <ele>648</ele>
    <time>2007-06-27T11:47:08Z</time>
    </trkpt>
    <trkpt lat="48.6533189" lon="9.880271">
    <ele>649</ele>
    <time>2007-06-27T11:47:30Z</time>
    </trkpt>
    <trkpt lat="48.6534047" lon="9.8803568">
    <ele>649</ele>
    <time>2007-06-27T11:47:37Z</time>
    </trkpt>
    <trkpt lat="48.6537266" lon="9.8804212">
    <ele>644</ele>
    <time>2007-06-27T11:48:02Z</time>
    </trkpt>
    <trkpt lat="48.6540484" lon="9.8804212">
    <ele>646</ele>
    <time>2007-06-27T11:48:29Z</time>
    </trkpt>
    <trkpt lat="48.6541128" lon="9.8805499">
    <ele>651</ele>
    <time>2007-06-27T11:49:01Z</time>
    </trkpt>
    <trkpt lat="48.6540914" lon="9.8805285">
    <ele>658</ele>
    <time>2007-06-27T11:50:46Z</time>
    </trkpt>
    <trkpt lat="48.6539841" lon="9.8798203">
    <ele>660</ele>
    <time>2007-06-27T11:50:56Z</time>
    </trkpt>
    <trkpt lat="48.6534476" lon="9.8782539">
    <ele>662</ele>
    <time>2007-06-27T11:51:12Z</time>
    </trkpt>
    <trkpt lat="48.6524177" lon="9.876194">
    <ele>662</ele>
    <time>2007-06-27T11:51:33Z</time>
    </trkpt>
    <trkpt lat="48.6523962" lon="9.8758078">
    <ele>662</ele>
    <time>2007-06-27T11:51:36Z</time>
    </trkpt>
    <trkpt lat="48.6523962" lon="9.8755503">
    <ele>662</ele>
    <time>2007-06-27T11:51:38Z</time>
    </trkpt>
    <trkpt lat="48.6522889" lon="9.875164">
    <ele>662</ele>
    <time>2007-06-27T11:51:41Z</time>
    </trkpt>
    <trkpt lat="48.6513233" lon="9.8731256">
    <ele>664</ele>
    <time>2007-06-27T11:51:58Z</time>
    </trkpt>
    <trkpt lat="48.6512375" lon="9.8728466">
    <ele>664</ele>
    <time>2007-06-27T11:52:08Z</time>
    </trkpt>
    <trkpt lat="48.6513019" lon="9.8729539">
    <ele>666</ele>
    <time>2007-06-27T11:53:27Z</time>
    </trkpt>
    <trkpt lat="48.6515164" lon="9.8732328">
    <ele>668</ele>
    <time>2007-06-27T11:53:34Z</time>
    </trkpt>
    <trkpt lat="48.6521144423001" lon="9.87360187754445">
    <ele>670</ele>
    <time>2007-06-27T11:53:51Z</time>
    </trkpt>
    <trkpt lat="48.6533673376039" lon="9.87440395961653">
    <ele>671</ele>
    <time>2007-06-27T11:53:59Z</time>
    </trkpt>
    <trkpt lat="48.6538572346643" lon="9.87502321295795">
    <time>2007-06-27T11:54:27Z</time>
    </trkpt>
    <trkpt lat="48.6549142563094" lon="9.87497364065044">
    <ele>671</ele>
    <time>2007-06-27T11:54:55Z</time>
    </trkpt>
    <trkpt lat="48.6555930020729" lon="9.87440851863606">
    <ele>671</ele>
    <time>2007-06-27T11:55:02Z</time>
    </trkpt>
    <trkpt lat="48.6560451544162" lon="9.87407700130777">
    <ele>671</ele>
    <time>2007-06-27T11:55:04Z</time>
    </trkpt>
    <trkpt lat="48.6563659" lon="9.8728251">
    <ele>671</ele>
    <time>2007-06-27T11:55:16Z</time>
    </trkpt>
    <trkpt lat="48.6565804" lon="9.87216">
    <ele>682</ele>
    <time>2007-06-27T11:55:27Z</time>
    </trkpt>
    <trkpt lat="48.6566877" lon="9.8717093">
    <ele>703</ele>
    <time>2007-06-27T11:56:05Z</time>
    </trkpt>
    <trkpt lat="48.6571813" lon="9.8697138">
    <ele>707</ele>
    <time>2007-06-27T11:56:29Z</time>
    </trkpt>
    <trkpt lat="48.657825" lon="9.8674393">
    <ele>709</ele>
    <time>2007-06-27T11:56:53Z</time>
    </trkpt>
    <trkpt lat="48.6581683" lon="9.8663664">
    <ele>711</ele>
    <time>2007-06-27T11:57:09Z</time>
    </trkpt>
    <trkpt lat="48.6582112" lon="9.8663664">
    <ele>717</ele>
    <time>2007-06-27T11:57:45Z</time>
    </trkpt>
    <trkpt lat="48.6582327" lon="9.8663664">
    <ele>721</ele>
    <time>2007-06-27T11:58:23Z</time>
    </trkpt>
    <trkpt lat="48.6587262" lon="9.8664737">
    <ele>724</ele>
    <time>2007-06-27T11:58:32Z</time>
    </trkpt>
    <trkpt lat="48.6589193" lon="9.8664737">
    <ele>725</ele>
    <time>2007-06-27T11:58:35Z</time>
    </trkpt>
    <trkpt lat="48.659091" lon="9.8663235">
    <ele>725</ele>
    <time>2007-06-27T11:58:39Z</time>
    </trkpt>
    <trkpt lat="48.6600137" lon="9.8649502">
    <ele>731</ele>
    <time>2007-06-27T11:59:01Z</time>
    </trkpt>
    <trkpt lat="48.6601853" lon="9.8646927">
    <ele>731</ele>
    <time>2007-06-27T11:59:12Z</time>
    </trkpt>
    <trkpt lat="48.6601853" lon="9.8647571">
    <ele>727</ele>
    <time>2007-06-27T12:00:17Z</time>
    </trkpt>
    <trkpt lat="48.6604857" lon="9.8640704">
    <ele>729</ele>
    <time>2007-06-27T12:00:27Z</time>
    </trkpt>
    <trkpt lat="48.6605287" lon="9.8636627">
    <ele>729</ele>
    <time>2007-06-27T12:00:32Z</time>
    </trkpt>
    <trkpt lat="48.6605501" lon="9.8612595">
    <ele>724</ele>
    <time>2007-06-27T12:01:01Z</time>
    </trkpt>
    <trkpt lat="48.6605716" lon="9.8591566">
    <ele>717</ele>
    <time>2007-06-27T12:01:30Z</time>
    </trkpt>
    <trkpt lat="48.660593" lon="9.8580623">
    <ele>712</ele>
    <time>2007-06-27T12:01:48Z</time>
    </trkpt>
    <trkpt lat="48.660593" lon="9.8576546">
    <ele>711</ele>
    <time>2007-06-27T12:02:35Z</time>
    </trkpt>
    <trkpt lat="48.660593" lon="9.8558307">
    <ele>702</ele>
    <time>2007-06-27T12:03:05Z</time>
    </trkpt>
    <trkpt lat="48.6605980712455" lon="9.85151988512445">
    <ele>695</ele>
    <time>2007-06-27T12:03:34Z</time>
    </trkpt>
    <trkpt lat="48.6589760725194" lon="9.85196766281905">
    <ele>681</ele>
    <time>2007-06-27T12:04:10Z</time>
    </trkpt>
    <trkpt lat="48.657546" lon="9.8532343">
    <ele>675</ele>
    <time>2007-06-27T12:08:22Z</time>
    </trkpt>
    <trkpt lat="48.657589" lon="9.8529339">
    <ele>674</ele>
    <time>2007-06-27T12:08:26Z</time>
    </trkpt>
    <trkpt lat="48.6575246" lon="9.8516035">
    <ele>665</ele>
    <time>2007-06-27T12:08:36Z</time>
    </trkpt>
    <trkpt lat="48.6574173" lon="9.8480415">
    <ele>656</ele>
    <time>2007-06-27T12:08:59Z</time>
    </trkpt>
    <trkpt lat="48.6573315" lon="9.8449302">
    <ele>650</ele>
    <time>2007-06-27T12:09:24Z</time>
    </trkpt>
    <trkpt lat="48.6573315" lon="9.8449945">
    <ele>651</ele>
    <time>2007-06-27T12:09:38Z</time>
    </trkpt>
    <trkpt lat="48.6573315" lon="9.8447585">
    <ele>650</ele>
    <time>2007-06-27T12:10:29Z</time>
    </trkpt>
    <trkpt lat="48.6574173" lon="9.8435569">
    <ele>650</ele>
    <time>2007-06-27T12:10:38Z</time>
    </trkpt>
    <trkpt lat="48.6575246" lon="9.8418832">
    <ele>653</ele>
    <time>2007-06-27T12:10:52Z</time>
    </trkpt>
    <trkpt lat="48.6575246" lon="9.8417544">
    <ele>652</ele>
    <time>2007-06-27T12:11:00Z</time>
    </trkpt>
    <trkpt lat="48.657546" lon="9.8417759">
    <ele>650</ele>
    <time>2007-06-27T12:11:48Z</time>
    </trkpt>
    <trkpt lat="48.6574388" lon="9.841733">
    <ele>650</ele>
    <time>2007-06-27T12:11:52Z</time>
    </trkpt>
    <trkpt lat="48.6572456" lon="9.8417115">
    <ele>651</ele>
    <time>2007-06-27T12:11:57Z</time>
    </trkpt>
    <trkpt lat="48.6571169" lon="9.8411107">
    <ele>651</ele>
    <time>2007-06-27T12:12:05Z</time>
    </trkpt>
    <trkpt lat="48.6566663" lon="9.8387933">
    <ele>651</ele>
    <time>2007-06-27T12:12:31Z</time>
    </trkpt>
    <trkpt lat="48.65628" lon="9.8373342">
    <ele>650</ele>
    <time>2007-06-27T12:12:49Z</time>
    </trkpt>
    <trkpt lat="48.6561513" lon="9.8370981">
    <ele>650</ele>
    <time>2007-06-27T12:12:53Z</time>
    </trkpt>
    <trkpt lat="48.6558509" lon="9.835875">
    <ele>653</ele>
    <time>2007-06-27T12:13:12Z</time>
    </trkpt>
    <trkpt lat="48.6558509" lon="9.8355532">
    <ele>653</ele>
    <time>2007-06-27T12:13:17Z</time>
    </trkpt>
    <trkpt lat="48.6559367" lon="9.8353171">
    <ele>653</ele>
    <time>2007-06-27T12:13:21Z</time>
    </trkpt>
    <trkpt lat="48.6561728" lon="9.8341584">
    <ele>653</ele>
    <time>2007-06-27T12:13:40Z</time>
    </trkpt>
    <trkpt lat="48.6560869" lon="9.8325706">
    <ele>655</ele>
    <time>2007-06-27T12:14:04Z</time>
    </trkpt>
    <trkpt lat="48.6559367" lon="9.8316908">
    <ele>651</ele>
    <time>2007-06-27T12:14:17Z</time>
    </trkpt>
    <trkpt lat="48.6559367" lon="9.830811">
    <ele>652</ele>
    <time>2007-06-27T12:14:29Z</time>
    </trkpt>
    <trkpt lat="48.6558938" lon="9.8304248">
    <ele>652</ele>
    <time>2007-06-27T12:14:35Z</time>
    </trkpt>
    <trkpt lat="48.6557436" lon="9.830296">
    <ele>655</ele>
    <time>2007-06-27T12:14:44Z</time>
    </trkpt>
    <trkpt lat="48.6555076" lon="9.8302746">
    <ele>658</ele>
    <time>2007-06-27T12:16:01Z</time>
    </trkpt>
    <trkpt lat="48.6548209" lon="9.83006">
    <ele>661</ele>
    <time>2007-06-27T12:16:19Z</time>
    </trkpt>
    <trkpt lat="48.6543319433571" lon="9.82908672243499">
    <ele>661</ele>
    <time>2007-06-27T12:16:41Z</time>
    </trkpt>
    <trkpt lat="48.6543187374292" lon="9.82779706937196">
    <ele>661</ele>
    <time>2007-06-27T12:16:45Z</time>
    </trkpt>
    <trkpt lat="48.6541713725669" lon="9.82640342664758">
    <ele>663</ele>
    <time>2007-06-27T12:17:05Z</time>
    </trkpt>
    <trkpt lat="48.6539197" lon="9.8271847">
    <ele>673</ele>
    <time>2007-06-27T12:18:28Z</time>
    </trkpt>
    <trkpt lat="48.6529323415778" lon="9.82675642337467">
    <ele>673</ele>
    <time>2007-06-27T12:18:53Z</time>
    </trkpt>
    <trkpt lat="48.6527625" lon="9.8270757">
    <ele>673</ele>
    <time>2007-06-27T12:18:57Z</time>
    </trkpt>
    <trkpt lat="48.6527821" lon="9.8274832">
    <ele>673</ele>
    <time>2007-06-27T12:19:03Z</time>
    </trkpt>
    <trkpt lat="48.6526108" lon="9.8273349">
    <ele>671</ele>
    <time>2007-06-27T12:19:22Z</time>
    </trkpt>
    <trkpt lat="48.6525679" lon="9.8271632">
    <ele>670</ele>
    <time>2007-06-27T12:19:25Z</time>
    </trkpt>
    <trkpt lat="48.6520004" lon="9.8267578">
    <ele>669</ele>
    <time>2007-06-27T12:19:28Z</time>
    </trkpt>
    <trkpt lat="48.6517273" lon="9.8272284">
    <ele>669</ele>
    <time>2007-06-27T12:19:32Z</time>
    </trkpt>
    <trkpt lat="48.6514983" lon="9.8278015">
    <ele>669</ele>
    <time>2007-06-27T12:19:36Z</time>
    </trkpt>
    <trkpt lat="48.6509014" lon="9.8295221">
    <ele>669</ele>
    <time>2007-06-27T12:20:12Z</time>
    </trkpt>
    <trkpt lat="48.650019597401" lon="9.83162860090961">
    <ele>669</ele>
    <time>2007-06-27T12:20:45Z</time>
    </trkpt>
    <trkpt lat="48.6503577" lon="9.8319697">
    <ele>669</ele>
    <time>2007-06-27T12:20:54Z</time>
    </trkpt>
    <trkpt lat="48.6508083" lon="9.8324203">
    <ele>666</ele>
    <time>2007-06-27T12:21:11Z</time>
    </trkpt>
    <trkpt lat="48.6524242706126" lon="9.83485768975596">
    <ele>660</ele>
    <time>2007-06-27T12:21:59Z</time>
    </trkpt>
    <trkpt lat="48.6533871817549" lon="9.83538256759122">
    <ele>653</ele>
    <time>2007-06-27T12:22:30Z</time>
    </trkpt>
    <trkpt lat="48.6540933" lon="9.8358181">
    <ele>653</ele>
    <time>2007-06-27T12:22:41Z</time>
    </trkpt>
    <trkpt lat="48.6538675" lon="9.83595">
    <ele>653</ele>
    <time>2007-06-27T12:22:46Z</time>
    </trkpt>
    <trkpt lat="48.6534851" lon="9.8359777">
    <ele>650</ele>
    <time>2007-06-27T12:22:50Z</time>
    </trkpt>
    <trkpt lat="48.6531037" lon="9.8358696">
    <ele>649</ele>
    <time>2007-06-27T12:22:57Z</time>
    </trkpt>
    <trkpt lat="48.6522515" lon="9.835584">
    <ele>641</ele>
    <time>2007-06-27T12:23:21Z</time>
    </trkpt>
    <trkpt lat="48.6518264" lon="9.8353055">
    <ele>629</ele>
    <time>2007-06-27T12:23:45Z</time>
    </trkpt>
    <trkpt lat="48.6514002" lon="9.8351628">
    <ele>611</ele>
    <time>2007-06-27T12:23:58Z</time>
    </trkpt>
    <trkpt lat="48.6504720303836" lon="9.83435043862355">
    <ele>598</ele>
    <time>2007-06-27T12:24:49Z</time>
    </trkpt>
    <trkpt lat="48.6494994" lon="9.8339224">
    <ele>595</ele>
    <time>2007-06-27T12:25:13Z</time>
    </trkpt>
    <trkpt lat="48.6484694" lon="9.8345017">
    <ele>591</ele>
    <time>2007-06-27T12:25:30Z</time>
    </trkpt>
    <trkpt lat="48.6482334" lon="9.834609">
    <ele>583</ele>
    <time>2007-06-27T12:25:40Z</time>
    </trkpt>
    <trkpt lat="48.6479545" lon="9.8346519">
    <ele>513</ele>
    <time>2007-06-27T12:26:33Z</time>
    </trkpt>
    <trkpt lat="48.6469823591485" lon="9.83503927303525">
    <ele>511</ele>
    <time>2007-06-27T12:26:52Z</time>
    </trkpt>
    <trkpt lat="48.6454439" lon="9.8357463">
    <ele>511</ele>
    <time>2007-06-27T12:27:19Z</time>
    </trkpt>
    <trkpt lat="48.6454654" lon="9.835639">
    <ele>507</ele>
    <time>2007-06-27T12:27:29Z</time>
    </trkpt>
    <trkpt lat="48.6455083" lon="9.8356605">
    <ele>501</ele>
    <time>2007-06-27T12:28:22Z</time>
    </trkpt>
    <trkpt lat="48.645401" lon="9.8358107">
    <ele>500</ele>
    <time>2007-06-27T12:28:25Z</time>
    </trkpt>
    <trkpt lat="48.644298976309" lon="9.83614844798147">
    <ele>497</ele>
    <time>2007-06-27T12:28:44Z</time>
    </trkpt>
    <trkpt lat="48.6433538680107" lon="9.83626852486076">
    <ele>495</ele>
    <time>2007-06-27T12:29:02Z</time>
    </trkpt>
    <trkpt lat="48.642118" lon="9.8373771">
    <ele>489</ele>
    <time>2007-06-27T12:29:13Z</time>
    </trkpt>
    <trkpt lat="48.6394672301068" lon="9.83898592374689">
    <ele>485</ele>
    <time>2007-06-27T12:29:50Z</time>
    </trkpt>
    <trkpt lat="48.6391354" lon="9.8390293">
    <ele>484</ele>
    <time>2007-06-27T12:31:03Z</time>
    </trkpt>
    <trkpt lat="48.6387491" lon="9.8372912">
    <ele>488</ele>
    <time>2007-06-27T12:31:42Z</time>
    </trkpt>
    <trkpt lat="48.6383414" lon="9.8351026">
    <ele>493</ele>
    <time>2007-06-27T12:32:17Z</time>
    </trkpt>
    <trkpt lat="48.6382341" lon="9.8347592">
    <ele>551</ele>
    <time>2007-06-27T12:32:24Z</time>
    </trkpt>
    <trkpt lat="48.6382556" lon="9.8340511">
    <ele>519</ele>
    <time>2007-06-27T12:33:40Z</time>
    </trkpt>
    <trkpt lat="48.6384273" lon="9.8328066">
    <ele>518</ele>
    <time>2007-06-27T12:34:02Z</time>
    </trkpt>
    <trkpt lat="48.638835" lon="9.8312402">
    <ele>520</ele>
    <time>2007-06-27T12:34:26Z</time>
    </trkpt>
    <trkpt lat="48.6394787" lon="9.8296738">
    <ele>522</ele>
    <time>2007-06-27T12:34:40Z</time>
    </trkpt>
    <trkpt lat="48.6393929" lon="9.8295021">
    <ele>523</ele>
    <time>2007-06-27T12:34:43Z</time>
    </trkpt>
    <trkpt lat="48.6387491" lon="9.8296738">
    <ele>525</ele>
    <time>2007-06-27T12:34:52Z</time>
    </trkpt>
    <trkpt lat="48.6385345" lon="9.8293948">
    <ele>530</ele>
    <time>2007-06-27T12:35:00Z</time>
    </trkpt>
    <trkpt lat="48.6385131" lon="9.829309">
    <ele>531</ele>
    <time>2007-06-27T12:35:01Z</time>
    </trkpt>
    <trkpt lat="48.6383629" lon="9.8286438">
    <ele>531</ele>
    <time>2007-06-27T12:35:12Z</time>
    </trkpt>
    <trkpt lat="48.6375888758181" lon="9.82826955655293">
    <ele>531</ele>
    <time>2007-06-27T12:35:29Z</time>
    </trkpt>
    <trkpt lat="48.6376333" lon="9.8295879">
    <ele>533</ele>
    <time>2007-06-27T12:35:58Z</time>
    </trkpt>
    <trkpt lat="48.6373115" lon="9.8307037">
    <ele>540</ele>
    <time>2007-06-27T12:36:17Z</time>
    </trkpt>
    <trkpt lat="48.6371827" lon="9.830811">
    <ele>546</ele>
    <time>2007-06-27T12:36:27Z</time>
    </trkpt>
    <trkpt lat="48.6370969" lon="9.8313475">
    <ele>567</ele>
    <time>2007-06-27T12:37:20Z</time>
    </trkpt>
    <trkpt lat="48.6361795743536" lon="9.83662481692734">
    <ele>567</ele>
    <time>2007-06-27T12:38:09Z</time>
    </trkpt>
    <trkpt lat="48.6338353" lon="9.8366046">
    <ele>570</ele>
    <time>2007-06-27T12:39:19Z</time>
    </trkpt>
    <trkpt lat="48.6325149788613" lon="9.83663205958021">
    <ele>570</ele>
    <time>2007-06-27T12:39:46Z</time>
    </trkpt>
    <trkpt lat="48.6322904" lon="9.8349309">
    <ele>573</ele>
    <time>2007-06-27T12:40:08Z</time>
    </trkpt>
    <trkpt lat="48.6328027" lon="9.8327529">
    <ele>576</ele>
    <time>2007-06-27T12:40:31Z</time>
    </trkpt>
    <trkpt lat="48.6330204" lon="9.8337401">
    <ele>578</ele>
    <time>2007-06-27T12:40:53Z</time>
    </trkpt>
    <trkpt lat="48.6329671" lon="9.8348924">
    <ele>617</ele>
    <time>2007-06-27T12:43:35Z</time>
    </trkpt>
    <trkpt lat="48.6330326" lon="9.8351648">
    <ele>569</ele>
    <time>2007-06-27T13:10:26Z</time>
    </trkpt>
    <trkpt lat="48.6335367" lon="9.8338503">
    <ele>644</ele>
    <time>2007-06-27T13:10:34Z</time>
    </trkpt>
    <trkpt lat="48.6339613" lon="9.8341965">
    <ele>648</ele>
    <time>2007-06-27T13:10:41Z</time>
    </trkpt>
    <trkpt lat="48.6341226" lon="9.8336565">
    <ele>594</ele>
    <time>2007-06-27T13:10:57Z</time>
    </trkpt>
    <trkpt lat="48.634007" lon="9.831841">
    <ele>600</ele>
    <time>2007-06-27T13:11:17Z</time>
    </trkpt>
    <trkpt lat="48.634243" lon="9.831562">
    <ele>603</ele>
    <time>2007-06-27T13:11:28Z</time>
    </trkpt>
    <trkpt lat="48.6346722" lon="9.8308539">
    <ele>613</ele>
    <time>2007-06-27T13:11:44Z</time>
    </trkpt>
    <trkpt lat="48.6347365" lon="9.8307037">
    <ele>615</ele>
    <time>2007-06-27T13:11:47Z</time>
    </trkpt>
    <trkpt lat="48.6351871" lon="9.829545">
    <ele>630</ele>
    <time>2007-06-27T13:12:10Z</time>
    </trkpt>
    <trkpt lat="48.6356378" lon="9.8287082">
    <ele>636</ele>
    <time>2007-06-27T13:12:29Z</time>
    </trkpt>
    <trkpt lat="48.6358953" lon="9.8281503">
    <ele>638</ele>
    <time>2007-06-27T13:12:41Z</time>
    </trkpt>
    <trkpt lat="48.6364746" lon="9.8264122">
    <ele>639</ele>
    <time>2007-06-27T13:13:09Z</time>
    </trkpt>
    <trkpt lat="48.637054" lon="9.8248887">
    <ele>642</ele>
    <time>2007-06-27T13:13:35Z</time>
    </trkpt>
    <trkpt lat="48.6373758" lon="9.8238587">
    <ele>647</ele>
    <time>2007-06-27T13:13:53Z</time>
    </trkpt>
    <trkpt lat="48.6378908" lon="9.8231077">
    <ele>656</ele>
    <time>2007-06-27T13:14:10Z</time>
    </trkpt>
    <trkpt lat="48.6387706" lon="9.8216271">
    <ele>656</ele>
    <time>2007-06-27T13:14:37Z</time>
    </trkpt>
    <trkpt lat="48.6388564" lon="9.8214555">
    <ele>656</ele>
    <time>2007-06-27T13:14:40Z</time>
    </trkpt>
    <trkpt lat="48.6388993" lon="9.8213267">
    <ele>661</ele>
    <time>2007-06-27T13:14:52Z</time>
    </trkpt>
    <trkpt lat="48.6417796399287" lon="9.8238601915918">
    <ele>668</ele>
    <time>2007-06-27T13:15:44Z</time>
    </trkpt>
    <trkpt lat="48.644114806592" lon="9.8242714101877">
    <ele>667</ele>
    <time>2007-06-27T13:15:57Z</time>
    </trkpt>
    <trkpt lat="48.6459196929537" lon="9.82338479922546">
    <ele>674</ele>
    <time>2007-06-27T13:16:07Z</time>
    </trkpt>
    <trkpt lat="48.6466719251205" lon="9.8219381677437">
    <ele>677</ele>
    <time>2007-06-27T13:16:52Z</time>
    </trkpt>
    <trkpt lat="48.6469842137042" lon="9.81912725155721">
    <ele>676</ele>
    <time>2007-06-27T13:16:56Z</time>
    </trkpt>
    <trkpt lat="48.6472464" lon="9.8177433">
    <ele>677</ele>
    <time>2007-06-27T13:17:01Z</time>
    </trkpt>
    <trkpt lat="48.6472464" lon="9.8177433">
    <ele>670</ele>
    <time>2007-06-27T13:20:28Z</time>
    </trkpt>
    <trkpt lat="48.6473107" lon="9.8177433">
    <ele>670</ele>
    <time>2007-06-27T13:20:35Z</time>
    </trkpt>
    <trkpt lat="48.6475253" lon="9.8177004">
    <ele>668</ele>
    <time>2007-06-27T13:21:28Z</time>
    </trkpt>
    <trkpt lat="48.6485553" lon="9.8174">
    <ele>662</ele>
    <time>2007-06-27T13:21:43Z</time>
    </trkpt>
    <trkpt lat="48.6485767" lon="9.8174">
    <ele>662</ele>
    <time>2007-06-27T13:21:48Z</time>
    </trkpt>
    <trkpt lat="48.6485124" lon="9.8174">
    <ele>662</ele>
    <time>2007-06-27T13:21:53Z</time>
    </trkpt>
    <trkpt lat="48.6485553" lon="9.8173141">
    <ele>662</ele>
    <time>2007-06-27T13:22:01Z</time>
    </trkpt>
    <trkpt lat="48.6485338" lon="9.8173141">
    <ele>668</ele>
    <time>2007-06-27T13:25:11Z</time>
    </trkpt>
    <trkpt lat="48.6484694" lon="9.8171425">
    <ele>669</ele>
    <time>2007-06-27T13:25:53Z</time>
    </trkpt>
    <trkpt lat="48.6483207" lon="9.8162816">
    <ele>668</ele>
    <time>2007-06-27T13:26:18Z</time>
    </trkpt>
    <trkpt lat="48.651069" lon="9.8123222">
    <ele>667</ele>
    <time>2007-06-27T13:26:37Z</time>
    </trkpt>
    <trkpt lat="48.6530976" lon="9.8083848">
    <ele>667</ele>
    <time>2007-06-27T13:26:39Z</time>
    </trkpt>
    <trkpt lat="48.6540411" lon="9.8052781">
    <ele>669</ele>
    <time>2007-06-27T13:26:46Z</time>
    </trkpt>
    <trkpt lat="48.6530681" lon="9.8061787">
    <ele>668</ele>
    <time>2007-06-27T13:26:51Z</time>
    </trkpt>
    <trkpt lat="48.6530681" lon="9.8061787">
    <ele>620</ele>
    <time>2007-06-27T14:04:01Z</time>
    </trkpt>
    <trkpt lat="48.6543045" lon="9.8029749">
    <ele>568</ele>
    <time>2007-06-27T14:04:22Z</time>
    </trkpt>
    <trkpt lat="48.6536495" lon="9.8034056">
    <ele>538</ele>
    <time>2007-06-27T14:07:41Z</time>
    </trkpt>
    <trkpt lat="48.6533833" lon="9.8034525">
    <ele>537</ele>
    <time>2007-06-27T14:07:47Z</time>
    </trkpt>
    <trkpt lat="48.6533189" lon="9.8033881">
    <ele>537</ele>
    <time>2007-06-27T14:07:51Z</time>
    </trkpt>
    <trkpt lat="48.6528039" lon="9.8030663">
    <ele>529</ele>
    <time>2007-06-27T14:08:03Z</time>
    </trkpt>
    <trkpt lat="48.6520529" lon="9.8024225">
    <ele>518</ele>
    <time>2007-06-27T14:08:17Z</time>
    </trkpt>
    <trkpt lat="48.651731" lon="9.8022294">
    <ele>514</ele>
    <time>2007-06-27T14:08:22Z</time>
    </trkpt>
    <trkpt lat="48.650465" lon="9.8019075">
    <ele>490</ele>
    <time>2007-06-27T14:08:38Z</time>
    </trkpt>
    <trkpt lat="48.6501646" lon="9.8018003">
    <ele>487</ele>
    <time>2007-06-27T14:08:42Z</time>
    </trkpt>
    <trkpt lat="48.6499286" lon="9.80165">
    <ele>483</ele>
    <time>2007-06-27T14:08:46Z</time>
    </trkpt>
    <trkpt lat="48.6492419" lon="9.8017144">
    <ele>471</ele>
    <time>2007-06-27T14:08:56Z</time>
    </trkpt>
    <trkpt lat="48.6485124" lon="9.801929">
    <ele>460</ele>
    <time>2007-06-27T14:09:05Z</time>
    </trkpt>
    <trkpt lat="48.6477828" lon="9.8016071">
    <ele>450</ele>
    <time>2007-06-27T14:09:14Z</time>
    </trkpt>
    <trkpt lat="48.6473751" lon="9.8011565">
    <ele>442</ele>
    <time>2007-06-27T14:09:21Z</time>
    </trkpt>
    <trkpt lat="48.646903" lon="9.8008776">
    <ele>438</ele>
    <time>2007-06-27T14:09:28Z</time>
    </trkpt>
    <trkpt lat="48.6467314" lon="9.8004913">
    <ele>436</ele>
    <time>2007-06-27T14:09:32Z</time>
    </trkpt>
    <trkpt lat="48.6466026" lon="9.799912">
    <ele>432</ele>
    <time>2007-06-27T14:09:37Z</time>
    </trkpt>
    <trkpt lat="48.6463881" lon="9.7995043">
    <ele>429</ele>
    <time>2007-06-27T14:09:42Z</time>
    </trkpt>
    <trkpt lat="48.6462164" lon="9.7992253">
    <ele>427</ele>
    <time>2007-06-27T14:09:46Z</time>
    </trkpt>
    <trkpt lat="48.6460233" lon="9.7992039">
    <ele>427</ele>
    <time>2007-06-27T14:09:49Z</time>
    </trkpt>
    <trkpt lat="48.6457014" lon="9.7994614">
    <ele>426</ele>
    <time>2007-06-27T14:09:54Z</time>
    </trkpt>
    <trkpt lat="48.6454868" lon="9.7995901">
    <ele>426</ele>
    <time>2007-06-27T14:09:58Z</time>
    </trkpt>
    <trkpt lat="48.6453795" lon="9.7995043">
    <ele>426</ele>
    <time>2007-06-27T14:10:01Z</time>
    </trkpt>
    <trkpt lat="48.6453152" lon="9.7993755">
    <ele>426</ele>
    <time>2007-06-27T14:10:03Z</time>
    </trkpt>
    <trkpt lat="48.645165" lon="9.7988605">
    <ele>421</ele>
    <time>2007-06-27T14:10:09Z</time>
    </trkpt>
    <trkpt lat="48.6449075" lon="9.7984743">
    <ele>419</ele>
    <time>2007-06-27T14:10:17Z</time>
    </trkpt>
    <trkpt lat="48.6448431" lon="9.7982597">
    <ele>419</ele>
    <time>2007-06-27T14:10:26Z</time>
    </trkpt>
    <trkpt lat="48.6447358" lon="9.7983456">
    <ele>418</ele>
    <time>2007-06-27T14:12:21Z</time>
    </trkpt>
    <trkpt lat="48.6443067" lon="9.7982383">
    <ele>417</ele>
    <time>2007-06-27T14:12:48Z</time>
    </trkpt>
    <trkpt lat="48.6441994" lon="9.7982168">
    <ele>411</ele>
    <time>2007-06-27T14:13:09Z</time>
    </trkpt>
    <trkpt lat="48.644135" lon="9.7982383">
    <ele>412</ele>
    <time>2007-06-27T14:13:40Z</time>
    </trkpt>
    <trkpt lat="48.6441135" lon="9.7982597">
    <ele>412</ele>
    <time>2007-06-27T14:14:03Z</time>
    </trkpt>
    <trkpt lat="48.6438858" lon="9.7978902">
    <ele>390</ele>
    <time>2007-06-27T14:14:07Z</time>
    </trkpt>
    <trkpt lat="48.6429461" lon="9.7972309">
    <ele>398</ele>
    <time>2007-06-27T14:14:12Z</time>
    </trkpt>
    <trkpt lat="48.6429461" lon="9.7972309">
    <ele>393</ele>
    <time>2007-06-27T14:26:37Z</time>
    </trkpt>
    <trkpt lat="48.6439905" lon="9.7957546">
    <ele>401</ele>
    <time>2007-06-27T14:26:44Z</time>
    </trkpt>
    <trkpt lat="48.6440404" lon="9.7950429">
    <ele>402</ele>
    <time>2007-06-27T14:26:48Z</time>
    </trkpt>
    <trkpt lat="48.6440235" lon="9.7942285">
    <ele>402</ele>
    <time>2007-06-27T14:26:52Z</time>
    </trkpt>
    <trkpt lat="48.6439628" lon="9.7932437">
    <ele>400</ele>
    <time>2007-06-27T14:27:08Z</time>
    </trkpt>
    <trkpt lat="48.6437008" lon="9.79212">
    <ele>398</ele>
    <time>2007-06-27T14:27:19Z</time>
    </trkpt>
    <trkpt lat="48.6436841" lon="9.7912716">
    <ele>399</ele>
    <time>2007-06-27T14:27:43Z</time>
    </trkpt>
    <trkpt lat="48.643756" lon="9.7906282">
    <ele>399</ele>
    <time>2007-06-27T14:27:56Z</time>
    </trkpt>
    <trkpt lat="48.643756" lon="9.7906282">
    <ele>403</ele>
    <time>2007-06-27T14:37:23Z</time>
    </trkpt>
    <trkpt lat="48.6438775" lon="9.7902131">
    <ele>404</ele>
    <time>2007-06-27T14:37:32Z</time>
    </trkpt>
    <trkpt lat="48.6438775" lon="9.7902131">
    <ele>404</ele>
    <time>2007-06-27T14:37:52Z</time>
    </trkpt>
    <trkpt lat="48.643899" lon="9.7899771">
    <ele>404</ele>
    <time>2007-06-27T14:37:56Z</time>
    </trkpt>
    <trkpt lat="48.6440706" lon="9.7896767">
    <ele>404</ele>
    <time>2007-06-27T14:38:01Z</time>
    </trkpt>
    <trkpt lat="48.6451221" lon="9.7892046">
    <ele>404</ele>
    <time>2007-06-27T14:38:10Z</time>
    </trkpt>
    <trkpt lat="48.6463237" lon="9.7881532">
    <ele>405</ele>
    <time>2007-06-27T14:38:20Z</time>
    </trkpt>
    <trkpt lat="48.6466241" lon="9.7877669">
    <ele>404</ele>
    <time>2007-06-27T14:38:26Z</time>
    </trkpt>
    <trkpt lat="48.6466455" lon="9.7877455">
    <ele>404</ele>
    <time>2007-06-27T14:38:27Z</time>
    </trkpt>
    <trkpt lat="48.6466455" lon="9.7873592">
    <ele>404</ele>
    <time>2007-06-27T14:38:34Z</time>
    </trkpt>
    <trkpt lat="48.646667" lon="9.7873378">
    <ele>406</ele>
    <time>2007-06-27T14:38:44Z</time>
    </trkpt>
    <trkpt lat="48.6465812" lon="9.7872949">
    <ele>391</ele>
    <time>2007-06-27T14:42:53Z</time>
    </trkpt>
    <trkpt lat="48.6465812" lon="9.7872949">
    <ele>391</ele>
    <time>2007-06-27T14:42:54Z</time>
    </trkpt>
    <trkpt lat="48.6465597" lon="9.7872734">
    <ele>391</ele>
    <time>2007-06-27T14:42:56Z</time>
    </trkpt>
    <trkpt lat="48.6464095" lon="9.7868013">
    <ele>395</ele>
    <time>2007-06-27T14:43:07Z</time>
    </trkpt>
    <trkpt lat="48.6459804" lon="9.7857928">
    <ele>402</ele>
    <time>2007-06-27T14:43:33Z</time>
    </trkpt>
    <trkpt lat="48.6461091" lon="9.7858572">
    <ele>413</ele>
    <time>2007-06-27T14:44:23Z</time>
    </trkpt>
    <trkpt lat="48.6466885" lon="9.7855997">
    <ele>412</ele>
    <time>2007-06-27T14:44:35Z</time>
    </trkpt>
    <trkpt lat="48.6475868526818" lon="9.78422510674932">
    <ele>412</ele>
    <time>2007-06-27T14:45:00Z</time>
    </trkpt>
    <trkpt lat="48.6480053230721" lon="9.78219590063396">
    <ele>415</ele>
    <time>2007-06-27T14:45:10Z</time>
    </trkpt>
    <trkpt lat="48.6493628352453" lon="9.78092758968955">
    <ele>418</ele>
    <time>2007-06-27T14:45:26Z</time>
    </trkpt>
    <trkpt lat="48.6498427" lon="9.7802353">
    <ele>458</ele>
    <time>2007-06-27T14:49:23Z</time>
    </trkpt>
    <trkpt lat="48.6497998" lon="9.7801065">
    <ele>458</ele>
    <time>2007-06-27T14:49:29Z</time>
    </trkpt>
    <trkpt lat="48.6494628640738" lon="9.77943624825494">
    <ele>461</ele>
    <time>2007-06-27T14:49:40Z</time>
    </trkpt>
    <trkpt lat="48.6489415" lon="9.7795272">
    <ele>463</ele>
    <time>2007-06-27T14:49:45Z</time>
    </trkpt>
    <trkpt lat="48.6486626" lon="9.7796559">
    <ele>464</ele>
    <time>2007-06-27T14:49:50Z</time>
    </trkpt>
    <trkpt lat="48.6482763" lon="9.7801065">
    <ele>467</ele>
    <time>2007-06-27T14:49:58Z</time>
    </trkpt>
    <trkpt lat="48.6475682" lon="9.7806215">
    <ele>468</ele>
    <time>2007-06-27T14:50:11Z</time>
    </trkpt>
    <trkpt lat="48.6470318" lon="9.78163">
    <ele>470</ele>
    <time>2007-06-27T14:50:26Z</time>
    </trkpt>
    <trkpt lat="48.6469674" lon="9.7818446">
    <ele>470</ele>
    <time>2007-06-27T14:50:29Z</time>
    </trkpt>
    <trkpt lat="48.6466026" lon="9.7821021">
    <ele>472</ele>
    <time>2007-06-27T14:50:37Z</time>
    </trkpt>
    <trkpt lat="48.6461306" lon="9.7818446">
    <ele>474</ele>
    <time>2007-06-27T14:50:51Z</time>
    </trkpt>
    <trkpt lat="48.6458731" lon="9.7818661">
    <ele>475</ele>
    <time>2007-06-27T14:52:05Z</time>
    </trkpt>
    <trkpt lat="48.6448153192759" lon="9.78184123040677">
    <ele>475</ele>
    <time>2007-06-27T14:52:13Z</time>
    </trkpt>
    <trkpt lat="48.6441108529438" lon="9.7829498870479">
    <ele>476</ele>
    <time>2007-06-27T14:52:31Z</time>
    </trkpt>
    <trkpt lat="48.6431909" lon="9.7833896">
    <ele>476</ele>
    <time>2007-06-27T14:52:53Z</time>
    </trkpt>
    <trkpt lat="48.6417317" lon="9.7837114">
    <ele>477</ele>
    <time>2007-06-27T14:53:16Z</time>
    </trkpt>
    <trkpt lat="48.6416459" lon="9.7837114">
    <ele>481</ele>
    <time>2007-06-27T14:53:22Z</time>
    </trkpt>
    <trkpt lat="48.6414957" lon="9.7837543">
    <ele>489</ele>
    <time>2007-06-27T14:55:00Z</time>
    </trkpt>
    <trkpt lat="48.6412168" lon="9.7839904">
    <ele>490</ele>
    <time>2007-06-27T14:55:08Z</time>
    </trkpt>
    <trkpt lat="48.6410236" lon="9.7846556">
    <ele>489</ele>
    <time>2007-06-27T14:55:22Z</time>
    </trkpt>
    <trkpt lat="48.6408949" lon="9.7849989">
    <ele>490</ele>
    <time>2007-06-27T14:55:29Z</time>
    </trkpt>
    <trkpt lat="48.6406374" lon="9.7850418">
    <ele>493</ele>
    <time>2007-06-27T14:55:35Z</time>
    </trkpt>
    <trkpt lat="48.640337" lon="9.7847199">
    <ele>496</ele>
    <time>2007-06-27T14:55:50Z</time>
    </trkpt>
    <trkpt lat="48.6402941" lon="9.7846556">
    <ele>498</ele>
    <time>2007-06-27T14:56:04Z</time>
    </trkpt>
    <trkpt lat="48.6402512" lon="9.7844195">
    <ele>505</ele>
    <time>2007-06-27T14:57:17Z</time>
    </trkpt>
    <trkpt lat="48.6402082" lon="9.7840762">
    <ele>505</ele>
    <time>2007-06-27T14:57:21Z</time>
    </trkpt>
    <trkpt lat="48.639822" lon="9.7823167">
    <ele>506</ele>
    <time>2007-06-27T14:57:46Z</time>
    </trkpt>
    <trkpt lat="48.6398005" lon="9.7822309">
    <ele>507</ele>
    <time>2007-06-27T14:57:47Z</time>
    </trkpt>
    <trkpt lat="48.6386438249875" lon="9.780219357822">
    <ele>507</ele>
    <time>2007-06-27T14:58:18Z</time>
    </trkpt>
    <trkpt lat="48.6384487" lon="9.7790122">
    <ele>565</ele>
    <time>2007-06-27T15:00:54Z</time>
    </trkpt>
    <trkpt lat="48.6380694060817" lon="9.77539363372866">
    <ele>550</ele>
    <time>2007-06-27T15:01:28Z</time>
    </trkpt>
    <trkpt lat="48.6379427432759" lon="9.77417051846569">
    <ele>620</ele>
    <time>2007-06-27T15:02:49Z</time>
    </trkpt>
    <trkpt lat="48.6389591059271" lon="9.77347370632768">
    <ele>562</ele>
    <time>2007-06-27T15:04:10Z</time>
    </trkpt>
    <trkpt lat="48.6401653" lon="9.7738838">
    <ele>570</ele>
    <time>2007-06-27T15:05:04Z</time>
    </trkpt>
    <trkpt lat="48.6409243" lon="9.7739275">
    <ele>570</ele>
    <time>2007-06-27T15:05:20Z</time>
    </trkpt>
    <trkpt lat="48.6415562" lon="9.773564">
    <ele>570</ele>
    <time>2007-06-27T15:05:31Z</time>
    </trkpt>
    <trkpt lat="48.6427817" lon="9.7718525">
    <ele>570</ele>
    <time>2007-06-27T15:05:33Z</time>
    </trkpt>
    <trkpt lat="48.6431055" lon="9.7705005">
    <ele>570</ele>
    <time>2007-06-27T15:06:00Z</time>
    </trkpt>
    <trkpt lat="48.6432913" lon="9.7696213">
    <ele>567</ele>
    <time>2007-06-27T15:06:26Z</time>
    </trkpt>
    <trkpt lat="48.6432413" lon="9.7670083">
    <ele>557</ele>
    <time>2007-06-27T15:06:54Z</time>
    </trkpt>
    <trkpt lat="48.6437057" lon="9.7647762">
    <ele>556</ele>
    <time>2007-06-27T15:06:57Z</time>
    </trkpt>
    <trkpt lat="48.6437057" lon="9.7647762">
    <ele>555</ele>
    <time>2007-06-27T15:08:05Z</time>
    </trkpt>
    <trkpt lat="48.6439747376324" lon="9.76303348732322">
    <ele>503</ele>
    <time>2007-06-27T15:08:18Z</time>
    </trkpt>
    <trkpt lat="48.644135" lon="9.7614169">
    <ele>521</ele>
    <time>2007-06-27T15:08:47Z</time>
    </trkpt>
    <trkpt lat="48.6447414" lon="9.7611618">
    <ele>521</ele>
    <time>2007-06-27T15:09:15Z</time>
    </trkpt>
    <trkpt lat="48.6450331" lon="9.7612341">
    <ele>521</ele>
    <time>2007-06-27T15:09:18Z</time>
    </trkpt>
    <trkpt lat="48.6457055" lon="9.7615495">
    <ele>521</ele>
    <time>2007-06-27T15:09:26Z</time>
    </trkpt>
    <trkpt lat="48.6458195" lon="9.7613138">
    <ele>536</ele>
    <time>2007-06-27T15:09:50Z</time>
    </trkpt>
    <trkpt lat="48.6457559" lon="9.760736">
    <ele>531</ele>
    <time>2007-06-27T15:11:54Z</time>
    </trkpt>
    <trkpt lat="48.6456929" lon="9.7600566">
    <ele>531</ele>
    <time>2007-06-27T15:12:14Z</time>
    </trkpt>
    <trkpt lat="48.6457229" lon="9.7597218">
    <ele>533</ele>
    <time>2007-06-27T15:12:30Z</time>
    </trkpt>
    <trkpt lat="48.6455727" lon="9.7587132">
    <ele>538</ele>
    <time>2007-06-27T15:12:47Z</time>
    </trkpt>
    <trkpt lat="48.644883" lon="9.7567196">
    <ele>540</ele>
    <time>2007-06-27T15:13:27Z</time>
    </trkpt>
    <trkpt lat="48.6447773" lon="9.7557003">
    <ele>551</ele>
    <time>2007-06-27T15:14:08Z</time>
    </trkpt>
    <trkpt lat="48.6444762" lon="9.7536263">
    <ele>553</ele>
    <time>2007-06-27T15:14:41Z</time>
    </trkpt>
    <trkpt lat="48.6439867" lon="9.7528387">
    <ele>555</ele>
    <time>2007-06-27T15:14:49Z</time>
    </trkpt>
    <trkpt lat="48.6436989" lon="9.7521559">
    <ele>561</ele>
    <time>2007-06-27T15:15:13Z</time>
    </trkpt>
    <trkpt lat="48.6433018" lon="9.7509966">
    <ele>562</ele>
    <time>2007-06-27T15:15:57Z</time>
    </trkpt>
    <trkpt lat="48.6433314" lon="9.7499114">
    <ele>562</ele>
    <time>2007-06-27T15:16:21Z</time>
    </trkpt>
    <trkpt lat="48.6433411" lon="9.7491646">
    <ele>544</ele>
    <time>2007-06-27T15:34:01Z</time>
    </trkpt>
    <trkpt lat="48.6434054" lon="9.7493362">
    <ele>574</ele>
    <time>2007-06-27T15:34:13Z</time>
    </trkpt>
    <trkpt lat="48.6435556" lon="9.7491646">
    <ele>590</ele>
    <time>2007-06-27T15:37:17Z</time>
    </trkpt>
    <trkpt lat="48.6444569" lon="9.7486925">
    <ele>588</ele>
    <time>2007-06-27T15:37:28Z</time>
    </trkpt>
    <trkpt lat="48.6452293" lon="9.7478342">
    <ele>584</ele>
    <time>2007-06-27T15:37:35Z</time>
    </trkpt>
    <trkpt lat="48.6455941" lon="9.7475553">
    <ele>581</ele>
    <time>2007-06-27T15:37:39Z</time>
    </trkpt>
    <trkpt lat="48.645916" lon="9.7479415">
    <ele>581</ele>
    <time>2007-06-27T15:37:43Z</time>
    </trkpt>
    <trkpt lat="48.6460233" lon="9.7483063">
    <ele>580</ele>
    <time>2007-06-27T15:37:45Z</time>
    </trkpt>
    <trkpt lat="48.6464263945017" lon="9.74916033570967">
    <ele>578</ele>
    <time>2007-06-27T15:37:51Z</time>
    </trkpt>
    <trkpt lat="48.646946" lon="9.74895">
    <ele>578</ele>
    <time>2007-06-27T15:37:53Z</time>
    </trkpt>
    <trkpt lat="48.6477828" lon="9.749186">
    <ele>575</ele>
    <time>2007-06-27T15:37:58Z</time>
    </trkpt>
    <trkpt lat="48.6492634" lon="9.7497654">
    <ele>574</ele>
    <time>2007-06-27T15:38:06Z</time>
    </trkpt>
    <trkpt lat="48.649714" lon="9.7502435">
    <ele>575</ele>
    <time>2007-06-27T15:38:12Z</time>
    </trkpt>
    <trkpt lat="48.6504436" lon="9.7506881">
    <ele>576</ele>
    <time>2007-06-27T15:38:16Z</time>
    </trkpt>
    <trkpt lat="48.6510764" lon="9.751621">
    <ele>571</ele>
    <time>2007-06-27T15:38:33Z</time>
    </trkpt>
    <trkpt lat="48.6518841" lon="9.7518705">
    <ele>571</ele>
    <time>2007-06-27T15:38:36Z</time>
    </trkpt>
    <trkpt lat="48.6524287" lon="9.7510982">
    <ele>571</ele>
    <time>2007-06-27T15:41:16Z</time>
    </trkpt>
    <trkpt lat="48.6530646" lon="9.7501236">
    <ele>571</ele>
    <time>2007-06-27T15:41:27Z</time>
    </trkpt>
    <trkpt lat="48.653469" lon="9.7501635">
    <ele>571</ele>
    <time>2007-06-27T15:41:35Z</time>
    </trkpt>
    <trkpt lat="48.6541694" lon="9.749631">
    <ele>572</ele>
    <time>2007-06-27T15:41:47Z</time>
    </trkpt>
    <trkpt lat="48.6547305" lon="9.7497751">
    <ele>573</ele>
    <time>2007-06-27T15:41:53Z</time>
    </trkpt>
    <trkpt lat="48.6554018" lon="9.7502601">
    <ele>571</ele>
    <time>2007-06-27T15:41:55Z</time>
    </trkpt>
    <trkpt lat="48.6564376" lon="9.750004">
    <ele>498</ele>
    <time>2007-06-27T15:41:59Z</time>
    </trkpt>
    <trkpt lat="48.656773" lon="9.7502804">
    <ele>566</ele>
    <time>2007-06-27T15:42:03Z</time>
    </trkpt>
    <trkpt lat="48.6573555" lon="9.7505945">
    <ele>565</ele>
    <time>2007-06-27T15:42:12Z</time>
    </trkpt>
    <trkpt lat="48.6581719" lon="9.7495207">
    <ele>566</ele>
    <time>2007-06-27T15:43:17Z</time>
    </trkpt>
    <trkpt lat="48.6587795" lon="9.7494279">
    <ele>564</ele>
    <time>2007-06-27T15:43:21Z</time>
    </trkpt>
    <trkpt lat="48.6587795" lon="9.7494279">
    <ele>516</ele>
    <time>2007-06-27T16:30:31Z</time>
    </trkpt>
    <trkpt lat="48.659606" lon="9.7494221">
    <ele>442</ele>
    <time>2007-06-27T16:31:36Z</time>
    </trkpt>
    <trkpt lat="48.6592197" lon="9.7492504">
    <ele>447</ele>
    <time>2007-06-27T16:33:45Z</time>
    </trkpt>
    <trkpt lat="48.6587048" lon="9.7486496">
    <ele>447</ele>
    <time>2007-06-27T16:34:05Z</time>
    </trkpt>
    <trkpt lat="48.6586833" lon="9.7486496">
    <ele>447</ele>
    <time>2007-06-27T16:34:06Z</time>
    </trkpt>
    <trkpt lat="48.6584044" lon="9.7483492">
    <ele>446</ele>
    <time>2007-06-27T16:34:36Z</time>
    </trkpt>
    <trkpt lat="48.6582112" lon="9.7483277">
    <ele>446</ele>
    <time>2007-06-27T16:34:53Z</time>
    </trkpt>
    <trkpt lat="48.6578035" lon="9.7483706">
    <ele>446</ele>
    <time>2007-06-27T16:35:29Z</time>
    </trkpt>
    <trkpt lat="48.6574817" lon="9.7482848">
    <ele>443</ele>
    <time>2007-06-27T16:35:43Z</time>
    </trkpt>
    <trkpt lat="48.6572121" lon="9.7484545">
    <ele>448</ele>
    <time>2007-06-27T16:35:54Z</time>
    </trkpt>
    <trkpt lat="48.6571021" lon="9.7480796">
    <ele>451</ele>
    <time>2007-06-27T16:36:14Z</time>
    </trkpt>
    <trkpt lat="48.6571021" lon="9.7480796">
    <ele>451</ele>
    <time>2007-06-27T16:37:20Z</time>
    </trkpt>
    <trkpt lat="48.6566574" lon="9.7473264">
    <ele>449</ele>
    <time>2007-06-27T16:37:23Z</time>
    </trkpt>
    <trkpt lat="48.6563015" lon="9.7470403">
    <ele>449</ele>
    <time>2007-06-27T16:37:26Z</time>
    </trkpt>
    <trkpt lat="48.6563873" lon="9.7464824">
    <ele>449</ele>
    <time>2007-06-27T16:37:45Z</time>
    </trkpt>
    <trkpt lat="48.656795" lon="9.7463107">
    <ele>449</ele>
    <time>2007-06-27T16:38:19Z</time>
    </trkpt>
    <trkpt lat="48.6569881" lon="9.7460961">
    <ele>449</ele>
    <time>2007-06-27T16:38:46Z</time>
    </trkpt>
    <trkpt lat="48.6569667" lon="9.7457957">
    <ele>449</ele>
    <time>2007-06-27T16:39:17Z</time>
    </trkpt>
    <trkpt lat="48.6567736" lon="9.7451091">
    <ele>447</ele>
    <time>2007-06-27T16:39:59Z</time>
    </trkpt>
    <trkpt lat="48.6567092" lon="9.7450447">
    <ele>447</ele>
    <time>2007-06-27T16:40:04Z</time>
    </trkpt>
    <trkpt lat="48.65628" lon="9.7447228">
    <ele>448</ele>
    <time>2007-06-27T16:40:40Z</time>
    </trkpt>
    <trkpt lat="48.6558236" lon="9.7441583">
    <ele>448</ele>
    <time>2007-06-27T16:41:25Z</time>
    </trkpt>
    <trkpt lat="48.6558236" lon="9.7441583">
    <ele>448</ele>
    <time>2007-06-27T16:41:57Z</time>
    </trkpt>
    <trkpt lat="48.6553788" lon="9.7433066">
    <ele>448</ele>
    <time>2007-06-27T16:42:00Z</time>
    </trkpt>
    <trkpt lat="48.6550008" lon="9.742755">
    <ele>448</ele>
    <time>2007-06-27T16:42:41Z</time>
    </trkpt>
    <trkpt lat="48.6550008" lon="9.742755">
    <ele>448</ele>
    <time>2007-06-27T16:43:46Z</time>
    </trkpt>
    <trkpt lat="48.6547995" lon="9.7416544">
    <ele>448</ele>
    <time>2007-06-27T16:43:58Z</time>
    </trkpt>
    <trkpt lat="48.6548853" lon="9.7414613">
    <ele>448</ele>
    <time>2007-06-27T16:44:12Z</time>
    </trkpt>
    <trkpt lat="48.6539646" lon="9.739584">
    <ele>448</ele>
    <time>2007-06-27T16:45:04Z</time>
    </trkpt>
    <trkpt lat="48.6539646" lon="9.739584">
    <ele>448</ele>
    <time>2007-06-27T16:52:07Z</time>
    </trkpt>
    <trkpt lat="48.6544789" lon="9.7365037">
    <ele>448</ele>
    <time>2007-06-27T16:52:39Z</time>
    </trkpt>
    <trkpt lat="48.6556452" lon="9.7369279">
    <ele>448</ele>
    <time>2007-06-27T16:53:03Z</time>
    </trkpt>
    <trkpt lat="48.6565844" lon="9.7377221">
    <ele>448</ele>
    <time>2007-06-27T16:53:24Z</time>
    </trkpt>
    <trkpt lat="48.65753" lon="9.7374983">
    <ele>451</ele>
    <time>2007-06-27T16:53:47Z</time>
    </trkpt>
    <trkpt lat="48.6589043" lon="9.7370433">
    <ele>467</ele>
    <time>2007-06-27T16:54:11Z</time>
    </trkpt>
    <trkpt lat="48.6590876" lon="9.736503">
    <ele>483</ele>
    <time>2007-06-27T16:58:35Z</time>
    </trkpt>
    <trkpt lat="48.6590693" lon="9.7358579">
    <ele>483</ele>
    <time>2007-06-27T16:58:39Z</time>
    </trkpt>
    <trkpt lat="48.6590367" lon="9.7339231">
    <ele>483</ele>
    <time>2007-06-27T16:58:52Z</time>
    </trkpt>
    <trkpt lat="48.6589074" lon="9.7330389">
    <ele>483</ele>
    <time>2007-06-27T16:59:00Z</time>
    </trkpt>
    <trkpt lat="48.658287" lon="9.7316046">
    <ele>483</ele>
    <time>2007-06-27T16:59:04Z</time>
    </trkpt>
    <trkpt lat="48.65773" lon="9.7308161">
    <ele>483</ele>
    <time>2007-06-27T16:59:07Z</time>
    </trkpt>
    <trkpt lat="48.65773" lon="9.7308161">
    <ele>470</ele>
    <time>2007-06-27T17:00:43Z</time>
    </trkpt>
    <trkpt lat="48.657546" lon="9.7296166">
    <ele>467</ele>
    <time>2007-06-27T17:00:49Z</time>
    </trkpt>
    <trkpt lat="48.6575031" lon="9.7292733">
    <ele>472</ele>
    <time>2007-06-27T17:00:53Z</time>
    </trkpt>
    <trkpt lat="48.6572886" lon="9.7281361">
    <ele>466</ele>
    <time>2007-06-27T17:01:07Z</time>
    </trkpt>
    <trkpt lat="48.6570096" lon="9.7264194">
    <ele>466</ele>
    <time>2007-06-27T17:01:30Z</time>
    </trkpt>
    <trkpt lat="48.6566138" lon="9.7260153">
    <ele>466</ele>
    <time>2007-06-27T17:01:49Z</time>
    </trkpt>
    <trkpt lat="48.6560289" lon="9.7260747">
    <ele>466</ele>
    <time>2007-06-27T17:01:52Z</time>
    </trkpt>
    <trkpt lat="48.6556639" lon="9.7269178">
    <ele>466</ele>
    <time>2007-06-27T17:02:12Z</time>
    </trkpt>
    <trkpt lat="48.6549004" lon="9.7267711">
    <ele>466</ele>
    <time>2007-06-27T17:02:16Z</time>
    </trkpt>
    <trkpt lat="48.6545407" lon="9.7267659">
    <ele>466</ele>
    <time>2007-06-27T17:02:32Z</time>
    </trkpt>
    <trkpt lat="48.6545671" lon="9.7261555">
    <ele>470</ele>
    <time>2007-06-27T17:02:47Z</time>
    </trkpt>
    <trkpt lat="48.6545917" lon="9.7258166">
    <time>2007-06-27T17:04:26Z</time>
    </trkpt>
    <trkpt lat="48.6546922" lon="9.7244668">
    <ele>464</ele>
    <time>2007-06-27T17:05:05Z</time>
    </trkpt>
    <trkpt lat="48.6544776" lon="9.7240591">
    <ele>458</ele>
    <time>2007-06-27T17:05:13Z</time>
    </trkpt>
    <trkpt lat="48.6537266" lon="9.723587">
    <ele>450</ele>
    <time>2007-06-27T17:05:34Z</time>
    </trkpt>
    <trkpt lat="48.6538768" lon="9.7224069">
    <ele>442</ele>
    <time>2007-06-27T17:05:52Z</time>
    </trkpt>
    <trkpt lat="48.6538768" lon="9.7223425">
    <ele>441</ele>
    <time>2007-06-27T17:05:53Z</time>
    </trkpt>
    <trkpt lat="48.6539841" lon="9.7210765">
    <ele>439</ele>
    <time>2007-06-27T17:06:12Z</time>
    </trkpt>
    <trkpt lat="48.6538339" lon="9.7209477">
    <ele>438</ele>
    <time>2007-06-27T17:06:17Z</time>
    </trkpt>
    <trkpt lat="48.653431" lon="9.7209137">
    <ele>438</ele>
    <time>2007-06-27T17:06:28Z</time>
    </trkpt>
    <trkpt lat="48.6532055" lon="9.7210123">
    <ele>402</ele>
    <time>2007-06-27T17:32:17Z</time>
    </trkpt>
    <trkpt lat="48.6530185" lon="9.7220206">
    <ele>405</ele>
    <time>2007-06-27T17:32:33Z</time>
    </trkpt>
    <trkpt lat="48.6527181" lon="9.722836">
    <ele>405</ele>
    <time>2007-06-27T17:32:46Z</time>
    </trkpt>
    <trkpt lat="48.6525464" lon="9.7232008">
    <ele>405</ele>
    <time>2007-06-27T17:32:52Z</time>
    </trkpt>
    <trkpt lat="48.6523318" lon="9.7235012">
    <ele>405</ele>
    <time>2007-06-27T17:32:58Z</time>
    </trkpt>
    <trkpt lat="48.6520314" lon="9.7234368">
    <ele>406</ele>
    <time>2007-06-27T17:33:04Z</time>
    </trkpt>
    <trkpt lat="48.6517096" lon="9.7229862">
    <ele>433</ele>
    <time>2007-06-27T17:33:41Z</time>
    </trkpt>
    <trkpt lat="48.6511946" lon="9.7223854">
    <ele>443</ele>
    <time>2007-06-27T17:33:54Z</time>
    </trkpt>
    <trkpt lat="48.6508942" lon="9.7221065">
    <ele>445</ele>
    <time>2007-06-27T17:34:01Z</time>
    </trkpt>
    <trkpt lat="48.6498213" lon="9.722321">
    <ele>457</ele>
    <time>2007-06-27T17:34:22Z</time>
    </trkpt>
    <trkpt lat="48.6490813" lon="9.722616">
    <ele>464</ele>
    <time>2007-06-27T17:35:06Z</time>
    </trkpt>
    <trkpt lat="48.6490103" lon="9.7231918">
    <ele>486</ele>
    <time>2007-06-27T17:36:59Z</time>
    </trkpt>
    <trkpt lat="48.6490086" lon="9.7234632">
    <ele>486</ele>
    <time>2007-06-27T17:37:13Z</time>
    </trkpt>
    <trkpt lat="48.6489131" lon="9.724344">
    <ele>495</ele>
    <time>2007-06-27T17:37:14Z</time>
    </trkpt>
    <trkpt lat="48.6480679" lon="9.7264693">
    <ele>486</ele>
    <time>2007-06-27T17:37:15Z</time>
    </trkpt>
    <trkpt lat="48.6465127" lon="9.7270916">
    <ele>502</ele>
    <time>2007-06-27T17:37:39Z</time>
    </trkpt>
    <trkpt lat="48.6465127" lon="9.7270916">
    <ele>502</ele>
    <time>2007-06-27T17:38:04Z</time>
    </trkpt>
    <trkpt lat="48.6471912" lon="9.7264568">
    <ele>504</ele>
    <time>2007-06-27T17:38:05Z</time>
    </trkpt>
    <trkpt lat="48.6473079" lon="9.7257799">
    <ele>502</ele>
    <time>2007-06-27T17:38:05Z</time>
    </trkpt>
    <trkpt lat="48.6474016" lon="9.7251705">
    <ele>502</ele>
    <time>2007-06-27T17:38:16Z</time>
    </trkpt>
    <trkpt lat="48.6476523" lon="9.7246313">
    <ele>502</ele>
    <time>2007-06-27T17:38:20Z</time>
    </trkpt>
    <trkpt lat="48.6475876" lon="9.7241893">
    <ele>502</ele>
    <time>2007-06-27T17:38:23Z</time>
    </trkpt>
    <trkpt lat="48.6463515" lon="9.7241377">
    <ele>530</ele>
    <time>2007-06-27T17:38:58Z</time>
    </trkpt>
    <trkpt lat="48.645737" lon="9.7253163">
    <ele>533</ele>
    <time>2007-06-27T17:39:39Z</time>
    </trkpt>
    <trkpt lat="48.6445309" lon="9.7276399">
    <ele>533</ele>
    <time>2007-06-27T17:40:13Z</time>
    </trkpt>
    <trkpt lat="48.6443502" lon="9.727773">
    <ele>642</ele>
    <time>2007-06-27T17:41:47Z</time>
    </trkpt>
    <trkpt lat="48.6438775" lon="9.7278786">
    <ele>597</ele>
    <time>2007-06-27T17:42:13Z</time>
    </trkpt>
    <trkpt lat="48.6443971" lon="9.7274683">
    <ele>589</ele>
    <time>2007-06-27T17:42:17Z</time>
    </trkpt>
    <trkpt lat="48.6440472" lon="9.7259027">
    <ele>594</ele>
    <time>2007-06-27T17:42:35Z</time>
    </trkpt>
    <trkpt lat="48.6436043" lon="9.7248447">
    <ele>594</ele>
    <time>2007-06-27T17:42:43Z</time>
    </trkpt>
    <trkpt lat="48.6426145" lon="9.7249323">
    <ele>594</ele>
    <time>2007-06-27T17:43:04Z</time>
    </trkpt>
    <trkpt lat="48.6413608" lon="9.7241001">
    <ele>594</ele>
    <time>2007-06-27T17:43:11Z</time>
    </trkpt>
    <trkpt lat="48.641204" lon="9.7239961">
    <ele>636</ele>
    <time>2007-06-27T17:47:39Z</time>
    </trkpt>
    <trkpt lat="48.6379356" lon="9.7217784">
    <ele>623</ele>
    <time>2007-06-27T17:47:53Z</time>
    </trkpt>
    <trkpt lat="48.6376031" lon="9.7210274">
    <ele>641</ele>
    <time>2007-06-27T17:48:14Z</time>
    </trkpt>
    <trkpt lat="48.6374063" lon="9.7201426">
    <ele>641</ele>
    <time>2007-06-27T17:48:36Z</time>
    </trkpt>
    <trkpt lat="48.6374063" lon="9.7201426">
    <ele>729</ele>
    <time>2007-06-28T05:31:01Z</time>
    </trkpt>
    <trkpt lat="48.6381165" lon="9.7180157">
    <ele>698</ele>
    <time>2007-06-28T05:31:19Z</time>
    </trkpt>
    <trkpt lat="48.6380196" lon="9.7173643">
    <ele>712</ele>
    <time>2007-06-28T05:32:54Z</time>
    </trkpt>
    <trkpt lat="48.6375904" lon="9.7179008">
    <ele>711</ele>
    <time>2007-06-28T05:33:17Z</time>
    </trkpt>
    <trkpt lat="48.6362171" lon="9.7192955">
    <ele>710</ele>
    <time>2007-06-28T05:33:59Z</time>
    </trkpt>
    <trkpt lat="48.636024" lon="9.7195101">
    <ele>711</ele>
    <time>2007-06-28T05:34:04Z</time>
    </trkpt>
    <trkpt lat="48.6352349488015" lon="9.72026467311761">
    <ele>713</ele>
    <time>2007-06-28T05:34:18Z</time>
    </trkpt>
    <trkpt lat="48.6344219926718" lon="9.72442514789279">
    <ele>714</ele>
    <time>2007-06-28T05:34:54Z</time>
    </trkpt>
    <trkpt lat="48.6335843" lon="9.7273128">
    <ele>714</ele>
    <time>2007-06-28T05:35:10Z</time>
    </trkpt>
    <trkpt lat="48.633492" lon="9.7279644">
    <ele>717</ele>
    <time>2007-06-28T05:35:47Z</time>
    </trkpt>
    <trkpt lat="48.6335135" lon="9.7297239">
    <ele>728</ele>
    <time>2007-06-28T05:36:10Z</time>
    </trkpt>
    <trkpt lat="48.6332032" lon="9.7306992">
    <ele>728</ele>
    <time>2007-06-28T05:36:27Z</time>
    </trkpt>
    <trkpt lat="48.6330199" lon="9.7309256">
    <ele>728</ele>
    <time>2007-06-28T05:36:34Z</time>
    </trkpt>
    <trkpt lat="48.6330199" lon="9.7309256">
    <ele>727</ele>
    <time>2007-06-28T05:36:37Z</time>
    </trkpt>
    <trkpt lat="48.6319698" lon="9.7302065">
    <ele>727</ele>
    <time>2007-06-28T05:36:52Z</time>
    </trkpt>
    <trkpt lat="48.6310029" lon="9.7293806">
    <ele>727</ele>
    <time>2007-06-28T05:37:16Z</time>
    </trkpt>
    <trkpt lat="48.6306596" lon="9.7293162">
    <ele>727</ele>
    <time>2007-06-28T05:37:22Z</time>
    </trkpt>
    <trkpt lat="48.6305523" lon="9.7293591">
    <ele>727</ele>
    <time>2007-06-28T05:37:24Z</time>
    </trkpt>
    <trkpt lat="48.6298442" lon="9.7304964">
    <ele>726</ele>
    <time>2007-06-28T05:37:41Z</time>
    </trkpt>
    <trkpt lat="48.628428" lon="9.7338653">
    <ele>726</ele>
    <time>2007-06-28T05:38:29Z</time>
    </trkpt>
    <trkpt lat="48.6280847" lon="9.7351098">
    <ele>726</ele>
    <time>2007-06-28T05:38:44Z</time>
    </trkpt>
    <trkpt lat="48.6272907" lon="9.7351956">
    <ele>725</ele>
    <time>2007-06-28T05:38:58Z</time>
    </trkpt>
    <trkpt lat="48.6271405" lon="9.7351742">
    <ele>725</ele>
    <time>2007-06-28T05:39:05Z</time>
    </trkpt>
    <trkpt lat="48.6270547" lon="9.7351742">
    <ele>725</ele>
    <time>2007-06-28T05:39:20Z</time>
    </trkpt>
    <trkpt lat="48.626647" lon="9.7348952">
    <ele>725</ele>
    <time>2007-06-28T05:39:28Z</time>
    </trkpt>
    <trkpt lat="48.6256814" lon="9.7342086">
    <ele>724</ele>
    <time>2007-06-28T05:39:47Z</time>
    </trkpt>
    <trkpt lat="48.625617" lon="9.7341657">
    <ele>724</ele>
    <time>2007-06-28T05:39:49Z</time>
    </trkpt>
    <trkpt lat="48.6254454" lon="9.734273">
    <ele>724</ele>
    <time>2007-06-28T05:39:54Z</time>
    </trkpt>
    <trkpt lat="48.6250806" lon="9.7350669">
    <ele>658</ele>
    <time>2007-06-28T05:40:09Z</time>
    </trkpt>
    <trkpt lat="48.6247587" lon="9.7365689">
    <ele>660</ele>
    <time>2007-06-28T05:40:35Z</time>
    </trkpt>
    <trkpt lat="48.6249948" lon="9.7389078">
    <ele>659</ele>
    <time>2007-06-28T05:41:08Z</time>
    </trkpt>
    <trkpt lat="48.6247995" lon="9.7405482">
    <ele>658</ele>
    <time>2007-06-28T05:41:32Z</time>
    </trkpt>
    <trkpt lat="48.6246514" lon="9.7416544">
    <ele>641</ele>
    <time>2007-06-28T05:41:47Z</time>
    </trkpt>
    <trkpt lat="48.6238575" lon="9.7439289">
    <ele>624</ele>
    <time>2007-06-28T05:42:17Z</time>
    </trkpt>
    <trkpt lat="48.6234069" lon="9.7452593">
    <ele>607</ele>
    <time>2007-06-28T05:42:33Z</time>
    </trkpt>
    <trkpt lat="48.6231709" lon="9.745667">
    <ele>602</ele>
    <time>2007-06-28T05:42:40Z</time>
    </trkpt>
    <trkpt lat="48.6230206" lon="9.7455382">
    <ele>600</ele>
    <time>2007-06-28T05:42:51Z</time>
    </trkpt>
    <trkpt lat="48.6229777" lon="9.7454739">
    <ele>599</ele>
    <time>2007-06-28T05:43:47Z</time>
    </trkpt>
    <trkpt lat="48.6229348" lon="9.7453237">
    <ele>598</ele>
    <time>2007-06-28T05:43:49Z</time>
    </trkpt>
    <trkpt lat="48.6228061" lon="9.744401">
    <ele>593</ele>
    <time>2007-06-28T05:43:56Z</time>
    </trkpt>
    <trkpt lat="48.6225486" lon="9.7437572">
    <ele>586</ele>
    <time>2007-06-28T05:44:01Z</time>
    </trkpt>
    <trkpt lat="48.6214328" lon="9.7420192">
    <ele>565</ele>
    <time>2007-06-28T05:44:16Z</time>
    </trkpt>
    <trkpt lat="48.6202741" lon="9.7404957">
    <ele>549</ele>
    <time>2007-06-28T05:44:31Z</time>
    </trkpt>
    <trkpt lat="48.6199522" lon="9.7401524">
    <ele>545</ele>
    <time>2007-06-28T05:44:35Z</time>
    </trkpt>
    <trkpt lat="48.6191154" lon="9.7392082">
    <ele>534</ele>
    <time>2007-06-28T05:44:47Z</time>
    </trkpt>
    <trkpt lat="48.6182785" lon="9.7380066">
    <ele>528</ele>
    <time>2007-06-28T05:45:00Z</time>
    </trkpt>
    <trkpt lat="48.6176348" lon="9.7372127">
    <ele>525</ele>
    <time>2007-06-28T05:45:11Z</time>
    </trkpt>
    <trkpt lat="48.6175275" lon="9.736805">
    <ele>525</ele>
    <time>2007-06-28T05:45:15Z</time>
    </trkpt>
    <trkpt lat="48.6172271" lon="9.7361612">
    <ele>524</ele>
    <time>2007-06-28T05:45:23Z</time>
    </trkpt>
    <trkpt lat="48.6171842" lon="9.7358394">
    <ele>522</ele>
    <time>2007-06-28T05:45:32Z</time>
    </trkpt>
    <trkpt lat="48.6170126" lon="9.7348056">
    <ele>519</ele>
    <time>2007-06-28T05:45:41Z</time>
    </trkpt>
    <trkpt lat="48.6169449" lon="9.7348386">
    <ele>451</ele>
    <time>2007-06-28T05:48:38Z</time>
    </trkpt>
    <trkpt lat="48.6173129" lon="9.734745">
    <ele>509</ele>
    <time>2007-06-28T05:49:30Z</time>
    </trkpt>
    <trkpt lat="48.6178923" lon="9.7339725">
    <ele>509</ele>
    <time>2007-06-28T05:49:41Z</time>
    </trkpt>
    <trkpt lat="48.6181712" lon="9.733479">
    <ele>508</ele>
    <time>2007-06-28T05:49:47Z</time>
    </trkpt>
    <trkpt lat="48.6186004" lon="9.7332859">
    <ele>506</ele>
    <time>2007-06-28T05:49:56Z</time>
    </trkpt>
    <trkpt lat="48.6186647" lon="9.733243">
    <ele>504</ele>
    <time>2007-06-28T05:50:18Z</time>
    </trkpt>
    <trkpt lat="48.618536" lon="9.7328353">
    <ele>506</ele>
    <time>2007-06-28T05:57:17Z</time>
    </trkpt>
    <trkpt lat="48.6185789" lon="9.7333288">
    <ele>504</ele>
    <time>2007-06-28T05:57:47Z</time>
    </trkpt>
    <trkpt lat="48.618536" lon="9.7328353">
    <ele>504</ele>
    <time>2007-06-28T05:57:58Z</time>
    </trkpt>
    <trkpt lat="48.6188579" lon="9.7319341">
    <ele>504</ele>
    <time>2007-06-28T05:58:16Z</time>
    </trkpt>
    <trkpt lat="48.6188149" lon="9.7319126">
    <ele>503</ele>
    <time>2007-06-28T05:58:40Z</time>
    </trkpt>
    <trkpt lat="48.6188149" lon="9.7318268">
    <ele>503</ele>
    <time>2007-06-28T05:59:16Z</time>
    </trkpt>
    <trkpt lat="48.6189839368624" lon="9.73044341520855">
    <ele>505</ele>
    <time>2007-06-28T05:59:35Z</time>
    </trkpt>
    <trkpt lat="48.6176133" lon="9.7288442">
    <ele>532</ele>
    <time>2007-06-28T06:00:10Z</time>
    </trkpt>
    <trkpt lat="48.6175489" lon="9.7288013">
    <ele>536</ele>
    <time>2007-06-28T06:00:19Z</time>
    </trkpt>
    <trkpt lat="48.6173344" lon="9.7289729">
    <ele>545</ele>
    <time>2007-06-28T06:01:09Z</time>
    </trkpt>
    <trkpt lat="48.6163259" lon="9.7298098">
    <ele>541</ele>
    <time>2007-06-28T06:01:28Z</time>
    </trkpt>
    <trkpt lat="48.6158967" lon="9.7300458">
    <ele>540</ele>
    <time>2007-06-28T06:01:35Z</time>
    </trkpt>
    <trkpt lat="48.6155319" lon="9.7301531">
    <ele>536</ele>
    <time>2007-06-28T06:01:41Z</time>
    </trkpt>
    <trkpt lat="48.6154032" lon="9.7303247">
    <ele>533</ele>
    <time>2007-06-28T06:01:49Z</time>
    </trkpt>
    <trkpt lat="48.6153817" lon="9.7303247">
    <ele>531</ele>
    <time>2007-06-28T06:03:05Z</time>
    </trkpt>
    <trkpt lat="48.6152959" lon="9.7303462">
    <ele>530</ele>
    <time>2007-06-28T06:03:10Z</time>
    </trkpt>
    <trkpt lat="48.6151028" lon="9.7300458">
    <ele>532</ele>
    <time>2007-06-28T06:03:17Z</time>
    </trkpt>
    <trkpt lat="48.6149526" lon="9.7298312">
    <ele>535</ele>
    <time>2007-06-28T06:03:21Z</time>
    </trkpt>
    <trkpt lat="48.6147594" lon="9.7298098">
    <ele>537</ele>
    <time>2007-06-28T06:03:25Z</time>
    </trkpt>
    <trkpt lat="48.6138797" lon="9.7300243">
    <ele>545</ele>
    <time>2007-06-28T06:03:38Z</time>
    </trkpt>
    <trkpt lat="48.6136436" lon="9.7300673">
    <ele>545</ele>
    <time>2007-06-28T06:03:41Z</time>
    </trkpt>
    <trkpt lat="48.6132145" lon="9.7300029">
    <ele>546</ele>
    <time>2007-06-28T06:03:47Z</time>
    </trkpt>
    <trkpt lat="48.6119699" lon="9.7295737">
    <ele>545</ele>
    <time>2007-06-28T06:04:05Z</time>
    </trkpt>
    <trkpt lat="48.6110258" lon="9.7285867">
    <ele>541</ele>
    <time>2007-06-28T06:04:21Z</time>
    </trkpt>
    <trkpt lat="48.6102748" lon="9.7276855">
    <ele>541</ele>
    <time>2007-06-28T06:04:34Z</time>
    </trkpt>
    <trkpt lat="48.6101675" lon="9.7275782">
    <ele>542</ele>
    <time>2007-06-28T06:04:42Z</time>
    </trkpt>
    <trkpt lat="48.60991" lon="9.7275782">
    <ele>549</ele>
    <time>2007-06-28T06:06:31Z</time>
    </trkpt>
    <trkpt lat="48.608923" lon="9.7271919">
    <ele>542</ele>
    <time>2007-06-28T06:06:43Z</time>
    </trkpt>
    <trkpt lat="48.6082578" lon="9.7270846">
    <ele>541</ele>
    <time>2007-06-28T06:06:52Z</time>
    </trkpt>
    <trkpt lat="48.6077857" lon="9.7273636">
    <ele>541</ele>
    <time>2007-06-28T06:06:59Z</time>
    </trkpt>
    <trkpt lat="48.6066699" lon="9.7271276">
    <ele>538</ele>
    <time>2007-06-28T06:07:14Z</time>
    </trkpt>
    <trkpt lat="48.6056185" lon="9.7265911">
    <ele>537</ele>
    <time>2007-06-28T06:07:29Z</time>
    </trkpt>
    <trkpt lat="48.6056185" lon="9.7266126">
    <ele>537</ele>
    <time>2007-06-28T06:07:33Z</time>
    </trkpt>
    <trkpt lat="48.6058331" lon="9.7267628">
    <ele>534</ele>
    <time>2007-06-28T06:07:46Z</time>
    </trkpt>
    <trkpt lat="48.6058331" lon="9.7267628">
    <ele>534</ele>
    <time>2007-06-28T06:07:53Z</time>
    </trkpt>
    <trkpt lat="48.6054254" lon="9.7265053">
    <ele>531</ele>
    <time>2007-06-28T06:08:03Z</time>
    </trkpt>
    <trkpt lat="48.6046529" lon="9.7257972">
    <ele>525</ele>
    <time>2007-06-28T06:08:16Z</time>
    </trkpt>
    <trkpt lat="48.6041594" lon="9.7253466">
    <ele>524</ele>
    <time>2007-06-28T06:08:23Z</time>
    </trkpt>
    <trkpt lat="48.6039233" lon="9.7252178">
    <ele>523</ele>
    <time>2007-06-28T06:08:27Z</time>
    </trkpt>
    <trkpt lat="48.6036873" lon="9.7251534">
    <ele>523</ele>
    <time>2007-06-28T06:08:36Z</time>
    </trkpt>
    <trkpt lat="48.6037087" lon="9.7251534">
    <ele>521</ele>
    <time>2007-06-28T06:09:11Z</time>
    </trkpt>
    <trkpt lat="48.6029363" lon="9.725368">
    <ele>518</ele>
    <time>2007-06-28T06:09:23Z</time>
    </trkpt>
    <trkpt lat="48.6024642" lon="9.7255182">
    <ele>517</ele>
    <time>2007-06-28T06:09:30Z</time>
    </trkpt>
    <trkpt lat="48.6021423" lon="9.7252822">
    <ele>515</ele>
    <time>2007-06-28T06:09:38Z</time>
    </trkpt>
    <trkpt lat="48.601799" lon="9.7245741">
    <ele>512</ele>
    <time>2007-06-28T06:09:47Z</time>
    </trkpt>
    <trkpt lat="48.6015844" lon="9.7244239">
    <ele>511</ele>
    <time>2007-06-28T06:09:52Z</time>
    </trkpt>
    <trkpt lat="48.6008334" lon="9.7247887">
    <ele>502</ele>
    <time>2007-06-28T06:10:08Z</time>
    </trkpt>
    <trkpt lat="48.6002237799597" lon="9.72495285833774">
    <ele>498</ele>
    <time>2007-06-28T06:10:23Z</time>
    </trkpt>
    <trkpt lat="48.5992476615036" lon="9.72287126254478">
    <ele>494</ele>
    <time>2007-06-28T06:11:48Z</time>
    </trkpt>
    <trkpt lat="48.5984379772157" lon="9.71933463101306">
    <ele>492</ele>
    <time>2007-06-28T06:11:52Z</time>
    </trkpt>
    <trkpt lat="48.5980770279655" lon="9.71953287442024">
    <ele>490</ele>
    <time>2007-06-28T06:11:58Z</time>
    </trkpt>
    <trkpt lat="48.5975817488206" lon="9.71603471625605">
    <ele>488</ele>
    <time>2007-06-28T06:12:11Z</time>
    </trkpt>
    <trkpt lat="48.5970863630344" lon="9.71253662537812">
    <ele>499</ele>
    <time>2007-06-28T06:16:38Z</time>
    </trkpt>
    <trkpt lat="48.5975504" lon="9.7115493">
    <ele>502</ele>
    <time>2007-06-28T06:18:24Z</time>
    </trkpt>
    <trkpt lat="48.5977435" lon="9.7112918">
    <ele>503</ele>
    <time>2007-06-28T06:18:28Z</time>
    </trkpt>
    <trkpt lat="48.5985589" lon="9.710412">
    <ele>505</ele>
    <time>2007-06-28T06:18:41Z</time>
    </trkpt>
    <trkpt lat="48.5993958" lon="9.7091889">
    <ele>508</ele>
    <time>2007-06-28T06:18:56Z</time>
    </trkpt>
    <trkpt lat="48.599546" lon="9.7089314">
    <ele>509</ele>
    <time>2007-06-28T06:18:59Z</time>
    </trkpt>
    <trkpt lat="48.6001253" lon="9.7084808">
    <ele>513</ele>
    <time>2007-06-28T06:19:08Z</time>
    </trkpt>
    <trkpt lat="48.6006618" lon="9.7077298">
    <ele>516</ele>
    <time>2007-06-28T06:19:18Z</time>
    </trkpt>
    <trkpt lat="48.6017346" lon="9.7064424">
    <ele>521</ele>
    <time>2007-06-28T06:19:36Z</time>
    </trkpt>
    <trkpt lat="48.6026359" lon="9.7053909">
    <ele>523</ele>
    <time>2007-06-28T06:19:53Z</time>
    </trkpt>
    <trkpt lat="48.6027002" lon="9.7053909">
    <ele>524</ele>
    <time>2007-06-28T06:20:12Z</time>
    </trkpt>
    <trkpt lat="48.6032581" lon="9.7047472">
    <ele>526</ele>
    <time>2007-06-28T06:20:21Z</time>
    </trkpt>
    <trkpt lat="48.6047816" lon="9.7032881">
    <ele>531</ele>
    <time>2007-06-28T06:20:42Z</time>
    </trkpt>
    <trkpt lat="48.6056828" lon="9.7026658">
    <ele>533</ele>
    <time>2007-06-28T06:20:53Z</time>
    </trkpt>
    <trkpt lat="48.6072063" lon="9.7020006">
    <ele>537</ele>
    <time>2007-06-28T06:21:09Z</time>
    </trkpt>
    <trkpt lat="48.6078501" lon="9.70155">
    <ele>541</ele>
    <time>2007-06-28T06:21:19Z</time>
    </trkpt>
    <trkpt lat="48.6081719" lon="9.7012711">
    <ele>544</ele>
    <time>2007-06-28T06:21:31Z</time>
    </trkpt>
    <trkpt lat="48.6081076" lon="9.7013569">
    <ele>549</ele>
    <time>2007-06-28T06:22:18Z</time>
    </trkpt>
    <trkpt lat="48.6080861" lon="9.7012067">
    <ele>549</ele>
    <time>2007-06-28T06:22:23Z</time>
    </trkpt>
    <trkpt lat="48.6081505" lon="9.700799">
    <ele>550</ele>
    <time>2007-06-28T06:22:28Z</time>
    </trkpt>
    <trkpt lat="48.6081719" lon="9.6995115">
    <ele>553</ele>
    <time>2007-06-28T06:22:46Z</time>
    </trkpt>
    <trkpt lat="48.6081719" lon="9.6989751">
    <ele>554</ele>
    <time>2007-06-28T06:22:53Z</time>
    </trkpt>
    <trkpt lat="48.608129" lon="9.6985459">
    <ele>557</ele>
    <time>2007-06-28T06:22:59Z</time>
    </trkpt>
    <trkpt lat="48.6080647" lon="9.6983099">
    <ele>558</ele>
    <time>2007-06-28T06:23:02Z</time>
    </trkpt>
    <trkpt lat="48.6079359" lon="9.697752">
    <ele>564</ele>
    <time>2007-06-28T06:23:10Z</time>
    </trkpt>
    <trkpt lat="48.607614" lon="9.696722">
    <ele>571</ele>
    <time>2007-06-28T06:23:32Z</time>
    </trkpt>
    <trkpt lat="48.6075414" lon="9.696021">
    <ele>581</ele>
    <time>2007-06-28T06:24:41Z</time>
    </trkpt>
    <trkpt lat="48.6073136" lon="9.6963358">
    <ele>583</ele>
    <time>2007-06-28T06:25:17Z</time>
    </trkpt>
    <trkpt lat="48.6067557" lon="9.6967649">
    <ele>585</ele>
    <time>2007-06-28T06:27:29Z</time>
    </trkpt>
    <trkpt lat="48.6062837" lon="9.6971297">
    <ele>585</ele>
    <time>2007-06-28T06:27:38Z</time>
    </trkpt>
    <trkpt lat="48.6060476" lon="9.6973443">
    <ele>587</ele>
    <time>2007-06-28T06:27:43Z</time>
    </trkpt>
    <trkpt lat="48.6059618" lon="9.6973014">
    <ele>590</ele>
    <time>2007-06-28T06:27:47Z</time>
    </trkpt>
    <trkpt lat="48.6061549" lon="9.6967649">
    <ele>591</ele>
    <time>2007-06-28T06:27:59Z</time>
    </trkpt>
    <trkpt lat="48.607142" lon="9.693954">
    <ele>593</ele>
    <time>2007-06-28T06:28:40Z</time>
    </trkpt>
    <trkpt lat="48.6071634" lon="9.6938896">
    <ele>593</ele>
    <time>2007-06-28T06:28:41Z</time>
    </trkpt>
    <trkpt lat="48.6082363" lon="9.694705">
    <ele>598</ele>
    <time>2007-06-28T06:29:03Z</time>
    </trkpt>
    <trkpt lat="48.6092019" lon="9.6954775">
    <ele>598</ele>
    <time>2007-06-28T06:29:23Z</time>
    </trkpt>
    <trkpt lat="48.6092663" lon="9.6955204">
    <ele>598</ele>
    <time>2007-06-28T06:29:24Z</time>
    </trkpt>
    <trkpt lat="48.6096954" lon="9.6960354">
    <ele>601</ele>
    <time>2007-06-28T06:29:34Z</time>
    </trkpt>
    <trkpt lat="48.6101031" lon="9.6961212">
    <ele>601</ele>
    <time>2007-06-28T06:29:41Z</time>
    </trkpt>
    <trkpt lat="48.6102962" lon="9.6958423">
    <ele>601</ele>
    <time>2007-06-28T06:29:46Z</time>
    </trkpt>
    <trkpt lat="48.6103392" lon="9.6957135">
    <ele>602</ele>
    <time>2007-06-28T06:29:48Z</time>
    </trkpt>
    <trkpt lat="48.6103606" lon="9.6955419">
    <ele>677</ele>
    <time>2007-06-28T06:30:46Z</time>
    </trkpt>
    <trkpt lat="48.6105323" lon="9.6949625">
    <ele>678</ele>
    <time>2007-06-28T06:30:55Z</time>
    </trkpt>
    <trkpt lat="48.6110044" lon="9.6931171">
    <ele>677</ele>
    <time>2007-06-28T06:31:20Z</time>
    </trkpt>
    <trkpt lat="48.610756" lon="9.6923358">
    <ele>677</ele>
    <time>2007-06-28T06:31:37Z</time>
    </trkpt>
    <trkpt lat="48.610626" lon="9.6915204">
    <ele>677</ele>
    <time>2007-06-28T06:31:43Z</time>
    </trkpt>
    <trkpt lat="48.6118627" lon="9.6907568">
    <ele>678</ele>
    <time>2007-06-28T06:31:59Z</time>
    </trkpt>
    <trkpt lat="48.6124849" lon="9.6910787">
    <ele>678</ele>
    <time>2007-06-28T06:32:10Z</time>
    </trkpt>
    <trkpt lat="48.6132574" lon="9.6920872">
    <ele>676</ele>
    <time>2007-06-28T06:32:29Z</time>
    </trkpt>
    <trkpt lat="48.6136651" lon="9.6929884">
    <ele>677</ele>
    <time>2007-06-28T06:32:43Z</time>
    </trkpt>
    <trkpt lat="48.6137938" lon="9.6930313">
    <ele>677</ele>
    <time>2007-06-28T06:32:47Z</time>
    </trkpt>
    <trkpt lat="48.6142015" lon="9.6923876">
    <ele>675</ele>
    <time>2007-06-28T06:32:59Z</time>
    </trkpt>
    <trkpt lat="48.614738" lon="9.6908426">
    <ele>672</ele>
    <time>2007-06-28T06:33:22Z</time>
    </trkpt>
    <trkpt lat="48.6148024" lon="9.6905851">
    <ele>671</ele>
    <time>2007-06-28T06:33:33Z</time>
    </trkpt>
    <trkpt lat="48.6148024" lon="9.6905851">
    <ele>671</ele>
    <time>2007-06-28T06:33:34Z</time>
    </trkpt>
    <trkpt lat="48.614738" lon="9.6907568">
    <ele>670</ele>
    <time>2007-06-28T06:33:46Z</time>
    </trkpt>
    <trkpt lat="48.6149096" lon="9.690156">
    <ele>667</ele>
    <time>2007-06-28T06:33:59Z</time>
    </trkpt>
    <trkpt lat="48.6149096" lon="9.690156">
    <ele>667</ele>
    <time>2007-06-28T06:34:03Z</time>
    </trkpt>
    <trkpt lat="48.6148882" lon="9.6902204">
    <ele>666</ele>
    <time>2007-06-28T06:34:09Z</time>
    </trkpt>
    <trkpt lat="48.6150384" lon="9.6895981">
    <ele>665</ele>
    <time>2007-06-28T06:34:19Z</time>
    </trkpt>
    <trkpt lat="48.6151671" lon="9.6885681">
    <ele>665</ele>
    <time>2007-06-28T06:34:34Z</time>
    </trkpt>
    <trkpt lat="48.6150813" lon="9.6879888">
    <ele>666</ele>
    <time>2007-06-28T06:34:44Z</time>
    </trkpt>
    <trkpt lat="48.6151242" lon="9.68786">
    <ele>666</ele>
    <time>2007-06-28T06:34:59Z</time>
    </trkpt>
    <trkpt lat="48.6151242" lon="9.68786">
    <ele>669</ele>
    <time>2007-06-28T06:35:41Z</time>
    </trkpt>
    <trkpt lat="48.6152101" lon="9.6879244">
    <ele>667</ele>
    <time>2007-06-28T06:35:46Z</time>
    </trkpt>
    <trkpt lat="48.615489" lon="9.6881604">
    <ele>666</ele>
    <time>2007-06-28T06:35:53Z</time>
    </trkpt>
    <trkpt lat="48.615768" lon="9.6882892">
    <ele>665</ele>
    <time>2007-06-28T06:35:58Z</time>
    </trkpt>
    <trkpt lat="48.616004" lon="9.688139">
    <ele>663</ele>
    <time>2007-06-28T06:36:04Z</time>
    </trkpt>
    <trkpt lat="48.6160898" lon="9.6880317">
    <ele>664</ele>
    <time>2007-06-28T06:36:14Z</time>
    </trkpt>
    <trkpt lat="48.6162615" lon="9.6880317">
    <ele>668</ele>
    <time>2007-06-28T06:37:25Z</time>
    </trkpt>
    <trkpt lat="48.6163044" lon="9.6880317">
    <ele>668</ele>
    <time>2007-06-28T06:37:26Z</time>
    </trkpt>
    <trkpt lat="48.6170125" lon="9.6879458">
    <ele>670</ele>
    <time>2007-06-28T06:37:36Z</time>
    </trkpt>
    <trkpt lat="48.6174631" lon="9.68786">
    <ele>670</ele>
    <time>2007-06-28T06:37:41Z</time>
    </trkpt>
    <trkpt lat="48.6181927" lon="9.6874523">
    <ele>673</ele>
    <time>2007-06-28T06:37:49Z</time>
    </trkpt>
    <trkpt lat="48.6190939" lon="9.6875596">
    <ele>682</ele>
    <time>2007-06-28T06:37:59Z</time>
    </trkpt>
    <trkpt lat="48.6192012" lon="9.6875381">
    <ele>684</ele>
    <time>2007-06-28T06:38:00Z</time>
    </trkpt>
    <trkpt lat="48.6194587" lon="9.6874523">
    <ele>686</ele>
    <time>2007-06-28T06:38:03Z</time>
    </trkpt>
    <trkpt lat="48.6198664" lon="9.6875596">
    <ele>688</ele>
    <time>2007-06-28T06:38:08Z</time>
    </trkpt>
    <trkpt lat="48.6210339" lon="9.6879663">
    <ele>689</ele>
    <time>2007-06-28T06:38:30Z</time>
    </trkpt>
    <trkpt lat="48.6214616" lon="9.6878704">
    <ele>689</ele>
    <time>2007-06-28T06:38:35Z</time>
    </trkpt>
    <trkpt lat="48.6219789" lon="9.6878435">
    <ele>690</ele>
    <time>2007-06-28T06:38:41Z</time>
    </trkpt>
    <trkpt lat="48.622613" lon="9.6873879">
    <ele>690</ele>
    <time>2007-06-28T06:38:46Z</time>
    </trkpt>
    <trkpt lat="48.6231494" lon="9.6866584">
    <ele>690</ele>
    <time>2007-06-28T06:38:56Z</time>
    </trkpt>
    <trkpt lat="48.623364" lon="9.6864438">
    <ele>693</ele>
    <time>2007-06-28T06:39:01Z</time>
    </trkpt>
    <trkpt lat="48.6237073" lon="9.6862078">
    <ele>701</ele>
    <time>2007-06-28T06:39:07Z</time>
    </trkpt>
    <trkpt lat="48.624115" lon="9.6861219">
    <ele>709</ele>
    <time>2007-06-28T06:39:17Z</time>
    </trkpt>
    <trkpt lat="48.6242223" lon="9.6861219">
    <ele>715</ele>
    <time>2007-06-28T06:39:25Z</time>
    </trkpt>
    <trkpt lat="48.6241794" lon="9.6861434">
    <ele>720</ele>
    <time>2007-06-28T06:39:31Z</time>
    </trkpt>
    <trkpt lat="48.6240721" lon="9.686079">
    <ele>722</ele>
    <time>2007-06-28T06:39:37Z</time>
    </trkpt>
    <trkpt lat="48.6239433" lon="9.686079">
    <ele>725</ele>
    <time>2007-06-28T06:39:46Z</time>
    </trkpt>
    <trkpt lat="48.6239219" lon="9.686079">
    <ele>742</ele>
    <time>2007-06-28T06:44:54Z</time>
    </trkpt>
    <trkpt lat="48.6244798" lon="9.686079">
    <ele>736</ele>
    <time>2007-06-28T06:53:02Z</time>
    </trkpt>
    <trkpt lat="48.625145" lon="9.686079">
    <ele>748</ele>
    <time>2007-06-28T06:53:15Z</time>
    </trkpt>
    <trkpt lat="48.6252522" lon="9.6861005">
    <ele>744</ele>
    <time>2007-06-28T06:53:30Z</time>
    </trkpt>
    <trkpt lat="48.6266041" lon="9.6860361">
    <ele>738</ele>
    <time>2007-06-28T06:56:47Z</time>
    </trkpt>
    <trkpt lat="48.6267543" lon="9.6860147">
    <ele>738</ele>
    <time>2007-06-28T06:57:04Z</time>
    </trkpt>
    <trkpt lat="48.6270761" lon="9.685843">
    <ele>738</ele>
    <time>2007-06-28T06:57:25Z</time>
    </trkpt>
    <trkpt lat="48.6283787066123" lon="9.68703211549276">
    <ele>738</ele>
    <time>2007-06-28T06:58:53Z</time>
    </trkpt>
    <trkpt lat="48.6294908" lon="9.6873352">
    <ele>681</ele>
    <time>2007-06-28T07:01:39Z</time>
    </trkpt>
    <trkpt lat="48.6301661" lon="9.6869373">
    <ele>727</ele>
    <time>2007-06-28T07:01:48Z</time>
    </trkpt>
    <trkpt lat="48.6306167" lon="9.68683">
    <ele>731</ele>
    <time>2007-06-28T07:02:03Z</time>
    </trkpt>
    <trkpt lat="48.6306167" lon="9.68683">
    <ele>738</ele>
    <time>2007-06-28T07:02:24Z</time>
    </trkpt>
    <trkpt lat="48.6307883" lon="9.6867657">
    <ele>742</ele>
    <time>2007-06-28T07:02:51Z</time>
    </trkpt>
    <trkpt lat="48.6313033" lon="9.6865082">
    <ele>743</ele>
    <time>2007-06-28T07:03:20Z</time>
    </trkpt>
    <trkpt lat="48.6327185515847" lon="9.68688753095102">
    <ele>742</ele>
    <time>2007-06-28T07:03:46Z</time>
    </trkpt>
    <trkpt lat="48.6330619" lon="9.6879264">
    <ele>743</ele>
    <time>2007-06-28T07:04:24Z</time>
    </trkpt>
    <trkpt lat="48.6329558" lon="9.6906384">
    <ele>743</ele>
    <time>2007-06-28T07:05:08Z</time>
    </trkpt>
    <trkpt lat="48.6317918" lon="9.6935394">
    <ele>745</ele>
    <time>2007-06-28T07:05:44Z</time>
    </trkpt>
    <trkpt lat="48.6322505" lon="9.6957503">
    <ele>745</ele>
    <time>2007-06-28T07:06:26Z</time>
    </trkpt>
    <trkpt lat="48.6322033" lon="9.6961227">
    <ele>589</ele>
    <time>2007-06-28T07:55:40Z</time>
    </trkpt>
    <trkpt lat="48.632324" lon="9.6984647">
    <ele>689</ele>
    <time>2007-06-28T07:56:02Z</time>
    </trkpt>
    <trkpt lat="48.6325497" lon="9.6983322">
    <ele>665</ele>
    <time>2007-06-28T07:58:59Z</time>
    </trkpt>
    <trkpt lat="48.6332202395733" lon="9.69693414405014">
    <time>2007-06-28T07:59:00Z</time>
    </trkpt>
    <trkpt lat="48.6335715752913" lon="9.69459860735615">
    <time>2007-06-28T07:59:01Z</time>
    </trkpt>
    <trkpt lat="48.6349297" lon="9.6922588">
    <ele>665</ele>
    <time>2007-06-28T07:59:03Z</time>
    </trkpt>
    <trkpt lat="48.6352119585663" lon="9.69099173096571">
    <ele>668</ele>
    <time>2007-06-28T07:59:23Z</time>
    </trkpt>
    <trkpt lat="48.6358616" lon="9.6896943">
    <ele>665</ele>
    <time>2007-06-28T07:59:48Z</time>
    </trkpt>
    <trkpt lat="48.6358632" lon="9.689423">
    <ele>665</ele>
    <time>2007-06-28T07:59:57Z</time>
    </trkpt>
    <trkpt lat="48.6380672" lon="9.6892834">
    <ele>664</ele>
    <time>2007-06-28T08:00:22Z</time>
    </trkpt>
    <trkpt lat="48.6391503" lon="9.6886197">
    <ele>664</ele>
    <time>2007-06-28T08:00:40Z</time>
    </trkpt>
    <trkpt lat="48.6395365" lon="9.6879466">
    <ele>664</ele>
    <time>2007-06-28T08:00:50Z</time>
    </trkpt>
    <trkpt lat="48.6396726" lon="9.6877449">
    <ele>664</ele>
    <time>2007-06-28T08:01:02Z</time>
    </trkpt>
    <trkpt lat="48.6397421" lon="9.6874066">
    <ele>663</ele>
    <time>2007-06-28T08:01:34Z</time>
    </trkpt>
    <trkpt lat="48.6394274732645" lon="9.68531642197904">
    <ele>658</ele>
    <time>2007-06-28T08:02:07Z</time>
    </trkpt>
    <trkpt lat="48.6384893663743" lon="9.68428606045255">
    <ele>658</ele>
    <time>2007-06-28T08:02:27Z</time>
    </trkpt>
    <trkpt lat="48.6384058" lon="9.6831179">
    <ele>658</ele>
    <time>2007-06-28T08:02:33Z</time>
    </trkpt>
    <trkpt lat="48.63832" lon="9.6829033">
    <ele>653</ele>
    <time>2007-06-28T08:02:41Z</time>
    </trkpt>
    <trkpt lat="48.6381698" lon="9.6823883">
    <ele>642</ele>
    <time>2007-06-28T08:03:34Z</time>
    </trkpt>
    <trkpt lat="48.6376119" lon="9.6804786">
    <ele>643</ele>
    <time>2007-06-28T08:03:54Z</time>
    </trkpt>
    <trkpt lat="48.6364300455153" lon="9.6789666257341">
    <ele>643</ele>
    <time>2007-06-28T08:04:22Z</time>
    </trkpt>
    <trkpt lat="48.6344050481115" lon="9.67924472309867">
    <ele>644</ele>
    <time>2007-06-28T08:04:38Z</time>
    </trkpt>
    <trkpt lat="48.6323762" lon="9.6780324">
    <ele>644</ele>
    <time>2007-06-28T08:05:23Z</time>
    </trkpt>
    <trkpt lat="48.6321402" lon="9.677732">
    <ele>643</ele>
    <time>2007-06-28T08:05:27Z</time>
    </trkpt>
    <trkpt lat="48.6320329" lon="9.6775174">
    <ele>643</ele>
    <time>2007-06-28T08:05:30Z</time>
    </trkpt>
    <trkpt lat="48.6312604" lon="9.6762729">
    <ele>643</ele>
    <time>2007-06-28T08:05:50Z</time>
    </trkpt>
    <trkpt lat="48.6306162" lon="9.6757171">
    <ele>645</ele>
    <time>2007-06-28T08:06:04Z</time>
    </trkpt>
    <trkpt lat="48.6300556" lon="9.6754722">
    <ele>645</ele>
    <time>2007-06-28T08:06:16Z</time>
    </trkpt>
    <trkpt lat="48.6296295" lon="9.6752969">
    <ele>645</ele>
    <time>2007-06-28T08:06:29Z</time>
    </trkpt>
    <trkpt lat="48.6292221" lon="9.6757663">
    <ele>645</ele>
    <time>2007-06-28T08:06:31Z</time>
    </trkpt>
    <trkpt lat="48.6284582" lon="9.6756883">
    <ele>646</ele>
    <time>2007-06-28T08:06:33Z</time>
    </trkpt>
    <trkpt lat="48.6282805" lon="9.6753128">
    <ele>644</ele>
    <time>2007-06-28T08:06:42Z</time>
    </trkpt>
    <trkpt lat="48.6279475" lon="9.6745962">
    <ele>645</ele>
    <time>2007-06-28T08:06:56Z</time>
    </trkpt>
    <trkpt lat="48.6277247" lon="9.6742541">
    <ele>648</ele>
    <time>2007-06-28T08:07:04Z</time>
    </trkpt>
    <trkpt lat="48.6278272" lon="9.6733332">
    <ele>649</ele>
    <time>2007-06-28T08:07:12Z</time>
    </trkpt>
    <trkpt lat="48.6278272" lon="9.6733117">
    <ele>664</ele>
    <time>2007-06-28T08:08:54Z</time>
    </trkpt>
    <trkpt lat="48.627913" lon="9.67314">
    <ele>653</ele>
    <time>2007-06-28T08:10:39Z</time>
    </trkpt>
    <trkpt lat="48.6282134" lon="9.6727324">
    <ele>653</ele>
    <time>2007-06-28T08:10:45Z</time>
    </trkpt>
    <trkpt lat="48.6291146" lon="9.6713376">
    <ele>652</ele>
    <time>2007-06-28T08:10:56Z</time>
    </trkpt>
    <trkpt lat="48.6296725" lon="9.6702003">
    <ele>653</ele>
    <time>2007-06-28T08:11:02Z</time>
    </trkpt>
    <trkpt lat="48.6301875" lon="9.6686554">
    <ele>653</ele>
    <time>2007-06-28T08:11:08Z</time>
    </trkpt>
    <trkpt lat="48.6303806" lon="9.6679688">
    <ele>653</ele>
    <time>2007-06-28T08:11:11Z</time>
    </trkpt>
    <trkpt lat="48.6300588" lon="9.6663165">
    <ele>648</ele>
    <time>2007-06-28T08:11:16Z</time>
    </trkpt>
    <trkpt lat="48.6312389" lon="9.6632051">
    <ele>644</ele>
    <time>2007-06-28T08:11:30Z</time>
    </trkpt>
    <trkpt lat="48.6320972" lon="9.6621752">
    <ele>639</ele>
    <time>2007-06-28T08:11:37Z</time>
    </trkpt>
    <trkpt lat="48.6321831" lon="9.6619606">
    <ele>639</ele>
    <time>2007-06-28T08:11:38Z</time>
    </trkpt>
    <trkpt lat="48.6331916" lon="9.6592784">
    <ele>629</ele>
    <time>2007-06-28T08:11:50Z</time>
    </trkpt>
    <trkpt lat="48.6336207" lon="9.6576262">
    <ele>606</ele>
    <time>2007-06-28T08:12:00Z</time>
    </trkpt>
    <trkpt lat="48.6333418" lon="9.6571112">
    <ele>600</ele>
    <time>2007-06-28T08:12:06Z</time>
    </trkpt>
    <trkpt lat="48.633256" lon="9.6571112">
    <ele>599</ele>
    <time>2007-06-28T08:12:07Z</time>
    </trkpt>
    <trkpt lat="48.6326122" lon="9.6565533">
    <ele>592</ele>
    <time>2007-06-28T08:12:14Z</time>
    </trkpt>
    <trkpt lat="48.632462" lon="9.6560383">
    <ele>589</ele>
    <time>2007-06-28T08:12:17Z</time>
    </trkpt>
    <trkpt lat="48.6323977" lon="9.6554804">
    <ele>587</ele>
    <time>2007-06-28T08:12:20Z</time>
    </trkpt>
    <trkpt lat="48.6323977" lon="9.6550512">
    <ele>583</ele>
    <time>2007-06-28T08:12:23Z</time>
    </trkpt>
    <trkpt lat="48.6323333" lon="9.6546006">
    <ele>576</ele>
    <time>2007-06-28T08:12:30Z</time>
    </trkpt>
    <trkpt lat="48.6322689" lon="9.654429">
    <ele>571</ele>
    <time>2007-06-28T08:12:39Z</time>
    </trkpt>
    <trkpt lat="48.6323762" lon="9.6544075">
    <ele>571</ele>
    <time>2007-06-28T08:15:25Z</time>
    </trkpt>
    <trkpt lat="48.6323547" lon="9.6543431">
    <ele>571</ele>
    <time>2007-06-28T08:15:26Z</time>
    </trkpt>
    <trkpt lat="48.6321402" lon="9.6529698">
    <ele>565</ele>
    <time>2007-06-28T08:15:43Z</time>
    </trkpt>
    <trkpt lat="48.6320972" lon="9.652648">
    <ele>564</ele>
    <time>2007-06-28T08:15:47Z</time>
    </trkpt>
    <trkpt lat="48.6315393" lon="9.6514034">
    <ele>562</ele>
    <time>2007-06-28T08:16:04Z</time>
    </trkpt>
    <trkpt lat="48.630681" lon="9.6503305">
    <ele>561</ele>
    <time>2007-06-28T08:16:24Z</time>
    </trkpt>
    <trkpt lat="48.6292219" lon="9.6490216">
    <ele>562</ele>
    <time>2007-06-28T08:16:55Z</time>
    </trkpt>
    <trkpt lat="48.6284481509365" lon="9.64789511104889">
    <ele>564</ele>
    <time>2007-06-28T08:17:06Z</time>
    </trkpt>
    <trkpt lat="48.6274371167309" lon="9.64778042493298">
    <ele>515</ele>
    <time>2007-06-28T08:17:48Z</time>
    </trkpt>
    <trkpt lat="48.6273164" lon="9.6474564">
    <ele>547</ele>
    <time>2007-06-28T08:19:20Z</time>
    </trkpt>
    <trkpt lat="48.6274343" lon="9.6464743">
    <ele>551</ele>
    <time>2007-06-28T08:20:19Z</time>
    </trkpt>
    <trkpt lat="48.6286132" lon="9.6447258">
    <ele>565</ele>
    <time>2007-06-28T08:21:18Z</time>
    </trkpt>
    <trkpt lat="48.628664" lon="9.6443439">
    <ele>517</ele>
    <time>2007-06-28T08:35:43Z</time>
    </trkpt>
    <trkpt lat="48.6286855" lon="9.6442151">
    <ele>531</ele>
    <time>2007-06-28T08:36:02Z</time>
    </trkpt>
    <trkpt lat="48.6286211" lon="9.6441936">
    <ele>607</ele>
    <time>2007-06-28T08:36:34Z</time>
    </trkpt>
    <trkpt lat="48.6277816" lon="9.6446813">
    <ele>607</ele>
    <time>2007-06-28T08:36:59Z</time>
    </trkpt>
    <trkpt lat="48.6274215" lon="9.6447446">
    <ele>607</ele>
    <time>2007-06-28T08:37:02Z</time>
    </trkpt>
    <trkpt lat="48.6271525" lon="9.6446055">
    <ele>607</ele>
    <time>2007-06-28T08:37:05Z</time>
    </trkpt>
    <trkpt lat="48.6270118" lon="9.6434212">
    <ele>598</ele>
    <time>2007-06-28T08:37:16Z</time>
    </trkpt>
    <trkpt lat="48.6270547" lon="9.6417904">
    <ele>600</ele>
    <time>2007-06-28T08:38:51Z</time>
    </trkpt>
    <trkpt lat="48.6269903" lon="9.640696">
    <ele>597</ele>
    <time>2007-06-28T08:39:09Z</time>
    </trkpt>
    <trkpt lat="48.6266685" lon="9.6392369">
    <ele>595</ele>
    <time>2007-06-28T08:39:30Z</time>
    </trkpt>
    <trkpt lat="48.6266685" lon="9.6384645">
    <ele>596</ele>
    <time>2007-06-28T08:39:46Z</time>
    </trkpt>
    <trkpt lat="48.6266899" lon="9.6385074">
    <ele>587</ele>
    <time>2007-06-28T08:39:56Z</time>
    </trkpt>
    <trkpt lat="48.6268401" lon="9.6387219">
    <ele>591</ele>
    <time>2007-06-28T08:40:22Z</time>
    </trkpt>
    <trkpt lat="48.6284065" lon="9.6387219">
    <ele>591</ele>
    <time>2007-06-28T08:40:46Z</time>
    </trkpt>
    <trkpt lat="48.628428" lon="9.6386361">
    <ele>592</ele>
    <time>2007-06-28T08:40:47Z</time>
    </trkpt>
    <trkpt lat="48.628664" lon="9.6384859">
    <ele>591</ele>
    <time>2007-06-28T08:40:51Z</time>
    </trkpt>
    <trkpt lat="48.6288571" lon="9.6381426">
    <ele>589</ele>
    <time>2007-06-28T08:40:57Z</time>
    </trkpt>
    <trkpt lat="48.6289215" lon="9.6368122">
    <ele>588</ele>
    <time>2007-06-28T08:41:13Z</time>
    </trkpt>
    <trkpt lat="48.6288786" lon="9.6365547">
    <ele>587</ele>
    <time>2007-06-28T08:41:16Z</time>
    </trkpt>
    <trkpt lat="48.6288571" lon="9.6359968">
    <ele>587</ele>
    <time>2007-06-28T08:41:23Z</time>
    </trkpt>
    <trkpt lat="48.629580418772" lon="9.63430938375702">
    <ele>586</ele>
    <time>2007-06-28T08:41:39Z</time>
    </trkpt>
    <trkpt lat="48.6291146" lon="9.6346021">
    <ele>585</ele>
    <time>2007-06-28T08:41:42Z</time>
    </trkpt>
    <trkpt lat="48.628664" lon="9.6350312">
    <ele>575</ele>
    <time>2007-06-28T08:43:49Z</time>
    </trkpt>
    <trkpt lat="48.6279559" lon="9.6356964">
    <ele>578</ele>
    <time>2007-06-28T08:44:01Z</time>
    </trkpt>
    <trkpt lat="48.6273766" lon="9.6362543">
    <ele>589</ele>
    <time>2007-06-28T08:44:11Z</time>
    </trkpt>
    <trkpt lat="48.6271834" lon="9.6365333">
    <ele>591</ele>
    <time>2007-06-28T08:44:16Z</time>
    </trkpt>
    <trkpt lat="48.6270547" lon="9.6364045">
    <ele>591</ele>
    <time>2007-06-28T08:44:20Z</time>
    </trkpt>
    <trkpt lat="48.6270547" lon="9.6362329">
    <ele>592</ele>
    <time>2007-06-28T08:44:22Z</time>
    </trkpt>
    <trkpt lat="48.6270332" lon="9.6359754">
    <ele>593</ele>
    <time>2007-06-28T08:44:25Z</time>
    </trkpt>
    <trkpt lat="48.6266041" lon="9.6340013">
    <ele>593</ele>
    <time>2007-06-28T08:44:48Z</time>
    </trkpt>
    <trkpt lat="48.6265397" lon="9.6338511">
    <ele>601</ele>
    <time>2007-06-28T08:44:58Z</time>
    </trkpt>
    <trkpt lat="48.6264753" lon="9.6338296">
    <ele>625</ele>
    <time>2007-06-28T08:48:23Z</time>
    </trkpt>
    <trkpt lat="48.6262822" lon="9.631319">
    <ele>625</ele>
    <time>2007-06-28T08:48:29Z</time>
    </trkpt>
    <trkpt lat="48.6262178" lon="9.6309543">
    <ele>625</ele>
    <time>2007-06-28T08:48:33Z</time>
    </trkpt>
    <trkpt lat="48.6257080459142" lon="9.6271051738978">
    <ele>625</ele>
    <time>2007-06-28T08:48:38Z</time>
    </trkpt>
    <trkpt lat="48.6247305276711" lon="9.62495657471694">
    <ele>625</ele>
    <time>2007-06-28T08:49:13Z</time>
    </trkpt>
    <trkpt lat="48.6227417" lon="9.6239161">
    <ele>633</ele>
    <time>2007-06-28T08:51:26Z</time>
    </trkpt>
    <trkpt lat="48.6221623" lon="9.6240664">
    <ele>639</ele>
    <time>2007-06-28T08:51:41Z</time>
    </trkpt>
    <trkpt lat="48.6217761" lon="9.6247101">
    <ele>650</ele>
    <time>2007-06-28T08:52:33Z</time>
    </trkpt>
    <trkpt lat="48.6215615" lon="9.6256542">
    <ele>652</ele>
    <time>2007-06-28T08:52:47Z</time>
    </trkpt>
    <trkpt lat="48.6216688" lon="9.6264267">
    <ele>654</ele>
    <time>2007-06-28T08:52:56Z</time>
    </trkpt>
    <trkpt lat="48.6217332" lon="9.6266842">
    <ele>655</ele>
    <time>2007-06-28T08:52:59Z</time>
    </trkpt>
    <trkpt lat="48.6219049" lon="9.6271348">
    <ele>656</ele>
    <time>2007-06-28T08:53:05Z</time>
    </trkpt>
    <trkpt lat="48.6221194" lon="9.6280789">
    <ele>656</ele>
    <time>2007-06-28T08:53:17Z</time>
    </trkpt>
    <trkpt lat="48.6222482" lon="9.6290231">
    <ele>657</ele>
    <time>2007-06-28T08:53:29Z</time>
    </trkpt>
    <trkpt lat="48.6222696" lon="9.6293664">
    <ele>657</ele>
    <time>2007-06-28T08:53:34Z</time>
    </trkpt>
    <trkpt lat="48.6217332" lon="9.6290016">
    <ele>657</ele>
    <time>2007-06-28T08:53:45Z</time>
    </trkpt>
    <trkpt lat="48.6199737" lon="9.627285">
    <ele>657</ele>
    <time>2007-06-28T08:54:20Z</time>
    </trkpt>
    <trkpt lat="48.6175704" lon="9.6248174">
    <ele>657</ele>
    <time>2007-06-28T08:55:09Z</time>
    </trkpt>
    <trkpt lat="48.6169696" lon="9.6243238">
    <ele>657</ele>
    <time>2007-06-28T08:55:21Z</time>
    </trkpt>
    <trkpt lat="48.6168408" lon="9.6243453">
    <ele>656</ele>
    <time>2007-06-28T08:55:24Z</time>
    </trkpt>
    <trkpt lat="48.6159825" lon="9.6238518">
    <ele>644</ele>
    <time>2007-06-28T08:55:41Z</time>
    </trkpt>
    <trkpt lat="48.6156821" lon="9.6229291">
    <ele>633</ele>
    <time>2007-06-28T08:55:54Z</time>
    </trkpt>
    <trkpt lat="48.6146307" lon="9.6214485">
    <ele>623</ele>
    <time>2007-06-28T08:56:22Z</time>
    </trkpt>
    <trkpt lat="48.6143517" lon="9.6210408">
    <ele>618</ele>
    <time>2007-06-28T08:56:34Z</time>
    </trkpt>
    <trkpt lat="48.6143732" lon="9.6210837">
    <ele>617</ele>
    <time>2007-06-28T08:58:41Z</time>
    </trkpt>
    <trkpt lat="48.6146951" lon="9.62044">
    <ele>620</ele>
    <time>2007-06-28T08:58:51Z</time>
    </trkpt>
    <trkpt lat="48.6149096" lon="9.6200109">
    <ele>621</ele>
    <time>2007-06-28T08:58:58Z</time>
    </trkpt>
    <trkpt lat="48.6146736" lon="9.6196461">
    <ele>623</ele>
    <time>2007-06-28T08:59:08Z</time>
    </trkpt>
    <trkpt lat="48.6145663" lon="9.6196032">
    <ele>626</ele>
    <time>2007-06-28T08:59:41Z</time>
    </trkpt>
    <trkpt lat="48.6144161" lon="9.6196675">
    <ele>625</ele>
    <time>2007-06-28T08:59:45Z</time>
    </trkpt>
    <trkpt lat="48.6137509" lon="9.6203971">
    <ele>630</ele>
    <time>2007-06-28T08:59:54Z</time>
    </trkpt>
    <trkpt lat="48.6132789" lon="9.6208906">
    <ele>633</ele>
    <time>2007-06-28T08:59:59Z</time>
    </trkpt>
    <trkpt lat="48.6124206" lon="9.6210194">
    <ele>637</ele>
    <time>2007-06-28T09:00:07Z</time>
    </trkpt>
    <trkpt lat="48.6121416" lon="9.6208262">
    <ele>637</ele>
    <time>2007-06-28T09:00:10Z</time>
    </trkpt>
    <trkpt lat="48.6117339" lon="9.62044">
    <ele>636</ele>
    <time>2007-06-28T09:00:18Z</time>
    </trkpt>
    <trkpt lat="48.6114335" lon="9.6203542">
    <ele>636</ele>
    <time>2007-06-28T09:00:26Z</time>
    </trkpt>
    <trkpt lat="48.6113906" lon="9.6203542">
    <ele>636</ele>
    <time>2007-06-28T09:00:27Z</time>
    </trkpt>
    <trkpt lat="48.6113262" lon="9.6201825">
    <ele>638</ele>
    <time>2007-06-28T09:00:34Z</time>
    </trkpt>
    <trkpt lat="48.6113262" lon="9.620204">
    <ele>638</ele>
    <time>2007-06-28T09:00:36Z</time>
    </trkpt>
    <trkpt lat="48.6113477" lon="9.6202898">
    <ele>636</ele>
    <time>2007-06-28T09:00:52Z</time>
    </trkpt>
    <trkpt lat="48.6113262" lon="9.6201611">
    <ele>639</ele>
    <time>2007-06-28T09:01:04Z</time>
    </trkpt>
    <trkpt lat="48.6113262" lon="9.6200967">
    <ele>643</ele>
    <time>2007-06-28T09:02:47Z</time>
    </trkpt>
    <trkpt lat="48.6113262" lon="9.6201396">
    <ele>643</ele>
    <time>2007-06-28T09:02:53Z</time>
    </trkpt>
    <trkpt lat="48.6091225809552" lon="9.62598441561049">
    <ele>644</ele>
    <time>2007-06-28T09:03:02Z</time>
    </trkpt>
    <trkpt lat="48.6081444838387" lon="9.62807421260425">
    <ele>652</ele>
    <time>2007-06-28T09:03:27Z</time>
    </trkpt>
    <trkpt lat="48.6073792288008" lon="9.62823422683719">
    <ele>627</ele>
    <time>2007-06-28T09:10:29Z</time>
    </trkpt>
    <trkpt lat="48.607142" lon="9.6283793">
    <ele>623</ele>
    <time>2007-06-28T09:10:44Z</time>
    </trkpt>
    <trkpt lat="48.607142" lon="9.6284008">
    <ele>623</ele>
    <time>2007-06-28T09:10:47Z</time>
    </trkpt>
    <trkpt lat="48.6070776" lon="9.6285725">
    <ele>621</ele>
    <time>2007-06-28T09:10:52Z</time>
    </trkpt>
    <trkpt lat="48.6064339" lon="9.6292591">
    <ele>616</ele>
    <time>2007-06-28T09:11:14Z</time>
    </trkpt>
    <trkpt lat="48.6059618" lon="9.629817">
    <ele>614</ele>
    <time>2007-06-28T09:11:33Z</time>
    </trkpt>
    <trkpt lat="48.6057901" lon="9.6300101">
    <ele>610</ele>
    <time>2007-06-28T09:12:55Z</time>
    </trkpt>
    <trkpt lat="48.6054254" lon="9.6300316">
    <ele>608</ele>
    <time>2007-06-28T09:13:05Z</time>
    </trkpt>
    <trkpt lat="48.6049747" lon="9.6297956">
    <ele>605</ele>
    <time>2007-06-28T09:13:14Z</time>
    </trkpt>
    <trkpt lat="48.6046958" lon="9.6300101">
    <ele>605</ele>
    <time>2007-06-28T09:13:21Z</time>
    </trkpt>
    <trkpt lat="48.6045241" lon="9.6304393">
    <ele>605</ele>
    <time>2007-06-28T09:13:26Z</time>
    </trkpt>
    <trkpt lat="48.6044598" lon="9.6308255">
    <ele>605</ele>
    <time>2007-06-28T09:13:36Z</time>
    </trkpt>
    <trkpt lat="48.6044598" lon="9.6308255">
    <ele>608</ele>
    <time>2007-06-28T09:14:50Z</time>
    </trkpt>
    <trkpt lat="48.6043739" lon="9.6303105">
    <ele>606</ele>
    <time>2007-06-28T09:14:59Z</time>
    </trkpt>
    <trkpt lat="48.6042237" lon="9.6293664">
    <ele>603</ele>
    <time>2007-06-28T09:15:12Z</time>
    </trkpt>
    <trkpt lat="48.6042237" lon="9.6294308">
    <ele>605</ele>
    <time>2007-06-28T09:15:46Z</time>
    </trkpt>
    <trkpt lat="48.6039448" lon="9.6291304">
    <ele>603</ele>
    <time>2007-06-28T09:15:59Z</time>
    </trkpt>
    <trkpt lat="48.6037946" lon="9.6290231">
    <ele>604</ele>
    <time>2007-06-28T09:16:05Z</time>
    </trkpt>
    <trkpt lat="48.6034942" lon="9.6296024">
    <ele>606</ele>
    <time>2007-06-28T09:16:19Z</time>
    </trkpt>
    <trkpt lat="48.6027002" lon="9.6322203">
    <ele>609</ele>
    <time>2007-06-28T09:17:14Z</time>
    </trkpt>
    <trkpt lat="48.6022496" lon="9.6332073">
    <ele>664</ele>
    <time>2007-06-28T09:17:31Z</time>
    </trkpt>
    <trkpt lat="48.6018205" lon="9.6336365">
    <ele>659</ele>
    <time>2007-06-28T09:17:50Z</time>
    </trkpt>
    <trkpt lat="48.601799" lon="9.6336365">
    <ele>659</ele>
    <time>2007-06-28T09:17:53Z</time>
    </trkpt>
    <trkpt lat="48.601799" lon="9.6337438">
    <ele>657</ele>
    <time>2007-06-28T09:18:08Z</time>
    </trkpt>
    <trkpt lat="48.6017198" lon="9.6335025">
    <ele>718</ele>
    <time>2007-06-28T09:25:29Z</time>
    </trkpt>
    <trkpt lat="48.6017008" lon="9.6328582">
    <ele>813</ele>
    <time>2007-06-28T09:26:05Z</time>
    </trkpt>
    <trkpt lat="48.6008978" lon="9.6332502">
    <ele>705</ele>
    <time>2007-06-28T09:28:28Z</time>
    </trkpt>
    <trkpt lat="48.6007261" lon="9.6332932">
    <ele>701</ele>
    <time>2007-06-28T09:28:52Z</time>
    </trkpt>
    <trkpt lat="48.6003613" lon="9.6335292">
    <ele>703</ele>
    <time>2007-06-28T09:29:26Z</time>
    </trkpt>
    <trkpt lat="48.5992455" lon="9.6337652">
    <ele>701</ele>
    <time>2007-06-28T09:29:57Z</time>
    </trkpt>
    <trkpt lat="48.5992455" lon="9.6337652">
    <ele>701</ele>
    <time>2007-06-28T09:31:00Z</time>
    </trkpt>
    <trkpt lat="48.5988164" lon="9.6335292">
    <ele>703</ele>
    <time>2007-06-28T09:31:11Z</time>
    </trkpt>
    <trkpt lat="48.5982585" lon="9.6335936">
    <ele>707</ele>
    <time>2007-06-28T09:31:51Z</time>
    </trkpt>
    <trkpt lat="48.5979581" lon="9.6335292">
    <ele>708</ele>
    <time>2007-06-28T09:32:24Z</time>
    </trkpt>
    <trkpt lat="48.5976157264604" lon="9.63350235102995">
    <ele>707</ele>
    <time>2007-06-28T09:33:19Z</time>
    </trkpt>
    <trkpt lat="48.5973358" lon="9.6328855">
    <ele>707</ele>
    <time>2007-06-28T09:33:29Z</time>
    </trkpt>
    <trkpt lat="48.5972929" lon="9.6324992">
    <ele>691</ele>
    <time>2007-06-28T09:33:45Z</time>
    </trkpt>
    <trkpt lat="48.5971856" lon="9.6321774">
    <ele>695</ele>
    <time>2007-06-28T09:34:05Z</time>
    </trkpt>
    <trkpt lat="48.5973573" lon="9.6320915">
    <ele>696</ele>
    <time>2007-06-28T09:34:34Z</time>
    </trkpt>
    <trkpt lat="48.597486" lon="9.6321988">
    <ele>693</ele>
    <time>2007-06-28T09:35:04Z</time>
    </trkpt>
    <trkpt lat="48.5978433253771" lon="9.6329967793387">
    <ele>695</ele>
    <time>2007-06-28T09:35:50Z</time>
    </trkpt>
    <trkpt lat="48.5985374" lon="9.6326494">
    <ele>715</ele>
    <time>2007-06-28T09:36:48Z</time>
    </trkpt>
    <trkpt lat="48.5991383" lon="9.6320915">
    <ele>716</ele>
    <time>2007-06-28T09:37:36Z</time>
    </trkpt>
    <trkpt lat="48.5993958" lon="9.6318984">
    <ele>716</ele>
    <time>2007-06-28T09:37:55Z</time>
    </trkpt>
    <trkpt lat="48.5994387" lon="9.631834">
    <ele>716</ele>
    <time>2007-06-28T09:37:59Z</time>
    </trkpt>
    <trkpt lat="48.5998844891028" lon="9.63113266785106">
    <ele>717</ele>
    <time>2007-06-28T09:39:29Z</time>
    </trkpt>
    <trkpt lat="48.6004416602015" lon="9.62914384915435">
    <ele>732</ele>
    <time>2007-06-28T09:40:17Z</time>
    </trkpt>
    <trkpt lat="48.6005437" lon="9.6265729">
    <ele>730</ele>
    <time>2007-06-28T09:41:33Z</time>
    </trkpt>
    <trkpt lat="48.6004803" lon="9.6258264">
    <ele>732</ele>
    <time>2007-06-28T09:42:05Z</time>
    </trkpt>
    <trkpt lat="48.6004686" lon="9.6255684">
    <ele>738</ele>
    <time>2007-06-28T09:44:34Z</time>
    </trkpt>
    <trkpt lat="48.600297" lon="9.6247101">
    <ele>746</ele>
    <time>2007-06-28T09:45:22Z</time>
    </trkpt>
    <trkpt lat="48.6001253" lon="9.6241951">
    <ele>736</ele>
    <time>2007-06-28T09:45:55Z</time>
    </trkpt>
    <trkpt lat="48.5999537" lon="9.6238089">
    <ele>735</ele>
    <time>2007-06-28T09:46:24Z</time>
    </trkpt>
    <trkpt lat="48.5996747" lon="9.6235085">
    <ele>735</ele>
    <time>2007-06-28T09:46:58Z</time>
    </trkpt>
    <trkpt lat="48.599546" lon="9.6234441">
    <ele>736</ele>
    <time>2007-06-28T09:47:12Z</time>
    </trkpt>
    <trkpt lat="48.5992885" lon="9.6235299">
    <ele>736</ele>
    <time>2007-06-28T09:47:34Z</time>
    </trkpt>
    <trkpt lat="48.5989666" lon="9.6239376">
    <ele>741</ele>
    <time>2007-06-28T09:48:12Z</time>
    </trkpt>
    <trkpt lat="48.5988379" lon="9.6240449">
    <ele>741</ele>
    <time>2007-06-28T09:48:46Z</time>
    </trkpt>
    <trkpt lat="48.5987735" lon="9.6235085">
    <ele>764</ele>
    <time>2007-06-28T09:51:46Z</time>
    </trkpt>
    <trkpt lat="48.5984731" lon="9.6228862">
    <ele>762</ele>
    <time>2007-06-28T09:52:24Z</time>
    </trkpt>
    <trkpt lat="48.5981512" lon="9.6222639">
    <ele>761</ele>
    <time>2007-06-28T09:52:55Z</time>
    </trkpt>
    <trkpt lat="48.5980654" lon="9.6218133">
    <ele>761</ele>
    <time>2007-06-28T09:53:24Z</time>
    </trkpt>
    <trkpt lat="48.5978293" lon="9.6211696">
    <ele>761</ele>
    <time>2007-06-28T09:53:58Z</time>
    </trkpt>
    <trkpt lat="48.5975933" lon="9.6197104">
    <ele>761</ele>
    <time>2007-06-28T09:54:33Z</time>
    </trkpt>
    <trkpt lat="48.5975075" lon="9.6183157">
    <ele>751</ele>
    <time>2007-06-28T09:58:07Z</time>
    </trkpt>
    <trkpt lat="48.597486" lon="9.6182942">
    <ele>752</ele>
    <time>2007-06-28T09:58:38Z</time>
    </trkpt>
    <trkpt lat="48.5978508" lon="9.6178222">
    <ele>751</ele>
    <time>2007-06-28T09:59:21Z</time>
    </trkpt>
    <trkpt lat="48.5977567283927" lon="9.61666142590656">
    <ele>748</ele>
    <time>2007-06-28T10:00:18Z</time>
    </trkpt>
    <trkpt lat="48.5972984135222" lon="9.61592728202436">
    <ele>746</ele>
    <time>2007-06-28T10:00:42Z</time>
    </trkpt>
    <trkpt lat="48.5977006" lon="9.6154833">
    <ele>731</ele>
    <time>2007-06-28T10:01:14Z</time>
    </trkpt>
    <trkpt lat="48.5979366" lon="9.615097">
    <ele>723</ele>
    <time>2007-06-28T10:01:35Z</time>
    </trkpt>
    <trkpt lat="48.5981941" lon="9.6146894">
    <ele>720</ele>
    <time>2007-06-28T10:01:59Z</time>
    </trkpt>
    <trkpt lat="48.5982156" lon="9.6143889">
    <ele>718</ele>
    <time>2007-06-28T10:02:13Z</time>
    </trkpt>
    <trkpt lat="48.5981512" lon="9.6142602">
    <ele>715</ele>
    <time>2007-06-28T10:02:26Z</time>
    </trkpt>
    <trkpt lat="48.5983229" lon="9.6135092">
    <ele>697</ele>
    <time>2007-06-28T11:02:10Z</time>
    </trkpt>
    <trkpt lat="48.5983014" lon="9.6128011">
    <ele>703</ele>
    <time>2007-06-28T11:02:19Z</time>
    </trkpt>
    <trkpt lat="48.598165966572" lon="9.61083778412449">
    <ele>705</ele>
    <time>2007-06-28T11:03:00Z</time>
    </trkpt>
    <trkpt lat="48.5983621034475" lon="9.6095096973656">
    <ele>705</ele>
    <time>2007-06-28T11:03:06Z</time>
    </trkpt>
    <trkpt lat="48.5998011308641" lon="9.60756548937996">
    <ele>705</ele>
    <time>2007-06-28T11:03:24Z</time>
    </trkpt>
    <trkpt lat="48.6010051" lon="9.6056986">
    <ele>707</ele>
    <time>2007-06-28T11:04:02Z</time>
    </trkpt>
    <trkpt lat="48.6014557" lon="9.6049905">
    <ele>707</ele>
    <time>2007-06-28T11:04:12Z</time>
    </trkpt>
    <trkpt lat="48.6014771" lon="9.6048832">
    <ele>707</ele>
    <time>2007-06-28T11:04:15Z</time>
    </trkpt>
    <trkpt lat="48.6014986" lon="9.6042395">
    <ele>707</ele>
    <time>2007-06-28T11:04:27Z</time>
    </trkpt>
    <trkpt lat="48.6018419" lon="9.6034241">
    <ele>709</ele>
    <time>2007-06-28T11:04:38Z</time>
    </trkpt>
    <trkpt lat="48.6021638" lon="9.6025229">
    <ele>712</ele>
    <time>2007-06-28T11:04:50Z</time>
    </trkpt>
    <trkpt lat="48.6021852" lon="9.6019435">
    <ele>722</ele>
    <time>2007-06-28T11:04:59Z</time>
    </trkpt>
    <trkpt lat="48.6021852" lon="9.6019006">
    <ele>777</ele>
    <time>2007-06-28T11:05:18Z</time>
    </trkpt>
    <trkpt lat="48.6021852" lon="9.6018791">
    <ele>773</ele>
    <time>2007-06-28T11:06:17Z</time>
    </trkpt>
    <trkpt lat="48.6021852" lon="9.6016645">
    <ele>773</ele>
    <time>2007-06-28T11:06:21Z</time>
    </trkpt>
    <trkpt lat="48.6023569" lon="9.6001625">
    <ele>775</ele>
    <time>2007-06-28T11:06:40Z</time>
    </trkpt>
    <trkpt lat="48.6025286" lon="9.5979738">
    <ele>781</ele>
    <time>2007-06-28T11:07:07Z</time>
    </trkpt>
    <trkpt lat="48.6026359" lon="9.5971155">
    <ele>782</ele>
    <time>2007-06-28T11:07:20Z</time>
    </trkpt>
    <trkpt lat="48.6027646" lon="9.5969439">
    <ele>782</ele>
    <time>2007-06-28T11:07:24Z</time>
    </trkpt>
    <trkpt lat="48.6037517" lon="9.5965576">
    <ele>776</ele>
    <time>2007-06-28T11:07:41Z</time>
    </trkpt>
    <trkpt lat="48.6037060133157" lon="9.59611221201486">
    <ele>776</ele>
    <time>2007-06-28T11:07:50Z</time>
    </trkpt>
    <trkpt lat="48.6037302" lon="9.5953989">
    <ele>779</ele>
    <time>2007-06-28T11:08:04Z</time>
    </trkpt>
    <trkpt lat="48.6034727" lon="9.5950341">
    <ele>781</ele>
    <time>2007-06-28T11:08:11Z</time>
    </trkpt>
    <trkpt lat="48.6033225" lon="9.5947337">
    <ele>783</ele>
    <time>2007-06-28T11:08:16Z</time>
    </trkpt>
    <trkpt lat="48.603301" lon="9.5944762">
    <ele>785</ele>
    <time>2007-06-28T11:08:20Z</time>
    </trkpt>
    <trkpt lat="48.6033869" lon="9.5930815">
    <ele>789</ele>
    <time>2007-06-28T11:08:41Z</time>
    </trkpt>
    <trkpt lat="48.6033225" lon="9.5930171">
    <ele>791</ele>
    <time>2007-06-28T11:08:53Z</time>
    </trkpt>
    <trkpt lat="48.6032152" lon="9.5930171">
    <ele>789</ele>
    <time>2007-06-28T11:11:12Z</time>
    </trkpt>
    <trkpt lat="48.6022496" lon="9.5932961">
    <ele>773</ele>
    <time>2007-06-28T11:19:47Z</time>
    </trkpt>
    <trkpt lat="48.6022496" lon="9.5930815">
    <ele>775</ele>
    <time>2007-06-28T11:19:55Z</time>
    </trkpt>
    <trkpt lat="48.6022067" lon="9.5925665">
    <ele>779</ele>
    <time>2007-06-28T11:20:16Z</time>
    </trkpt>
    <trkpt lat="48.6021209" lon="9.591794">
    <ele>785</ele>
    <time>2007-06-28T11:20:50Z</time>
    </trkpt>
    <trkpt lat="48.602035" lon="9.5912576">
    <ele>786</ele>
    <time>2007-06-28T11:21:16Z</time>
    </trkpt>
    <trkpt lat="48.6019063" lon="9.5908284">
    <ele>789</ele>
    <time>2007-06-28T11:21:48Z</time>
    </trkpt>
    <trkpt lat="48.6018419" lon="9.5906997">
    <ele>791</ele>
    <time>2007-06-28T11:22:44Z</time>
    </trkpt>
    <trkpt lat="48.6017132" lon="9.5907426">
    <ele>792</ele>
    <time>2007-06-28T11:23:22Z</time>
    </trkpt>
    <trkpt lat="48.6013484" lon="9.5909357">
    <ele>793</ele>
    <time>2007-06-28T11:23:40Z</time>
    </trkpt>
    <trkpt lat="48.6010265" lon="9.5910859">
    <ele>793</ele>
    <time>2007-06-28T11:24:00Z</time>
    </trkpt>
    <trkpt lat="48.6008876" lon="9.5912909">
    <ele>793</ele>
    <time>2007-06-28T11:24:30Z</time>
    </trkpt>
    <trkpt lat="48.6003399" lon="9.5915365">
    <ele>806</ele>
    <time>2007-06-28T11:24:38Z</time>
    </trkpt>
    <trkpt lat="48.6001039" lon="9.5916009">
    <ele>804</ele>
    <time>2007-06-28T11:24:59Z</time>
    </trkpt>
    <trkpt lat="48.5998893" lon="9.5917082">
    <ele>801</ele>
    <time>2007-06-28T11:25:20Z</time>
    </trkpt>
    <trkpt lat="48.5995245" lon="9.5919228">
    <ele>800</ele>
    <time>2007-06-28T11:25:59Z</time>
    </trkpt>
    <trkpt lat="48.5995245" lon="9.5919228">
    <ele>796</ele>
    <time>2007-06-28T11:26:47Z</time>
    </trkpt>
    <trkpt lat="48.5984302" lon="9.5925879">
    <ele>796</ele>
    <time>2007-06-28T11:27:00Z</time>
    </trkpt>
    <trkpt lat="48.5981941" lon="9.5927596">
    <ele>795</ele>
    <time>2007-06-28T11:27:15Z</time>
    </trkpt>
    <trkpt lat="48.5980868" lon="9.5926738">
    <ele>778</ele>
    <time>2007-06-28T11:27:38Z</time>
    </trkpt>
    <trkpt lat="48.5980868" lon="9.5926523">
    <ele>778</ele>
    <time>2007-06-28T11:28:38Z</time>
    </trkpt>
    <trkpt lat="48.5981083" lon="9.5926738">
    <ele>775</ele>
    <time>2007-06-28T11:31:06Z</time>
    </trkpt>
    <trkpt lat="48.59725" lon="9.5949697">
    <ele>771</ele>
    <time>2007-06-28T11:31:24Z</time>
    </trkpt>
    <trkpt lat="48.5971642" lon="9.5952487">
    <ele>771</ele>
    <time>2007-06-28T11:31:38Z</time>
    </trkpt>
    <trkpt lat="48.5969925" lon="9.5955491">
    <ele>773</ele>
    <time>2007-06-28T11:31:56Z</time>
    </trkpt>
    <trkpt lat="48.5968208" lon="9.5956779">
    <ele>774</ele>
    <time>2007-06-28T11:32:16Z</time>
    </trkpt>
    <trkpt lat="48.5967135" lon="9.5955062">
    <ele>781</ele>
    <time>2007-06-28T11:33:47Z</time>
    </trkpt>
    <trkpt lat="48.5965204" lon="9.5950127">
    <ele>779</ele>
    <time>2007-06-28T11:34:11Z</time>
    </trkpt>
    <trkpt lat="48.5962629" lon="9.5945406">
    <ele>778</ele>
    <time>2007-06-28T11:34:37Z</time>
    </trkpt>
    <trkpt lat="48.5961342" lon="9.5945191">
    <ele>777</ele>
    <time>2007-06-28T11:34:46Z</time>
    </trkpt>
    <trkpt lat="48.5959411" lon="9.5946908">
    <ele>773</ele>
    <time>2007-06-28T11:35:00Z</time>
    </trkpt>
    <trkpt lat="48.5955977" lon="9.5950556">
    <ele>771</ele>
    <time>2007-06-28T11:35:25Z</time>
    </trkpt>
    <trkpt lat="48.5953188" lon="9.5952916">
    <ele>773</ele>
    <time>2007-06-28T11:35:46Z</time>
    </trkpt>
    <trkpt lat="48.5950398" lon="9.5956135">
    <ele>770</ele>
    <time>2007-06-28T11:36:12Z</time>
    </trkpt>
    <trkpt lat="48.5947394" lon="9.5958924">
    <ele>768</ele>
    <time>2007-06-28T11:36:37Z</time>
    </trkpt>
    <trkpt lat="48.5943961" lon="9.5960426">
    <ele>767</ele>
    <time>2007-06-28T11:37:00Z</time>
    </trkpt>
    <trkpt lat="48.5940313" lon="9.5961928">
    <ele>761</ele>
    <time>2007-06-28T11:37:28Z</time>
    </trkpt>
    <trkpt lat="48.5937095" lon="9.5961285">
    <ele>758</ele>
    <time>2007-06-28T11:37:56Z</time>
    </trkpt>
    <trkpt lat="48.5933232" lon="9.5959997">
    <ele>755</ele>
    <time>2007-06-28T11:38:25Z</time>
    </trkpt>
    <trkpt lat="48.5928297" lon="9.5959353">
    <ele>751</ele>
    <time>2007-06-28T11:38:57Z</time>
    </trkpt>
    <trkpt lat="48.592422" lon="9.5958281">
    <ele>749</ele>
    <time>2007-06-28T11:39:28Z</time>
    </trkpt>
    <trkpt lat="48.5921431" lon="9.595871">
    <ele>748</ele>
    <time>2007-06-28T11:39:49Z</time>
    </trkpt>
    <trkpt lat="48.5917354" lon="9.5962572">
    <ele>749</ele>
    <time>2007-06-28T11:40:19Z</time>
    </trkpt>
    <trkpt lat="48.5914564" lon="9.5965576">
    <ele>749</ele>
    <time>2007-06-28T11:40:41Z</time>
    </trkpt>
    <trkpt lat="48.5911989" lon="9.5968795">
    <ele>748</ele>
    <time>2007-06-28T11:41:10Z</time>
    </trkpt>
    <trkpt lat="48.5909575377396" lon="9.59817932723184">
    <ele>747</ele>
    <time>2007-06-28T11:42:25Z</time>
    </trkpt>
    <trkpt lat="48.5903621" lon="9.598403">
    <ele>748</ele>
    <time>2007-06-28T11:42:51Z</time>
    </trkpt>
    <trkpt lat="48.5899329" lon="9.5985103">
    <ele>761</ele>
    <time>2007-06-28T11:43:14Z</time>
    </trkpt>
    <trkpt lat="48.5899544" lon="9.5984459">
    <ele>753</ele>
    <time>2007-06-28T11:43:16Z</time>
    </trkpt>
    <trkpt lat="48.5897613" lon="9.5985103">
    <ele>745</ele>
    <time>2007-06-28T11:43:33Z</time>
    </trkpt>
    <trkpt lat="48.5895038" lon="9.5985103">
    <ele>745</ele>
    <time>2007-06-28T11:43:51Z</time>
    </trkpt>
    <trkpt lat="48.5891604" lon="9.5985103">
    <ele>745</ele>
    <time>2007-06-28T11:44:16Z</time>
    </trkpt>
    <trkpt lat="48.5889244" lon="9.5985317">
    <ele>745</ele>
    <time>2007-06-28T11:44:39Z</time>
    </trkpt>
    <trkpt lat="48.588903" lon="9.5985317">
    <ele>743</ele>
    <time>2007-06-28T11:44:58Z</time>
    </trkpt>
    <trkpt lat="48.58886" lon="9.5985317">
    <ele>744</ele>
    <time>2007-06-28T11:45:02Z</time>
    </trkpt>
    <trkpt lat="48.5885811" lon="9.5985103">
    <ele>746</ele>
    <time>2007-06-28T11:45:21Z</time>
    </trkpt>
    <trkpt lat="48.5882592" lon="9.5985746">
    <ele>749</ele>
    <time>2007-06-28T11:45:46Z</time>
    </trkpt>
    <trkpt lat="48.5880446" lon="9.5988536">
    <ele>747</ele>
    <time>2007-06-28T11:46:15Z</time>
    </trkpt>
    <trkpt lat="48.5878515" lon="9.5991111">
    <ele>747</ele>
    <time>2007-06-28T11:46:31Z</time>
    </trkpt>
    <trkpt lat="48.5875511" lon="9.5994329">
    <ele>747</ele>
    <time>2007-06-28T11:46:58Z</time>
    </trkpt>
    <trkpt lat="48.5873365" lon="9.599669">
    <ele>749</ele>
    <time>2007-06-28T11:47:18Z</time>
    </trkpt>
    <trkpt lat="48.5869718" lon="9.5998836">
    <ele>752</ele>
    <time>2007-06-28T11:47:43Z</time>
    </trkpt>
    <trkpt lat="48.5867357" lon="9.6002483">
    <ele>753</ele>
    <time>2007-06-28T11:48:07Z</time>
    </trkpt>
    <trkpt lat="48.5865426" lon="9.6007633">
    <ele>755</ele>
    <time>2007-06-28T11:48:31Z</time>
    </trkpt>
    <trkpt lat="48.5863709" lon="9.6012783">
    <ele>757</ele>
    <time>2007-06-28T11:48:56Z</time>
    </trkpt>
    <trkpt lat="48.5863066" lon="9.6015358">
    <ele>758</ele>
    <time>2007-06-28T11:49:15Z</time>
    </trkpt>
    <trkpt lat="48.5862422" lon="9.6017718">
    <ele>759</ele>
    <time>2007-06-28T11:49:30Z</time>
    </trkpt>
    <trkpt lat="48.585804213021" lon="9.60328064402115">
    <ele>759</ele>
    <time>2007-06-28T11:49:54Z</time>
    </trkpt>
    <trkpt lat="48.5852666" lon="9.6035448">
    <ele>758</ele>
    <time>2007-06-28T11:50:07Z</time>
    </trkpt>
    <trkpt lat="48.5858503407036" lon="9.59846741519766">
    <ele>760</ele>
    <time>2007-06-28T11:50:35Z</time>
    </trkpt>
    <trkpt lat="48.5856267723959" lon="9.59644458123437">
    <ele>761</ele>
    <time>2007-06-28T11:51:03Z</time>
    </trkpt>
    <trkpt lat="48.584074667241" lon="9.59591962169218">
    <time>2007-06-28T11:51:15Z</time>
    </trkpt>
    <trkpt lat="48.5828752" lon="9.5965023">
    <ele>761</ele>
    <time>2007-06-28T11:51:27Z</time>
    </trkpt>
    <trkpt lat="48.5796895" lon="9.5952111">
    <ele>759</ele>
    <time>2007-06-28T11:52:25Z</time>
    </trkpt>
    <trkpt lat="48.579286" lon="9.5949692">
    <ele>716</ele>
    <time>2007-06-28T13:16:07Z</time>
    </trkpt>
    <trkpt lat="48.5773364" lon="9.5937605">
    <ele>724</ele>
    <time>2007-06-28T13:16:11Z</time>
    </trkpt>
    <trkpt lat="48.5745907" lon="9.5941114">
    <ele>724</ele>
    <time>2007-06-28T13:16:16Z</time>
    </trkpt>
    <trkpt lat="48.5745263" lon="9.5940685">
    <ele>729</ele>
    <time>2007-06-28T13:16:29Z</time>
    </trkpt>
    <trkpt lat="48.5743332" lon="9.5940042">
    <ele>730</ele>
    <time>2007-06-28T13:16:35Z</time>
    </trkpt>
    <trkpt lat="48.5737109" lon="9.5932961">
    <ele>734</ele>
    <time>2007-06-28T13:16:48Z</time>
    </trkpt>
    <trkpt lat="48.5725307" lon="9.592073">
    <ele>736</ele>
    <time>2007-06-28T13:17:12Z</time>
    </trkpt>
    <trkpt lat="48.5722518" lon="9.5918369">
    <ele>736</ele>
    <time>2007-06-28T13:17:17Z</time>
    </trkpt>
    <trkpt lat="48.5715222" lon="9.592073">
    <ele>739</ele>
    <time>2007-06-28T13:17:22Z</time>
    </trkpt>
    <trkpt lat="48.5713506" lon="9.5920944">
    <ele>738</ele>
    <time>2007-06-28T13:17:30Z</time>
    </trkpt>
    <trkpt lat="48.571372" lon="9.5919228">
    <ele>739</ele>
    <time>2007-06-28T13:17:35Z</time>
    </trkpt>
    <trkpt lat="48.5714579" lon="9.5915794">
    <ele>748</ele>
    <time>2007-06-28T13:17:49Z</time>
    </trkpt>
    <trkpt lat="48.5714793" lon="9.5914507">
    <ele>748</ele>
    <time>2007-06-28T13:17:55Z</time>
    </trkpt>
    <trkpt lat="48.571372" lon="9.5913219">
    <ele>749</ele>
    <time>2007-06-28T13:17:59Z</time>
    </trkpt>
    <trkpt lat="48.5712218" lon="9.5905495">
    <ele>752</ele>
    <time>2007-06-28T13:18:09Z</time>
    </trkpt>
    <trkpt lat="48.5712433" lon="9.5902491">
    <ele>753</ele>
    <time>2007-06-28T13:18:12Z</time>
    </trkpt>
    <trkpt lat="48.5713506" lon="9.5898628">
    <ele>755</ele>
    <time>2007-06-28T13:18:16Z</time>
    </trkpt>
    <trkpt lat="48.5715652" lon="9.5894551">
    <ele>758</ele>
    <time>2007-06-28T13:18:21Z</time>
    </trkpt>
    <trkpt lat="48.571651" lon="9.589026">
    <ele>761</ele>
    <time>2007-06-28T13:18:25Z</time>
    </trkpt>
    <trkpt lat="48.5716295" lon="9.5869231">
    <ele>765</ele>
    <time>2007-06-28T13:18:42Z</time>
    </trkpt>
    <trkpt lat="48.5711789" lon="9.5844984">
    <ele>767</ele>
    <time>2007-06-28T13:18:59Z</time>
    </trkpt>
    <trkpt lat="48.5709429" lon="9.5836401">
    <ele>770</ele>
    <time>2007-06-28T13:19:05Z</time>
    </trkpt>
    <trkpt lat="48.5704494" lon="9.5824385">
    <ele>769</ele>
    <time>2007-06-28T13:19:15Z</time>
    </trkpt>
    <trkpt lat="48.5694408" lon="9.5812583">
    <ele>767</ele>
    <time>2007-06-28T13:19:28Z</time>
    </trkpt>
    <trkpt lat="48.5676813" lon="9.5792198">
    <ele>772</ele>
    <time>2007-06-28T13:19:52Z</time>
    </trkpt>
    <trkpt lat="48.5670376" lon="9.5776963">
    <ele>766</ele>
    <time>2007-06-28T13:20:07Z</time>
    </trkpt>
    <trkpt lat="48.5668659" lon="9.5772886">
    <ele>765</ele>
    <time>2007-06-28T13:20:11Z</time>
    </trkpt>
    <trkpt lat="48.5655141" lon="9.5752931">
    <ele>759</ele>
    <time>2007-06-28T13:20:35Z</time>
    </trkpt>
    <trkpt lat="48.5654068" lon="9.5750141">
    <ele>757</ele>
    <time>2007-06-28T13:20:40Z</time>
    </trkpt>
    <trkpt lat="48.5653424" lon="9.574821">
    <ele>756</ele>
    <time>2007-06-28T13:20:45Z</time>
    </trkpt>
    <trkpt lat="48.5651064" lon="9.5747995">
    <ele>756</ele>
    <time>2007-06-28T13:20:50Z</time>
    </trkpt>
    <trkpt lat="48.5647202" lon="9.5749927">
    <ele>761</ele>
    <time>2007-06-28T13:21:02Z</time>
    </trkpt>
    <trkpt lat="48.5646129" lon="9.5750356">
    <ele>761</ele>
    <time>2007-06-28T13:21:05Z</time>
    </trkpt>
    <trkpt lat="48.5634971" lon="9.5749497">
    <ele>765</ele>
    <time>2007-06-28T13:21:20Z</time>
    </trkpt>
    <trkpt lat="48.5626173" lon="9.5747781">
    <ele>768</ele>
    <time>2007-06-28T13:21:32Z</time>
    </trkpt>
    <trkpt lat="48.5624671" lon="9.5748425">
    <ele>768</ele>
    <time>2007-06-28T13:21:41Z</time>
    </trkpt>
    <trkpt lat="48.5624242" lon="9.5748854">
    <ele>768</ele>
    <time>2007-06-28T13:23:22Z</time>
    </trkpt>
    <trkpt lat="48.5620889392829" lon="9.57510850797085">
    <ele>767</ele>
    <time>2007-06-28T13:23:28Z</time>
    </trkpt>
    <trkpt lat="48.5601282" lon="9.5736194">
    <ele>775</ele>
    <time>2007-06-28T13:24:01Z</time>
    </trkpt>
    <trkpt lat="48.5600853" lon="9.573791">
    <ele>773</ele>
    <time>2007-06-28T13:24:10Z</time>
    </trkpt>
    <trkpt lat="48.5600424" lon="9.5740056">
    <ele>775</ele>
    <time>2007-06-28T13:24:19Z</time>
    </trkpt>
    <trkpt lat="48.5599995" lon="9.5740271">
    <ele>768</ele>
    <time>2007-06-28T13:25:00Z</time>
    </trkpt>
    <trkpt lat="48.5596132" lon="9.5750999">
    <ele>770</ele>
    <time>2007-06-28T13:25:14Z</time>
    </trkpt>
    <trkpt lat="48.5583043" lon="9.5776963">
    <ele>771</ele>
    <time>2007-06-28T13:25:47Z</time>
    </trkpt>
    <trkpt lat="48.5570812" lon="9.5789409">
    <ele>772</ele>
    <time>2007-06-28T13:26:10Z</time>
    </trkpt>
    <trkpt lat="48.5567594" lon="9.5792842">
    <ele>772</ele>
    <time>2007-06-28T13:26:17Z</time>
    </trkpt>
    <trkpt lat="48.5567164" lon="9.5792842">
    <ele>773</ele>
    <time>2007-06-28T13:26:33Z</time>
    </trkpt>
    <trkpt lat="48.5565019" lon="9.5791554">
    <ele>789</ele>
    <time>2007-06-28T13:27:28Z</time>
    </trkpt>
    <trkpt lat="48.5556436" lon="9.5788765">
    <ele>788</ele>
    <time>2007-06-28T13:27:46Z</time>
    </trkpt>
    <trkpt lat="48.5533261" lon="9.5797777">
    <ele>773</ele>
    <time>2007-06-28T13:29:27Z</time>
    </trkpt>
    <trkpt lat="48.5527897" lon="9.5800352">
    <ele>773</ele>
    <time>2007-06-28T13:29:39Z</time>
    </trkpt>
    <trkpt lat="48.5513306" lon="9.5812583">
    <ele>773</ele>
    <time>2007-06-28T13:30:09Z</time>
    </trkpt>
    <trkpt lat="48.5508585" lon="9.5815158">
    <ele>772</ele>
    <time>2007-06-28T13:30:17Z</time>
    </trkpt>
    <trkpt lat="48.54985" lon="9.5808291">
    <ele>773</ele>
    <time>2007-06-28T13:30:34Z</time>
    </trkpt>
    <trkpt lat="48.5492063" lon="9.5802712">
    <ele>773</ele>
    <time>2007-06-28T13:30:49Z</time>
    </trkpt>
    <trkpt lat="48.5492921" lon="9.5803571">
    <ele>744</ele>
    <time>2007-06-28T13:32:17Z</time>
    </trkpt>
    <trkpt lat="48.5492492" lon="9.580164">
    <ele>744</ele>
    <time>2007-06-28T13:32:20Z</time>
    </trkpt>
    <trkpt lat="48.5486389992848" lon="9.57913782695248">
    <ele>745</ele>
    <time>2007-06-28T13:32:29Z</time>
    </trkpt>
    <trkpt lat="48.5453650904289" lon="9.57837265177107">
    <ele>745</ele>
    <time>2007-06-28T13:32:43Z</time>
    </trkpt>
    <trkpt lat="48.5455802733856" lon="9.57736248171237">
    <ele>745</ele>
    <time>2007-06-28T13:32:48Z</time>
    </trkpt>
    <trkpt lat="48.5452676598452" lon="9.57264393360647">
    <ele>743</ele>
    <time>2007-06-28T13:33:13Z</time>
    </trkpt>
    <trkpt lat="48.5454045594546" lon="9.57046201964897">
    <ele>742</ele>
    <time>2007-06-28T13:33:45Z</time>
    </trkpt>
    <trkpt lat="48.5457922890459" lon="9.56853605888561">
    <ele>738</ele>
    <time>2007-06-28T13:34:41Z</time>
    </trkpt>
    <trkpt lat="48.5458922228053" lon="9.56530942637044">
    <ele>738</ele>
    <time>2007-06-28T13:34:46Z</time>
    </trkpt>
    <trkpt lat="48.5460292931059" lon="9.56306417860734">
    <ele>738</ele>
    <time>2007-06-28T13:34:58Z</time>
    </trkpt>
    <trkpt lat="48.5478634425149" lon="9.56180097104281">
    <ele>729</ele>
    <time>2007-06-28T13:35:30Z</time>
    </trkpt>
    <trkpt lat="48.5485617129347" lon="9.56079601940275">
    <ele>727</ele>
    <time>2007-06-28T13:36:21Z</time>
    </trkpt>
    <trkpt lat="48.5490728831196" lon="9.55937757058838">
    <ele>725</ele>
    <time>2007-06-28T13:36:34Z</time>
    </trkpt>
    <trkpt lat="48.5499180497591" lon="9.55840582521824">
    <ele>721</ele>
    <time>2007-06-28T13:38:15Z</time>
    </trkpt>
    <trkpt lat="48.5511281808499" lon="9.5601597747984">
    <ele>719</ele>
    <time>2007-06-28T13:39:04Z</time>
    </trkpt>
    <trkpt lat="48.551631" lon="9.5600152">
    <ele>718</ele>
    <time>2007-06-28T13:39:05Z</time>
    </trkpt>
    <trkpt lat="48.5523391" lon="9.5596504">
    <ele>716</ele>
    <time>2007-06-28T13:39:14Z</time>
    </trkpt>
    <trkpt lat="48.5524464" lon="9.5595002">
    <ele>716</ele>
    <time>2007-06-28T13:39:17Z</time>
    </trkpt>
    <trkpt lat="48.5530686" lon="9.5587277">
    <ele>746</ele>
    <time>2007-06-28T13:40:47Z</time>
    </trkpt>
    <trkpt lat="48.5531759" lon="9.5586419">
    <ele>746</ele>
    <time>2007-06-28T13:40:56Z</time>
    </trkpt>
    <trkpt lat="48.5533047" lon="9.5584273">
    <ele>746</ele>
    <time>2007-06-28T13:41:01Z</time>
    </trkpt>
    <trkpt lat="48.553807154782" lon="9.55794412867554">
    <ele>746</ele>
    <time>2007-06-28T13:41:03Z</time>
    </trkpt>
    <trkpt lat="48.5544488499437" lon="9.55563883887773">
    <ele>746</ele>
    <time>2007-06-28T13:41:24Z</time>
    </trkpt>
    <trkpt lat="48.5552714496116" lon="9.55498318711014">
    <ele>746</ele>
    <time>2007-06-28T13:42:01Z</time>
    </trkpt>
    <trkpt lat="48.5578752" lon="9.5519257">
    <ele>749</ele>
    <time>2007-06-28T13:42:42Z</time>
    </trkpt>
    <trkpt lat="48.5591403970195" lon="9.5505308006727">
    <ele>750</ele>
    <time>2007-06-28T13:43:27Z</time>
    </trkpt>
    <trkpt lat="48.5598635040506" lon="9.54870275459089">
    <ele>751</ele>
    <time>2007-06-28T13:43:49Z</time>
    </trkpt>
    <trkpt lat="48.5604423662619" lon="9.54627168150075">
    <ele>754</ele>
    <time>2007-06-28T13:44:16Z</time>
    </trkpt>
    <trkpt lat="48.5607342563976" lon="9.5432870158845">
    <ele>755</ele>
    <time>2007-06-28T13:44:46Z</time>
    </trkpt>
    <trkpt lat="48.560444561207" lon="9.54274200231022">
    <ele>777</ele>
    <time>2007-06-28T13:45:47Z</time>
    </trkpt>
    <trkpt lat="48.5606291929255" lon="9.54172789055512">
    <ele>776</ele>
    <time>2007-06-28T13:45:57Z</time>
    </trkpt>
    <trkpt lat="48.5609539441573" lon="9.53959756207147">
    <ele>778</ele>
    <time>2007-06-28T13:46:16Z</time>
    </trkpt>
    <trkpt lat="48.5611619794797" lon="9.53838045771">
    <ele>779</ele>
    <time>2007-06-28T13:46:50Z</time>
    </trkpt>
    <trkpt lat="48.5607183731435" lon="9.53708870408846">
    <ele>778</ele>
    <time>2007-06-28T13:46:56Z</time>
    </trkpt>
    <trkpt lat="48.5603213" lon="9.5357895">
    <ele>779</ele>
    <time>2007-06-28T13:47:19Z</time>
    </trkpt>
    <trkpt lat="48.5602240564898" lon="9.5345891713325">
    <ele>779</ele>
    <time>2007-06-28T13:47:26Z</time>
    </trkpt>
    <trkpt lat="48.5603213" lon="9.5333648">
    <ele>779</ele>
    <time>2007-06-28T13:47:48Z</time>
    </trkpt>
    <trkpt lat="48.5601926" lon="9.5324421">
    <ele>779</ele>
    <time>2007-06-28T13:48:03Z</time>
    </trkpt>
    <trkpt lat="48.5601711" lon="9.532485">
    <ele>784</ele>
    <time>2007-06-28T13:49:10Z</time>
    </trkpt>
    <trkpt lat="48.5595703" lon="9.5313048">
    <ele>786</ele>
    <time>2007-06-28T13:49:24Z</time>
    </trkpt>
    <trkpt lat="48.5593343" lon="9.5308542">
    <ele>787</ele>
    <time>2007-06-28T13:49:32Z</time>
    </trkpt>
    <trkpt lat="48.5592914" lon="9.5308113">
    <ele>787</ele>
    <time>2007-06-28T13:49:39Z</time>
    </trkpt>
    <trkpt lat="48.5588837" lon="9.5311117">
    <ele>789</ele>
    <time>2007-06-28T13:49:47Z</time>
    </trkpt>
    <trkpt lat="48.5578322" lon="9.5320129">
    <ele>796</ele>
    <time>2007-06-28T13:49:59Z</time>
    </trkpt>
    <trkpt lat="48.5574245" lon="9.5322061">
    <ele>798</ele>
    <time>2007-06-28T13:50:05Z</time>
    </trkpt>
    <trkpt lat="48.5573602" lon="9.5320344">
    <ele>797</ele>
    <time>2007-06-28T13:50:09Z</time>
    </trkpt>
    <trkpt lat="48.5573602" lon="9.5318413">
    <ele>793</ele>
    <time>2007-06-28T13:50:19Z</time>
    </trkpt>
    <trkpt lat="48.5573387" lon="9.5314336">
    <ele>789</ele>
    <time>2007-06-28T13:50:57Z</time>
    </trkpt>
    <trkpt lat="48.5572743" lon="9.5296741">
    <ele>780</ele>
    <time>2007-06-28T13:51:08Z</time>
    </trkpt>
    <trkpt lat="48.5571456" lon="9.5260692">
    <ele>771</ele>
    <time>2007-06-28T13:51:29Z</time>
    </trkpt>
    <trkpt lat="48.5574245" lon="9.5239019">
    <ele>764</ele>
    <time>2007-06-28T13:51:44Z</time>
    </trkpt>
    <trkpt lat="48.5577035" lon="9.5219493">
    <ele>761</ele>
    <time>2007-06-28T13:52:01Z</time>
    </trkpt>
    <trkpt lat="48.557725" lon="9.5218635">
    <ele>760</ele>
    <time>2007-06-28T13:52:12Z</time>
    </trkpt>
    <trkpt lat="48.5583687" lon="9.520061">
    <ele>760</ele>
    <time>2007-06-28T13:53:32Z</time>
    </trkpt>
    <trkpt lat="48.5590982" lon="9.5184946">
    <ele>765</ele>
    <time>2007-06-28T13:53:47Z</time>
    </trkpt>
    <trkpt lat="48.5590339" lon="9.5178723">
    <ele>766</ele>
    <time>2007-06-28T13:53:53Z</time>
    </trkpt>
    <trkpt lat="48.5583687" lon="9.5160913">
    <ele>769</ele>
    <time>2007-06-28T13:54:12Z</time>
    </trkpt>
    <trkpt lat="48.5584331" lon="9.5161986">
    <ele>767</ele>
    <time>2007-06-28T13:54:46Z</time>
    </trkpt>
    <trkpt lat="48.5584331" lon="9.5159626">
    <ele>765</ele>
    <time>2007-06-28T13:54:51Z</time>
    </trkpt>
    <trkpt lat="48.5586691" lon="9.5154691">
    <ele>766</ele>
    <time>2007-06-28T13:55:02Z</time>
    </trkpt>
    <trkpt lat="48.5594416" lon="9.5146322">
    <ele>766</ele>
    <time>2007-06-28T13:55:23Z</time>
    </trkpt>
    <trkpt lat="48.5604501" lon="9.5130444">
    <ele>765</ele>
    <time>2007-06-28T13:55:37Z</time>
    </trkpt>
    <trkpt lat="48.5604715" lon="9.51298">
    <ele>765</ele>
    <time>2007-06-28T13:55:46Z</time>
    </trkpt>
    <trkpt lat="48.5606003" lon="9.5126581">
    <ele>770</ele>
    <time>2007-06-28T13:58:09Z</time>
    </trkpt>
    <trkpt lat="48.5610938" lon="9.5111346">
    <ele>771</ele>
    <time>2007-06-28T13:58:22Z</time>
    </trkpt>
    <trkpt lat="48.5618834864637" lon="9.50824346499448">
    <ele>772</ele>
    <time>2007-06-28T13:58:48Z</time>
    </trkpt>
    <trkpt lat="48.5628603" lon="9.508744">
    <ele>798</ele>
    <time>2007-06-28T13:59:56Z</time>
    </trkpt>
    <trkpt lat="48.5632197" lon="9.5088154">
    <ele>797</ele>
    <time>2007-06-28T14:00:07Z</time>
    </trkpt>
    <trkpt lat="48.564196" lon="9.5066574">
    <ele>796</ele>
    <time>2007-06-28T14:00:15Z</time>
    </trkpt>
    <trkpt lat="48.5660964" lon="9.5039326">
    <ele>785</ele>
    <time>2007-06-28T14:00:34Z</time>
    </trkpt>
    <trkpt lat="48.5677736" lon="9.5008329">
    <ele>781</ele>
    <time>2007-06-28T14:00:49Z</time>
    </trkpt>
    <trkpt lat="48.5680461" lon="9.5004487">
    <ele>805</ele>
    <time>2007-06-28T14:06:37Z</time>
    </trkpt>
    <trkpt lat="48.568089" lon="9.5004272">
    <ele>794</ele>
    <time>2007-06-28T14:07:02Z</time>
    </trkpt>
    <trkpt lat="48.5680676" lon="9.5004058">
    <ele>796</ele>
    <time>2007-06-28T14:08:28Z</time>
    </trkpt>
    <trkpt lat="48.5682821" lon="9.4999981">
    <ele>795</ele>
    <time>2007-06-28T14:08:35Z</time>
    </trkpt>
    <trkpt lat="48.5693714363726" lon="9.49761388178495">
    <ele>793</ele>
    <time>2007-06-28T14:09:07Z</time>
    </trkpt>
    <trkpt lat="48.5692477" lon="9.4971013">
    <ele>792</ele>
    <time>2007-06-28T14:09:48Z</time>
    </trkpt>
    <trkpt lat="48.5687542" lon="9.4966507">
    <ele>791</ele>
    <time>2007-06-28T14:09:55Z</time>
    </trkpt>
    <trkpt lat="48.5686684" lon="9.4964576">
    <ele>791</ele>
    <time>2007-06-28T14:09:57Z</time>
    </trkpt>
    <trkpt lat="48.5678315" lon="9.494226">
    <ele>792</ele>
    <time>2007-06-28T14:10:15Z</time>
    </trkpt>
    <trkpt lat="48.5671449" lon="9.4928098">
    <ele>791</ele>
    <time>2007-06-28T14:10:29Z</time>
    </trkpt>
    <trkpt lat="48.5670161" lon="9.492445">
    <ele>789</ele>
    <time>2007-06-28T14:10:33Z</time>
    </trkpt>
    <trkpt lat="48.567465128448" lon="9.49129459499106">
    <ele>787</ele>
    <time>2007-06-28T14:10:46Z</time>
    </trkpt>
    <trkpt lat="48.5669518" lon="9.4907284">
    <ele>787</ele>
    <time>2007-06-28T14:10:54Z</time>
    </trkpt>
    <trkpt lat="48.5659647" lon="9.4897628">
    <ele>787</ele>
    <time>2007-06-28T14:11:13Z</time>
    </trkpt>
    <trkpt lat="48.5656765971227" lon="9.48894004030401">
    <ele>773</ele>
    <time>2007-06-28T14:11:32Z</time>
    </trkpt>
    <trkpt lat="48.5682065" lon="9.4890488">
    <ele>767</ele>
    <time>2007-06-28T14:11:41Z</time>
    </trkpt>
    <trkpt lat="48.5697193" lon="9.4927897">
    <ele>757</ele>
    <time>2007-06-28T14:12:31Z</time>
    </trkpt>
    <trkpt lat="48.5701251" lon="9.4925226">
    <ele>756</ele>
    <time>2007-06-28T14:13:17Z</time>
    </trkpt>
    <trkpt lat="48.5704424" lon="9.4919159">
    <ele>614</ele>
    <time>2007-06-28T15:28:46Z</time>
    </trkpt>
    <trkpt lat="48.5712686" lon="9.4879604">
    <ele>597</ele>
    <time>2007-06-28T15:29:12Z</time>
    </trkpt>
    <trkpt lat="48.5751486" lon="9.4836903">
    <ele>599</ele>
    <time>2007-06-28T15:29:29Z</time>
    </trkpt>
    <trkpt lat="48.57517" lon="9.4836044">
    <ele>599</ele>
    <time>2007-06-28T15:30:14Z</time>
    </trkpt>
    <trkpt lat="48.5749769" lon="9.4833684">
    <ele>599</ele>
    <time>2007-06-28T15:30:47Z</time>
    </trkpt>
    <trkpt lat="48.5750842" lon="9.4832397">
    <ele>598</ele>
    <time>2007-06-28T15:31:04Z</time>
    </trkpt>
    <trkpt lat="48.57517" lon="9.482789">
    <ele>599</ele>
    <time>2007-06-28T15:31:34Z</time>
    </trkpt>
    <trkpt lat="48.5750842" lon="9.4822311">
    <ele>602</ele>
    <time>2007-06-28T15:32:07Z</time>
    </trkpt>
    <trkpt lat="48.5749125" lon="9.4807935">
    <ele>601</ele>
    <time>2007-06-28T15:33:24Z</time>
    </trkpt>
    <trkpt lat="48.5747623" lon="9.4795489">
    <ele>601</ele>
    <time>2007-06-28T15:34:17Z</time>
    </trkpt>
    <trkpt lat="48.574698" lon="9.4794846">
    <ele>601</ele>
    <time>2007-06-28T15:34:19Z</time>
    </trkpt>
    <trkpt lat="48.5748053" lon="9.4793987">
    <ele>601</ele>
    <time>2007-06-28T15:34:24Z</time>
    </trkpt>
    <trkpt lat="48.5748482" lon="9.4793558">
    <ele>600</ele>
    <time>2007-06-28T15:34:26Z</time>
    </trkpt>
    <trkpt lat="48.5748911" lon="9.4788408">
    <ele>599</ele>
    <time>2007-06-28T15:34:51Z</time>
    </trkpt>
    <trkpt lat="48.5749555" lon="9.4779825">
    <ele>599</ele>
    <time>2007-06-28T15:35:27Z</time>
    </trkpt>
    <trkpt lat="48.57517" lon="9.4771671">
    <ele>598</ele>
    <time>2007-06-28T15:36:11Z</time>
    </trkpt>
    <trkpt lat="48.5755637" lon="9.4769909">
    <ele>583</ele>
    <time>2007-06-28T15:38:23Z</time>
    </trkpt>
    <trkpt lat="48.5771871" lon="9.4753003">
    <ele>583</ele>
    <time>2007-06-28T15:38:24Z</time>
    </trkpt>
    <trkpt lat="48.5772085" lon="9.4751501">
    <ele>585</ele>
    <time>2007-06-28T15:38:29Z</time>
    </trkpt>
    <trkpt lat="48.5782276" lon="9.4743054">
    <ele>575</ele>
    <time>2007-06-28T15:39:00Z</time>
    </trkpt>
    <trkpt lat="48.5782276" lon="9.4743054">
    <ele>577</ele>
    <time>2007-06-28T15:40:58Z</time>
    </trkpt>
    <trkpt lat="48.5790968" lon="9.4738626">
    <ele>563</ele>
    <time>2007-06-28T15:41:07Z</time>
    </trkpt>
    <trkpt lat="48.5794187" lon="9.4732404">
    <ele>571</ele>
    <time>2007-06-28T15:42:01Z</time>
    </trkpt>
    <trkpt lat="48.5796547" lon="9.4725966">
    <ele>578</ele>
    <time>2007-06-28T15:42:48Z</time>
    </trkpt>
    <trkpt lat="48.5798693" lon="9.472146">
    <ele>577</ele>
    <time>2007-06-28T15:43:19Z</time>
    </trkpt>
    <trkpt lat="48.5801482" lon="9.4715881">
    <ele>577</ele>
    <time>2007-06-28T15:44:04Z</time>
    </trkpt>
    <trkpt lat="48.5804486" lon="9.4711375">
    <ele>580</ele>
    <time>2007-06-28T15:44:38Z</time>
    </trkpt>
    <trkpt lat="48.5806840992119" lon="9.46983926681364">
    <ele>585</ele>
    <time>2007-06-28T15:47:01Z</time>
    </trkpt>
    <trkpt lat="48.5815658291965" lon="9.4686276326183">
    <ele>615</ele>
    <time>2007-06-28T15:47:25Z</time>
    </trkpt>
    <trkpt lat="48.5826159" lon="9.4682837">
    <ele>614</ele>
    <time>2007-06-28T15:47:47Z</time>
    </trkpt>
    <trkpt lat="48.5829806" lon="9.4678974">
    <ele>612</ele>
    <time>2007-06-28T15:48:24Z</time>
    </trkpt>
    <trkpt lat="48.5831094" lon="9.4677472">
    <ele>612</ele>
    <time>2007-06-28T15:48:45Z</time>
    </trkpt>
    <trkpt lat="48.5837196" lon="9.467241">
    <ele>612</ele>
    <time>2007-06-28T15:48:50Z</time>
    </trkpt>
    <trkpt lat="48.5846218" lon="9.4665038">
    <ele>609</ele>
    <time>2007-06-28T15:49:05Z</time>
    </trkpt>
    <trkpt lat="48.5853981895312" lon="9.46605383700517">
    <time>2007-06-28T15:49:13Z</time>
    </trkpt>
    <trkpt lat="48.5864427" lon="9.4665545">
    <time>2007-06-28T15:49:21Z</time>
    </trkpt>
    <trkpt lat="48.588095635145" lon="9.46614641733306">
    <time>2007-06-28T15:51:26Z</time>
    </trkpt>
    <trkpt lat="48.5920607" lon="9.4671484">
    <ele>635</ele>
    <time>2007-06-28T15:53:31Z</time>
    </trkpt>
    <trkpt lat="48.5922186" lon="9.4670143">
    <ele>561</ele>
    <time>2007-06-28T16:00:32Z</time>
    </trkpt>
    <trkpt lat="48.5925008103669" lon="9.46645806584067">
    <ele>532</ele>
    <time>2007-06-28T16:00:36Z</time>
    </trkpt>
    <trkpt lat="48.592422" lon="9.4644642">
    <ele>540</ele>
    <time>2007-06-28T16:00:43Z</time>
    </trkpt>
    <trkpt lat="48.5927868" lon="9.4628334">
    <ele>529</ele>
    <time>2007-06-28T16:00:52Z</time>
    </trkpt>
    <trkpt lat="48.5930872" lon="9.4622326">
    <ele>525</ele>
    <time>2007-06-28T16:00:56Z</time>
    </trkpt>
    <trkpt lat="48.593418899274" lon="9.46178949975121">
    <ele>518</ele>
    <time>2007-06-28T16:01:04Z</time>
    </trkpt>
    <trkpt lat="48.5940313" lon="9.4615889">
    <ele>518</ele>
    <time>2007-06-28T16:01:05Z</time>
    </trkpt>
    <trkpt lat="48.5944819" lon="9.4615245">
    <ele>514</ele>
    <time>2007-06-28T16:01:10Z</time>
    </trkpt>
    <trkpt lat="48.5945678" lon="9.4610524">
    <ele>512</ele>
    <time>2007-06-28T16:01:16Z</time>
    </trkpt>
    <trkpt lat="48.5942245" lon="9.4609451">
    <ele>509</ele>
    <time>2007-06-28T16:01:20Z</time>
    </trkpt>
    <trkpt lat="48.5931087" lon="9.4612241">
    <ele>504</ele>
    <time>2007-06-28T16:01:30Z</time>
    </trkpt>
    <trkpt lat="48.5919929" lon="9.462254">
    <ele>497</ele>
    <time>2007-06-28T16:01:40Z</time>
    </trkpt>
    <trkpt lat="48.591156" lon="9.4621468">
    <ele>490</ele>
    <time>2007-06-28T16:01:47Z</time>
    </trkpt>
    <trkpt lat="48.5903648783793" lon="9.46091443507721">
    <ele>488</ele>
    <time>2007-06-28T16:01:50Z</time>
    </trkpt>
    <trkpt lat="48.589945184436" lon="9.45904671717238">
    <ele>485</ele>
    <time>2007-06-28T16:02:10Z</time>
    </trkpt>
    <trkpt lat="48.5892892" lon="9.4574475">
    <ele>467</ele>
    <time>2007-06-28T16:02:21Z</time>
    </trkpt>
    <trkpt lat="48.5890961" lon="9.45719">
    <ele>459</ele>
    <time>2007-06-28T16:02:28Z</time>
    </trkpt>
    <trkpt lat="48.5890532" lon="9.45719">
    <ele>438</ele>
    <time>2007-06-28T16:04:03Z</time>
    </trkpt>
    <trkpt lat="48.5890532" lon="9.4571686">
    <ele>438</ele>
    <time>2007-06-28T16:04:05Z</time>
    </trkpt>
    <trkpt lat="48.5889888" lon="9.4569755">
    <ele>436</ele>
    <time>2007-06-28T16:04:09Z</time>
    </trkpt>
    <trkpt lat="48.5886455" lon="9.4563103">
    <ele>431</ele>
    <time>2007-06-28T16:04:16Z</time>
    </trkpt>
    <trkpt lat="48.5885167" lon="9.4556665">
    <ele>425</ele>
    <time>2007-06-28T16:04:25Z</time>
    </trkpt>
    <trkpt lat="48.5884953" lon="9.4556236">
    <ele>425</ele>
    <time>2007-06-28T16:04:28Z</time>
    </trkpt>
    <trkpt lat="48.5884094" lon="9.4555807">
    <ele>425</ele>
    <time>2007-06-28T16:04:32Z</time>
    </trkpt>
    <trkpt lat="48.5880232" lon="9.4556451">
    <ele>428</ele>
    <time>2007-06-28T16:04:44Z</time>
    </trkpt>
    <trkpt lat="48.5880446" lon="9.4556236">
    <ele>439</ele>
    <time>2007-06-28T16:05:50Z</time>
    </trkpt>
    <trkpt lat="48.5880446" lon="9.4556022">
    <ele>439</ele>
    <time>2007-06-28T16:05:52Z</time>
    </trkpt>
    <trkpt lat="48.5880017" lon="9.455173">
    <ele>433</ele>
    <time>2007-06-28T16:06:02Z</time>
    </trkpt>
    <trkpt lat="48.5879159" lon="9.4551086">
    <ele>433</ele>
    <time>2007-06-28T16:06:07Z</time>
    </trkpt>
    <trkpt lat="48.5874438" lon="9.4550443">
    <ele>435</ele>
    <time>2007-06-28T16:06:16Z</time>
    </trkpt>
    <trkpt lat="48.5864997" lon="9.4546366">
    <ele>434</ele>
    <time>2007-06-28T16:06:34Z</time>
    </trkpt>
    <trkpt lat="48.5864782" lon="9.4545937">
    <ele>429</ele>
    <time>2007-06-28T16:06:53Z</time>
    </trkpt>
    <trkpt lat="48.5864139" lon="9.4545507">
    <ele>428</ele>
    <time>2007-06-28T16:07:08Z</time>
    </trkpt>
    <trkpt lat="48.5858774" lon="9.4546795">
    <ele>431</ele>
    <time>2007-06-28T16:07:18Z</time>
    </trkpt>
    <trkpt lat="48.5844612" lon="9.4547653">
    <ele>436</ele>
    <time>2007-06-28T16:07:40Z</time>
    </trkpt>
    <trkpt lat="48.5844398" lon="9.4547653">
    <ele>436</ele>
    <time>2007-06-28T16:07:59Z</time>
    </trkpt>
    <trkpt lat="48.5844827" lon="9.4547653">
    <ele>433</ele>
    <time>2007-06-28T16:08:22Z</time>
    </trkpt>
    <trkpt lat="48.5845256" lon="9.454186">
    <ele>429</ele>
    <time>2007-06-28T16:08:33Z</time>
    </trkpt>
    <trkpt lat="48.5846114" lon="9.4536495">
    <ele>422</ele>
    <time>2007-06-28T16:08:47Z</time>
    </trkpt>
    <trkpt lat="48.5846329" lon="9.4536281">
    <ele>419</ele>
    <time>2007-06-28T16:09:13Z</time>
    </trkpt>
    <trkpt lat="48.5846543" lon="9.4532418">
    <ele>413</ele>
    <time>2007-06-28T16:09:22Z</time>
    </trkpt>
    <trkpt lat="48.5846758" lon="9.4525981">
    <ele>403</ele>
    <time>2007-06-28T16:09:33Z</time>
    </trkpt>
    <trkpt lat="48.5847187" lon="9.4524264">
    <ele>393</ele>
    <time>2007-06-28T16:10:14Z</time>
    </trkpt>
    <trkpt lat="48.5848689" lon="9.4518685">
    <ele>392</ele>
    <time>2007-06-28T16:10:24Z</time>
    </trkpt>
    <trkpt lat="48.5849118" lon="9.4516754">
    <ele>396</ele>
    <time>2007-06-28T16:10:34Z</time>
    </trkpt>
    <trkpt lat="48.5850835" lon="9.4514823">
    <ele>396</ele>
    <time>2007-06-28T16:10:42Z</time>
    </trkpt>
    <trkpt lat="48.5851264" lon="9.4514394">
    <ele>395</ele>
    <time>2007-06-28T16:10:50Z</time>
    </trkpt>
    <trkpt lat="48.5853195" lon="9.4512463">
    <ele>392</ele>
    <time>2007-06-28T16:11:02Z</time>
    </trkpt>
    <trkpt lat="48.5853624" lon="9.4509888">
    <ele>391</ele>
    <time>2007-06-28T16:11:06Z</time>
    </trkpt>
    <trkpt lat="48.5848904" lon="9.4503236">
    <ele>394</ele>
    <time>2007-06-28T16:11:15Z</time>
    </trkpt>
    <trkpt lat="48.584547" lon="9.4502807">
    <ele>393</ele>
    <time>2007-06-28T16:11:26Z</time>
    </trkpt>
    <trkpt lat="48.5845256" lon="9.450345">
    <ele>384</ele>
    <time>2007-06-28T16:13:28Z</time>
    </trkpt>
    <trkpt lat="48.5837746" lon="9.4504094">
    <ele>385</ele>
    <time>2007-06-28T16:13:40Z</time>
    </trkpt>
    <trkpt lat="48.5830888" lon="9.4506318">
    <ele>386</ele>
    <time>2007-06-28T16:13:57Z</time>
    </trkpt>
    <trkpt lat="48.5819859" lon="9.4509608">
    <ele>388</ele>
    <time>2007-06-28T16:14:19Z</time>
    </trkpt>
    <trkpt lat="48.5817827" lon="9.4511962">
    <ele>396</ele>
    <time>2007-06-28T16:14:25Z</time>
    </trkpt>
    <trkpt lat="48.5816258" lon="9.4510592">
    <ele>391</ele>
    <time>2007-06-28T16:14:32Z</time>
    </trkpt>
    <trkpt lat="48.5814357" lon="9.4512033">
    <ele>391</ele>
    <time>2007-06-28T16:14:51Z</time>
    </trkpt>
    <trkpt lat="48.5801824" lon="9.4522323">
    <ele>391</ele>
    <time>2007-06-28T16:14:57Z</time>
    </trkpt>
    <trkpt lat="48.5792588" lon="9.4526984">
    <ele>392</ele>
    <time>2007-06-28T16:15:16Z</time>
    </trkpt>
    <trkpt lat="48.5783121" lon="9.4533337">
    <ele>392</ele>
    <time>2007-06-28T16:15:23Z</time>
    </trkpt>
    <trkpt lat="48.5763292" lon="9.4544679">
    <ele>393</ele>
    <time>2007-06-28T16:15:26Z</time>
    </trkpt>
    <trkpt lat="48.5759854" lon="9.4546151">
    <ele>407</ele>
    <time>2007-06-28T16:22:28Z</time>
    </trkpt>
    <trkpt lat="48.5758996" lon="9.4548726">
    <ele>407</ele>
    <time>2007-06-28T16:22:29Z</time>
    </trkpt>
    <trkpt lat="48.575964" lon="9.4548941">
    <ele>407</ele>
    <time>2007-06-28T16:22:31Z</time>
    </trkpt>
    <trkpt lat="48.5760069" lon="9.4553018">
    <ele>395</ele>
    <time>2007-06-28T16:22:48Z</time>
    </trkpt>
    <trkpt lat="48.5760283" lon="9.4555378">
    <ele>392</ele>
    <time>2007-06-28T16:23:01Z</time>
    </trkpt>
    <trkpt lat="48.5759211" lon="9.4556665">
    <ele>392</ele>
    <time>2007-06-28T16:23:08Z</time>
    </trkpt>
    <trkpt lat="48.5759211" lon="9.455688">
    <ele>392</ele>
    <time>2007-06-28T16:23:12Z</time>
    </trkpt>
    <trkpt lat="48.5758567" lon="9.4556451">
    <ele>400</ele>
    <time>2007-06-28T16:23:32Z</time>
    </trkpt>
    <trkpt lat="48.5758996" lon="9.4560528">
    <ele>409</ele>
    <time>2007-06-28T16:24:27Z</time>
    </trkpt>
    <trkpt lat="48.5757494" lon="9.4562674">
    <ele>409</ele>
    <time>2007-06-28T16:24:31Z</time>
    </trkpt>
    <trkpt lat="48.5755992" lon="9.456439">
    <ele>409</ele>
    <time>2007-06-28T16:24:35Z</time>
    </trkpt>
    <trkpt lat="48.5748696" lon="9.4562674">
    <ele>412</ele>
    <time>2007-06-28T16:24:45Z</time>
    </trkpt>
    <trkpt lat="48.5747838" lon="9.4562674">
    <ele>412</ele>
    <time>2007-06-28T16:24:46Z</time>
    </trkpt>
    <trkpt lat="48.5746551" lon="9.4562674">
    <ele>412</ele>
    <time>2007-06-28T16:24:48Z</time>
    </trkpt>
    <trkpt lat="48.5745478" lon="9.4564605">
    <ele>413</ele>
    <time>2007-06-28T16:24:54Z</time>
    </trkpt>
    <trkpt lat="48.5745907" lon="9.4566107">
    <ele>413</ele>
    <time>2007-06-28T16:25:04Z</time>
    </trkpt>
    <trkpt lat="48.5746336" lon="9.4566321">
    <ele>412</ele>
    <time>2007-06-28T16:25:17Z</time>
    </trkpt>
    <trkpt lat="48.5745692" lon="9.4566965">
    <ele>412</ele>
    <time>2007-06-28T16:25:22Z</time>
    </trkpt>
    <trkpt lat="48.5735178" lon="9.4568896">
    <ele>412</ele>
    <time>2007-06-28T16:25:34Z</time>
    </trkpt>
    <trkpt lat="48.5735178" lon="9.4568896">
    <ele>434</ele>
    <time>2007-06-28T16:27:12Z</time>
    </trkpt>
    <trkpt lat="48.5711789" lon="9.4575763">
    <ele>426</ele>
    <time>2007-06-28T16:27:25Z</time>
    </trkpt>
    <trkpt lat="48.5701704" lon="9.4579196">
    <ele>427</ele>
    <time>2007-06-28T16:27:43Z</time>
    </trkpt>
    <trkpt lat="48.5684317626015" lon="9.45861483861025">
    <ele>430</ele>
    <time>2007-06-28T16:28:10Z</time>
    </trkpt>
    <trkpt lat="48.5671449" lon="9.4595504">
    <ele>431</ele>
    <time>2007-06-28T16:28:33Z</time>
    </trkpt>
    <trkpt lat="48.5657501" lon="9.460237">
    <ele>432</ele>
    <time>2007-06-28T16:28:51Z</time>
    </trkpt>
    <trkpt lat="48.5652781" lon="9.460516">
    <ele>433</ele>
    <time>2007-06-28T16:28:58Z</time>
    </trkpt>
    <trkpt lat="48.5650206" lon="9.4607735">
    <ele>431</ele>
    <time>2007-06-28T16:29:06Z</time>
    </trkpt>
    <trkpt lat="48.5649562" lon="9.4606876">
    <ele>432</ele>
    <time>2007-06-28T16:29:10Z</time>
    </trkpt>
    <trkpt lat="48.5649133" lon="9.4604945">
    <ele>430</ele>
    <time>2007-06-28T16:29:20Z</time>
    </trkpt>
    <trkpt lat="48.5648274" lon="9.4603229">
    <ele>428</ele>
    <time>2007-06-28T16:29:29Z</time>
    </trkpt>
    <trkpt lat="48.564806" lon="9.4603658">
    <ele>430</ele>
    <time>2007-06-28T16:29:44Z</time>
    </trkpt>
    <trkpt lat="48.564806" lon="9.4604516">
    <ele>426</ele>
    <time>2007-06-28T16:30:47Z</time>
    </trkpt>
    <trkpt lat="48.5645914" lon="9.4605589">
    <ele>426</ele>
    <time>2007-06-28T16:30:58Z</time>
    </trkpt>
    <trkpt lat="48.5645056" lon="9.4605589">
    <ele>426</ele>
    <time>2007-06-28T16:31:05Z</time>
    </trkpt>
    <trkpt lat="48.5646558" lon="9.4598293">
    <ele>425</ele>
    <time>2007-06-28T16:31:13Z</time>
    </trkpt>
    <trkpt lat="48.5648704" lon="9.4594002">
    <ele>423</ele>
    <time>2007-06-28T16:31:17Z</time>
    </trkpt>
    <trkpt lat="48.565042" lon="9.4590783">
    <ele>422</ele>
    <time>2007-06-28T16:31:21Z</time>
    </trkpt>
    <trkpt lat="48.5648489" lon="9.4588208">
    <ele>419</ele>
    <time>2007-06-28T16:33:54Z</time>
    </trkpt>
    <trkpt lat="48.5648918" lon="9.4588423">
    <ele>408</ele>
    <time>2007-06-28T16:34:02Z</time>
    </trkpt>
    <trkpt lat="48.5648704" lon="9.4587994">
    <ele>408</ele>
    <time>2007-06-28T16:34:03Z</time>
    </trkpt>
    <trkpt lat="48.5648704" lon="9.4586706">
    <ele>410</ele>
    <time>2007-06-28T16:34:08Z</time>
    </trkpt>
    <trkpt lat="48.5647631" lon="9.4585204">
    <ele>416</ele>
    <time>2007-06-28T16:34:29Z</time>
    </trkpt>
    <trkpt lat="48.5645485" lon="9.4582629">
    <ele>419</ele>
    <time>2007-06-28T16:34:39Z</time>
    </trkpt>
    <trkpt lat="48.5643125" lon="9.457984">
    <ele>419</ele>
    <time>2007-06-28T16:34:44Z</time>
    </trkpt>
    <trkpt lat="48.5640764" lon="9.4572759">
    <ele>421</ele>
    <time>2007-06-28T16:34:51Z</time>
    </trkpt>
    <trkpt lat="48.5640121" lon="9.4563103">
    <ele>426</ele>
    <time>2007-06-28T16:35:01Z</time>
    </trkpt>
    <trkpt lat="48.5640121" lon="9.4563103">
    <ele>425</ele>
    <time>2007-06-28T16:35:20Z</time>
    </trkpt>
    <trkpt lat="48.5639691" lon="9.4559669">
    <ele>430</ele>
    <time>2007-06-28T16:35:54Z</time>
    </trkpt>
    <trkpt lat="48.5638618" lon="9.4547868">
    <ele>434</ele>
    <time>2007-06-28T16:36:07Z</time>
    </trkpt>
    <trkpt lat="48.5637546" lon="9.4532847">
    <ele>434</ele>
    <time>2007-06-28T16:36:23Z</time>
    </trkpt>
    <trkpt lat="48.5629752775274" lon="9.45124935132415">
    <ele>447</ele>
    <time>2007-06-28T16:36:53Z</time>
    </trkpt>
    <trkpt lat="48.5631752" lon="9.4506454">
    <ele>461</ele>
    <time>2007-06-28T16:37:41Z</time>
    </trkpt>
    <trkpt lat="48.5631967" lon="9.450388">
    <ele>464</ele>
    <time>2007-06-28T16:37:45Z</time>
    </trkpt>
    <trkpt lat="48.5631752" lon="9.4499159">
    <ele>471</ele>
    <time>2007-06-28T16:37:52Z</time>
    </trkpt>
    <trkpt lat="48.5630894" lon="9.4490576">
    <ele>480</ele>
    <time>2007-06-28T16:38:07Z</time>
    </trkpt>
    <trkpt lat="48.5632825" lon="9.4482851">
    <ele>486</ele>
    <time>2007-06-28T16:38:23Z</time>
    </trkpt>
    <trkpt lat="48.5637331" lon="9.4477487">
    <ele>486</ele>
    <time>2007-06-28T16:38:41Z</time>
    </trkpt>
    <trkpt lat="48.5635196" lon="9.4474433">
    <ele>489</ele>
    <time>2007-06-28T16:39:04Z</time>
    </trkpt>
    <trkpt lat="48.5635206" lon="9.4471724">
    <ele>489</ele>
    <time>2007-06-28T16:39:48Z</time>
    </trkpt>
    <trkpt lat="48.562873" lon="9.4460489">
    <ele>537</ele>
    <time>2007-06-28T16:39:51Z</time>
    </trkpt>
    <trkpt lat="48.5629191" lon="9.4457445">
    <ele>560</ele>
    <time>2007-06-28T16:40:04Z</time>
    </trkpt>
    <trkpt lat="48.5627852" lon="9.4455062">
    <ele>565</ele>
    <time>2007-06-28T16:43:36Z</time>
    </trkpt>
    <trkpt lat="48.5668941" lon="9.4468634">
    <ele>565</ele>
    <time>2007-06-28T16:43:37Z</time>
    </trkpt>
    <trkpt lat="48.5713291" lon="9.4451952">
    <ele>565</ele>
    <time>2007-06-28T16:43:57Z</time>
    </trkpt>
    <trkpt lat="48.5717583" lon="9.4449377">
    <ele>547</ele>
    <time>2007-06-28T16:44:22Z</time>
    </trkpt>
    <trkpt lat="48.5719514" lon="9.4427919">
    <ele>546</ele>
    <time>2007-06-28T16:44:23Z</time>
    </trkpt>
    <trkpt lat="48.5718441" lon="9.4417834">
    <ele>545</ele>
    <time>2007-06-28T16:44:38Z</time>
    </trkpt>
    <trkpt lat="48.5718656" lon="9.4412041">
    <ele>545</ele>
    <time>2007-06-28T16:44:46Z</time>
    </trkpt>
    <trkpt lat="48.5716081" lon="9.4395518">
    <ele>540</ele>
    <time>2007-06-28T16:45:03Z</time>
    </trkpt>
    <trkpt lat="48.5715008" lon="9.4388866">
    <ele>540</ele>
    <time>2007-06-28T16:45:17Z</time>
    </trkpt>
    <trkpt lat="48.5714793" lon="9.4387794">
    <ele>540</ele>
    <time>2007-06-28T16:46:01Z</time>
    </trkpt>
    <trkpt lat="48.5718656" lon="9.437964">
    <ele>540</ele>
    <time>2007-06-28T16:46:11Z</time>
    </trkpt>
    <trkpt lat="48.572402" lon="9.4366336">
    <ele>540</ele>
    <time>2007-06-28T16:46:27Z</time>
    </trkpt>
    <trkpt lat="48.5723162" lon="9.436419">
    <ele>540</ele>
    <time>2007-06-28T16:46:41Z</time>
    </trkpt>
    <trkpt lat="48.5722733" lon="9.4362903">
    <ele>543</ele>
    <time>2007-06-28T16:46:55Z</time>
    </trkpt>
    <trkpt lat="48.5720587" lon="9.436183">
    <ele>539</ele>
    <time>2007-06-28T16:48:50Z</time>
    </trkpt>
    <trkpt lat="48.5715866" lon="9.4330287">
    <ele>542</ele>
    <time>2007-06-28T16:49:08Z</time>
    </trkpt>
    <trkpt lat="48.5718441" lon="9.4327712">
    <ele>542</ele>
    <time>2007-06-28T16:49:11Z</time>
    </trkpt>
    <trkpt lat="48.571887" lon="9.4324923">
    <ele>545</ele>
    <time>2007-06-28T16:49:15Z</time>
    </trkpt>
    <trkpt lat="48.571651" lon="9.4306898">
    <ele>548</ele>
    <time>2007-06-28T16:49:42Z</time>
    </trkpt>
    <trkpt lat="48.5711708" lon="9.4277608">
    <ele>549</ele>
    <time>2007-06-28T16:49:52Z</time>
    </trkpt>
    <trkpt lat="48.5712882" lon="9.4264067">
    <ele>550</ele>
    <time>2007-06-28T16:50:25Z</time>
    </trkpt>
    <trkpt lat="48.5716723" lon="9.4259018">
    <ele>550</ele>
    <time>2007-06-28T16:52:26Z</time>
    </trkpt>
    <trkpt lat="48.5730064" lon="9.4238126">
    <ele>550</ele>
    <time>2007-06-28T16:52:28Z</time>
    </trkpt>
    <trkpt lat="48.573244" lon="9.4203251">
    <ele>550</ele>
    <time>2007-06-28T16:52:53Z</time>
    </trkpt>
    <trkpt lat="48.5722518" lon="9.4163346">
    <ele>557</ele>
    <time>2007-06-28T16:53:05Z</time>
    </trkpt>
    <trkpt lat="48.5721445" lon="9.4161415">
    <ele>558</ele>
    <time>2007-06-28T16:53:17Z</time>
    </trkpt>
    <trkpt lat="48.5735356744202" lon="9.41709254000331">
    <ele>518</ele>
    <time>2007-06-29T04:12:54Z</time>
    </trkpt>
    <trkpt lat="48.5721348622576" lon="9.41277861682497">
    <ele>536</ele>
    <time>2007-06-29T04:14:04Z</time>
    </trkpt>
    <trkpt lat="48.5698628009372" lon="9.41316663135592">
    <ele>537</ele>
    <time>2007-06-29T04:14:31Z</time>
    </trkpt>
    <trkpt lat="48.5688892858319" lon="9.4150557007748">
    <ele>538</ele>
    <time>2007-06-29T04:14:35Z</time>
    </trkpt>
    <trkpt lat="48.5676217656754" lon="9.41741651914958">
    <ele>548</ele>
    <time>2007-06-29T04:14:45Z</time>
    </trkpt>
    <trkpt lat="48.5675311" lon="9.4189525">
    <ele>551</ele>
    <time>2007-06-29T04:14:51Z</time>
    </trkpt>
    <trkpt lat="48.5674667" lon="9.4192743">
    <ele>552</ele>
    <time>2007-06-29T04:14:56Z</time>
    </trkpt>
    <trkpt lat="48.5674024" lon="9.4193387">
    <ele>556</ele>
    <time>2007-06-29T04:15:08Z</time>
    </trkpt>
    <trkpt lat="48.5673809" lon="9.4193172">
    <ele>558</ele>
    <time>2007-06-29T04:15:12Z</time>
    </trkpt>
    <trkpt lat="48.567338" lon="9.4193172">
    <ele>558</ele>
    <time>2007-06-29T04:15:34Z</time>
    </trkpt>
    <trkpt lat="48.5670805" lon="9.419446">
    <ele>559</ele>
    <time>2007-06-29T04:15:54Z</time>
    </trkpt>
    <trkpt lat="48.5667157" lon="9.4203258">
    <ele>553</ele>
    <time>2007-06-29T04:16:12Z</time>
    </trkpt>
    <trkpt lat="48.5661364" lon="9.4216347">
    <ele>545</ele>
    <time>2007-06-29T04:16:39Z</time>
    </trkpt>
    <trkpt lat="48.5657287" lon="9.4221711">
    <ele>545</ele>
    <time>2007-06-29T04:16:52Z</time>
    </trkpt>
    <trkpt lat="48.5656643" lon="9.4220638">
    <ele>549</ele>
    <time>2007-06-29T04:17:02Z</time>
    </trkpt>
    <trkpt lat="48.5656857" lon="9.4218922">
    <ele>543</ele>
    <time>2007-06-29T04:17:58Z</time>
    </trkpt>
    <trkpt lat="48.565836" lon="9.4213986">
    <ele>541</ele>
    <time>2007-06-29T04:18:05Z</time>
    </trkpt>
    <trkpt lat="48.5659003" lon="9.4211626">
    <ele>541</ele>
    <time>2007-06-29T04:18:08Z</time>
    </trkpt>
    <trkpt lat="48.566072" lon="9.4201541">
    <ele>540</ele>
    <time>2007-06-29T04:18:25Z</time>
    </trkpt>
    <trkpt lat="48.5662222" lon="9.4191456">
    <ele>536</ele>
    <time>2007-06-29T04:18:45Z</time>
    </trkpt>
    <trkpt lat="48.5662436" lon="9.4189525">
    <ele>536</ele>
    <time>2007-06-29T04:18:48Z</time>
    </trkpt>
    <trkpt lat="48.5660291" lon="9.4180083">
    <ele>528</ele>
    <time>2007-06-29T04:18:57Z</time>
    </trkpt>
    <trkpt lat="48.5658789" lon="9.4177079">
    <ele>495</ele>
    <time>2007-06-29T04:20:05Z</time>
    </trkpt>
    <trkpt lat="48.5658574" lon="9.4165063">
    <ele>487</ele>
    <time>2007-06-29T04:20:17Z</time>
    </trkpt>
    <trkpt lat="48.5660076" lon="9.4148111">
    <ele>479</ele>
    <time>2007-06-29T04:20:28Z</time>
    </trkpt>
    <trkpt lat="48.5660934" lon="9.4135237">
    <ele>474</ele>
    <time>2007-06-29T04:20:40Z</time>
    </trkpt>
    <trkpt lat="48.5663295" lon="9.4121289">
    <ele>469</ele>
    <time>2007-06-29T04:20:54Z</time>
    </trkpt>
    <trkpt lat="48.5667801" lon="9.4104338">
    <ele>466</ele>
    <time>2007-06-29T04:21:11Z</time>
    </trkpt>
    <trkpt lat="48.5671449" lon="9.4092536">
    <ele>465</ele>
    <time>2007-06-29T04:21:25Z</time>
    </trkpt>
    <trkpt lat="48.5671234" lon="9.4092965">
    <ele>459</ele>
    <time>2007-06-29T04:23:23Z</time>
    </trkpt>
    <trkpt lat="48.567102" lon="9.4093609">
    <ele>458</ele>
    <time>2007-06-29T04:23:27Z</time>
    </trkpt>
    <trkpt lat="48.567059" lon="9.4092536">
    <ele>456</ele>
    <time>2007-06-29T04:23:31Z</time>
    </trkpt>
    <trkpt lat="48.5669732" lon="9.4091892">
    <ele>457</ele>
    <time>2007-06-29T04:23:34Z</time>
    </trkpt>
    <trkpt lat="48.5669732" lon="9.4089532">
    <ele>456</ele>
    <time>2007-06-29T04:23:38Z</time>
    </trkpt>
    <trkpt lat="48.5672951" lon="9.407022">
    <ele>451</ele>
    <time>2007-06-29T04:23:59Z</time>
    </trkpt>
    <trkpt lat="48.5674453" lon="9.4066572">
    <ele>451</ele>
    <time>2007-06-29T04:24:04Z</time>
    </trkpt>
    <trkpt lat="48.5676384" lon="9.4063354">
    <ele>449</ele>
    <time>2007-06-29T04:24:15Z</time>
    </trkpt>
    <trkpt lat="48.5676384" lon="9.4063354">
    <ele>452</ele>
    <time>2007-06-29T04:24:53Z</time>
    </trkpt>
    <trkpt lat="48.5676384" lon="9.4062066">
    <ele>451</ele>
    <time>2007-06-29T04:24:59Z</time>
    </trkpt>
    <trkpt lat="48.5675097" lon="9.4061208">
    <ele>452</ele>
    <time>2007-06-29T04:25:09Z</time>
    </trkpt>
    <trkpt lat="48.5674238" lon="9.4061208">
    <ele>449</ele>
    <time>2007-06-29T04:25:34Z</time>
    </trkpt>
    <trkpt lat="48.5673809" lon="9.4060349">
    <ele>449</ele>
    <time>2007-06-29T04:25:36Z</time>
    </trkpt>
    <trkpt lat="48.5671878" lon="9.4058204">
    <ele>449</ele>
    <time>2007-06-29T04:25:40Z</time>
    </trkpt>
    <trkpt lat="48.5662937322785" lon="9.40527895824751">
    <ele>452</ele>
    <time>2007-06-29T04:25:53Z</time>
    </trkpt>
    <trkpt lat="48.5649562" lon="9.4031596">
    <ele>460</ele>
    <time>2007-06-29T04:27:29Z</time>
    </trkpt>
    <trkpt lat="48.564806" lon="9.4030523">
    <ele>460</ele>
    <time>2007-06-29T04:27:33Z</time>
    </trkpt>
    <trkpt lat="48.5644841" lon="9.4021082">
    <ele>461</ele>
    <time>2007-06-29T04:27:47Z</time>
    </trkpt>
    <trkpt lat="48.5640979" lon="9.4013786">
    <ele>463</ele>
    <time>2007-06-29T04:27:59Z</time>
    </trkpt>
    <trkpt lat="48.5640121" lon="9.4012499">
    <ele>463</ele>
    <time>2007-06-29T04:28:04Z</time>
    </trkpt>
    <trkpt lat="48.5639262" lon="9.4011426">
    <ele>478</ele>
    <time>2007-06-29T04:40:19Z</time>
    </trkpt>
    <trkpt lat="48.5636473" lon="9.4007778">
    <ele>470</ele>
    <time>2007-06-29T04:40:35Z</time>
    </trkpt>
    <trkpt lat="48.5631537" lon="9.4001985">
    <ele>474</ele>
    <time>2007-06-29T04:40:58Z</time>
    </trkpt>
    <trkpt lat="48.5627246" lon="9.3998337">
    <ele>474</ele>
    <time>2007-06-29T04:41:16Z</time>
    </trkpt>
    <trkpt lat="48.5621023" lon="9.3985462">
    <ele>479</ele>
    <time>2007-06-29T04:41:54Z</time>
    </trkpt>
    <trkpt lat="48.5618234" lon="9.3977094">
    <ele>476</ele>
    <time>2007-06-29T04:42:09Z</time>
    </trkpt>
    <trkpt lat="48.5617375" lon="9.3970656">
    <ele>476</ele>
    <time>2007-06-29T04:42:20Z</time>
    </trkpt>
    <trkpt lat="48.5618663" lon="9.3965507">
    <ele>478</ele>
    <time>2007-06-29T04:42:39Z</time>
    </trkpt>
    <trkpt lat="48.5618877" lon="9.3962288">
    <ele>479</ele>
    <time>2007-06-29T04:43:54Z</time>
    </trkpt>
    <trkpt lat="48.5618448" lon="9.3954778">
    <ele>480</ele>
    <time>2007-06-29T04:44:18Z</time>
    </trkpt>
    <trkpt lat="48.561759" lon="9.3946624">
    <ele>480</ele>
    <time>2007-06-29T04:44:51Z</time>
    </trkpt>
    <trkpt lat="48.5616302" lon="9.3941474">
    <ele>481</ele>
    <time>2007-06-29T04:45:14Z</time>
    </trkpt>
    <trkpt lat="48.5614586" lon="9.3934822">
    <ele>488</ele>
    <time>2007-06-29T04:45:52Z</time>
    </trkpt>
    <trkpt lat="48.5613084" lon="9.3931603">
    <ele>497</ele>
    <time>2007-06-29T04:46:52Z</time>
    </trkpt>
    <trkpt lat="48.5609007" lon="9.3922162">
    <ele>499</ele>
    <time>2007-06-29T04:47:28Z</time>
    </trkpt>
    <trkpt lat="48.5604072" lon="9.3912506">
    <ele>501</ele>
    <time>2007-06-29T04:48:21Z</time>
    </trkpt>
    <trkpt lat="48.5603642" lon="9.3912077">
    <ele>501</ele>
    <time>2007-06-29T04:48:23Z</time>
    </trkpt>
    <trkpt lat="48.5601282" lon="9.3902636">
    <ele>498</ele>
    <time>2007-06-29T04:48:38Z</time>
    </trkpt>
    <trkpt lat="48.5595489" lon="9.389019">
    <ele>502</ele>
    <time>2007-06-29T04:48:59Z</time>
    </trkpt>
    <trkpt lat="48.5595489" lon="9.3889546">
    <ele>502</ele>
    <time>2007-06-29T04:49:01Z</time>
    </trkpt>
    <trkpt lat="48.5595059" lon="9.3889546">
    <ele>503</ele>
    <time>2007-06-29T04:49:05Z</time>
    </trkpt>
    <trkpt lat="48.5592484" lon="9.3886328">
    <ele>504</ele>
    <time>2007-06-29T04:49:24Z</time>
    </trkpt>
    <trkpt lat="48.5587978" lon="9.3881392">
    <ele>508</ele>
    <time>2007-06-29T04:49:53Z</time>
    </trkpt>
    <trkpt lat="48.5585833" lon="9.3880105">
    <ele>518</ele>
    <time>2007-06-29T04:52:53Z</time>
    </trkpt>
    <trkpt lat="48.5585403" lon="9.3880105">
    <ele>518</ele>
    <time>2007-06-29T04:52:58Z</time>
    </trkpt>
    <trkpt lat="48.5578537" lon="9.3878818">
    <ele>525</ele>
    <time>2007-06-29T04:53:42Z</time>
    </trkpt>
    <trkpt lat="48.5574031" lon="9.3877101">
    <ele>525</ele>
    <time>2007-06-29T04:54:13Z</time>
    </trkpt>
    <trkpt lat="48.5569525" lon="9.3876028">
    <ele>524</ele>
    <time>2007-06-29T04:54:51Z</time>
    </trkpt>
    <trkpt lat="48.5565019" lon="9.3876457">
    <ele>525</ele>
    <time>2007-06-29T04:55:20Z</time>
    </trkpt>
    <trkpt lat="48.5558796" lon="9.3877959">
    <ele>530</ele>
    <time>2007-06-29T04:56:02Z</time>
    </trkpt>
    <trkpt lat="48.5554719" lon="9.3880105">
    <ele>533</ele>
    <time>2007-06-29T04:56:29Z</time>
    </trkpt>
    <trkpt lat="48.5549998" lon="9.3884397">
    <ele>536</ele>
    <time>2007-06-29T04:57:10Z</time>
    </trkpt>
    <trkpt lat="48.554914" lon="9.3884826">
    <ele>538</ele>
    <time>2007-06-29T04:57:40Z</time>
    </trkpt>
    <trkpt lat="48.5548282" lon="9.3886328">
    <ele>544</ele>
    <time>2007-06-29T04:59:26Z</time>
    </trkpt>
    <trkpt lat="48.5544634" lon="9.3890405">
    <ele>545</ele>
    <time>2007-06-29T04:59:51Z</time>
    </trkpt>
    <trkpt lat="48.5539699" lon="9.3897486">
    <ele>548</ele>
    <time>2007-06-29T05:00:40Z</time>
    </trkpt>
    <trkpt lat="48.5537767" lon="9.3901777">
    <ele>550</ele>
    <time>2007-06-29T05:01:09Z</time>
    </trkpt>
    <trkpt lat="48.5537767" lon="9.3902636">
    <ele>553</ele>
    <time>2007-06-29T05:01:33Z</time>
    </trkpt>
    <trkpt lat="48.553648" lon="9.3906283">
    <ele>553</ele>
    <time>2007-06-29T05:02:23Z</time>
    </trkpt>
    <trkpt lat="48.5532618" lon="9.3921089">
    <ele>553</ele>
    <time>2007-06-29T05:03:49Z</time>
    </trkpt>
    <trkpt lat="48.5531974" lon="9.3925595">
    <ele>554</ele>
    <time>2007-06-29T05:04:17Z</time>
    </trkpt>
    <trkpt lat="48.5531759" lon="9.3929887">
    <ele>555</ele>
    <time>2007-06-29T05:04:46Z</time>
    </trkpt>
    <trkpt lat="48.553412" lon="9.3938684">
    <ele>561</ele>
    <time>2007-06-29T05:06:36Z</time>
    </trkpt>
    <trkpt lat="48.553412" lon="9.3938899">
    <ele>561</ele>
    <time>2007-06-29T05:06:46Z</time>
    </trkpt>
    <trkpt lat="48.553412" lon="9.394362">
    <ele>561</ele>
    <time>2007-06-29T05:06:51Z</time>
    </trkpt>
    <trkpt lat="48.5533047" lon="9.3975592">
    <ele>643</ele>
    <time>2007-06-29T05:10:22Z</time>
    </trkpt>
    <trkpt lat="48.5533261" lon="9.3982673">
    <ele>642</ele>
    <time>2007-06-29T05:11:09Z</time>
    </trkpt>
    <trkpt lat="48.5530927342008" lon="9.40002611790593">
    <ele>642</ele>
    <time>2007-06-29T05:13:26Z</time>
    </trkpt>
    <trkpt lat="48.5534549" lon="9.3999839">
    <ele>643</ele>
    <time>2007-06-29T05:13:29Z</time>
    </trkpt>
    <trkpt lat="48.5535407" lon="9.3993402">
    <ele>643</ele>
    <time>2007-06-29T05:14:02Z</time>
    </trkpt>
    <trkpt lat="48.5537767" lon="9.3984389">
    <ele>643</ele>
    <time>2007-06-29T05:14:45Z</time>
    </trkpt>
    <trkpt lat="48.5541201" lon="9.397409">
    <ele>643</ele>
    <time>2007-06-29T05:15:26Z</time>
    </trkpt>
    <trkpt lat="48.5543132" lon="9.3967867">
    <ele>643</ele>
    <time>2007-06-29T05:15:59Z</time>
    </trkpt>
    <trkpt lat="48.5544205" lon="9.3965507">
    <ele>698</ele>
    <time>2007-06-29T05:16:19Z</time>
    </trkpt>
    <trkpt lat="48.5545278" lon="9.396143">
    <ele>690</ele>
    <time>2007-06-29T05:17:09Z</time>
    </trkpt>
    <trkpt lat="48.5547853" lon="9.3959069">
    <ele>692</ele>
    <time>2007-06-29T05:17:40Z</time>
    </trkpt>
    <trkpt lat="48.5548925" lon="9.395864">
    <ele>701</ele>
    <time>2007-06-29T05:19:48Z</time>
    </trkpt>
    <trkpt lat="48.554635" lon="9.3966794">
    <ele>701</ele>
    <time>2007-06-29T05:20:12Z</time>
    </trkpt>
    <trkpt lat="48.554399" lon="9.3976021">
    <ele>701</ele>
    <time>2007-06-29T05:20:36Z</time>
    </trkpt>
    <trkpt lat="48.5542488" lon="9.398675">
    <ele>702</ele>
    <time>2007-06-29T05:21:07Z</time>
    </trkpt>
    <trkpt lat="48.5541415" lon="9.3997049">
    <ele>704</ele>
    <time>2007-06-29T05:21:45Z</time>
    </trkpt>
    <trkpt lat="48.5540342" lon="9.4007778">
    <ele>704</ele>
    <time>2007-06-29T05:22:25Z</time>
    </trkpt>
    <trkpt lat="48.5539055" lon="9.4021511">
    <ele>705</ele>
    <time>2007-06-29T05:23:16Z</time>
    </trkpt>
    <trkpt lat="48.5537493" lon="9.4022491">
    <ele>657</ele>
    <time>2007-06-29T06:31:07Z</time>
    </trkpt>
    <trkpt lat="48.5537247" lon="9.4028585">
    <ele>665</ele>
    <time>2007-06-29T06:31:54Z</time>
    </trkpt>
    <trkpt lat="48.5534763" lon="9.4048548">
    <ele>687</ele>
    <time>2007-06-29T06:32:22Z</time>
    </trkpt>
    <trkpt lat="48.5529613" lon="9.4067216">
    <ele>703</ele>
    <time>2007-06-29T06:32:33Z</time>
    </trkpt>
    <trkpt lat="48.5523605" lon="9.4091892">
    <ele>708</ele>
    <time>2007-06-29T06:32:46Z</time>
    </trkpt>
    <trkpt lat="48.5523605" lon="9.4114423">
    <ele>710</ele>
    <time>2007-06-29T06:32:57Z</time>
    </trkpt>
    <trkpt lat="48.552382" lon="9.4116354">
    <ele>709</ele>
    <time>2007-06-29T06:32:58Z</time>
    </trkpt>
    <trkpt lat="48.552897" lon="9.4125795">
    <ele>709</ele>
    <time>2007-06-29T06:33:04Z</time>
    </trkpt>
    <trkpt lat="48.5530257" lon="9.4129229">
    <ele>709</ele>
    <time>2007-06-29T06:33:06Z</time>
    </trkpt>
    <trkpt lat="48.5533476" lon="9.4144034">
    <ele>709</ele>
    <time>2007-06-29T06:33:14Z</time>
    </trkpt>
    <trkpt lat="48.5534549" lon="9.4147253">
    <ele>709</ele>
    <time>2007-06-29T06:33:16Z</time>
    </trkpt>
    <trkpt lat="48.554914" lon="9.4165921">
    <ele>711</ele>
    <time>2007-06-29T06:33:30Z</time>
    </trkpt>
    <trkpt lat="48.555429" lon="9.4172573">
    <ele>711</ele>
    <time>2007-06-29T06:33:35Z</time>
    </trkpt>
    <trkpt lat="48.5557294" lon="9.41818">
    <ele>709</ele>
    <time>2007-06-29T06:33:40Z</time>
    </trkpt>
    <trkpt lat="48.5562015" lon="9.4189095">
    <ele>707</ele>
    <time>2007-06-29T06:33:45Z</time>
    </trkpt>
    <trkpt lat="48.5563731" lon="9.4200468">
    <ele>707</ele>
    <time>2007-06-29T06:33:51Z</time>
    </trkpt>
    <trkpt lat="48.5563302" lon="9.4202399">
    <ele>708</ele>
    <time>2007-06-29T06:33:52Z</time>
    </trkpt>
    <trkpt lat="48.5558367" lon="9.4221926">
    <ele>709</ele>
    <time>2007-06-29T06:34:03Z</time>
    </trkpt>
    <trkpt lat="48.5552573" lon="9.4231153">
    <ele>708</ele>
    <time>2007-06-29T06:34:11Z</time>
    </trkpt>
    <trkpt lat="48.5552144" lon="9.4231582">
    <ele>707</ele>
    <time>2007-06-29T06:34:12Z</time>
    </trkpt>
    <trkpt lat="48.5551071" lon="9.4231796">
    <ele>709</ele>
    <time>2007-06-29T06:34:19Z</time>
    </trkpt>
    <trkpt lat="48.5548496" lon="9.4230509">
    <ele>718</ele>
    <time>2007-06-29T06:35:41Z</time>
    </trkpt>
    <trkpt lat="48.5540771" lon="9.4224072">
    <ele>724</ele>
    <time>2007-06-29T06:35:52Z</time>
    </trkpt>
    <trkpt lat="48.5527897" lon="9.4207335">
    <ele>736</ele>
    <time>2007-06-29T06:36:13Z</time>
    </trkpt>
    <trkpt lat="48.5525107" lon="9.4203043">
    <ele>738</ele>
    <time>2007-06-29T06:36:21Z</time>
    </trkpt>
    <trkpt lat="48.5525107" lon="9.4203043">
    <ele>736</ele>
    <time>2007-06-29T06:36:45Z</time>
    </trkpt>
    <trkpt lat="48.5525107" lon="9.4203258">
    <ele>735</ele>
    <time>2007-06-29T06:37:34Z</time>
    </trkpt>
    <trkpt lat="48.5528111" lon="9.4195318">
    <ele>732</ele>
    <time>2007-06-29T06:37:44Z</time>
    </trkpt>
    <trkpt lat="48.5530686" lon="9.4188237">
    <ele>731</ele>
    <time>2007-06-29T06:37:52Z</time>
    </trkpt>
    <trkpt lat="48.5530257" lon="9.4184589">
    <ele>730</ele>
    <time>2007-06-29T06:37:57Z</time>
    </trkpt>
    <trkpt lat="48.5518456" lon="9.4165063">
    <ele>729</ele>
    <time>2007-06-29T06:38:21Z</time>
    </trkpt>
    <trkpt lat="48.5507512" lon="9.4150472">
    <ele>728</ele>
    <time>2007-06-29T06:38:42Z</time>
    </trkpt>
    <trkpt lat="48.5490346" lon="9.4132447">
    <ele>732</ele>
    <time>2007-06-29T06:39:13Z</time>
    </trkpt>
    <trkpt lat="48.5479188" lon="9.4118929">
    <ele>735</ele>
    <time>2007-06-29T06:39:37Z</time>
    </trkpt>
    <trkpt lat="48.5479832" lon="9.4119573">
    <ele>740</ele>
    <time>2007-06-29T06:40:41Z</time>
    </trkpt>
    <trkpt lat="48.5478759" lon="9.4120646">
    <ele>738</ele>
    <time>2007-06-29T06:40:49Z</time>
    </trkpt>
    <trkpt lat="48.5478759" lon="9.4120646">
    <ele>739</ele>
    <time>2007-06-29T06:40:51Z</time>
    </trkpt>
    <trkpt lat="48.5479617" lon="9.4120002">
    <ele>740</ele>
    <time>2007-06-29T06:40:55Z</time>
    </trkpt>
    <trkpt lat="48.5479617" lon="9.4120216">
    <ele>741</ele>
    <time>2007-06-29T06:41:12Z</time>
    </trkpt>
    <trkpt lat="48.5479403" lon="9.4120431">
    <ele>741</ele>
    <time>2007-06-29T06:41:22Z</time>
    </trkpt>
    <trkpt lat="48.5474896" lon="9.4124079">
    <ele>739</ele>
    <time>2007-06-29T06:41:30Z</time>
    </trkpt>
    <trkpt lat="48.5471892" lon="9.4128799">
    <ele>734</ele>
    <time>2007-06-29T06:41:38Z</time>
    </trkpt>
    <trkpt lat="48.5471678" lon="9.4129014">
    <ele>734</ele>
    <time>2007-06-29T06:41:39Z</time>
    </trkpt>
    <trkpt lat="48.5471249" lon="9.4129229">
    <ele>732</ele>
    <time>2007-06-29T06:41:56Z</time>
    </trkpt>
    <trkpt lat="48.5471249" lon="9.4129443">
    <ele>728</ele>
    <time>2007-06-29T06:42:40Z</time>
    </trkpt>
    <trkpt lat="48.5463953" lon="9.4128799">
    <ele>726</ele>
    <time>2007-06-29T06:42:50Z</time>
    </trkpt>
    <trkpt lat="48.544507" lon="9.4127297">
    <ele>731</ele>
    <time>2007-06-29T06:43:14Z</time>
    </trkpt>
    <trkpt lat="48.5425115" lon="9.4125795">
    <ele>730</ele>
    <time>2007-06-29T06:43:39Z</time>
    </trkpt>
    <trkpt lat="48.5414171" lon="9.4124293">
    <ele>728</ele>
    <time>2007-06-29T06:43:56Z</time>
    </trkpt>
    <trkpt lat="48.5401082" lon="9.4122362">
    <ele>728</ele>
    <time>2007-06-29T06:44:15Z</time>
    </trkpt>
    <trkpt lat="48.5386062" lon="9.4118714">
    <ele>727</ele>
    <time>2007-06-29T06:44:36Z</time>
    </trkpt>
    <trkpt lat="48.5379624" lon="9.4116354">
    <ele>726</ele>
    <time>2007-06-29T06:44:49Z</time>
    </trkpt>
    <trkpt lat="48.5372972" lon="9.4115067">
    <ele>726</ele>
    <time>2007-06-29T06:45:03Z</time>
    </trkpt>
    <trkpt lat="48.5372972" lon="9.4115281">
    <ele>726</ele>
    <time>2007-06-29T06:45:42Z</time>
    </trkpt>
    <trkpt lat="48.537057" lon="9.4116298">
    <ele>678</ele>
    <time>2007-06-29T06:47:37Z</time>
    </trkpt>
    <trkpt lat="48.535881" lon="9.4140172">
    <ele>729</ele>
    <time>2007-06-29T06:48:53Z</time>
    </trkpt>
    <trkpt lat="48.5353661" lon="9.4135451">
    <ele>725</ele>
    <time>2007-06-29T06:49:02Z</time>
    </trkpt>
    <trkpt lat="48.5342717" lon="9.4122577">
    <ele>726</ele>
    <time>2007-06-29T06:49:17Z</time>
    </trkpt>
    <trkpt lat="48.5328555" lon="9.4114423">
    <ele>724</ele>
    <time>2007-06-29T06:49:34Z</time>
    </trkpt>
    <trkpt lat="48.5325122" lon="9.4114208">
    <ele>724</ele>
    <time>2007-06-29T06:49:38Z</time>
    </trkpt>
    <trkpt lat="48.5318899" lon="9.4111633">
    <ele>726</ele>
    <time>2007-06-29T06:49:46Z</time>
    </trkpt>
    <trkpt lat="48.5316753" lon="9.4109273">
    <ele>727</ele>
    <time>2007-06-29T06:49:49Z</time>
    </trkpt>
    <trkpt lat="48.5309672" lon="9.4097042">
    <ele>728</ele>
    <time>2007-06-29T06:50:01Z</time>
    </trkpt>
    <trkpt lat="48.5302162" lon="9.4084811">
    <ele>729</ele>
    <time>2007-06-29T06:50:16Z</time>
    </trkpt>
    <trkpt lat="48.5295296" lon="9.4077301">
    <ele>732</ele>
    <time>2007-06-29T06:50:27Z</time>
    </trkpt>
    <trkpt lat="48.5289288" lon="9.4073224">
    <ele>732</ele>
    <time>2007-06-29T06:50:35Z</time>
    </trkpt>
    <trkpt lat="48.5274911" lon="9.4068074">
    <ele>728</ele>
    <time>2007-06-29T06:50:52Z</time>
    </trkpt>
    <trkpt lat="48.5268474" lon="9.4060135">
    <ele>726</ele>
    <time>2007-06-29T06:51:05Z</time>
    </trkpt>
    <trkpt lat="48.5268474" lon="9.4060135">
    <ele>725</ele>
    <time>2007-06-29T06:51:28Z</time>
    </trkpt>
    <trkpt lat="48.5267615" lon="9.4058418">
    <ele>725</ele>
    <time>2007-06-29T06:52:16Z</time>
    </trkpt>
    <trkpt lat="48.5262465" lon="9.4057345">
    <ele>724</ele>
    <time>2007-06-29T06:52:23Z</time>
    </trkpt>
    <trkpt lat="48.5249591" lon="9.4057131">
    <ele>724</ele>
    <time>2007-06-29T06:52:35Z</time>
    </trkpt>
    <trkpt lat="48.5245085" lon="9.4058847">
    <ele>724</ele>
    <time>2007-06-29T06:52:40Z</time>
    </trkpt>
    <trkpt lat="48.5243368" lon="9.4059706">
    <ele>723</ele>
    <time>2007-06-29T06:52:44Z</time>
    </trkpt>
    <trkpt lat="48.5243154" lon="9.4057989">
    <ele>724</ele>
    <time>2007-06-29T06:52:54Z</time>
    </trkpt>
    <trkpt lat="48.5243154" lon="9.4053268">
    <ele>727</ele>
    <time>2007-06-29T06:53:47Z</time>
    </trkpt>
    <trkpt lat="48.5241222" lon="9.4039536">
    <ele>724</ele>
    <time>2007-06-29T06:54:05Z</time>
    </trkpt>
    <trkpt lat="48.5240149" lon="9.4036102">
    <ele>724</ele>
    <time>2007-06-29T06:54:10Z</time>
    </trkpt>
    <trkpt lat="48.5231566" lon="9.402988">
    <ele>722</ele>
    <time>2007-06-29T06:54:27Z</time>
    </trkpt>
    <trkpt lat="48.5218906" lon="9.4022584">
    <ele>723</ele>
    <time>2007-06-29T06:54:53Z</time>
    </trkpt>
    <trkpt lat="48.5216975" lon="9.4020653">
    <ele>723</ele>
    <time>2007-06-29T06:54:59Z</time>
    </trkpt>
    <trkpt lat="48.5209036" lon="9.4015074">
    <ele>723</ele>
    <time>2007-06-29T06:55:16Z</time>
    </trkpt>
    <trkpt lat="48.5206032" lon="9.4012284">
    <ele>723</ele>
    <time>2007-06-29T06:55:23Z</time>
    </trkpt>
    <trkpt lat="48.5204959" lon="9.4011641">
    <ele>724</ele>
    <time>2007-06-29T06:55:31Z</time>
    </trkpt>
    <trkpt lat="48.5204744" lon="9.4011855">
    <ele>725</ele>
    <time>2007-06-29T06:56:10Z</time>
    </trkpt>
    <trkpt lat="48.5203028" lon="9.4007349">
    <ele>724</ele>
    <time>2007-06-29T06:56:18Z</time>
    </trkpt>
    <trkpt lat="48.5199594" lon="9.4000483">
    <ele>723</ele>
    <time>2007-06-29T06:56:29Z</time>
    </trkpt>
    <trkpt lat="48.5194659" lon="9.3994045">
    <ele>721</ele>
    <time>2007-06-29T06:56:41Z</time>
    </trkpt>
    <trkpt lat="48.5178566" lon="9.3982244">
    <ele>706</ele>
    <time>2007-06-29T06:58:37Z</time>
    </trkpt>
    <trkpt lat="48.5178566" lon="9.3982244">
    <ele>705</ele>
    <time>2007-06-29T06:58:46Z</time>
    </trkpt>
    <trkpt lat="48.5176358" lon="9.3979022">
    <ele>706</ele>
    <time>2007-06-29T06:58:51Z</time>
    </trkpt>
    <trkpt lat="48.5175248" lon="9.3974953">
    <ele>707</ele>
    <time>2007-06-29T06:58:55Z</time>
    </trkpt>
    <trkpt lat="48.5175991" lon="9.3970227">
    <ele>701</ele>
    <time>2007-06-29T06:59:23Z</time>
    </trkpt>
    <trkpt lat="48.5174274" lon="9.3970871">
    <ele>700</ele>
    <time>2007-06-29T06:59:32Z</time>
    </trkpt>
    <trkpt lat="48.5173202" lon="9.3970656">
    <ele>701</ele>
    <time>2007-06-29T07:00:22Z</time>
    </trkpt>
    <trkpt lat="48.5168695" lon="9.3965077">
    <ele>698</ele>
    <time>2007-06-29T07:00:30Z</time>
    </trkpt>
    <trkpt lat="48.5161829" lon="9.3964648">
    <ele>696</ele>
    <time>2007-06-29T07:00:37Z</time>
    </trkpt>
    <trkpt lat="48.5151744" lon="9.3972158">
    <ele>686</ele>
    <time>2007-06-29T07:00:48Z</time>
    </trkpt>
    <trkpt lat="48.5149632" lon="9.397103">
    <ele>685</ele>
    <time>2007-06-29T07:00:56Z</time>
    </trkpt>
    <trkpt lat="48.5150103" lon="9.3964943">
    <ele>677</ele>
    <time>2007-06-29T07:01:03Z</time>
    </trkpt>
    <trkpt lat="48.5139761" lon="9.3964862">
    <ele>668</ele>
    <time>2007-06-29T07:01:13Z</time>
    </trkpt>
    <trkpt lat="48.5131417" lon="9.3972241">
    <ele>666</ele>
    <time>2007-06-29T07:01:16Z</time>
    </trkpt>
    <trkpt lat="48.513906" lon="9.3972639">
    <ele>650</ele>
    <time>2007-06-29T07:01:51Z</time>
    </trkpt>
    <trkpt lat="48.5128651" lon="9.3992184">
    <ele>647</ele>
    <time>2007-06-29T07:02:04Z</time>
    </trkpt>
    <trkpt lat="48.5126626" lon="9.3992506">
    <ele>644</ele>
    <time>2007-06-29T07:02:13Z</time>
    </trkpt>
    <trkpt lat="48.5124832" lon="9.3991139">
    <ele>640</ele>
    <time>2007-06-29T07:02:19Z</time>
    </trkpt>
    <trkpt lat="48.5121445" lon="9.3995511">
    <ele>637</ele>
    <time>2007-06-29T07:02:22Z</time>
    </trkpt>
    <trkpt lat="48.5116896" lon="9.4010702">
    <ele>636</ele>
    <time>2007-06-29T07:02:32Z</time>
    </trkpt>
    <trkpt lat="48.5107173" lon="9.4026528">
    <ele>636</ele>
    <time>2007-06-29T07:02:40Z</time>
    </trkpt>
    <trkpt lat="48.5096792" lon="9.4037611">
    <ele>636</ele>
    <time>2007-06-29T07:02:48Z</time>
    </trkpt>
    <trkpt lat="48.5090728" lon="9.4035871">
    <ele>636</ele>
    <time>2007-06-29T07:02:51Z</time>
    </trkpt>
    <trkpt lat="48.5084442" lon="9.4033453">
    <ele>631</ele>
    <time>2007-06-29T07:02:58Z</time>
    </trkpt>
    <trkpt lat="48.5078627" lon="9.402461">
    <ele>629</ele>
    <time>2007-06-29T07:03:03Z</time>
    </trkpt>
    <trkpt lat="48.5073473" lon="9.4019832">
    <ele>617</ele>
    <time>2007-06-29T07:03:08Z</time>
    </trkpt>
    <trkpt lat="48.5069245" lon="9.4015386">
    <ele>608</ele>
    <time>2007-06-29T07:03:12Z</time>
    </trkpt>
    <trkpt lat="48.5065433" lon="9.4012649">
    <ele>604</ele>
    <time>2007-06-29T07:03:14Z</time>
    </trkpt>
    <trkpt lat="48.5062969" lon="9.4009923">
    <ele>588</ele>
    <time>2007-06-29T07:03:21Z</time>
    </trkpt>
    <trkpt lat="48.505671" lon="9.3999724">
    <ele>576</ele>
    <time>2007-06-29T07:03:28Z</time>
    </trkpt>
    <trkpt lat="48.504843" lon="9.3988494">
    <ele>572</ele>
    <time>2007-06-29T07:03:32Z</time>
    </trkpt>
    <trkpt lat="48.5041474" lon="9.3976613">
    <ele>570</ele>
    <time>2007-06-29T07:03:40Z</time>
    </trkpt>
    <trkpt lat="48.5039256" lon="9.3967799">
    <ele>565</ele>
    <time>2007-06-29T07:03:53Z</time>
    </trkpt>
    <trkpt lat="48.5037984" lon="9.3953566">
    <ele>565</ele>
    <time>2007-06-29T07:03:55Z</time>
    </trkpt>
    <trkpt lat="48.5020597" lon="9.3975758">
    <ele>563</ele>
    <time>2007-06-29T07:04:01Z</time>
    </trkpt>
    <trkpt lat="48.5000366" lon="9.3974924">
    <ele>561</ele>
    <time>2007-06-29T07:04:08Z</time>
    </trkpt>
    <trkpt lat="48.4972011" lon="9.3982821">
    <ele>567</ele>
    <time>2007-06-29T07:04:24Z</time>
    </trkpt>
    <trkpt lat="48.4969619" lon="9.3959123">
    <ele>540</ele>
    <time>2007-06-29T07:08:03Z</time>
    </trkpt>
    <trkpt lat="48.4969619" lon="9.3959123">
    <ele>492</ele>
    <time>2007-06-29T08:23:25Z</time>
    </trkpt>
    <trkpt lat="48.4982371" lon="9.3911863">
    <ele>492</ele>
    <time>2007-06-29T08:23:35Z</time>
    </trkpt>
    <trkpt lat="48.4982371" lon="9.3911863">
    <ele>492</ele>
    <time>2007-06-29T08:24:04Z</time>
    </trkpt>
    <trkpt lat="48.4982872" lon="9.3906283">
    <ele>493</ele>
    <time>2007-06-29T08:24:30Z</time>
    </trkpt>
    <trkpt lat="48.4983516" lon="9.3904996">
    <ele>492</ele>
    <time>2007-06-29T08:25:06Z</time>
    </trkpt>
    <trkpt lat="48.4983516" lon="9.3904567">
    <ele>512</ele>
    <time>2007-06-29T08:27:19Z</time>
    </trkpt>
    <trkpt lat="48.4983516" lon="9.3903923">
    <ele>513</ele>
    <time>2007-06-29T08:27:35Z</time>
    </trkpt>
    <trkpt lat="48.4974933" lon="9.3914008">
    <ele>510</ele>
    <time>2007-06-29T08:27:55Z</time>
    </trkpt>
    <trkpt lat="48.4964418" lon="9.3933535">
    <ele>507</ele>
    <time>2007-06-29T08:28:22Z</time>
    </trkpt>
    <trkpt lat="48.4963346" lon="9.393568">
    <ele>504</ele>
    <time>2007-06-29T08:28:29Z</time>
    </trkpt>
    <trkpt lat="48.4961843" lon="9.393847">
    <ele>500</ele>
    <time>2007-06-29T08:29:34Z</time>
    </trkpt>
    <trkpt lat="48.4954333" lon="9.3955636">
    <ele>486</ele>
    <time>2007-06-29T08:29:48Z</time>
    </trkpt>
    <trkpt lat="48.4954119" lon="9.3956065">
    <ele>482</ele>
    <time>2007-06-29T08:29:52Z</time>
    </trkpt>
    <trkpt lat="48.4953904" lon="9.3956709">
    <ele>479</ele>
    <time>2007-06-29T08:30:04Z</time>
    </trkpt>
    <trkpt lat="48.4952617" lon="9.3959498">
    <ele>474</ele>
    <time>2007-06-29T08:31:49Z</time>
    </trkpt>
    <trkpt lat="48.4951544" lon="9.3960786">
    <ele>473</ele>
    <time>2007-06-29T08:31:52Z</time>
    </trkpt>
    <trkpt lat="48.4948969" lon="9.3962717">
    <ele>471</ele>
    <time>2007-06-29T08:31:58Z</time>
    </trkpt>
    <trkpt lat="48.4947896" lon="9.3959928">
    <ele>467</ele>
    <time>2007-06-29T08:32:05Z</time>
    </trkpt>
    <trkpt lat="48.4947896" lon="9.3959069">
    <ele>463</ele>
    <time>2007-06-29T08:32:15Z</time>
    </trkpt>
    <trkpt lat="48.4947896" lon="9.3957782">
    <ele>460</ele>
    <time>2007-06-29T08:34:04Z</time>
    </trkpt>
    <trkpt lat="48.4947252" lon="9.3953061">
    <ele>459</ele>
    <time>2007-06-29T08:34:09Z</time>
    </trkpt>
    <trkpt lat="48.4947252" lon="9.3943834">
    <ele>457</ele>
    <time>2007-06-29T08:34:16Z</time>
    </trkpt>
    <trkpt lat="48.4944892" lon="9.3926668">
    <ele>452</ele>
    <time>2007-06-29T08:34:29Z</time>
    </trkpt>
    <trkpt lat="48.4944892" lon="9.3921733">
    <ele>452</ele>
    <time>2007-06-29T08:34:36Z</time>
    </trkpt>
    <trkpt lat="48.4944034" lon="9.392302">
    <ele>421</ele>
    <time>2007-06-29T08:47:46Z</time>
    </trkpt>
    <trkpt lat="48.4944892" lon="9.3914223">
    <ele>432</ele>
    <time>2007-06-29T08:47:55Z</time>
    </trkpt>
    <trkpt lat="48.4948325" lon="9.3901777">
    <ele>437</ele>
    <time>2007-06-29T08:48:05Z</time>
    </trkpt>
    <trkpt lat="48.4956908" lon="9.3882465">
    <ele>439</ele>
    <time>2007-06-29T08:48:24Z</time>
    </trkpt>
    <trkpt lat="48.4957123" lon="9.3881392">
    <ele>440</ele>
    <time>2007-06-29T08:48:27Z</time>
    </trkpt>
    <trkpt lat="48.4955406" lon="9.3878818">
    <ele>442</ele>
    <time>2007-06-29T08:48:34Z</time>
    </trkpt>
    <trkpt lat="48.4955192" lon="9.3878818">
    <ele>448</ele>
    <time>2007-06-29T08:48:44Z</time>
    </trkpt>
    <trkpt lat="48.495369" lon="9.3877959">
    <ele>466</ele>
    <time>2007-06-29T08:51:06Z</time>
    </trkpt>
    <trkpt lat="48.4951544" lon="9.3875813">
    <ele>464</ele>
    <time>2007-06-29T08:51:15Z</time>
    </trkpt>
    <trkpt lat="48.4945321" lon="9.3869162">
    <ele>464</ele>
    <time>2007-06-29T08:51:32Z</time>
    </trkpt>
    <trkpt lat="48.4944248" lon="9.3868089">
    <ele>463</ele>
    <time>2007-06-29T08:51:41Z</time>
    </trkpt>
    <trkpt lat="48.4942532" lon="9.3866372">
    <ele>459</ele>
    <time>2007-06-29T08:52:09Z</time>
    </trkpt>
    <trkpt lat="48.4935777" lon="9.3861782">
    <ele>459</ele>
    <time>2007-06-29T08:52:15Z</time>
    </trkpt>
    <trkpt lat="48.4933775" lon="9.385534">
    <ele>461</ele>
    <time>2007-06-29T08:52:23Z</time>
    </trkpt>
    <trkpt lat="48.4932219" lon="9.3850255">
    <ele>469</ele>
    <time>2007-06-29T08:54:37Z</time>
    </trkpt>
    <trkpt lat="48.4927742" lon="9.3844471">
    <ele>467</ele>
    <time>2007-06-29T08:55:04Z</time>
    </trkpt>
    <trkpt lat="48.4940326" lon="9.3846257">
    <ele>467</ele>
    <time>2007-06-29T08:55:25Z</time>
    </trkpt>
    <trkpt lat="48.4952104" lon="9.3819962">
    <ele>463</ele>
    <time>2007-06-29T08:56:53Z</time>
    </trkpt>
    <trkpt lat="48.4957995" lon="9.3806138">
    <ele>463</ele>
    <time>2007-06-29T08:57:00Z</time>
    </trkpt>
    <trkpt lat="48.4964772" lon="9.3796379">
    <ele>463</ele>
    <time>2007-06-29T08:57:03Z</time>
    </trkpt>
    <trkpt lat="48.497429" lon="9.3773447">
    <ele>468</ele>
    <time>2007-06-29T08:57:14Z</time>
    </trkpt>
    <trkpt lat="48.4972317" lon="9.3757872">
    <ele>469</ele>
    <time>2007-06-29T08:57:17Z</time>
    </trkpt>
    <trkpt lat="48.4966505" lon="9.3747681">
    <ele>469</ele>
    <time>2007-06-29T08:57:31Z</time>
    </trkpt>
    <trkpt lat="48.4950361" lon="9.373437">
    <ele>477</ele>
    <time>2007-06-29T08:58:21Z</time>
    </trkpt>
    <trkpt lat="48.4950361" lon="9.373437">
    <ele>459</ele>
    <time>2007-06-29T09:32:50Z</time>
    </trkpt>
    <trkpt lat="48.494972" lon="9.3724217">
    <ele>460</ele>
    <time>2007-06-29T09:32:58Z</time>
    </trkpt>
    <trkpt lat="48.4951305" lon="9.3720846">
    <ele>460</ele>
    <time>2007-06-29T09:33:05Z</time>
    </trkpt>
    <trkpt lat="48.495355" lon="9.3721539">
    <ele>458</ele>
    <time>2007-06-29T09:33:33Z</time>
    </trkpt>
    <trkpt lat="48.4956014" lon="9.3724602">
    <ele>464</ele>
    <time>2007-06-29T09:37:12Z</time>
    </trkpt>
    <trkpt lat="48.4958196" lon="9.3726039">
    <ele>477</ele>
    <time>2007-06-29T09:39:17Z</time>
    </trkpt>
    <trkpt lat="48.4960556" lon="9.371767">
    <ele>470</ele>
    <time>2007-06-29T09:39:26Z</time>
    </trkpt>
    <trkpt lat="48.49612" lon="9.3712735">
    <ele>467</ele>
    <time>2007-06-29T09:39:30Z</time>
    </trkpt>
    <trkpt lat="48.49612" lon="9.3708658">
    <ele>467</ele>
    <time>2007-06-29T09:39:34Z</time>
    </trkpt>
    <trkpt lat="48.4960127" lon="9.370544">
    <ele>467</ele>
    <time>2007-06-29T09:39:38Z</time>
    </trkpt>
    <trkpt lat="48.4959269" lon="9.3703079">
    <ele>467</ele>
    <time>2007-06-29T09:39:41Z</time>
    </trkpt>
    <trkpt lat="48.4957552" lon="9.3700075">
    <ele>467</ele>
    <time>2007-06-29T09:39:45Z</time>
    </trkpt>
    <trkpt lat="48.495605" lon="9.3691492">
    <ele>467</ele>
    <time>2007-06-29T09:39:55Z</time>
    </trkpt>
    <trkpt lat="48.4954151" lon="9.3674526">
    <ele>469</ele>
    <time>2007-06-29T09:40:09Z</time>
    </trkpt>
    <trkpt lat="48.4954151" lon="9.3674526">
    <ele>428</ele>
    <time>2007-06-29T09:45:37Z</time>
    </trkpt>
    <trkpt lat="48.4953046" lon="9.3656087">
    <ele>452</ele>
    <time>2007-06-29T09:45:49Z</time>
    </trkpt>
    <trkpt lat="48.495326" lon="9.3657374">
    <ele>458</ele>
    <time>2007-06-29T09:46:00Z</time>
    </trkpt>
    <trkpt lat="48.4953046" lon="9.3656087">
    <ele>474</ele>
    <time>2007-06-29T09:48:25Z</time>
    </trkpt>
    <trkpt lat="48.4951329" lon="9.3656087">
    <ele>474</ele>
    <time>2007-06-29T09:48:30Z</time>
    </trkpt>
    <trkpt lat="48.4945516327427" lon="9.36557080378472">
    <ele>475</ele>
    <time>2007-06-29T09:48:35Z</time>
    </trkpt>
    <trkpt lat="48.4934378" lon="9.3629909">
    <ele>481</ele>
    <time>2007-06-29T09:49:25Z</time>
    </trkpt>
    <trkpt lat="48.4933734" lon="9.3628836">
    <ele>481</ele>
    <time>2007-06-29T09:49:27Z</time>
    </trkpt>
    <trkpt lat="48.4923386616555" lon="9.36152984406538">
    <ele>485</ele>
    <time>2007-06-29T09:49:44Z</time>
    </trkpt>
    <trkpt lat="48.4911721615925" lon="9.36070979502759">
    <ele>485</ele>
    <time>2007-06-29T09:50:18Z</time>
    </trkpt>
    <trkpt lat="48.4905624" lon="9.3605232">
    <ele>493</ele>
    <time>2007-06-29T09:50:33Z</time>
    </trkpt>
    <trkpt lat="48.4900904" lon="9.3601799">
    <ele>599</ele>
    <time>2007-06-29T09:52:27Z</time>
    </trkpt>
    <trkpt lat="48.4894896" lon="9.3599224">
    <ele>599</ele>
    <time>2007-06-29T09:52:40Z</time>
    </trkpt>
    <trkpt lat="48.4892106" lon="9.3597722">
    <ele>598</ele>
    <time>2007-06-29T09:52:46Z</time>
    </trkpt>
    <trkpt lat="48.4886742" lon="9.3588495">
    <ele>599</ele>
    <time>2007-06-29T09:53:04Z</time>
    </trkpt>
    <trkpt lat="48.4885883" lon="9.3585491">
    <ele>593</ele>
    <time>2007-06-29T09:54:10Z</time>
    </trkpt>
    <trkpt lat="48.4884381" lon="9.3578196">
    <ele>592</ele>
    <time>2007-06-29T09:54:33Z</time>
    </trkpt>
    <trkpt lat="48.48773" lon="9.3551159">
    <ele>592</ele>
    <time>2007-06-29T09:54:56Z</time>
    </trkpt>
    <trkpt lat="48.4879017" lon="9.3550301">
    <ele>592</ele>
    <time>2007-06-29T09:55:02Z</time>
    </trkpt>
    <trkpt lat="48.488009" lon="9.3548369">
    <ele>592</ele>
    <time>2007-06-29T09:55:05Z</time>
    </trkpt>
    <trkpt lat="48.4882021" lon="9.3537855">
    <ele>594</ele>
    <time>2007-06-29T09:55:17Z</time>
    </trkpt>
    <trkpt lat="48.488245" lon="9.3537211">
    <ele>594</ele>
    <time>2007-06-29T09:55:19Z</time>
    </trkpt>
    <trkpt lat="48.4883952" lon="9.3530989">
    <ele>597</ele>
    <time>2007-06-29T09:55:28Z</time>
    </trkpt>
    <trkpt lat="48.4881633198707" lon="9.3522331610722">
    <ele>598</ele>
    <time>2007-06-29T09:55:34Z</time>
    </trkpt>
    <trkpt lat="48.4878588" lon="9.3533349">
    <ele>660</ele>
    <time>2007-06-29T09:59:05Z</time>
    </trkpt>
    <trkpt lat="48.4876442" lon="9.3535495">
    <ele>660</ele>
    <time>2007-06-29T09:59:10Z</time>
    </trkpt>
    <trkpt lat="48.4875369" lon="9.3537211">
    <ele>660</ele>
    <time>2007-06-29T09:59:13Z</time>
    </trkpt>
    <trkpt lat="48.487215" lon="9.3541288">
    <ele>660</ele>
    <time>2007-06-29T09:59:20Z</time>
    </trkpt>
    <trkpt lat="48.4871078" lon="9.3542361">
    <ele>661</ele>
    <time>2007-06-29T09:59:22Z</time>
    </trkpt>
    <trkpt lat="48.4866786" lon="9.3545365">
    <ele>661</ele>
    <time>2007-06-29T09:59:30Z</time>
    </trkpt>
    <trkpt lat="48.4866142" lon="9.3546438">
    <ele>661</ele>
    <time>2007-06-29T09:59:32Z</time>
    </trkpt>
    <trkpt lat="48.4866357" lon="9.3548155">
    <ele>661</ele>
    <time>2007-06-29T09:59:34Z</time>
    </trkpt>
    <trkpt lat="48.4866357" lon="9.3552232">
    <ele>661</ele>
    <time>2007-06-29T09:59:39Z</time>
    </trkpt>
    <trkpt lat="48.4865284" lon="9.3558669">
    <ele>661</ele>
    <time>2007-06-29T09:59:47Z</time>
    </trkpt>
    <trkpt lat="48.4865069" lon="9.3560386">
    <ele>661</ele>
    <time>2007-06-29T09:59:49Z</time>
    </trkpt>
    <trkpt lat="48.4865928" lon="9.3563819">
    <ele>660</ele>
    <time>2007-06-29T09:59:54Z</time>
    </trkpt>
    <trkpt lat="48.4866142" lon="9.3566394">
    <ele>660</ele>
    <time>2007-06-29T09:59:57Z</time>
    </trkpt>
    <trkpt lat="48.4865499" lon="9.3571973">
    <ele>661</ele>
    <time>2007-06-29T10:00:03Z</time>
    </trkpt>
    <trkpt lat="48.4865928" lon="9.3575191">
    <ele>661</ele>
    <time>2007-06-29T10:00:07Z</time>
    </trkpt>
    <trkpt lat="48.4866786" lon="9.3577337">
    <ele>661</ele>
    <time>2007-06-29T10:00:10Z</time>
    </trkpt>
    <trkpt lat="48.4868932" lon="9.3593431">
    <ele>662</ele>
    <time>2007-06-29T10:00:29Z</time>
    </trkpt>
    <trkpt lat="48.4868717" lon="9.3594933">
    <ele>662</ele>
    <time>2007-06-29T10:00:31Z</time>
    </trkpt>
    <trkpt lat="48.486743" lon="9.3597937">
    <ele>665</ele>
    <time>2007-06-29T10:00:39Z</time>
    </trkpt>
    <trkpt lat="48.4867215" lon="9.3598151">
    <ele>670</ele>
    <time>2007-06-29T10:00:59Z</time>
    </trkpt>
    <trkpt lat="48.486743" lon="9.359901">
    <ele>675</ele>
    <time>2007-06-29T10:01:58Z</time>
    </trkpt>
    <trkpt lat="48.4867215" lon="9.3593431">
    <ele>677</ele>
    <time>2007-06-29T10:02:12Z</time>
    </trkpt>
    <trkpt lat="48.4862709" lon="9.3583345">
    <ele>679</ele>
    <time>2007-06-29T10:02:33Z</time>
    </trkpt>
    <trkpt lat="48.4858418" lon="9.357605">
    <ele>679</ele>
    <time>2007-06-29T10:02:47Z</time>
    </trkpt>
    <trkpt lat="48.485477" lon="9.3570256">
    <ele>679</ele>
    <time>2007-06-29T10:02:59Z</time>
    </trkpt>
    <trkpt lat="48.4853268" lon="9.3554378">
    <ele>696</ele>
    <time>2007-06-29T10:03:18Z</time>
    </trkpt>
    <trkpt lat="48.4853053" lon="9.3553519">
    <ele>726</ele>
    <time>2007-06-29T10:04:41Z</time>
    </trkpt>
    <trkpt lat="48.4853911" lon="9.3548155">
    <ele>726</ele>
    <time>2007-06-29T10:04:48Z</time>
    </trkpt>
    <trkpt lat="48.4856272" lon="9.3541718">
    <ele>726</ele>
    <time>2007-06-29T10:04:57Z</time>
    </trkpt>
    <trkpt lat="48.4863567" lon="9.3523264">
    <ele>727</ele>
    <time>2007-06-29T10:05:23Z</time>
    </trkpt>
    <trkpt lat="48.4863567" lon="9.3521333">
    <ele>745</ele>
    <time>2007-06-29T10:06:46Z</time>
    </trkpt>
    <trkpt lat="48.4864426" lon="9.3517685">
    <ele>744</ele>
    <time>2007-06-29T10:06:51Z</time>
    </trkpt>
    <trkpt lat="48.4865763925856" lon="9.34917836059311">
    <ele>747</ele>
    <time>2007-06-29T10:07:16Z</time>
    </trkpt>
    <trkpt lat="48.487208135464" lon="9.34843864570682">
    <ele>749</ele>
    <time>2007-06-29T10:07:31Z</time>
    </trkpt>
    <trkpt lat="48.4877086" lon="9.3470478">
    <ele>749</ele>
    <time>2007-06-29T10:07:47Z</time>
    </trkpt>
    <trkpt lat="48.4880733" lon="9.3449879">
    <ele>743</ele>
    <time>2007-06-29T10:08:14Z</time>
    </trkpt>
    <trkpt lat="48.4880733" lon="9.3449879">
    <ele>749</ele>
    <time>2007-06-29T10:08:38Z</time>
    </trkpt>
    <trkpt lat="48.4881163" lon="9.3448806">
    <ele>758</ele>
    <time>2007-06-29T10:12:01Z</time>
    </trkpt>
    <trkpt lat="48.4888244" lon="9.3441939">
    <ele>756</ele>
    <time>2007-06-29T10:12:13Z</time>
    </trkpt>
    <trkpt lat="48.489511" lon="9.3435502">
    <ele>756</ele>
    <time>2007-06-29T10:12:27Z</time>
    </trkpt>
    <trkpt lat="48.4896827" lon="9.3434">
    <ele>757</ele>
    <time>2007-06-29T10:12:39Z</time>
    </trkpt>
    <trkpt lat="48.4896183" lon="9.3434644">
    <ele>749</ele>
    <time>2007-06-29T10:15:34Z</time>
    </trkpt>
    <trkpt lat="48.4895325" lon="9.3434">
    <ele>748</ele>
    <time>2007-06-29T10:15:38Z</time>
    </trkpt>
    <trkpt lat="48.4890175" lon="9.3429923">
    <ele>747</ele>
    <time>2007-06-29T10:15:48Z</time>
    </trkpt>
    <trkpt lat="48.4883952" lon="9.3417907">
    <ele>748</ele>
    <time>2007-06-29T10:15:58Z</time>
    </trkpt>
    <trkpt lat="48.4878661005025" lon="9.33890563838965">
    <ele>750</ele>
    <time>2007-06-29T10:16:13Z</time>
    </trkpt>
    <trkpt lat="48.487494" lon="9.333787">
    <ele>761</ele>
    <time>2007-06-29T10:16:44Z</time>
    </trkpt>
    <trkpt lat="48.4873867" lon="9.3292594">
    <ele>763</ele>
    <time>2007-06-29T10:17:09Z</time>
    </trkpt>
    <trkpt lat="48.4873867" lon="9.3259549">
    <ele>764</ele>
    <time>2007-06-29T10:17:29Z</time>
    </trkpt>
    <trkpt lat="48.4874082" lon="9.3252254">
    <ele>764</ele>
    <time>2007-06-29T10:17:34Z</time>
    </trkpt>
    <trkpt lat="48.4873867" lon="9.3248391">
    <ele>765</ele>
    <time>2007-06-29T10:17:43Z</time>
    </trkpt>
    <trkpt lat="48.4874511" lon="9.3248391">
    <ele>765</ele>
    <time>2007-06-29T10:20:14Z</time>
    </trkpt>
    <trkpt lat="48.487494" lon="9.3245816">
    <ele>762</ele>
    <time>2007-06-29T10:20:27Z</time>
    </trkpt>
    <trkpt lat="48.487494" lon="9.3245173">
    <ele>763</ele>
    <time>2007-06-29T10:20:28Z</time>
    </trkpt>
    <trkpt lat="48.4874119" lon="9.322278">
    <ele>763</ele>
    <time>2007-06-29T10:20:38Z</time>
    </trkpt>
    <trkpt lat="48.4869868" lon="9.3215312">
    <ele>765</ele>
    <time>2007-06-29T10:20:43Z</time>
    </trkpt>
    <trkpt lat="48.4870648" lon="9.3212342">
    <ele>794</ele>
    <time>2007-06-29T10:23:41Z</time>
    </trkpt>
    <trkpt lat="48.4869146" lon="9.3209338">
    <ele>785</ele>
    <time>2007-06-29T10:24:09Z</time>
    </trkpt>
    <trkpt lat="48.4868932" lon="9.3210196">
    <ele>776</ele>
    <time>2007-06-29T10:26:05Z</time>
    </trkpt>
    <trkpt lat="48.4868932" lon="9.3208265">
    <ele>776</ele>
    <time>2007-06-29T10:26:09Z</time>
    </trkpt>
    <trkpt lat="48.4867049743112" lon="9.32043207427968">
    <ele>777</ele>
    <time>2007-06-29T10:26:27Z</time>
    </trkpt>
    <trkpt lat="48.4869350490857" lon="9.31853958436846">
    <ele>777</ele>
    <time>2007-06-29T10:27:03Z</time>
    </trkpt>
    <trkpt lat="48.4872794" lon="9.3167067">
    <ele>774</ele>
    <time>2007-06-29T10:27:12Z</time>
    </trkpt>
    <trkpt lat="48.4872365" lon="9.3166637">
    <ele>779</ele>
    <time>2007-06-29T10:27:44Z</time>
    </trkpt>
    <trkpt lat="48.4872365" lon="9.3161273">
    <ele>792</ele>
    <time>2007-06-29T10:30:34Z</time>
    </trkpt>
    <trkpt lat="48.4873009" lon="9.3157196">
    <ele>792</ele>
    <time>2007-06-29T10:30:40Z</time>
    </trkpt>
    <trkpt lat="48.4873652" lon="9.3154192">
    <ele>792</ele>
    <time>2007-06-29T10:30:44Z</time>
    </trkpt>
    <trkpt lat="48.4874511" lon="9.3148398">
    <ele>791</ele>
    <time>2007-06-29T10:30:51Z</time>
    </trkpt>
    <trkpt lat="48.487494" lon="9.3140674">
    <ele>786</ele>
    <time>2007-06-29T10:30:58Z</time>
    </trkpt>
    <trkpt lat="48.4874082" lon="9.3115139">
    <ele>771</ele>
    <time>2007-06-29T10:31:20Z</time>
    </trkpt>
    <trkpt lat="48.4872004" lon="9.3092219">
    <ele>769</ele>
    <time>2007-06-29T10:31:41Z</time>
    </trkpt>
    <trkpt lat="48.4872004" lon="9.3092219">
    <ele>749</ele>
    <time>2007-06-29T10:32:01Z</time>
    </trkpt>
    <trkpt lat="48.4874082" lon="9.3091965">
    <ele>734</ele>
    <time>2007-06-29T10:36:00Z</time>
    </trkpt>
    <trkpt lat="48.4874082" lon="9.3091965">
    <ele>733</ele>
    <time>2007-06-29T10:36:05Z</time>
    </trkpt>
    <trkpt lat="48.4873826" lon="9.3083775">
    <ele>732</ele>
    <time>2007-06-29T10:36:09Z</time>
    </trkpt>
    <trkpt lat="48.4876091" lon="9.3077363">
    <ele>731</ele>
    <time>2007-06-29T10:36:17Z</time>
    </trkpt>
    <trkpt lat="48.4879733" lon="9.3060474">
    <ele>735</ele>
    <time>2007-06-29T10:36:26Z</time>
    </trkpt>
    <trkpt lat="48.4880273" lon="9.3026318">
    <ele>737</ele>
    <time>2007-06-29T10:36:47Z</time>
    </trkpt>
    <trkpt lat="48.4878282" lon="9.3014131">
    <ele>738</ele>
    <time>2007-06-29T10:36:52Z</time>
    </trkpt>
    <trkpt lat="48.4876494" lon="9.3010062">
    <ele>748</ele>
    <time>2007-06-29T10:39:58Z</time>
    </trkpt>
    <trkpt lat="48.4873822" lon="9.29999">
    <ele>747</ele>
    <time>2007-06-29T10:40:02Z</time>
    </trkpt>
    <trkpt lat="48.4872715" lon="9.2993467">
    <ele>746</ele>
    <time>2007-06-29T10:40:05Z</time>
    </trkpt>
    <trkpt lat="48.486982" lon="9.2982966">
    <ele>746</ele>
    <time>2007-06-29T10:40:07Z</time>
    </trkpt>
    <trkpt lat="48.4867824" lon="9.2972132">
    <ele>743</ele>
    <time>2007-06-29T10:40:34Z</time>
    </trkpt>
    <trkpt lat="48.483858" lon="9.2978725">
    <ele>739</ele>
    <time>2007-06-29T10:40:55Z</time>
    </trkpt>
    <trkpt lat="48.4835652" lon="9.2981075">
    <ele>729</ele>
    <time>2007-06-29T10:41:06Z</time>
    </trkpt>
    <trkpt lat="48.4835652" lon="9.2981075">
    <ele>738</ele>
    <time>2007-06-29T11:00:38Z</time>
    </trkpt>
    <trkpt lat="48.4827733" lon="9.2986393">
    <ele>772</ele>
    <time>2007-06-29T11:00:47Z</time>
    </trkpt>
    <trkpt lat="48.4825158" lon="9.2986393">
    <ele>770</ele>
    <time>2007-06-29T11:00:57Z</time>
    </trkpt>
    <trkpt lat="48.4825587" lon="9.2985749">
    <ele>767</ele>
    <time>2007-06-29T11:01:15Z</time>
    </trkpt>
    <trkpt lat="48.4826231" lon="9.2985106">
    <ele>759</ele>
    <time>2007-06-29T11:02:58Z</time>
    </trkpt>
    <trkpt lat="48.4823012" lon="9.2980814">
    <ele>763</ele>
    <time>2007-06-29T11:03:10Z</time>
    </trkpt>
    <trkpt lat="48.4817863" lon="9.2975664">
    <ele>763</ele>
    <time>2007-06-29T11:03:23Z</time>
    </trkpt>
    <trkpt lat="48.4805846" lon="9.2973948">
    <ele>765</ele>
    <time>2007-06-29T11:04:41Z</time>
    </trkpt>
    <trkpt lat="48.479898" lon="9.2972231">
    <ele>765</ele>
    <time>2007-06-29T11:04:56Z</time>
    </trkpt>
    <trkpt lat="48.4789324" lon="9.2970514">
    <ele>764</ele>
    <time>2007-06-29T11:05:17Z</time>
    </trkpt>
    <trkpt lat="48.4786749" lon="9.2970943">
    <ele>762</ele>
    <time>2007-06-29T11:05:30Z</time>
    </trkpt>
    <trkpt lat="48.4784603" lon="9.2972231">
    <ele>766</ele>
    <time>2007-06-29T11:06:56Z</time>
    </trkpt>
    <trkpt lat="48.4777737" lon="9.2974591">
    <ele>761</ele>
    <time>2007-06-29T11:07:12Z</time>
    </trkpt>
    <trkpt lat="48.4769368" lon="9.2978239">
    <ele>760</ele>
    <time>2007-06-29T11:07:34Z</time>
    </trkpt>
    <trkpt lat="48.4762073" lon="9.2981887">
    <ele>752</ele>
    <time>2007-06-29T11:07:57Z</time>
    </trkpt>
    <trkpt lat="48.4755421" lon="9.2985535">
    <ele>742</ele>
    <time>2007-06-29T11:08:25Z</time>
    </trkpt>
    <trkpt lat="48.4749198" lon="9.2988753">
    <ele>734</ele>
    <time>2007-06-29T11:08:42Z</time>
    </trkpt>
    <trkpt lat="48.4733534" lon="9.2997336">
    <ele>722</ele>
    <time>2007-06-29T11:09:06Z</time>
    </trkpt>
    <trkpt lat="48.4724092" lon="9.3002701">
    <ele>716</ele>
    <time>2007-06-29T11:09:25Z</time>
    </trkpt>
    <trkpt lat="48.4725165" lon="9.3002486">
    <ele>715</ele>
    <time>2007-06-29T11:11:21Z</time>
    </trkpt>
    <trkpt lat="48.4723234" lon="9.3002915">
    <ele>714</ele>
    <time>2007-06-29T11:11:25Z</time>
    </trkpt>
    <trkpt lat="48.4722161" lon="9.3002701">
    <ele>714</ele>
    <time>2007-06-29T11:11:27Z</time>
    </trkpt>
    <trkpt lat="48.4718943" lon="9.3001199">
    <ele>713</ele>
    <time>2007-06-29T11:11:38Z</time>
    </trkpt>
    <trkpt lat="48.4718728" lon="9.3000984">
    <ele>714</ele>
    <time>2007-06-29T11:12:17Z</time>
    </trkpt>
    <trkpt lat="48.4718513" lon="9.3000984">
    <ele>714</ele>
    <time>2007-06-29T11:13:06Z</time>
    </trkpt>
    <trkpt lat="48.4718299" lon="9.3000984">
    <ele>716</ele>
    <time>2007-06-29T11:14:05Z</time>
    </trkpt>
    <trkpt lat="48.4717655" lon="9.2999268">
    <ele>716</ele>
    <time>2007-06-29T11:14:10Z</time>
    </trkpt>
    <trkpt lat="48.4717011" lon="9.2996478">
    <ele>716</ele>
    <time>2007-06-29T11:14:15Z</time>
    </trkpt>
    <trkpt lat="48.4716368" lon="9.2994547">
    <ele>716</ele>
    <time>2007-06-29T11:14:18Z</time>
    </trkpt>
    <trkpt lat="48.4706149" lon="9.2983021">
    <ele>715</ele>
    <time>2007-06-29T11:14:41Z</time>
    </trkpt>
    <trkpt lat="48.4697616" lon="9.2979252">
    <ele>715</ele>
    <time>2007-06-29T11:14:48Z</time>
    </trkpt>
    <trkpt lat="48.4697616" lon="9.2979252">
    <ele>715</ele>
    <time>2007-06-29T11:14:52Z</time>
    </trkpt>
    <trkpt lat="48.4692001" lon="9.2976852">
    <ele>716</ele>
    <time>2007-06-29T11:15:05Z</time>
    </trkpt>
    <trkpt lat="48.4683992749615" lon="9.29722592994198">
    <ele>716</ele>
    <time>2007-06-29T11:15:17Z</time>
    </trkpt>
    <trkpt lat="48.4679077226882" lon="9.29603979020533">
    <ele>686</ele>
    <time>2007-06-29T11:17:17Z</time>
    </trkpt>
    <trkpt lat="48.4674207345044" lon="9.29306190940122">
    <ele>686</ele>
    <time>2007-06-29T11:17:40Z</time>
    </trkpt>
    <trkpt lat="48.467042748037" lon="9.29140318440038">
    <ele>686</ele>
    <time>2007-06-29T11:18:03Z</time>
    </trkpt>
    <trkpt lat="48.4668946" lon="9.2899919">
    <ele>680</ele>
    <time>2007-06-29T11:18:13Z</time>
    </trkpt>
    <trkpt lat="48.466723" lon="9.2900777">
    <ele>646</ele>
    <time>2007-06-29T11:21:26Z</time>
    </trkpt>
    <trkpt lat="48.4662509" lon="9.2899275">
    <ele>644</ele>
    <time>2007-06-29T11:21:37Z</time>
    </trkpt>
    <trkpt lat="48.4654784" lon="9.2898417">
    <ele>647</ele>
    <time>2007-06-29T11:21:53Z</time>
    </trkpt>
    <trkpt lat="48.4647059" lon="9.2900777">
    <ele>651</ele>
    <time>2007-06-29T11:22:07Z</time>
    </trkpt>
    <trkpt lat="48.4633837356141" lon="9.28918493368309">
    <ele>653</ele>
    <time>2007-06-29T11:22:30Z</time>
    </trkpt>
    <trkpt lat="48.4620128464862" lon="9.28897432356584">
    <ele>652</ele>
    <time>2007-06-29T11:23:05Z</time>
    </trkpt>
    <trkpt lat="48.4619691546191" lon="9.28846701938331">
    <ele>652</ele>
    <time>2007-06-29T11:23:12Z</time>
    </trkpt>
    <trkpt lat="48.4620237" lon="9.2870307">
    <ele>653</ele>
    <time>2007-06-29T11:23:20Z</time>
    </trkpt>
    <trkpt lat="48.4619594" lon="9.2866445">
    <ele>654</ele>
    <time>2007-06-29T11:23:25Z</time>
    </trkpt>
    <trkpt lat="48.4618092" lon="9.2860651">
    <ele>655</ele>
    <time>2007-06-29T11:23:32Z</time>
    </trkpt>
    <trkpt lat="48.4618306" lon="9.2857218">
    <ele>655</ele>
    <time>2007-06-29T11:23:37Z</time>
    </trkpt>
    <trkpt lat="48.4620881" lon="9.2849922">
    <ele>655</ele>
    <time>2007-06-29T11:23:54Z</time>
    </trkpt>
    <trkpt lat="48.4632468" lon="9.2842197">
    <ele>692</ele>
    <time>2007-06-29T11:26:14Z</time>
    </trkpt>
    <trkpt lat="48.4641051" lon="9.2834687">
    <ele>690</ele>
    <time>2007-06-29T11:26:46Z</time>
    </trkpt>
    <trkpt lat="48.4650278" lon="9.2823315">
    <ele>685</ele>
    <time>2007-06-29T11:27:21Z</time>
    </trkpt>
    <trkpt lat="48.4654999" lon="9.2807651">
    <ele>677</ele>
    <time>2007-06-29T11:27:43Z</time>
    </trkpt>
    <trkpt lat="48.4655643" lon="9.2799282">
    <ele>675</ele>
    <time>2007-06-29T11:28:01Z</time>
    </trkpt>
    <trkpt lat="48.4655643" lon="9.2787695">
    <ele>675</ele>
    <time>2007-06-29T11:28:26Z</time>
    </trkpt>
    <trkpt lat="48.4648985370702" lon="9.27658401773268">
    <ele>582</ele>
    <time>2007-06-29T11:31:23Z</time>
    </trkpt>
    <trkpt lat="48.4648108800744" lon="9.27563698387585">
    <ele>584</ele>
    <time>2007-06-29T11:31:47Z</time>
    </trkpt>
    <trkpt lat="48.4638047" lon="9.2746925">
    <ele>581</ele>
    <time>2007-06-29T11:32:30Z</time>
    </trkpt>
    <trkpt lat="48.4628606" lon="9.274199">
    <ele>581</ele>
    <time>2007-06-29T11:32:51Z</time>
    </trkpt>
    <trkpt lat="48.4615731" lon="9.273963">
    <ele>582</ele>
    <time>2007-06-29T11:33:16Z</time>
    </trkpt>
    <trkpt lat="48.4602642" lon="9.2744136">
    <ele>577</ele>
    <time>2007-06-29T11:34:12Z</time>
    </trkpt>
    <trkpt lat="48.4593423" lon="9.274845">
    <ele>575</ele>
    <time>2007-06-29T11:34:25Z</time>
    </trkpt>
    <trkpt lat="48.458712" lon="9.2751459">
    <ele>577</ele>
    <time>2007-06-29T11:35:52Z</time>
    </trkpt>
    <trkpt lat="48.4587133" lon="9.274605">
    <ele>571</ele>
    <time>2007-06-29T11:39:05Z</time>
    </trkpt>
    <trkpt lat="48.4585798" lon="9.2740297">
    <ele>571</ele>
    <time>2007-06-29T11:39:09Z</time>
    </trkpt>
    <trkpt lat="48.4585798" lon="9.2740297">
    <ele>571</ele>
    <time>2007-06-29T11:39:13Z</time>
    </trkpt>
    <trkpt lat="48.4587157" lon="9.273591">
    <ele>570</ele>
    <time>2007-06-29T11:39:17Z</time>
    </trkpt>
    <trkpt lat="48.4588511" lon="9.2733889">
    <ele>567</ele>
    <time>2007-06-29T11:39:31Z</time>
    </trkpt>
    <trkpt lat="48.4592986" lon="9.2731476">
    <ele>567</ele>
    <time>2007-06-29T11:39:43Z</time>
    </trkpt>
    <trkpt lat="48.4598994" lon="9.2718387">
    <ele>569</ele>
    <time>2007-06-29T11:40:03Z</time>
    </trkpt>
    <trkpt lat="48.4599638" lon="9.2717314">
    <ele>571</ele>
    <time>2007-06-29T11:40:11Z</time>
    </trkpt>
    <trkpt lat="48.4611654" lon="9.2706585">
    <ele>558</ele>
    <time>2007-06-29T11:43:00Z</time>
    </trkpt>
    <trkpt lat="48.4614015" lon="9.2704439">
    <ele>557</ele>
    <time>2007-06-29T11:43:09Z</time>
    </trkpt>
    <trkpt lat="48.4616804" lon="9.2702293">
    <ele>563</ele>
    <time>2007-06-29T11:44:05Z</time>
    </trkpt>
    <trkpt lat="48.4626245" lon="9.2694569">
    <ele>563</ele>
    <time>2007-06-29T11:44:25Z</time>
    </trkpt>
    <trkpt lat="48.4627962" lon="9.2692852">
    <ele>563</ele>
    <time>2007-06-29T11:44:29Z</time>
    </trkpt>
    <trkpt lat="48.462925" lon="9.268856">
    <ele>558</ele>
    <time>2007-06-29T11:44:36Z</time>
    </trkpt>
    <trkpt lat="48.462925" lon="9.2681694">
    <ele>555</ele>
    <time>2007-06-29T11:44:45Z</time>
    </trkpt>
    <trkpt lat="48.4630322" lon="9.2678261">
    <ele>553</ele>
    <time>2007-06-29T11:44:50Z</time>
    </trkpt>
    <trkpt lat="48.4632468" lon="9.2667532">
    <ele>550</ele>
    <time>2007-06-29T11:45:05Z</time>
    </trkpt>
    <trkpt lat="48.4635043" lon="9.2659807">
    <ele>550</ele>
    <time>2007-06-29T11:45:16Z</time>
    </trkpt>
    <trkpt lat="48.4645343" lon="9.2653584">
    <ele>534</ele>
    <time>2007-06-29T11:45:33Z</time>
    </trkpt>
    <trkpt lat="48.4662294" lon="9.2645001">
    <ele>528</ele>
    <time>2007-06-29T11:46:04Z</time>
    </trkpt>
    <trkpt lat="48.4663582" lon="9.2644787">
    <ele>518</ele>
    <time>2007-06-29T11:46:12Z</time>
    </trkpt>
    <trkpt lat="48.4667015" lon="9.2645431">
    <ele>501</ele>
    <time>2007-06-29T11:47:56Z</time>
    </trkpt>
    <trkpt lat="48.4677744" lon="9.2641783">
    <ele>494</ele>
    <time>2007-06-29T11:48:18Z</time>
    </trkpt>
    <trkpt lat="48.4680104" lon="9.2641354">
    <ele>492</ele>
    <time>2007-06-29T11:48:23Z</time>
    </trkpt>
    <trkpt lat="48.468504" lon="9.2642426">
    <ele>486</ele>
    <time>2007-06-29T11:48:40Z</time>
    </trkpt>
    <trkpt lat="48.468461" lon="9.264307">
    <ele>472</ele>
    <time>2007-06-29T11:50:34Z</time>
    </trkpt>
    <trkpt lat="48.4685683" lon="9.2634702">
    <ele>471</ele>
    <time>2007-06-29T11:50:43Z</time>
    </trkpt>
    <trkpt lat="48.4691477" lon="9.2621827">
    <ele>470</ele>
    <time>2007-06-29T11:50:58Z</time>
    </trkpt>
    <trkpt lat="48.4692979" lon="9.2614317">
    <ele>472</ele>
    <time>2007-06-29T11:51:09Z</time>
    </trkpt>
    <trkpt lat="48.4692979" lon="9.2613888">
    <ele>470</ele>
    <time>2007-06-29T11:51:53Z</time>
    </trkpt>
    <trkpt lat="48.4692979" lon="9.26126">
    <ele>472</ele>
    <time>2007-06-29T11:52:19Z</time>
    </trkpt>
    <trkpt lat="48.4691906" lon="9.2611313">
    <ele>473</ele>
    <time>2007-06-29T11:52:24Z</time>
    </trkpt>
    <trkpt lat="48.4704191546327" lon="9.26163647675182">
    <ele>482</ele>
    <time>2007-06-29T11:53:08Z</time>
    </trkpt>
    <trkpt lat="48.4719958820258" lon="9.26032597751449">
    <time>2007-06-29T11:53:26Z</time>
    </trkpt>
    <trkpt lat="48.4739368531334" lon="9.25698855026649">
    <ele>491</ele>
    <time>2007-06-29T11:53:45Z</time>
    </trkpt>
    <trkpt lat="48.4749701921144" lon="9.25736570506812">
    <ele>497</ele>
    <time>2007-06-29T11:56:11Z</time>
    </trkpt>
    <trkpt lat="48.4776152835675" lon="9.25071770139822">
    <ele>514</ele>
    <time>2007-06-29T11:58:58Z</time>
    </trkpt>
    <trkpt lat="48.4771223719718" lon="9.24993755519169">
    <ele>515</ele>
    <time>2007-06-29T11:59:11Z</time>
    </trkpt>
    <trkpt lat="48.4771518572325" lon="9.24669157357939">
    <ele>515</ele>
    <time>2007-06-29T11:59:15Z</time>
    </trkpt>
    <trkpt lat="48.4766354962443" lon="9.24635093535076">
    <ele>513</ele>
    <time>2007-06-29T11:59:44Z</time>
    </trkpt>
    <trkpt lat="48.4768191020037" lon="9.24459351735618">
    <ele>512</ele>
    <time>2007-06-29T11:59:48Z</time>
    </trkpt>
    <trkpt lat="48.4766254569" lon="9.24046734368209">
    <ele>506</ele>
    <time>2007-06-29T12:00:04Z</time>
    </trkpt>
    <trkpt lat="48.4769016979981" lon="9.2373577935784">
    <ele>489</ele>
    <time>2007-06-29T12:01:10Z</time>
    </trkpt>
    <trkpt lat="48.476994129843" lon="9.23614093124627">
    <ele>490</ele>
    <time>2007-06-29T12:01:17Z</time>
    </trkpt>
    <trkpt lat="48.4774665982247" lon="9.23597405389713">
    <ele>486</ele>
    <time>2007-06-29T12:01:38Z</time>
    </trkpt>
    <trkpt lat="48.4774006750436" lon="9.2352298406254">
    <ele>485</ele>
    <time>2007-06-29T12:01:41Z</time>
    </trkpt>
    <trkpt lat="48.4769295198921" lon="9.23475427110153">
    <ele>483</ele>
    <time>2007-06-29T12:01:53Z</time>
    </trkpt>
    <trkpt lat="48.4770444062067" lon="9.23353750646462">
    <ele>483</ele>
    <time>2007-06-29T12:02:40Z</time>
    </trkpt>
    <trkpt lat="48.4752691514937" lon="9.23312360794808">
    <ele>480</ele>
    <time>2007-06-29T12:02:52Z</time>
    </trkpt>
    <trkpt lat="48.4686661036228" lon="9.22978016090013">
    <ele>479</ele>
    <time>2007-06-29T12:03:09Z</time>
    </trkpt>
    <trkpt lat="48.4671392115805" lon="9.2288266672985">
    <ele>478</ele>
    <time>2007-06-29T12:03:34Z</time>
    </trkpt>
    <trkpt lat="48.4661306056294" lon="9.22885323499967">
    <ele>454</ele>
    <time>2007-06-29T12:13:42Z</time>
    </trkpt>
    <trkpt lat="48.4660969" lon="9.229209">
    <ele>447</ele>
    <time>2007-06-29T12:14:37Z</time>
    </trkpt>
    <trkpt lat="48.4647698" lon="9.2295749">
    <ele>447</ele>
    <time>2007-06-29T12:14:41Z</time>
    </trkpt>
    <trkpt lat="48.4636219" lon="9.230212">
    <ele>445</ele>
    <time>2007-06-29T12:14:49Z</time>
    </trkpt>
    <trkpt lat="48.4621144" lon="9.2308136">
    <ele>444</ele>
    <time>2007-06-29T12:16:23Z</time>
    </trkpt>
    <trkpt lat="48.4610118" lon="9.2312819">
    <ele>443</ele>
    <time>2007-06-29T12:16:37Z</time>
    </trkpt>
    <trkpt lat="48.4601116" lon="9.231751">
    <ele>443</ele>
    <time>2007-06-29T12:16:40Z</time>
    </trkpt>
    <trkpt lat="48.4595039" lon="9.2320863">
    <ele>444</ele>
    <time>2007-06-29T12:16:52Z</time>
    </trkpt>
    <trkpt lat="48.459414486119" lon="9.23110163927187">
    <ele>442</ele>
    <time>2007-06-29T12:17:03Z</time>
    </trkpt>
    <trkpt lat="48.4579253" lon="9.2313695">
    <ele>450</ele>
    <time>2007-06-29T13:39:40Z</time>
    </trkpt>
    <trkpt lat="48.4570241" lon="9.2311764">
    <ele>453</ele>
    <time>2007-06-29T13:40:00Z</time>
    </trkpt>
    <trkpt lat="48.4571528" lon="9.2309833">
    <ele>456</ele>
    <time>2007-06-29T13:42:18Z</time>
    </trkpt>
    <trkpt lat="48.4571743" lon="9.2308116">
    <ele>456</ele>
    <time>2007-06-29T13:42:22Z</time>
    </trkpt>
    <trkpt lat="48.4572387" lon="9.2307043">
    <ele>456</ele>
    <time>2007-06-29T13:42:26Z</time>
    </trkpt>
    <trkpt lat="48.4572816" lon="9.2302322">
    <ele>456</ele>
    <time>2007-06-29T13:42:36Z</time>
    </trkpt>
    <trkpt lat="48.4573889" lon="9.2296743">
    <ele>454</ele>
    <time>2007-06-29T13:42:48Z</time>
    </trkpt>
    <trkpt lat="48.4575605" lon="9.2292881">
    <ele>454</ele>
    <time>2007-06-29T13:43:02Z</time>
    </trkpt>
    <trkpt lat="48.4575605" lon="9.2291808">
    <ele>456</ele>
    <time>2007-06-29T13:45:13Z</time>
    </trkpt>
    <trkpt lat="48.4574747" lon="9.2289662">
    <ele>456</ele>
    <time>2007-06-29T13:45:17Z</time>
    </trkpt>
    <trkpt lat="48.4573889" lon="9.2288804">
    <ele>456</ele>
    <time>2007-06-29T13:45:19Z</time>
    </trkpt>
    <trkpt lat="48.4570456" lon="9.2288589">
    <ele>453</ele>
    <time>2007-06-29T13:45:27Z</time>
    </trkpt>
    <trkpt lat="48.4563375" lon="9.2296529">
    <ele>454</ele>
    <time>2007-06-29T13:45:47Z</time>
    </trkpt>
    <trkpt lat="48.4563375" lon="9.2296529">
    <ele>455</ele>
    <time>2007-06-29T13:45:55Z</time>
    </trkpt>
    <trkpt lat="48.456316" lon="9.2295671">
    <ele>453</ele>
    <time>2007-06-29T13:47:53Z</time>
    </trkpt>
    <trkpt lat="48.4562516" lon="9.2295456">
    <ele>451</ele>
    <time>2007-06-29T13:47:58Z</time>
    </trkpt>
    <trkpt lat="48.4560156" lon="9.2291808">
    <ele>451</ele>
    <time>2007-06-29T13:48:11Z</time>
    </trkpt>
    <trkpt lat="48.4558439" lon="9.2289019">
    <ele>453</ele>
    <time>2007-06-29T13:48:30Z</time>
    </trkpt>
    <trkpt lat="48.4557581" lon="9.2287302">
    <ele>449</ele>
    <time>2007-06-29T13:48:41Z</time>
    </trkpt>
    <trkpt lat="48.4557366" lon="9.2286873">
    <ele>438</ele>
    <time>2007-06-29T13:52:05Z</time>
    </trkpt>
    <trkpt lat="48.4556508" lon="9.2281079">
    <ele>440</ele>
    <time>2007-06-29T13:52:20Z</time>
    </trkpt>
    <trkpt lat="48.4553289" lon="9.227078">
    <ele>442</ele>
    <time>2007-06-29T13:52:44Z</time>
    </trkpt>
    <trkpt lat="48.4552431" lon="9.226284">
    <ele>445</ele>
    <time>2007-06-29T13:53:18Z</time>
    </trkpt>
    <trkpt lat="48.4557152" lon="9.2264771">
    <ele>453</ele>
    <time>2007-06-29T13:56:36Z</time>
    </trkpt>
    <trkpt lat="48.4558654" lon="9.226563">
    <ele>452</ele>
    <time>2007-06-29T13:56:40Z</time>
    </trkpt>
    <trkpt lat="48.4564877" lon="9.2266703">
    <ele>450</ele>
    <time>2007-06-29T13:56:58Z</time>
    </trkpt>
    <trkpt lat="48.4564447" lon="9.2267776">
    <ele>454</ele>
    <time>2007-06-29T13:58:52Z</time>
    </trkpt>
    <trkpt lat="48.4568954" lon="9.2262197">
    <ele>452</ele>
    <time>2007-06-29T13:59:06Z</time>
    </trkpt>
    <trkpt lat="48.4572172" lon="9.2256832">
    <ele>451</ele>
    <time>2007-06-29T13:59:21Z</time>
    </trkpt>
    <trkpt lat="48.4571958" lon="9.2257047">
    <ele>450</ele>
    <time>2007-06-29T13:59:54Z</time>
    </trkpt>
    <trkpt lat="48.4571958" lon="9.225769">
    <ele>452</ele>
    <time>2007-06-29T14:01:06Z</time>
    </trkpt>
    <trkpt lat="48.4572387" lon="9.2251897">
    <ele>452</ele>
    <time>2007-06-29T14:01:21Z</time>
    </trkpt>
    <trkpt lat="48.4574962" lon="9.223752">
    <ele>452</ele>
    <time>2007-06-29T14:01:43Z</time>
    </trkpt>
    <trkpt lat="48.4575391" lon="9.2225933">
    <ele>452</ele>
    <time>2007-06-29T14:01:59Z</time>
    </trkpt>
    <trkpt lat="48.4574747" lon="9.2221642">
    <ele>453</ele>
    <time>2007-06-29T14:02:10Z</time>
    </trkpt>
    <trkpt lat="48.4574103" lon="9.2221642">
    <ele>457</ele>
    <time>2007-06-29T14:02:32Z</time>
    </trkpt>
    <trkpt lat="48.4572816" lon="9.2220998">
    <ele>455</ele>
    <time>2007-06-29T14:02:36Z</time>
    </trkpt>
    <trkpt lat="48.4571528" lon="9.2214131">
    <ele>454</ele>
    <time>2007-06-29T14:02:51Z</time>
    </trkpt>
    <trkpt lat="48.4571099" lon="9.2210698">
    <ele>454</ele>
    <time>2007-06-29T14:02:56Z</time>
    </trkpt>
    <trkpt lat="48.4571314" lon="9.2206192">
    <ele>455</ele>
    <time>2007-06-29T14:03:05Z</time>
    </trkpt>
    <trkpt lat="48.4571743" lon="9.22019">
    <ele>453</ele>
    <time>2007-06-29T14:04:42Z</time>
    </trkpt>
    <trkpt lat="48.4571958" lon="9.2201686">
    <ele>453</ele>
    <time>2007-06-29T14:04:43Z</time>
    </trkpt>
    <trkpt lat="48.4571099" lon="9.2200613">
    <ele>457</ele>
    <time>2007-06-29T14:04:56Z</time>
    </trkpt>
    <trkpt lat="48.4569168" lon="9.2198038">
    <ele>526</ele>
    <time>2007-06-29T14:05:18Z</time>
    </trkpt>
    <trkpt lat="48.4569597" lon="9.2198896">
    <ele>442</ele>
    <time>2007-06-29T14:29:58Z</time>
    </trkpt>
    <trkpt lat="48.4568095" lon="9.2188243">
    <ele>443</ele>
    <time>2007-06-29T14:30:05Z</time>
    </trkpt>
    <trkpt lat="48.4566765" lon="9.2178097">
    <ele>443</ele>
    <time>2007-06-29T14:30:10Z</time>
    </trkpt>
    <trkpt lat="48.4566111" lon="9.2167616">
    <ele>443</ele>
    <time>2007-06-29T14:30:12Z</time>
    </trkpt>
    <trkpt lat="48.456188" lon="9.2145628">
    <ele>447</ele>
    <time>2007-06-29T14:30:53Z</time>
    </trkpt>
    <trkpt lat="48.45608" lon="9.2136884">
    <ele>448</ele>
    <time>2007-06-29T14:31:33Z</time>
    </trkpt>
    <trkpt lat="48.4557152" lon="9.2121005">
    <ele>454</ele>
    <time>2007-06-29T14:31:42Z</time>
    </trkpt>
    <trkpt lat="48.4555435" lon="9.2113066">
    <ele>455</ele>
    <time>2007-06-29T14:31:46Z</time>
    </trkpt>
    <trkpt lat="48.4551787" lon="9.2103839">
    <ele>457</ele>
    <time>2007-06-29T14:31:52Z</time>
    </trkpt>
    <trkpt lat="48.4552217" lon="9.2101264">
    <ele>456</ele>
    <time>2007-06-29T14:31:56Z</time>
    </trkpt>
    <trkpt lat="48.4553324532364" lon="9.20945053532909">
    <time>2007-06-29T14:32:46Z</time>
    </trkpt>
    <trkpt lat="48.4566785924323" lon="9.20999856595853">
    <ele>453</ele>
    <time>2007-06-29T14:33:37Z</time>
    </trkpt>
    <trkpt lat="48.457582" lon="9.2090321">
    <ele>470</ele>
    <time>2007-06-29T14:36:10Z</time>
    </trkpt>
    <trkpt lat="48.4576464" lon="9.2089891">
    <ele>470</ele>
    <time>2007-06-29T14:36:12Z</time>
    </trkpt>
    <trkpt lat="48.4577537" lon="9.2088175">
    <ele>470</ele>
    <time>2007-06-29T14:36:21Z</time>
    </trkpt>
    <trkpt lat="48.4577537" lon="9.2087746">
    <ele>471</ele>
    <time>2007-06-29T14:36:58Z</time>
    </trkpt>
    <trkpt lat="48.4579897" lon="9.2080879">
    <ele>475</ele>
    <time>2007-06-29T14:37:10Z</time>
    </trkpt>
    <trkpt lat="48.4580326" lon="9.208045">
    <ele>476</ele>
    <time>2007-06-29T14:37:58Z</time>
    </trkpt>
    <trkpt lat="48.4580541" lon="9.2080021">
    <ele>479</ele>
    <time>2007-06-29T14:39:23Z</time>
    </trkpt>
    <trkpt lat="48.4580755" lon="9.2077446">
    <ele>477</ele>
    <time>2007-06-29T14:39:29Z</time>
    </trkpt>
    <trkpt lat="48.4579468" lon="9.2066717">
    <ele>481</ele>
    <time>2007-06-29T14:39:42Z</time>
    </trkpt>
    <trkpt lat="48.4579253" lon="9.2062426">
    <ele>483</ele>
    <time>2007-06-29T14:39:47Z</time>
    </trkpt>
    <trkpt lat="48.4582043" lon="9.2049551">
    <ele>489</ele>
    <time>2007-06-29T14:40:03Z</time>
    </trkpt>
    <trkpt lat="48.4583759" lon="9.2034101">
    <ele>493</ele>
    <time>2007-06-29T14:40:25Z</time>
    </trkpt>
    <trkpt lat="48.4583759" lon="9.2034101">
    <ele>496</ele>
    <time>2007-06-29T14:40:40Z</time>
    </trkpt>
    <trkpt lat="48.4583759" lon="9.2033243">
    <ele>498</ele>
    <time>2007-06-29T14:40:52Z</time>
    </trkpt>
    <trkpt lat="48.4585261" lon="9.2030668">
    <ele>501</ele>
    <time>2007-06-29T14:43:12Z</time>
    </trkpt>
    <trkpt lat="48.4589124" lon="9.2028308">
    <ele>505</ele>
    <time>2007-06-29T14:43:22Z</time>
    </trkpt>
    <trkpt lat="48.4592128" lon="9.2027235">
    <ele>506</ele>
    <time>2007-06-29T14:43:35Z</time>
    </trkpt>
    <trkpt lat="48.4594488" lon="9.2026377">
    <ele>506</ele>
    <time>2007-06-29T14:43:48Z</time>
    </trkpt>
    <trkpt lat="48.4605217" lon="9.2019725">
    <ele>511</ele>
    <time>2007-06-29T14:44:12Z</time>
    </trkpt>
    <trkpt lat="48.4615946" lon="9.2012429">
    <ele>519</ele>
    <time>2007-06-29T14:44:40Z</time>
    </trkpt>
    <trkpt lat="48.4620023" lon="9.2009425">
    <ele>521</ele>
    <time>2007-06-29T14:44:54Z</time>
    </trkpt>
    <trkpt lat="48.4620237" lon="9.2009425">
    <ele>522</ele>
    <time>2007-06-29T14:45:07Z</time>
    </trkpt>
    <trkpt lat="48.4620237" lon="9.2009425">
    <ele>524</ele>
    <time>2007-06-29T14:46:29Z</time>
    </trkpt>
    <trkpt lat="48.4619379" lon="9.2003417">
    <ele>523</ele>
    <time>2007-06-29T14:46:38Z</time>
    </trkpt>
    <trkpt lat="48.4618521" lon="9.1997623">
    <ele>521</ele>
    <time>2007-06-29T14:46:46Z</time>
    </trkpt>
    <trkpt lat="48.4621954" lon="9.1995907">
    <ele>521</ele>
    <time>2007-06-29T14:50:30Z</time>
    </trkpt>
    <trkpt lat="48.462882" lon="9.1991186">
    <ele>514</ele>
    <time>2007-06-29T14:50:46Z</time>
    </trkpt>
    <trkpt lat="48.463161" lon="9.1989255">
    <ele>513</ele>
    <time>2007-06-29T14:50:53Z</time>
    </trkpt>
    <trkpt lat="48.4632897" lon="9.1987967">
    <ele>513</ele>
    <time>2007-06-29T14:50:56Z</time>
    </trkpt>
    <trkpt lat="48.4634185" lon="9.1986036">
    <ele>512</ele>
    <time>2007-06-29T14:51:00Z</time>
    </trkpt>
    <trkpt lat="48.4635258" lon="9.1983461">
    <ele>512</ele>
    <time>2007-06-29T14:51:04Z</time>
    </trkpt>
    <trkpt lat="48.4638047" lon="9.1979384">
    <ele>512</ele>
    <time>2007-06-29T14:51:11Z</time>
    </trkpt>
    <trkpt lat="48.4648132" lon="9.1965222">
    <ele>512</ele>
    <time>2007-06-29T14:51:47Z</time>
    </trkpt>
    <trkpt lat="48.4650064" lon="9.1963077">
    <ele>512</ele>
    <time>2007-06-29T14:52:00Z</time>
    </trkpt>
    <trkpt lat="48.4651995" lon="9.1960502">
    <ele>510</ele>
    <time>2007-06-29T14:52:09Z</time>
    </trkpt>
    <trkpt lat="48.4656072" lon="9.1959858">
    <ele>510</ele>
    <time>2007-06-29T14:52:23Z</time>
    </trkpt>
    <trkpt lat="48.4664655" lon="9.1962004">
    <ele>510</ele>
    <time>2007-06-29T14:52:49Z</time>
    </trkpt>
    <trkpt lat="48.4667411" lon="9.1969939">
    <ele>503</ele>
    <time>2007-06-29T14:53:10Z</time>
    </trkpt>
    <trkpt lat="48.4669657" lon="9.1971638">
    <ele>504</ele>
    <time>2007-06-29T14:53:17Z</time>
    </trkpt>
    <trkpt lat="48.4673709" lon="9.1968611">
    <ele>498</ele>
    <time>2007-06-29T14:53:56Z</time>
    </trkpt>
    <trkpt lat="48.4672165" lon="9.1961145">
    <ele>487</ele>
    <time>2007-06-29T14:55:04Z</time>
    </trkpt>
    <trkpt lat="48.4671493" lon="9.1949332">
    <ele>491</ele>
    <time>2007-06-29T14:55:27Z</time>
    </trkpt>
    <trkpt lat="48.467397" lon="9.1946975">
    <ele>500</ele>
    <time>2007-06-29T14:56:16Z</time>
    </trkpt>
    <trkpt lat="48.4684503" lon="9.1966962">
    <ele>500</ele>
    <time>2007-06-29T14:56:18Z</time>
    </trkpt>
    <trkpt lat="48.4692335" lon="9.1982174">
    <ele>500</ele>
    <time>2007-06-29T14:56:25Z</time>
    </trkpt>
    <trkpt lat="48.4694266" lon="9.1980457">
    <ele>470</ele>
    <time>2007-06-29T14:56:28Z</time>
    </trkpt>
    <trkpt lat="48.4695983" lon="9.1978526">
    <ele>453</ele>
    <time>2007-06-29T14:56:32Z</time>
    </trkpt>
    <trkpt lat="48.4695768" lon="9.1967797">
    <ele>450</ele>
    <time>2007-06-29T14:57:06Z</time>
    </trkpt>
    <trkpt lat="48.4685452" lon="9.1937553">
    <ele>460</ele>
    <time>2007-06-29T15:00:36Z</time>
    </trkpt>
    <trkpt lat="48.4683894" lon="9.1928081">
    <ele>471</ele>
    <time>2007-06-29T15:01:45Z</time>
    </trkpt>
    <trkpt lat="48.4680523" lon="9.1927392">
    <ele>471</ele>
    <time>2007-06-29T15:02:05Z</time>
    </trkpt>
    <trkpt lat="48.4677744" lon="9.1924024">
    <ele>472</ele>
    <time>2007-06-29T15:03:41Z</time>
    </trkpt>
    <trkpt lat="48.4678173" lon="9.1922307">
    <ele>472</ele>
    <time>2007-06-29T15:03:44Z</time>
    </trkpt>
    <trkpt lat="48.468167" lon="9.1913873">
    <ele>471</ele>
    <time>2007-06-29T15:03:57Z</time>
    </trkpt>
    <trkpt lat="48.4687235467399" lon="9.19083945171525">
    <ele>463</ele>
    <time>2007-06-29T15:04:18Z</time>
    </trkpt>
    <trkpt lat="48.470337439105" lon="9.18954317018422">
    <ele>460</ele>
    <time>2007-06-29T15:07:45Z</time>
    </trkpt>
    <trkpt lat="48.4695949680016" lon="9.18755075833135">
    <ele>532</ele>
    <time>2007-06-29T15:24:05Z</time>
    </trkpt>
    <trkpt lat="48.4697937" lon="9.1864911">
    <ele>464</ele>
    <time>2007-06-29T15:26:46Z</time>
    </trkpt>
    <trkpt lat="48.4691891" lon="9.1850014">
    <ele>460</ele>
    <time>2007-06-29T15:27:16Z</time>
    </trkpt>
    <trkpt lat="48.4689331" lon="9.184227">
    <ele>460</ele>
    <time>2007-06-29T15:27:32Z</time>
    </trkpt>
    <trkpt lat="48.4688258" lon="9.1833472">
    <ele>462</ele>
    <time>2007-06-29T15:27:46Z</time>
    </trkpt>
    <trkpt lat="48.4688473" lon="9.1833258">
    <ele>463</ele>
    <time>2007-06-29T15:29:04Z</time>
    </trkpt>
    <trkpt lat="48.4693408" lon="9.1828752">
    <ele>463</ele>
    <time>2007-06-29T15:29:16Z</time>
    </trkpt>
    <trkpt lat="48.4713534" lon="9.1812225">
    <ele>463</ele>
    <time>2007-06-29T15:29:30Z</time>
    </trkpt>
    <trkpt lat="48.4714886" lon="9.1810201">
    <ele>463</ele>
    <time>2007-06-29T15:29:56Z</time>
    </trkpt>
    <trkpt lat="48.4719801" lon="9.1806221">
    <ele>457</ele>
    <time>2007-06-29T15:30:10Z</time>
    </trkpt>
    <trkpt lat="48.4728168" lon="9.1799091">
    <ele>457</ele>
    <time>2007-06-29T15:30:27Z</time>
    </trkpt>
    <trkpt lat="48.4732897" lon="9.1794036">
    <ele>457</ele>
    <time>2007-06-29T15:30:36Z</time>
    </trkpt>
    <trkpt lat="48.473568" lon="9.1795492">
    <ele>456</ele>
    <time>2007-06-29T15:30:40Z</time>
    </trkpt>
    <trkpt lat="48.473568" lon="9.1795492">
    <ele>455</ele>
    <time>2007-06-29T15:30:48Z</time>
    </trkpt>
    <trkpt lat="48.4741676" lon="9.1787305">
    <ele>446</ele>
    <time>2007-06-29T15:31:03Z</time>
    </trkpt>
    <trkpt lat="48.4678567" lon="9.1744485">
    <ele>441</ele>
    <time>2007-06-29T15:31:11Z</time>
    </trkpt>
    <trkpt lat="48.4683079" lon="9.173402">
    <ele>407</ele>
    <time>2007-06-29T15:33:03Z</time>
    </trkpt>
    <trkpt lat="48.4676588" lon="9.171439">
    <ele>408</ele>
    <time>2007-06-29T15:33:12Z</time>
    </trkpt>
    <trkpt lat="48.4698199" lon="9.169553">
    <ele>410</ele>
    <time>2007-06-29T15:33:35Z</time>
    </trkpt>
    <trkpt lat="48.4698893" lon="9.1682347">
    <ele>410</ele>
    <time>2007-06-29T15:33:47Z</time>
    </trkpt>
    <trkpt lat="48.4708798" lon="9.1673927">
    <ele>424</ele>
    <time>2007-06-29T15:33:54Z</time>
    </trkpt>
    <trkpt lat="48.4708807" lon="9.1667165">
    <ele>409</ele>
    <time>2007-06-29T15:34:02Z</time>
    </trkpt>
    <trkpt lat="48.4704957176279" lon="9.16486325335477">
    <time>2007-06-29T15:34:13Z</time>
    </trkpt>
    <trkpt lat="48.4695818" lon="9.1631961">
    <ele>407</ele>
    <time>2007-06-29T15:34:24Z</time>
    </trkpt>
    <trkpt lat="48.4700779" lon="9.1621834">
    <ele>404</ele>
    <time>2007-06-29T15:34:33Z</time>
    </trkpt>
    <trkpt lat="48.4707099" lon="9.1603936">
    <ele>412</ele>
    <time>2007-06-29T15:34:40Z</time>
    </trkpt>
    <trkpt lat="48.4707099" lon="9.1603936">
    <ele>431</ele>
    <time>2007-06-29T15:52:37Z</time>
    </trkpt>
    <trkpt lat="48.4697613574567" lon="9.15672138554176">
    <time>2007-06-29T15:52:48Z</time>
    </trkpt>
    <trkpt lat="48.4683323" lon="9.1531134">
    <ele>431</ele>
    <time>2007-06-29T15:52:59Z</time>
    </trkpt>
    <trkpt lat="48.4683323" lon="9.152534">
    <ele>431</ele>
    <time>2007-06-29T15:53:03Z</time>
    </trkpt>
    <trkpt lat="48.4683968622043" lon="9.15172509807254">
    <time>2007-06-29T15:53:26Z</time>
    </trkpt>
    <trkpt lat="48.4673023" lon="9.1508603">
    <ele>438</ele>
    <time>2007-06-29T15:54:06Z</time>
    </trkpt>
    <trkpt lat="48.4672165" lon="9.1506028">
    <ele>452</ele>
    <time>2007-06-29T15:54:27Z</time>
    </trkpt>
    <trkpt lat="48.4671736" lon="9.1506243">
    <ele>446</ele>
    <time>2007-06-29T15:56:23Z</time>
    </trkpt>
    <trkpt lat="48.466444" lon="9.1494226">
    <ele>455</ele>
    <time>2007-06-29T15:57:10Z</time>
    </trkpt>
    <trkpt lat="48.466444" lon="9.1482639">
    <ele>455</ele>
    <time>2007-06-29T15:57:25Z</time>
    </trkpt>
    <trkpt lat="48.4668517" lon="9.1485214">
    <ele>455</ele>
    <time>2007-06-29T15:57:37Z</time>
    </trkpt>
    <trkpt lat="48.4673680484866" lon="9.14864489144116">
    <time>2007-06-29T15:58:31Z</time>
    </trkpt>
    <trkpt lat="48.4678258563769" lon="9.14806744238991">
    <ele>471</ele>
    <time>2007-06-29T15:59:25Z</time>
    </trkpt>
    <trkpt lat="48.467036336427" lon="9.14466483035949">
    <ele>471</ele>
    <time>2007-06-29T15:59:49Z</time>
    </trkpt>
    <trkpt lat="48.4663034" lon="9.1433073">
    <ele>459</ele>
    <time>2007-06-29T16:00:10Z</time>
    </trkpt>
    <trkpt lat="48.4659002" lon="9.1421568">
    <ele>478</ele>
    <time>2007-06-29T16:00:58Z</time>
    </trkpt>
    <trkpt lat="48.465564" lon="9.1412769">
    <ele>482</ele>
    <time>2007-06-29T16:02:16Z</time>
    </trkpt>
    <trkpt lat="48.4652722" lon="9.1408704">
    <ele>482</ele>
    <time>2007-06-29T16:02:30Z</time>
    </trkpt>
    <trkpt lat="48.4634991" lon="9.1384654">
    <ele>485</ele>
    <time>2007-06-29T16:02:53Z</time>
    </trkpt>
    <trkpt lat="48.4635676" lon="9.1375866">
    <ele>477</ele>
    <time>2007-06-29T16:03:24Z</time>
    </trkpt>
    <trkpt lat="48.4626258" lon="9.135522">
    <ele>481</ele>
    <time>2007-06-29T16:03:34Z</time>
    </trkpt>
    <trkpt lat="48.4624463" lon="9.1351835">
    <ele>505</ele>
    <time>2007-06-29T16:09:17Z</time>
    </trkpt>
    <trkpt lat="48.461706" lon="9.1338294">
    <ele>525</ele>
    <time>2007-06-29T16:09:27Z</time>
    </trkpt>
    <trkpt lat="48.4612572" lon="9.1330846">
    <ele>540</ele>
    <time>2007-06-29T16:13:41Z</time>
    </trkpt>
    <trkpt lat="48.4608865" lon="9.1312051">
    <ele>539</ele>
    <time>2007-06-29T16:13:47Z</time>
    </trkpt>
    <trkpt lat="48.460865" lon="9.1298532">
    <ele>534</ele>
    <time>2007-06-29T16:13:55Z</time>
    </trkpt>
    <trkpt lat="48.4609294" lon="9.1291666">
    <ele>527</ele>
    <time>2007-06-29T16:14:08Z</time>
    </trkpt>
    <trkpt lat="48.4609509" lon="9.1292095">
    <ele>507</ele>
    <time>2007-06-29T16:15:41Z</time>
    </trkpt>
    <trkpt lat="48.4609079" lon="9.1292095">
    <ele>507</ele>
    <time>2007-06-29T16:15:46Z</time>
    </trkpt>
    <trkpt lat="48.4591107782206" lon="9.12907522515015">
    <ele>509</ele>
    <time>2007-06-29T16:16:05Z</time>
    </trkpt>
    <trkpt lat="48.4569992977741" lon="9.12741365267341">
    <ele>506</ele>
    <time>2007-06-29T16:17:02Z</time>
    </trkpt>
    <trkpt lat="48.4562945" lon="9.1275573">
    <ele>502</ele>
    <time>2007-06-29T16:17:07Z</time>
    </trkpt>
    <trkpt lat="48.4545927259554" lon="9.12828639992613">
    <ele>468</ele>
    <time>2007-06-29T16:20:28Z</time>
    </trkpt>
    <trkpt lat="48.4542561" lon="9.1275144">
    <ele>464</ele>
    <time>2007-06-29T16:20:43Z</time>
    </trkpt>
    <trkpt lat="48.4541273" lon="9.127214">
    <ele>463</ele>
    <time>2007-06-29T16:20:47Z</time>
    </trkpt>
    <trkpt lat="48.453942538929" lon="9.12666243995213">
    <ele>461</ele>
    <time>2007-06-29T16:20:54Z</time>
    </trkpt>
    <trkpt lat="48.4542133631255" lon="9.1257167540648">
    <ele>459</ele>
    <time>2007-06-29T16:21:04Z</time>
    </trkpt>
    <trkpt lat="48.4545994" lon="9.1247463">
    <ele>457</ele>
    <time>2007-06-29T16:21:27Z</time>
    </trkpt>
    <trkpt lat="48.4544706" lon="9.124639">
    <ele>474</ele>
    <time>2007-06-29T16:25:37Z</time>
    </trkpt>
    <trkpt lat="48.4538698" lon="9.1245317">
    <ele>473</ele>
    <time>2007-06-29T16:25:49Z</time>
    </trkpt>
    <trkpt lat="48.4538484" lon="9.1245103">
    <ele>472</ele>
    <time>2007-06-29T16:26:14Z</time>
    </trkpt>
    <trkpt lat="48.4537625" lon="9.1244459">
    <ele>474</ele>
    <time>2007-06-29T16:27:11Z</time>
    </trkpt>
    <trkpt lat="48.453784" lon="9.1241241">
    <ele>473</ele>
    <time>2007-06-29T16:27:16Z</time>
    </trkpt>
    <trkpt lat="48.4536982" lon="9.1236949">
    <ele>472</ele>
    <time>2007-06-29T16:27:20Z</time>
    </trkpt>
    <trkpt lat="48.4533179324429" lon="9.12213195974949">
    <ele>468</ele>
    <time>2007-06-29T16:27:40Z</time>
    </trkpt>
    <trkpt lat="48.453269" lon="9.1212487">
    <ele>456</ele>
    <time>2007-06-29T16:28:52Z</time>
    </trkpt>
    <trkpt lat="48.4535694" lon="9.1199398">
    <ele>453</ele>
    <time>2007-06-29T16:29:05Z</time>
    </trkpt>
    <trkpt lat="48.4543633" lon="9.1181374">
    <ele>447</ele>
    <time>2007-06-29T16:29:23Z</time>
    </trkpt>
    <trkpt lat="48.4545565" lon="9.117558">
    <ele>446</ele>
    <time>2007-06-29T16:29:28Z</time>
    </trkpt>
    <trkpt lat="48.4547496" lon="9.1155624">
    <ele>445</ele>
    <time>2007-06-29T16:29:44Z</time>
    </trkpt>
    <trkpt lat="48.4546423" lon="9.1144252">
    <ele>446</ele>
    <time>2007-06-29T16:29:54Z</time>
    </trkpt>
    <trkpt lat="48.4543204" lon="9.1129446">
    <ele>446</ele>
    <time>2007-06-29T16:30:08Z</time>
    </trkpt>
    <trkpt lat="48.4542775" lon="9.1127944">
    <ele>446</ele>
    <time>2007-06-29T16:30:10Z</time>
    </trkpt>
    <trkpt lat="48.4541488" lon="9.112494">
    <ele>446</ele>
    <time>2007-06-29T16:30:16Z</time>
    </trkpt>
    <trkpt lat="48.453269" lon="9.1090178">
    <ele>442</ele>
    <time>2007-06-29T16:30:43Z</time>
    </trkpt>
    <trkpt lat="48.4531832" lon="9.1089749">
    <ele>442</ele>
    <time>2007-06-29T16:30:49Z</time>
    </trkpt>
    <trkpt lat="48.453033" lon="9.1090393">
    <ele>435</ele>
    <time>2007-06-29T16:34:31Z</time>
    </trkpt>
    <trkpt lat="48.4528399" lon="9.1091251">
    <ele>435</ele>
    <time>2007-06-29T16:34:40Z</time>
    </trkpt>
    <trkpt lat="48.4526467" lon="9.1092324">
    <ele>436</ele>
    <time>2007-06-29T16:34:45Z</time>
    </trkpt>
    <trkpt lat="48.452239" lon="9.1091681">
    <ele>437</ele>
    <time>2007-06-29T16:34:52Z</time>
    </trkpt>
    <trkpt lat="48.4518743" lon="9.1088033">
    <ele>438</ele>
    <time>2007-06-29T16:34:59Z</time>
    </trkpt>
    <trkpt lat="48.4516811" lon="9.1084385">
    <ele>438</ele>
    <time>2007-06-29T16:35:09Z</time>
    </trkpt>
    <trkpt lat="48.4515524" lon="9.1082883">
    <ele>440</ele>
    <time>2007-06-29T16:36:26Z</time>
    </trkpt>
    <trkpt lat="48.4509945" lon="9.1073871">
    <ele>440</ele>
    <time>2007-06-29T16:36:37Z</time>
    </trkpt>
    <trkpt lat="48.4503293" lon="9.1062069">
    <ele>439</ele>
    <time>2007-06-29T16:36:50Z</time>
    </trkpt>
    <trkpt lat="48.4495139" lon="9.1048765">
    <ele>438</ele>
    <time>2007-06-29T16:37:05Z</time>
    </trkpt>
    <trkpt lat="48.4484196" lon="9.1030526">
    <ele>436</ele>
    <time>2007-06-29T16:37:28Z</time>
    </trkpt>
    <trkpt lat="48.4483981" lon="9.1029882">
    <ele>434</ele>
    <time>2007-06-29T16:37:33Z</time>
    </trkpt>
    <trkpt lat="48.4484625" lon="9.1029882">
    <ele>434</ele>
    <time>2007-06-29T16:40:05Z</time>
    </trkpt>
    <trkpt lat="48.4480977" lon="9.1031814">
    <ele>432</ele>
    <time>2007-06-29T16:40:13Z</time>
    </trkpt>
    <trkpt lat="48.4476256" lon="9.1034389">
    <ele>432</ele>
    <time>2007-06-29T16:40:21Z</time>
    </trkpt>
    <trkpt lat="48.4473252" lon="9.1034603">
    <ele>432</ele>
    <time>2007-06-29T16:40:25Z</time>
    </trkpt>
    <trkpt lat="48.4466386" lon="9.1032672">
    <ele>432</ele>
    <time>2007-06-29T16:40:39Z</time>
    </trkpt>
    <trkpt lat="48.4465957" lon="9.1032457">
    <ele>432</ele>
    <time>2007-06-29T16:41:36Z</time>
    </trkpt>
    <trkpt lat="48.4461236" lon="9.1029882">
    <ele>433</ele>
    <time>2007-06-29T16:41:44Z</time>
    </trkpt>
    <trkpt lat="48.4452009" lon="9.1029239">
    <ele>430</ele>
    <time>2007-06-29T16:41:56Z</time>
    </trkpt>
    <trkpt lat="48.4450507" lon="9.1029668">
    <ele>430</ele>
    <time>2007-06-29T16:41:58Z</time>
    </trkpt>
    <trkpt lat="48.4436131" lon="9.1035676">
    <ele>432</ele>
    <time>2007-06-29T16:42:14Z</time>
    </trkpt>
    <trkpt lat="48.4431839" lon="9.1037393">
    <ele>434</ele>
    <time>2007-06-29T16:42:22Z</time>
    </trkpt>
    <trkpt lat="48.4429049" lon="9.1038251">
    <ele>435</ele>
    <time>2007-06-29T16:42:30Z</time>
    </trkpt>
    <trkpt lat="48.4429264" lon="9.1038465">
    <ele>437</ele>
    <time>2007-06-29T16:43:18Z</time>
    </trkpt>
    <trkpt lat="48.4422827" lon="9.104147">
    <ele>440</ele>
    <time>2007-06-29T16:43:27Z</time>
    </trkpt>
    <trkpt lat="48.4408879" lon="9.1049409">
    <ele>443</ele>
    <time>2007-06-29T16:43:41Z</time>
    </trkpt>
    <trkpt lat="48.4393001" lon="9.1055846">
    <ele>451</ele>
    <time>2007-06-29T16:43:53Z</time>
    </trkpt>
    <trkpt lat="48.4381284" lon="9.1061966">
    <ele>454</ele>
    <time>2007-06-29T16:43:58Z</time>
    </trkpt>
    <trkpt lat="48.4374516" lon="9.1086278">
    <ele>455</ele>
    <time>2007-06-29T16:44:02Z</time>
    </trkpt>
    <trkpt lat="48.4358306" lon="9.1110908">
    <ele>456</ele>
    <time>2007-06-29T16:44:10Z</time>
    </trkpt>
    <trkpt lat="48.4358306" lon="9.1110908">
    <ele>511</ele>
    <time>2007-06-29T16:50:29Z</time>
    </trkpt>
    <trkpt lat="48.4349079" lon="9.1119672">
    <ele>511</ele>
    <time>2007-06-29T16:50:42Z</time>
    </trkpt>
    <trkpt lat="48.4346827" lon="9.1124059">
    <ele>511</ele>
    <time>2007-06-29T16:50:45Z</time>
    </trkpt>
    <trkpt lat="48.4350414" lon="9.1134541">
    <ele>511</ele>
    <time>2007-06-29T16:50:49Z</time>
    </trkpt>
    <trkpt lat="48.4349955" lon="9.1143324">
    <ele>511</ele>
    <time>2007-06-29T16:50:53Z</time>
    </trkpt>
    <trkpt lat="48.4346349" lon="9.1152438">
    <ele>507</ele>
    <time>2007-06-29T16:50:57Z</time>
    </trkpt>
    <trkpt lat="48.4337571" lon="9.1162216">
    <ele>507</ele>
    <time>2007-06-29T16:51:02Z</time>
    </trkpt>
    <trkpt lat="48.433239" lon="9.1172339">
    <ele>507</ele>
    <time>2007-06-29T16:51:04Z</time>
    </trkpt>
    <trkpt lat="48.433014" lon="9.1174361">
    <ele>507</ele>
    <time>2007-06-29T16:54:47Z</time>
    </trkpt>
    <trkpt lat="48.4325044897863" lon="9.11714958460566">
    <ele>501</ele>
    <time>2007-06-29T16:54:50Z</time>
    </trkpt>
    <trkpt lat="48.4325704137579" lon="9.11863624080555">
    <time>2007-06-29T16:54:51Z</time>
    </trkpt>
    <trkpt lat="48.4321547" lon="9.1203046">
    <ele>557</ele>
    <time>2007-06-29T16:54:52Z</time>
    </trkpt>
    <trkpt lat="48.4321547" lon="9.1203475">
    <ele>535</ele>
    <time>2007-06-29T16:55:12Z</time>
    </trkpt>
    <trkpt lat="48.4319547" lon="9.1199675">
    <ele>552</ele>
    <time>2007-06-29T16:59:36Z</time>
    </trkpt>
    <trkpt lat="48.4320530418735" lon="9.11890530722761">
    <ele>552</ele>
    <time>2007-06-29T16:59:52Z</time>
    </trkpt>
    <trkpt lat="48.430998963766" lon="9.11636911129844">
    <time>2007-06-29T16:59:58Z</time>
    </trkpt>
    <trkpt lat="48.429846" lon="9.1153681">
    <ele>552</ele>
    <time>2007-06-29T17:00:05Z</time>
    </trkpt>
    <trkpt lat="48.4286099" lon="9.1149599">
    <ele>552</ele>
    <time>2007-06-29T17:00:18Z</time>
    </trkpt>
    <trkpt lat="48.4284747" lon="9.1152637">
    <ele>601</ele>
    <time>2007-06-29T17:03:15Z</time>
    </trkpt>
    <trkpt lat="48.4271239" lon="9.1171523">
    <ele>594</ele>
    <time>2007-06-29T17:03:23Z</time>
    </trkpt>
    <trkpt lat="48.4266503" lon="9.1185362">
    <ele>595</ele>
    <time>2007-06-29T17:03:24Z</time>
    </trkpt>
    <trkpt lat="48.4256460698467" lon="9.11841744656794">
    <time>2007-06-29T17:03:36Z</time>
    </trkpt>
    <trkpt lat="48.4245603" lon="9.1177544">
    <ele>602</ele>
    <time>2007-06-29T17:03:48Z</time>
    </trkpt>
    <trkpt lat="48.4228787" lon="9.1131906">
    <ele>601</ele>
    <time>2007-06-29T17:04:16Z</time>
    </trkpt>
    <trkpt lat="48.4212023965144" lon="9.11053716239117">
    <ele>599</ele>
    <time>2007-06-29T17:04:23Z</time>
    </trkpt>
    <trkpt lat="48.4202359792943" lon="9.11019730687308">
    <time>2007-06-29T22:53:50Z</time>
    </trkpt>
    <trkpt lat="48.4194303" lon="9.1104341">
    <ele>583</ele>
    <time>2007-06-30T04:43:17Z</time>
    </trkpt>
    <trkpt lat="48.4190655" lon="9.1105843">
    <ele>582</ele>
    <time>2007-06-30T04:43:26Z</time>
    </trkpt>
    <trkpt lat="48.4189582" lon="9.1106057">
    <ele>582</ele>
    <time>2007-06-30T04:43:28Z</time>
    </trkpt>
    <trkpt lat="48.4188509" lon="9.1108203">
    <ele>583</ele>
    <time>2007-06-30T04:43:33Z</time>
    </trkpt>
    <trkpt lat="48.4188938" lon="9.1108203">
    <ele>586</ele>
    <time>2007-06-30T04:43:44Z</time>
    </trkpt>
    <trkpt lat="48.4188509" lon="9.1106701">
    <ele>586</ele>
    <time>2007-06-30T04:43:52Z</time>
    </trkpt>
    <trkpt lat="48.4188509" lon="9.1106486">
    <ele>585</ele>
    <time>2007-06-30T04:43:54Z</time>
    </trkpt>
    <trkpt lat="48.4188938" lon="9.1108203">
    <ele>585</ele>
    <time>2007-06-30T04:44:10Z</time>
    </trkpt>
    <trkpt lat="48.4188938" lon="9.1108203">
    <ele>585</ele>
    <time>2007-06-30T04:44:39Z</time>
    </trkpt>
    <trkpt lat="48.4187651" lon="9.1113138">
    <ele>583</ele>
    <time>2007-06-30T04:44:48Z</time>
    </trkpt>
    <trkpt lat="48.4185076" lon="9.1121292">
    <ele>581</ele>
    <time>2007-06-30T04:45:02Z</time>
    </trkpt>
    <trkpt lat="48.4185076" lon="9.112215">
    <ele>581</ele>
    <time>2007-06-30T04:45:05Z</time>
    </trkpt>
    <trkpt lat="48.4186149" lon="9.1124082">
    <ele>583</ele>
    <time>2007-06-30T04:45:14Z</time>
    </trkpt>
    <trkpt lat="48.4186149" lon="9.1124082">
    <ele>583</ele>
    <time>2007-06-30T04:45:15Z</time>
    </trkpt>
    <trkpt lat="48.4185505" lon="9.1123009">
    <ele>582</ele>
    <time>2007-06-30T04:45:24Z</time>
    </trkpt>
    <trkpt lat="48.418529" lon="9.1122794">
    <ele>582</ele>
    <time>2007-06-30T04:45:26Z</time>
    </trkpt>
    <trkpt lat="48.4183788" lon="9.1121936">
    <ele>585</ele>
    <time>2007-06-30T04:45:40Z</time>
    </trkpt>
    <trkpt lat="48.4184217" lon="9.1122365">
    <ele>585</ele>
    <time>2007-06-30T04:45:43Z</time>
    </trkpt>
    <trkpt lat="48.4185076" lon="9.1123009">
    <ele>587</ele>
    <time>2007-06-30T04:45:55Z</time>
    </trkpt>
    <trkpt lat="48.4185505" lon="9.1123438">
    <ele>589</ele>
    <time>2007-06-30T04:47:16Z</time>
    </trkpt>
    <trkpt lat="48.4190011" lon="9.1129661">
    <ele>592</ele>
    <time>2007-06-30T04:47:27Z</time>
    </trkpt>
    <trkpt lat="48.419044" lon="9.1130519">
    <ele>593</ele>
    <time>2007-06-30T04:47:28Z</time>
    </trkpt>
    <trkpt lat="48.4198809" lon="9.1138029">
    <ele>602</ele>
    <time>2007-06-30T04:47:42Z</time>
    </trkpt>
    <trkpt lat="48.4202027" lon="9.1140389">
    <ele>603</ele>
    <time>2007-06-30T04:47:47Z</time>
    </trkpt>
    <trkpt lat="48.420825" lon="9.114747">
    <ele>610</ele>
    <time>2007-06-30T04:47:58Z</time>
    </trkpt>
    <trkpt lat="48.4209967" lon="9.1151547">
    <ele>613</ele>
    <time>2007-06-30T04:48:07Z</time>
    </trkpt>
    <trkpt lat="48.421061" lon="9.1152191">
    <ele>615</ele>
    <time>2007-06-30T04:48:20Z</time>
    </trkpt>
    <trkpt lat="48.4210181" lon="9.1152406">
    <ele>620</ele>
    <time>2007-06-30T04:50:52Z</time>
    </trkpt>
    <trkpt lat="48.4210825" lon="9.1154337">
    <ele>619</ele>
    <time>2007-06-30T04:51:06Z</time>
    </trkpt>
    <trkpt lat="48.4212542" lon="9.115777">
    <ele>624</ele>
    <time>2007-06-30T04:52:41Z</time>
    </trkpt>
    <trkpt lat="48.4212971" lon="9.1158843">
    <ele>624</ele>
    <time>2007-06-30T04:52:43Z</time>
    </trkpt>
    <trkpt lat="48.4217906" lon="9.1174936">
    <ele>631</ele>
    <time>2007-06-30T04:53:05Z</time>
    </trkpt>
    <trkpt lat="48.4225202" lon="9.1195965">
    <ele>635</ele>
    <time>2007-06-30T04:53:55Z</time>
    </trkpt>
    <trkpt lat="48.4226489" lon="9.1197896">
    <ele>639</ele>
    <time>2007-06-30T04:54:41Z</time>
    </trkpt>
    <trkpt lat="48.4226704" lon="9.1198754">
    <ele>639</ele>
    <time>2007-06-30T04:54:42Z</time>
    </trkpt>
    <trkpt lat="48.4232497" lon="9.1220212">
    <ele>641</ele>
    <time>2007-06-30T04:55:09Z</time>
    </trkpt>
    <trkpt lat="48.4235733088805" lon="9.12260113260936">
    <ele>641</ele>
    <time>2007-06-30T04:55:23Z</time>
    </trkpt>
    <trkpt lat="48.4234858" lon="9.1230297">
    <ele>641</ele>
    <time>2007-06-30T04:55:27Z</time>
    </trkpt>
    <trkpt lat="48.4233141" lon="9.1225791">
    <ele>644</ele>
    <time>2007-06-30T04:55:38Z</time>
    </trkpt>
    <trkpt lat="48.4230566" lon="9.1222572">
    <ele>643</ele>
    <time>2007-06-30T04:56:34Z</time>
    </trkpt>
    <trkpt lat="48.4229708" lon="9.1221499">
    <ele>643</ele>
    <time>2007-06-30T04:56:38Z</time>
    </trkpt>
    <trkpt lat="48.4218335" lon="9.12112">
    <ele>644</ele>
    <time>2007-06-30T04:56:42Z</time>
    </trkpt>
    <trkpt lat="48.4210349107018" lon="9.12060221158173">
    <ele>654</ele>
    <time>2007-06-30T04:57:07Z</time>
    </trkpt>
    <trkpt lat="48.4199786645277" lon="9.12019440278686">
    <ele>662</ele>
    <time>2007-06-30T04:57:15Z</time>
    </trkpt>
    <trkpt lat="48.4187865" lon="9.1208625">
    <ele>673</ele>
    <time>2007-06-30T04:57:38Z</time>
    </trkpt>
    <trkpt lat="48.4186363" lon="9.1209269">
    <ele>673</ele>
    <time>2007-06-30T04:57:41Z</time>
    </trkpt>
    <trkpt lat="48.4184217" lon="9.1210556">
    <ele>673</ele>
    <time>2007-06-30T04:57:46Z</time>
    </trkpt>
    <trkpt lat="48.4174352685762" lon="9.12292411473945">
    <ele>673</ele>
    <time>2007-06-30T04:58:23Z</time>
    </trkpt>
    <trkpt lat="48.416398677268" lon="9.12515066554933">
    <ele>673</ele>
    <time>2007-06-30T04:58:51Z</time>
    </trkpt>
    <trkpt lat="48.4162974" lon="9.1270208">
    <ele>675</ele>
    <time>2007-06-30T04:59:14Z</time>
    </trkpt>
    <trkpt lat="48.4164906" lon="9.1273212">
    <ele>677</ele>
    <time>2007-06-30T04:59:18Z</time>
    </trkpt>
    <trkpt lat="48.4173703" lon="9.1283941">
    <ele>680</ele>
    <time>2007-06-30T04:59:38Z</time>
    </trkpt>
    <trkpt lat="48.4175182396029" lon="9.12927386875408">
    <ele>680</ele>
    <time>2007-06-30T04:59:54Z</time>
    </trkpt>
    <trkpt lat="48.4173703" lon="9.1296387">
    <ele>710</ele>
    <time>2007-06-30T05:02:05Z</time>
    </trkpt>
    <trkpt lat="48.4161687" lon="9.1309476">
    <ele>708</ele>
    <time>2007-06-30T05:02:28Z</time>
    </trkpt>
    <trkpt lat="48.4147954" lon="9.1325998">
    <ele>702</ele>
    <time>2007-06-30T05:03:00Z</time>
    </trkpt>
    <trkpt lat="48.4130144" lon="9.1345525">
    <ele>698</ele>
    <time>2007-06-30T05:03:41Z</time>
    </trkpt>
    <trkpt lat="48.4128774022505" lon="9.13743472254074">
    <ele>698</ele>
    <time>2007-06-30T05:03:52Z</time>
    </trkpt>
    <trkpt lat="48.4121556514003" lon="9.13935770587792">
    <ele>694</ele>
    <time>2007-06-30T05:04:42Z</time>
    </trkpt>
    <trkpt lat="48.4123063" lon="9.1405392">
    <ele>688</ele>
    <time>2007-06-30T05:04:51Z</time>
    </trkpt>
    <trkpt lat="48.4123063" lon="9.1408181">
    <ele>688</ele>
    <time>2007-06-30T05:04:55Z</time>
    </trkpt>
    <trkpt lat="48.4122205" lon="9.1410756">
    <ele>689</ele>
    <time>2007-06-30T05:04:59Z</time>
    </trkpt>
    <trkpt lat="48.411963" lon="9.1415477">
    <ele>689</ele>
    <time>2007-06-30T05:05:08Z</time>
    </trkpt>
    <trkpt lat="48.4112978" lon="9.1424274">
    <ele>689</ele>
    <time>2007-06-30T05:05:25Z</time>
    </trkpt>
    <trkpt lat="48.4110618" lon="9.1423631">
    <ele>689</ele>
    <time>2007-06-30T05:05:35Z</time>
    </trkpt>
    <trkpt lat="48.4110618" lon="9.1423202">
    <ele>662</ele>
    <time>2007-06-30T05:08:11Z</time>
    </trkpt>
    <trkpt lat="48.4109974" lon="9.1422772">
    <ele>661</ele>
    <time>2007-06-30T05:08:16Z</time>
    </trkpt>
    <trkpt lat="48.4108586" lon="9.1459544">
    <ele>661</ele>
    <time>2007-06-30T05:09:05Z</time>
    </trkpt>
    <trkpt lat="48.4109254" lon="9.1465287">
    <ele>683</ele>
    <time>2007-06-30T05:09:12Z</time>
    </trkpt>
    <trkpt lat="48.4109246" lon="9.1471365">
    <ele>664</ele>
    <time>2007-06-30T05:12:19Z</time>
    </trkpt>
    <trkpt lat="48.4114695" lon="9.1483068">
    <ele>662</ele>
    <time>2007-06-30T05:12:44Z</time>
    </trkpt>
    <trkpt lat="48.4118557" lon="9.1496587">
    <ele>657</ele>
    <time>2007-06-30T05:13:01Z</time>
    </trkpt>
    <trkpt lat="48.4118772" lon="9.1497445">
    <ele>657</ele>
    <time>2007-06-30T05:13:02Z</time>
    </trkpt>
    <trkpt lat="48.4121561" lon="9.1515255">
    <ele>655</ele>
    <time>2007-06-30T05:13:25Z</time>
    </trkpt>
    <trkpt lat="48.4123707" lon="9.1515684">
    <ele>659</ele>
    <time>2007-06-30T05:15:39Z</time>
    </trkpt>
    <trkpt lat="48.4124136" lon="9.1516328">
    <ele>660</ele>
    <time>2007-06-30T05:15:48Z</time>
    </trkpt>
    <trkpt lat="48.4124351" lon="9.1518044">
    <ele>653</ele>
    <time>2007-06-30T05:17:11Z</time>
    </trkpt>
    <trkpt lat="48.4126282" lon="9.1525555">
    <ele>654</ele>
    <time>2007-06-30T05:17:27Z</time>
    </trkpt>
    <trkpt lat="48.4129246160898" lon="9.15344239105084">
    <ele>648</ele>
    <time>2007-06-30T05:18:11Z</time>
    </trkpt>
    <trkpt lat="48.4125109" lon="9.1547395">
    <ele>652</ele>
    <time>2007-06-30T05:18:43Z</time>
    </trkpt>
    <trkpt lat="48.4106869" lon="9.1568615">
    <ele>652</ele>
    <time>2007-06-30T05:19:09Z</time>
    </trkpt>
    <trkpt lat="48.4106869" lon="9.1568615">
    <ele>652</ele>
    <time>2007-06-30T05:19:26Z</time>
    </trkpt>
    <trkpt lat="48.4095455833866" lon="9.15836249138018">
    <ele>652</ele>
    <time>2007-06-30T05:19:34Z</time>
    </trkpt>
    <trkpt lat="48.4091854004728" lon="9.15869906013317">
    <ele>652</ele>
    <time>2007-06-30T05:19:37Z</time>
    </trkpt>
    <trkpt lat="48.4090877" lon="9.1606236">
    <ele>691</ele>
    <time>2007-06-30T05:20:34Z</time>
    </trkpt>
    <trkpt lat="48.4090447" lon="9.1606021">
    <ele>709</ele>
    <time>2007-06-30T05:24:31Z</time>
    </trkpt>
    <trkpt lat="48.4093022" lon="9.1623187">
    <ele>753</ele>
    <time>2007-06-30T05:26:55Z</time>
    </trkpt>
    <trkpt lat="48.4093881" lon="9.1625762">
    <ele>753</ele>
    <time>2007-06-30T05:26:59Z</time>
    </trkpt>
    <trkpt lat="48.4094739" lon="9.1626191">
    <ele>752</ele>
    <time>2007-06-30T05:27:01Z</time>
    </trkpt>
    <trkpt lat="48.4096885" lon="9.1628766">
    <ele>750</ele>
    <time>2007-06-30T05:27:08Z</time>
    </trkpt>
    <trkpt lat="48.4096885" lon="9.1631341">
    <ele>749</ele>
    <time>2007-06-30T05:27:11Z</time>
    </trkpt>
    <trkpt lat="48.409667" lon="9.1633058">
    <ele>748</ele>
    <time>2007-06-30T05:27:13Z</time>
    </trkpt>
    <trkpt lat="48.4096241" lon="9.1640139">
    <ele>746</ele>
    <time>2007-06-30T05:27:21Z</time>
    </trkpt>
    <trkpt lat="48.4091736920879" lon="9.16697235609244">
    <ele>741</ele>
    <time>2007-06-30T05:28:03Z</time>
    </trkpt>
    <trkpt lat="48.4092143559757" lon="9.16991036887214">
    <ele>740</ele>
    <time>2007-06-30T05:28:22Z</time>
    </trkpt>
    <trkpt lat="48.4090712" lon="9.1705328">
    <ele>750</ele>
    <time>2007-06-30T05:28:54Z</time>
    </trkpt>
    <trkpt lat="48.4090877" lon="9.171052">
    <ele>754</ele>
    <time>2007-06-30T05:33:40Z</time>
    </trkpt>
    <trkpt lat="48.4090018" lon="9.1729832">
    <ele>765</ele>
    <time>2007-06-30T05:36:25Z</time>
    </trkpt>
    <trkpt lat="48.4090447" lon="9.1733479">
    <ele>765</ele>
    <time>2007-06-30T05:36:36Z</time>
    </trkpt>
    <trkpt lat="48.4090662" lon="9.1733909">
    <ele>769</ele>
    <time>2007-06-30T05:37:01Z</time>
    </trkpt>
    <trkpt lat="48.4090662" lon="9.1734338">
    <ele>773</ele>
    <time>2007-06-30T05:38:53Z</time>
    </trkpt>
    <trkpt lat="48.4091091" lon="9.1733909">
    <ele>773</ele>
    <time>2007-06-30T05:39:00Z</time>
    </trkpt>
    <trkpt lat="48.4091091" lon="9.1733909">
    <ele>773</ele>
    <time>2007-06-30T05:39:01Z</time>
    </trkpt>
    <trkpt lat="48.4090877" lon="9.1734123">
    <ele>773</ele>
    <time>2007-06-30T05:39:20Z</time>
    </trkpt>
    <trkpt lat="48.4090662" lon="9.1734982">
    <ele>768</ele>
    <time>2007-06-30T05:43:39Z</time>
    </trkpt>
    <trkpt lat="48.408916" lon="9.1732836">
    <ele>770</ele>
    <time>2007-06-30T05:43:44Z</time>
    </trkpt>
    <trkpt lat="48.4088731" lon="9.1731119">
    <ele>772</ele>
    <time>2007-06-30T05:43:46Z</time>
    </trkpt>
    <trkpt lat="48.4084868" lon="9.1729832">
    <ele>774</ele>
    <time>2007-06-30T05:43:53Z</time>
    </trkpt>
    <trkpt lat="48.4082937" lon="9.1735196">
    <ele>775</ele>
    <time>2007-06-30T05:44:00Z</time>
    </trkpt>
    <trkpt lat="48.4081435" lon="9.1744637">
    <ele>775</ele>
    <time>2007-06-30T05:44:11Z</time>
    </trkpt>
    <trkpt lat="48.4074354" lon="9.1763949">
    <ele>777</ele>
    <time>2007-06-30T05:44:35Z</time>
    </trkpt>
    <trkpt lat="48.4068131" lon="9.1769958">
    <ele>779</ele>
    <time>2007-06-30T05:44:50Z</time>
    </trkpt>
    <trkpt lat="48.4067273" lon="9.1770387">
    <ele>780</ele>
    <time>2007-06-30T05:44:59Z</time>
    </trkpt>
    <trkpt lat="48.4064698" lon="9.1771674">
    <ele>784</ele>
    <time>2007-06-30T05:47:22Z</time>
    </trkpt>
    <trkpt lat="48.4057832" lon="9.1777468">
    <ele>785</ele>
    <time>2007-06-30T05:47:35Z</time>
    </trkpt>
    <trkpt lat="48.4048176" lon="9.1789913">
    <ele>783</ele>
    <time>2007-06-30T05:47:55Z</time>
    </trkpt>
    <trkpt lat="48.4044099" lon="9.1794419">
    <ele>783</ele>
    <time>2007-06-30T05:48:08Z</time>
    </trkpt>
    <trkpt lat="48.4044743" lon="9.179399">
    <ele>781</ele>
    <time>2007-06-30T05:50:28Z</time>
    </trkpt>
    <trkpt lat="48.4047747" lon="9.1800642">
    <ele>778</ele>
    <time>2007-06-30T05:50:37Z</time>
    </trkpt>
    <trkpt lat="48.4057617" lon="9.1825104">
    <ele>774</ele>
    <time>2007-06-30T05:51:00Z</time>
    </trkpt>
    <trkpt lat="48.4059763" lon="9.1827893">
    <ele>775</ele>
    <time>2007-06-30T05:51:10Z</time>
    </trkpt>
    <trkpt lat="48.4059763" lon="9.1828108">
    <ele>776</ele>
    <time>2007-06-30T05:51:36Z</time>
    </trkpt>
    <trkpt lat="48.4060621" lon="9.1828537">
    <ele>776</ele>
    <time>2007-06-30T05:52:56Z</time>
    </trkpt>
    <trkpt lat="48.4066629" lon="9.1837549">
    <ele>778</ele>
    <time>2007-06-30T05:53:09Z</time>
    </trkpt>
    <trkpt lat="48.4071994" lon="9.1845059">
    <ele>777</ele>
    <time>2007-06-30T05:53:25Z</time>
    </trkpt>
    <trkpt lat="48.4069633" lon="9.184227">
    <ele>780</ele>
    <time>2007-06-30T05:56:47Z</time>
    </trkpt>
    <trkpt lat="48.4071994" lon="9.1845059">
    <ele>783</ele>
    <time>2007-06-30T05:56:57Z</time>
    </trkpt>
    <trkpt lat="48.407414" lon="9.1846776">
    <ele>786</ele>
    <time>2007-06-30T05:57:03Z</time>
    </trkpt>
    <trkpt lat="48.4079504" lon="9.1849566">
    <ele>788</ele>
    <time>2007-06-30T05:57:17Z</time>
    </trkpt>
    <trkpt lat="48.4079289" lon="9.1849566">
    <ele>785</ele>
    <time>2007-06-30T05:57:44Z</time>
    </trkpt>
    <trkpt lat="48.4079289" lon="9.1849566">
    <ele>792</ele>
    <time>2007-06-30T05:58:47Z</time>
    </trkpt>
    <trkpt lat="48.4079504" lon="9.185214">
    <ele>790</ele>
    <time>2007-06-30T05:58:51Z</time>
    </trkpt>
    <trkpt lat="48.4080148" lon="9.1867375">
    <ele>785</ele>
    <time>2007-06-30T05:59:06Z</time>
    </trkpt>
    <trkpt lat="48.4080791" lon="9.1871023">
    <ele>780</ele>
    <time>2007-06-30T05:59:41Z</time>
    </trkpt>
    <trkpt lat="48.4081864" lon="9.1874456">
    <ele>772</ele>
    <time>2007-06-30T06:00:54Z</time>
    </trkpt>
    <trkpt lat="48.4082508" lon="9.1881108">
    <ele>773</ele>
    <time>2007-06-30T06:01:01Z</time>
    </trkpt>
    <trkpt lat="48.4082079" lon="9.1883898">
    <ele>774</ele>
    <time>2007-06-30T06:01:05Z</time>
    </trkpt>
    <trkpt lat="48.4082079" lon="9.1884327">
    <ele>776</ele>
    <time>2007-06-30T06:01:27Z</time>
    </trkpt>
    <trkpt lat="48.4082079" lon="9.1885185">
    <ele>777</ele>
    <time>2007-06-30T06:02:46Z</time>
    </trkpt>
    <trkpt lat="48.4084868" lon="9.1886473">
    <ele>780</ele>
    <time>2007-06-30T06:02:53Z</time>
    </trkpt>
    <trkpt lat="48.4088087" lon="9.188776">
    <ele>783</ele>
    <time>2007-06-30T06:03:02Z</time>
    </trkpt>
    <trkpt lat="48.4090877" lon="9.188776">
    <ele>787</ele>
    <time>2007-06-30T06:04:34Z</time>
    </trkpt>
    <trkpt lat="48.4099889" lon="9.1884971">
    <ele>792</ele>
    <time>2007-06-30T06:04:45Z</time>
    </trkpt>
    <trkpt lat="48.4100747" lon="9.1884542">
    <ele>793</ele>
    <time>2007-06-30T06:04:46Z</time>
    </trkpt>
    <trkpt lat="48.4107828" lon="9.1886258">
    <ele>798</ele>
    <time>2007-06-30T06:04:57Z</time>
    </trkpt>
    <trkpt lat="48.4114051" lon="9.1890335">
    <ele>803</ele>
    <time>2007-06-30T06:05:08Z</time>
    </trkpt>
    <trkpt lat="48.4122419" lon="9.1896987">
    <ele>810</ele>
    <time>2007-06-30T06:05:22Z</time>
    </trkpt>
    <trkpt lat="48.4128857" lon="9.1903853">
    <ele>826</ele>
    <time>2007-06-30T06:08:28Z</time>
    </trkpt>
    <trkpt lat="48.4129071" lon="9.190321">
    <ele>824</ele>
    <time>2007-06-30T06:08:32Z</time>
    </trkpt>
    <trkpt lat="48.4132934" lon="9.190042">
    <ele>821</ele>
    <time>2007-06-30T06:08:38Z</time>
    </trkpt>
    <trkpt lat="48.4135079" lon="9.1897202">
    <ele>819</ele>
    <time>2007-06-30T06:08:42Z</time>
    </trkpt>
    <trkpt lat="48.4140658" lon="9.1885185">
    <ele>818</ele>
    <time>2007-06-30T06:11:40Z</time>
    </trkpt>
    <trkpt lat="48.4140229" lon="9.1886258">
    <ele>817</ele>
    <time>2007-06-30T06:11:46Z</time>
    </trkpt>
    <trkpt lat="48.4140873" lon="9.1886258">
    <ele>816</ele>
    <time>2007-06-30T06:11:50Z</time>
    </trkpt>
    <trkpt lat="48.4141946" lon="9.1886258">
    <ele>814</ele>
    <time>2007-06-30T06:12:01Z</time>
    </trkpt>
    <trkpt lat="48.4148598" lon="9.1887975">
    <ele>811</ele>
    <time>2007-06-30T06:12:17Z</time>
    </trkpt>
    <trkpt lat="48.4162545" lon="9.1903639">
    <ele>811</ele>
    <time>2007-06-30T06:12:48Z</time>
    </trkpt>
    <trkpt lat="48.4164262" lon="9.1907287">
    <ele>811</ele>
    <time>2007-06-30T06:12:53Z</time>
    </trkpt>
    <trkpt lat="48.4164476" lon="9.1909003">
    <ele>810</ele>
    <time>2007-06-30T06:12:55Z</time>
    </trkpt>
    <trkpt lat="48.416512" lon="9.1912007">
    <ele>810</ele>
    <time>2007-06-30T06:12:58Z</time>
    </trkpt>
    <trkpt lat="48.4166408" lon="9.1937757">
    <ele>811</ele>
    <time>2007-06-30T06:13:28Z</time>
    </trkpt>
    <trkpt lat="48.417778" lon="9.1940117">
    <ele>826</ele>
    <time>2007-06-30T06:18:04Z</time>
    </trkpt>
    <trkpt lat="48.4179497" lon="9.1944623">
    <ele>824</ele>
    <time>2007-06-30T06:18:16Z</time>
    </trkpt>
    <trkpt lat="48.418293" lon="9.195385">
    <ele>823</ele>
    <time>2007-06-30T06:18:35Z</time>
    </trkpt>
    <trkpt lat="48.4188724" lon="9.1986465">
    <ele>824</ele>
    <time>2007-06-30T06:19:15Z</time>
    </trkpt>
    <trkpt lat="48.4193444" lon="9.2001486">
    <ele>816</ele>
    <time>2007-06-30T06:19:40Z</time>
    </trkpt>
    <trkpt lat="48.4193873" lon="9.2002559">
    <ele>816</ele>
    <time>2007-06-30T06:19:42Z</time>
    </trkpt>
    <trkpt lat="48.4199023" lon="9.2016506">
    <ele>811</ele>
    <time>2007-06-30T06:20:07Z</time>
    </trkpt>
    <trkpt lat="48.4199238" lon="9.201715">
    <ele>811</ele>
    <time>2007-06-30T06:20:08Z</time>
    </trkpt>
    <trkpt lat="48.4200096" lon="9.2032599">
    <ele>810</ele>
    <time>2007-06-30T06:20:29Z</time>
    </trkpt>
    <trkpt lat="48.4194732" lon="9.2058992">
    <ele>798</ele>
    <time>2007-06-30T06:20:58Z</time>
    </trkpt>
    <trkpt lat="48.4192371" lon="9.2071438">
    <ele>788</ele>
    <time>2007-06-30T06:21:16Z</time>
    </trkpt>
    <trkpt lat="48.4187436" lon="9.2093968">
    <ele>784</ele>
    <time>2007-06-30T06:21:48Z</time>
    </trkpt>
    <trkpt lat="48.4187865" lon="9.2094398">
    <ele>775</ele>
    <time>2007-06-30T06:22:50Z</time>
    </trkpt>
    <trkpt lat="48.4187651" lon="9.2093539">
    <ele>773</ele>
    <time>2007-06-30T06:23:15Z</time>
    </trkpt>
    <trkpt lat="48.4187865" lon="9.2095041">
    <ele>774</ele>
    <time>2007-06-30T06:24:53Z</time>
    </trkpt>
    <trkpt lat="48.4191942" lon="9.2096972">
    <ele>773</ele>
    <time>2007-06-30T06:25:00Z</time>
    </trkpt>
    <trkpt lat="48.420074" lon="9.2097616">
    <ele>773</ele>
    <time>2007-06-30T06:25:09Z</time>
    </trkpt>
    <trkpt lat="48.4201813" lon="9.2097616">
    <ele>773</ele>
    <time>2007-06-30T06:25:10Z</time>
    </trkpt>
    <trkpt lat="48.4203440446038" lon="9.21020857754727">
    <ele>777</ele>
    <time>2007-06-30T06:27:25Z</time>
    </trkpt>
    <trkpt lat="48.4202242" lon="9.2124653">
    <ele>787</ele>
    <time>2007-06-30T06:29:37Z</time>
    </trkpt>
    <trkpt lat="48.4201598" lon="9.2126369">
    <ele>791</ele>
    <time>2007-06-30T06:29:45Z</time>
    </trkpt>
    <trkpt lat="48.4199667" lon="9.2127872">
    <ele>788</ele>
    <time>2007-06-30T06:31:55Z</time>
    </trkpt>
    <trkpt lat="48.4189153" lon="9.2143321">
    <ele>788</ele>
    <time>2007-06-30T06:32:17Z</time>
    </trkpt>
    <trkpt lat="48.4187651" lon="9.2146754">
    <ele>788</ele>
    <time>2007-06-30T06:32:23Z</time>
    </trkpt>
    <trkpt lat="48.4186578" lon="9.216156">
    <ele>789</ele>
    <time>2007-06-30T06:32:43Z</time>
    </trkpt>
    <trkpt lat="48.4188294" lon="9.2174864">
    <ele>790</ele>
    <time>2007-06-30T06:33:01Z</time>
    </trkpt>
    <trkpt lat="48.4189712" lon="9.2191009">
    <ele>790</ele>
    <time>2007-06-30T06:33:16Z</time>
    </trkpt>
    <trkpt lat="48.41823" lon="9.2187262">
    <ele>790</ele>
    <time>2007-06-30T06:33:44Z</time>
    </trkpt>
    <trkpt lat="48.4173494" lon="9.2207151">
    <ele>806</ele>
    <time>2007-06-30T06:36:36Z</time>
    </trkpt>
    <trkpt lat="48.4171919" lon="9.2207482">
    <ele>758</ele>
    <time>2007-06-30T06:46:13Z</time>
    </trkpt>
    <trkpt lat="48.4161351" lon="9.2208449">
    <ele>833</ele>
    <time>2007-06-30T06:48:10Z</time>
    </trkpt>
    <trkpt lat="48.4150840010117" lon="9.22173713230035">
    <time>2007-06-30T06:48:23Z</time>
    </trkpt>
    <trkpt lat="48.4141166781317" lon="9.22203687399655">
    <ele>831</ele>
    <time>2007-06-30T06:48:36Z</time>
    </trkpt>
    <trkpt lat="48.4137556567589" lon="9.22271073710082">
    <ele>830</ele>
    <time>2007-06-30T06:48:44Z</time>
    </trkpt>
    <trkpt lat="48.4131443002828" lon="9.2249369760681">
    <ele>830</ele>
    <time>2007-06-30T06:48:58Z</time>
    </trkpt>
    <trkpt lat="48.4125209" lon="9.2263484">
    <ele>827</ele>
    <time>2007-06-30T06:49:37Z</time>
    </trkpt>
    <trkpt lat="48.4128213" lon="9.2285156">
    <ele>820</ele>
    <time>2007-06-30T06:49:51Z</time>
    </trkpt>
    <trkpt lat="48.4127998" lon="9.2287731">
    <ele>818</ele>
    <time>2007-06-30T06:49:53Z</time>
    </trkpt>
    <trkpt lat="48.412714" lon="9.2292452">
    <ele>816</ele>
    <time>2007-06-30T06:49:57Z</time>
    </trkpt>
    <trkpt lat="48.4125423" lon="9.2296314">
    <ele>815</ele>
    <time>2007-06-30T06:50:01Z</time>
    </trkpt>
    <trkpt lat="48.4126925" lon="9.230125">
    <ele>814</ele>
    <time>2007-06-30T06:50:07Z</time>
    </trkpt>
    <trkpt lat="48.4131861" lon="9.2307687">
    <ele>811</ele>
    <time>2007-06-30T06:50:15Z</time>
    </trkpt>
    <trkpt lat="48.4133363" lon="9.2311978">
    <ele>809</ele>
    <time>2007-06-30T06:50:19Z</time>
    </trkpt>
    <trkpt lat="48.4133792" lon="9.2314339">
    <ele>808</ele>
    <time>2007-06-30T06:50:21Z</time>
    </trkpt>
    <trkpt lat="48.4134007" lon="9.2318201">
    <ele>807</ele>
    <time>2007-06-30T06:50:24Z</time>
    </trkpt>
    <trkpt lat="48.4133577" lon="9.2323136">
    <ele>806</ele>
    <time>2007-06-30T06:50:28Z</time>
    </trkpt>
    <trkpt lat="48.4128428" lon="9.2335367">
    <ele>800</ele>
    <time>2007-06-30T06:50:38Z</time>
    </trkpt>
    <trkpt lat="48.4125853" lon="9.2356181">
    <ele>798</ele>
    <time>2007-06-30T06:50:52Z</time>
    </trkpt>
    <trkpt lat="48.4121561" lon="9.2370558">
    <ele>787</ele>
    <time>2007-06-30T06:51:03Z</time>
    </trkpt>
    <trkpt lat="48.4123278" lon="9.2377424">
    <ele>783</ele>
    <time>2007-06-30T06:51:09Z</time>
    </trkpt>
    <trkpt lat="48.4125209" lon="9.2379355">
    <ele>779</ele>
    <time>2007-06-30T06:51:16Z</time>
    </trkpt>
    <trkpt lat="48.4125209" lon="9.2378926">
    <ele>774</ele>
    <time>2007-06-30T06:52:28Z</time>
    </trkpt>
    <trkpt lat="48.4122849" lon="9.2386222">
    <ele>773</ele>
    <time>2007-06-30T06:52:37Z</time>
    </trkpt>
    <trkpt lat="48.4118342" lon="9.2399096">
    <ele>773</ele>
    <time>2007-06-30T06:52:47Z</time>
    </trkpt>
    <trkpt lat="48.4111476" lon="9.2423558">
    <ele>777</ele>
    <time>2007-06-30T06:53:04Z</time>
    </trkpt>
    <trkpt lat="48.4111047" lon="9.2424631">
    <ele>776</ele>
    <time>2007-06-30T06:53:05Z</time>
    </trkpt>
    <trkpt lat="48.4103751" lon="9.2434072">
    <ele>772</ele>
    <time>2007-06-30T06:53:15Z</time>
    </trkpt>
    <trkpt lat="48.4102464" lon="9.2436218">
    <ele>771</ele>
    <time>2007-06-30T06:53:17Z</time>
    </trkpt>
    <trkpt lat="48.4097314" lon="9.2439866">
    <ele>770</ele>
    <time>2007-06-30T06:53:23Z</time>
    </trkpt>
    <trkpt lat="48.4081435" lon="9.2441368">
    <ele>767</ele>
    <time>2007-06-30T06:53:40Z</time>
    </trkpt>
    <trkpt lat="48.4078217" lon="9.244523">
    <ele>764</ele>
    <time>2007-06-30T06:53:45Z</time>
    </trkpt>
    <trkpt lat="48.4072423" lon="9.2466259">
    <ele>763</ele>
    <time>2007-06-30T06:54:02Z</time>
    </trkpt>
    <trkpt lat="48.4072208" lon="9.2466474">
    <ele>761</ele>
    <time>2007-06-30T06:54:09Z</time>
    </trkpt>
    <trkpt lat="48.4071136" lon="9.2466474">
    <ele>761</ele>
    <time>2007-06-30T06:54:45Z</time>
    </trkpt>
    <trkpt lat="48.4069419" lon="9.2464757">
    <ele>762</ele>
    <time>2007-06-30T06:54:49Z</time>
    </trkpt>
    <trkpt lat="48.406148" lon="9.2454028">
    <ele>763</ele>
    <time>2007-06-30T06:55:03Z</time>
    </trkpt>
    <trkpt lat="48.4056115" lon="9.2448664">
    <ele>764</ele>
    <time>2007-06-30T06:55:11Z</time>
    </trkpt>
    <trkpt lat="48.4044099" lon="9.2441583">
    <ele>758</ele>
    <time>2007-06-30T06:55:26Z</time>
    </trkpt>
    <trkpt lat="48.4037232" lon="9.2437935">
    <ele>754</ele>
    <time>2007-06-30T06:55:34Z</time>
    </trkpt>
    <trkpt lat="48.4024572" lon="9.243772">
    <ele>743</ele>
    <time>2007-06-30T06:55:47Z</time>
    </trkpt>
    <trkpt lat="48.401792" lon="9.2439222">
    <ele>740</ele>
    <time>2007-06-30T06:55:54Z</time>
    </trkpt>
    <trkpt lat="48.4014487" lon="9.2438793">
    <ele>736</ele>
    <time>2007-06-30T06:55:59Z</time>
    </trkpt>
    <trkpt lat="48.4011698" lon="9.2437077">
    <ele>736</ele>
    <time>2007-06-30T06:56:04Z</time>
    </trkpt>
    <trkpt lat="48.4011269" lon="9.2437077">
    <ele>734</ele>
    <time>2007-06-30T06:56:14Z</time>
    </trkpt>
    <trkpt lat="48.401041" lon="9.2437506">
    <ele>730</ele>
    <time>2007-06-30T06:57:34Z</time>
    </trkpt>
    <trkpt lat="48.4008265" lon="9.2448449">
    <ele>729</ele>
    <time>2007-06-30T06:57:43Z</time>
    </trkpt>
    <trkpt lat="48.4003758" lon="9.2469692">
    <ele>727</ele>
    <time>2007-06-30T06:57:54Z</time>
    </trkpt>
    <trkpt lat="48.4001184" lon="9.2482352">
    <ele>726</ele>
    <time>2007-06-30T06:58:02Z</time>
    </trkpt>
    <trkpt lat="48.4000111" lon="9.2484069">
    <ele>727</ele>
    <time>2007-06-30T06:58:10Z</time>
    </trkpt>
    <trkpt lat="48.4000111" lon="9.2483854">
    <ele>727</ele>
    <time>2007-06-30T06:58:23Z</time>
    </trkpt>
    <trkpt lat="48.3999896" lon="9.2483425">
    <ele>726</ele>
    <time>2007-06-30T06:58:25Z</time>
    </trkpt>
    <trkpt lat="48.3997965" lon="9.2475486">
    <ele>729</ele>
    <time>2007-06-30T06:58:38Z</time>
    </trkpt>
    <trkpt lat="48.3997107" lon="9.2454457">
    <ele>728</ele>
    <time>2007-06-30T06:59:06Z</time>
    </trkpt>
    <trkpt lat="48.3994961" lon="9.2426562">
    <ele>733</ele>
    <time>2007-06-30T06:59:42Z</time>
    </trkpt>
    <trkpt lat="48.3994317" lon="9.2423773">
    <ele>733</ele>
    <time>2007-06-30T06:59:46Z</time>
    </trkpt>
    <trkpt lat="48.3978438" lon="9.2411542">
    <ele>774</ele>
    <time>2007-06-30T07:01:31Z</time>
    </trkpt>
    <trkpt lat="48.3966545983871" lon="9.24100176260357">
    <ele>783</ele>
    <time>2007-06-30T07:01:43Z</time>
    </trkpt>
    <trkpt lat="48.3965993" lon="9.2395234">
    <ele>785</ele>
    <time>2007-06-30T07:01:46Z</time>
    </trkpt>
    <trkpt lat="48.3965135" lon="9.2392874">
    <ele>786</ele>
    <time>2007-06-30T07:01:49Z</time>
    </trkpt>
    <trkpt lat="48.3961701" lon="9.2389011">
    <ele>793</ele>
    <time>2007-06-30T07:01:58Z</time>
    </trkpt>
    <trkpt lat="48.3960199" lon="9.2387938">
    <ele>799</ele>
    <time>2007-06-30T07:02:06Z</time>
    </trkpt>
    <trkpt lat="48.3960629" lon="9.2388582">
    <ele>812</ele>
    <time>2007-06-30T07:02:35Z</time>
    </trkpt>
    <trkpt lat="48.3960843" lon="9.2388797">
    <ele>817</ele>
    <time>2007-06-30T07:03:23Z</time>
    </trkpt>
    <trkpt lat="48.3956766" lon="9.2394805">
    <ele>817</ele>
    <time>2007-06-30T07:03:33Z</time>
    </trkpt>
    <trkpt lat="48.3951616" lon="9.2403173">
    <ele>817</ele>
    <time>2007-06-30T07:03:46Z</time>
    </trkpt>
    <trkpt lat="48.3928871" lon="9.2414546">
    <ele>849</ele>
    <time>2007-06-30T07:06:02Z</time>
    </trkpt>
    <trkpt lat="48.3929086" lon="9.2414546">
    <ele>849</ele>
    <time>2007-06-30T07:06:04Z</time>
    </trkpt>
    <trkpt lat="48.3927341" lon="9.2415722">
    <ele>836</ele>
    <time>2007-06-30T07:10:31Z</time>
    </trkpt>
    <trkpt lat="48.3914086" lon="9.2411271">
    <ele>871</ele>
    <time>2007-06-30T07:11:01Z</time>
    </trkpt>
    <trkpt lat="48.3910491" lon="9.2410241">
    <ele>859</ele>
    <time>2007-06-30T07:11:40Z</time>
    </trkpt>
    <trkpt lat="48.3907341" lon="9.2411239">
    <ele>859</ele>
    <time>2007-06-30T07:11:43Z</time>
    </trkpt>
    <trkpt lat="48.3902163" lon="9.241459">
    <ele>855</ele>
    <time>2007-06-30T07:12:01Z</time>
    </trkpt>
    <trkpt lat="48.3899464" lon="9.2415253">
    <ele>855</ele>
    <time>2007-06-30T07:12:10Z</time>
    </trkpt>
    <trkpt lat="48.3894324" lon="9.2417979">
    <ele>835</ele>
    <time>2007-06-30T07:14:52Z</time>
    </trkpt>
    <trkpt lat="48.3893623" lon="9.24132">
    <ele>834</ele>
    <time>2007-06-30T07:14:58Z</time>
    </trkpt>
    <trkpt lat="48.3895976936334" lon="9.23975323057645">
    <ele>834</ele>
    <time>2007-06-30T07:15:16Z</time>
    </trkpt>
    <trkpt lat="48.3888120768923" lon="9.23914194574086">
    <ele>838</ele>
    <time>2007-06-30T07:15:36Z</time>
    </trkpt>
    <trkpt lat="48.3884239" lon="9.2390084">
    <ele>844</ele>
    <time>2007-06-30T07:16:21Z</time>
    </trkpt>
    <trkpt lat="48.3879733" lon="9.2368197">
    <ele>840</ele>
    <time>2007-06-30T07:17:00Z</time>
    </trkpt>
    <trkpt lat="48.3879089" lon="9.2370129">
    <ele>834</ele>
    <time>2007-06-30T07:17:18Z</time>
    </trkpt>
    <trkpt lat="48.3879733" lon="9.2368197">
    <ele>836</ele>
    <time>2007-06-30T07:17:57Z</time>
    </trkpt>
    <trkpt lat="48.387332434958" lon="9.23710975713175">
    <ele>836</ele>
    <time>2007-06-30T07:17:59Z</time>
    </trkpt>
    <trkpt lat="48.3862749297592" lon="9.23750988763547">
    <ele>816</ele>
    <time>2007-06-30T07:18:19Z</time>
    </trkpt>
    <trkpt lat="48.3858254223474" lon="9.23744028955235">
    <ele>816</ele>
    <time>2007-06-30T07:18:21Z</time>
    </trkpt>
    <trkpt lat="48.3847634298595" lon="9.24000054514502">
    <ele>816</ele>
    <time>2007-06-30T07:18:43Z</time>
    </trkpt>
    <trkpt lat="48.3778964089588" lon="9.23385987199171">
    <ele>815</ele>
    <time>2007-06-30T07:19:28Z</time>
    </trkpt>
    <trkpt lat="48.3783968843097" lon="9.23095980529876">
    <ele>825</ele>
    <time>2007-06-30T07:19:46Z</time>
    </trkpt>
    <trkpt lat="48.3765729573483" lon="9.23236893578922">
    <ele>825</ele>
    <time>2007-06-30T07:19:49Z</time>
    </trkpt>
    <trkpt lat="48.3761659512612" lon="9.23351447775009">
    <ele>820</ele>
    <time>2007-06-30T07:20:07Z</time>
    </trkpt>
    <trkpt lat="48.3751291516214" lon="9.23479209212593">
    <ele>774</ele>
    <time>2007-06-30T07:20:38Z</time>
    </trkpt>
    <trkpt lat="48.3742930144392" lon="9.23688047791971">
    <ele>769</ele>
    <time>2007-06-30T07:20:56Z</time>
    </trkpt>
    <trkpt lat="48.3735057833977" lon="9.23704555189859">
    <ele>767</ele>
    <time>2007-06-30T07:21:08Z</time>
    </trkpt>
    <trkpt lat="48.3734584488845" lon="9.23819266550877">
    <ele>773</ele>
    <time>2007-06-30T07:23:04Z</time>
    </trkpt>
    <trkpt lat="48.3726232356582" lon="9.23980850815666">
    <ele>773</ele>
    <time>2007-06-30T07:23:17Z</time>
    </trkpt>
    <trkpt lat="48.3711934" lon="9.2440939">
    <ele>777</ele>
    <time>2007-06-30T07:34:32Z</time>
    </trkpt>
    <trkpt lat="48.3707643" lon="9.2447376">
    <ele>778</ele>
    <time>2007-06-30T07:34:43Z</time>
    </trkpt>
    <trkpt lat="48.3707428" lon="9.2448449">
    <ele>778</ele>
    <time>2007-06-30T07:34:45Z</time>
    </trkpt>
    <trkpt lat="48.3705282" lon="9.2461753">
    <ele>778</ele>
    <time>2007-06-30T07:35:01Z</time>
    </trkpt>
    <trkpt lat="48.3703553535729" lon="9.24904345489932">
    <time>2007-06-30T07:36:18Z</time>
    </trkpt>
    <trkpt lat="48.3707213" lon="9.2519689">
    <ele>756</ele>
    <time>2007-06-30T07:37:20Z</time>
    </trkpt>
    <trkpt lat="48.370893" lon="9.2521405">
    <ele>754</ele>
    <time>2007-06-30T07:37:24Z</time>
    </trkpt>
    <trkpt lat="48.3713436" lon="9.252913">
    <ele>747</ele>
    <time>2007-06-30T07:37:36Z</time>
    </trkpt>
    <trkpt lat="48.3715796" lon="9.2532778">
    <ele>745</ele>
    <time>2007-06-30T07:37:46Z</time>
    </trkpt>
    <trkpt lat="48.3715582" lon="9.2532778">
    <ele>744</ele>
    <time>2007-06-30T07:37:48Z</time>
    </trkpt>
    <trkpt lat="48.3714724" lon="9.2530632">
    <ele>744</ele>
    <time>2007-06-30T07:44:13Z</time>
    </trkpt>
    <trkpt lat="48.3715796" lon="9.2529345">
    <ele>736</ele>
    <time>2007-06-30T07:44:25Z</time>
    </trkpt>
    <trkpt lat="48.3715582" lon="9.2530632">
    <ele>733</ele>
    <time>2007-06-30T07:44:52Z</time>
    </trkpt>
    <trkpt lat="48.3716869" lon="9.2533851">
    <ele>733</ele>
    <time>2007-06-30T07:45:06Z</time>
    </trkpt>
    <trkpt lat="48.3721375" lon="9.2542648">
    <ele>734</ele>
    <time>2007-06-30T07:45:22Z</time>
    </trkpt>
    <trkpt lat="48.3725023" lon="9.2549944">
    <ele>732</ele>
    <time>2007-06-30T07:45:35Z</time>
    </trkpt>
    <trkpt lat="48.3726525" lon="9.2558098">
    <ele>729</ele>
    <time>2007-06-30T07:45:51Z</time>
    </trkpt>
    <trkpt lat="48.3726311" lon="9.2557669">
    <ele>732</ele>
    <time>2007-06-30T07:46:29Z</time>
    </trkpt>
    <trkpt lat="48.3725238" lon="9.256196">
    <ele>732</ele>
    <time>2007-06-30T07:46:34Z</time>
    </trkpt>
    <trkpt lat="48.3722878" lon="9.257977">
    <ele>732</ele>
    <time>2007-06-30T07:46:49Z</time>
    </trkpt>
    <trkpt lat="48.372159" lon="9.2590714">
    <ele>731</ele>
    <time>2007-06-30T07:47:03Z</time>
    </trkpt>
    <trkpt lat="48.372159" lon="9.2590284">
    <ele>727</ele>
    <time>2007-06-30T07:50:04Z</time>
    </trkpt>
    <trkpt lat="48.3719873" lon="9.2604446">
    <ele>725</ele>
    <time>2007-06-30T07:50:17Z</time>
    </trkpt>
    <trkpt lat="48.371923" lon="9.2609596">
    <ele>725</ele>
    <time>2007-06-30T07:50:26Z</time>
    </trkpt>
    <trkpt lat="48.3719015" lon="9.2609382">
    <ele>722</ele>
    <time>2007-06-30T07:51:51Z</time>
    </trkpt>
    <trkpt lat="48.371692" lon="9.2614153">
    <ele>733</ele>
    <time>2007-06-30T08:30:55Z</time>
    </trkpt>
    <trkpt lat="48.3712462" lon="9.2597259">
    <ele>717</ele>
    <time>2007-06-30T08:31:02Z</time>
    </trkpt>
    <trkpt lat="48.3705066" lon="9.2586761">
    <ele>722</ele>
    <time>2007-06-30T08:31:08Z</time>
    </trkpt>
    <trkpt lat="48.3696308" lon="9.258233">
    <ele>722</ele>
    <time>2007-06-30T08:31:09Z</time>
    </trkpt>
    <trkpt lat="48.3664646" lon="9.2564962">
    <ele>726</ele>
    <time>2007-06-30T08:31:28Z</time>
    </trkpt>
    <trkpt lat="48.3646906" lon="9.2555763">
    <ele>727</ele>
    <time>2007-06-30T08:31:43Z</time>
    </trkpt>
    <trkpt lat="48.3641517" lon="9.25527">
    <ele>727</ele>
    <time>2007-06-30T08:31:46Z</time>
    </trkpt>
    <trkpt lat="48.3639265" lon="9.2554376">
    <ele>727</ele>
    <time>2007-06-30T08:31:53Z</time>
    </trkpt>
    <trkpt lat="48.3637464" lon="9.2555041">
    <ele>730</ele>
    <time>2007-06-30T08:32:02Z</time>
    </trkpt>
    <trkpt lat="48.3637261" lon="9.2552304">
    <ele>730</ele>
    <time>2007-06-30T08:32:08Z</time>
    </trkpt>
    <trkpt lat="48.3635759" lon="9.2553163">
    <ele>730</ele>
    <time>2007-06-30T08:32:11Z</time>
    </trkpt>
    <trkpt lat="48.363297" lon="9.2565823">
    <ele>731</ele>
    <time>2007-06-30T08:32:22Z</time>
    </trkpt>
    <trkpt lat="48.3624387" lon="9.2602086">
    <ele>732</ele>
    <time>2007-06-30T08:32:49Z</time>
    </trkpt>
    <trkpt lat="48.3620524" lon="9.2619252">
    <ele>733</ele>
    <time>2007-06-30T08:33:05Z</time>
    </trkpt>
    <trkpt lat="48.362031" lon="9.2620969">
    <ele>733</ele>
    <time>2007-06-30T08:33:08Z</time>
    </trkpt>
    <trkpt lat="48.3620739" lon="9.2624617">
    <ele>733</ele>
    <time>2007-06-30T08:33:19Z</time>
    </trkpt>
    <trkpt lat="48.3621597" lon="9.262569">
    <ele>727</ele>
    <time>2007-06-30T08:46:14Z</time>
    </trkpt>
    <trkpt lat="48.3620524" lon="9.2623973">
    <ele>726</ele>
    <time>2007-06-30T08:46:25Z</time>
    </trkpt>
    <trkpt lat="48.3619022" lon="9.26229">
    <ele>725</ele>
    <time>2007-06-30T08:46:36Z</time>
    </trkpt>
    <trkpt lat="48.3617306" lon="9.2620111">
    <ele>725</ele>
    <time>2007-06-30T08:46:46Z</time>
    </trkpt>
    <trkpt lat="48.3617091" lon="9.2619896">
    <ele>727</ele>
    <time>2007-06-30T08:46:56Z</time>
    </trkpt>
    <trkpt lat="48.3613873" lon="9.2619038">
    <ele>730</ele>
    <time>2007-06-30T08:47:25Z</time>
    </trkpt>
    <trkpt lat="48.3601427" lon="9.2616248">
    <ele>730</ele>
    <time>2007-06-30T08:47:41Z</time>
    </trkpt>
    <trkpt lat="48.3586192" lon="9.2613244">
    <ele>729</ele>
    <time>2007-06-30T08:47:59Z</time>
    </trkpt>
    <trkpt lat="48.3585548" lon="9.2613029">
    <ele>730</ele>
    <time>2007-06-30T08:48:07Z</time>
    </trkpt>
    <trkpt lat="48.3583188" lon="9.26126">
    <ele>730</ele>
    <time>2007-06-30T08:48:15Z</time>
    </trkpt>
    <trkpt lat="48.3570528" lon="9.2614532">
    <ele>731</ele>
    <time>2007-06-30T08:48:36Z</time>
    </trkpt>
    <trkpt lat="48.3567309" lon="9.2615819">
    <ele>731</ele>
    <time>2007-06-30T08:48:41Z</time>
    </trkpt>
    <trkpt lat="48.3547997" lon="9.262569">
    <ele>731</ele>
    <time>2007-06-30T08:49:11Z</time>
    </trkpt>
    <trkpt lat="48.3547139" lon="9.2625904">
    <ele>730</ele>
    <time>2007-06-30T08:49:17Z</time>
    </trkpt>
    <trkpt lat="48.3547139" lon="9.2625904">
    <ele>728</ele>
    <time>2007-06-30T08:49:35Z</time>
    </trkpt>
    <trkpt lat="48.3546925" lon="9.2624402">
    <ele>728</ele>
    <time>2007-06-30T08:49:40Z</time>
    </trkpt>
    <trkpt lat="48.3541989" lon="9.2626762">
    <ele>727</ele>
    <time>2007-06-30T08:49:50Z</time>
    </trkpt>
    <trkpt lat="48.3525896" lon="9.2634273">
    <ele>728</ele>
    <time>2007-06-30T08:50:15Z</time>
    </trkpt>
    <trkpt lat="48.3509374" lon="9.2641997">
    <ele>729</ele>
    <time>2007-06-30T08:50:40Z</time>
    </trkpt>
    <trkpt lat="48.3507872" lon="9.2642426">
    <ele>729</ele>
    <time>2007-06-30T08:50:48Z</time>
    </trkpt>
    <trkpt lat="48.3507872" lon="9.2641997">
    <ele>728</ele>
    <time>2007-06-30T08:51:52Z</time>
    </trkpt>
    <trkpt lat="48.3508086" lon="9.2643929">
    <ele>729</ele>
    <time>2007-06-30T08:51:57Z</time>
    </trkpt>
    <trkpt lat="48.3511519" lon="9.2653155">
    <ele>730</ele>
    <time>2007-06-30T08:52:09Z</time>
    </trkpt>
    <trkpt lat="48.3511734" lon="9.2653799">
    <ele>730</ele>
    <time>2007-06-30T08:52:10Z</time>
    </trkpt>
    <trkpt lat="48.3511734" lon="9.2654872">
    <ele>731</ele>
    <time>2007-06-30T08:52:15Z</time>
    </trkpt>
    <trkpt lat="48.3510447" lon="9.2656159">
    <ele>730</ele>
    <time>2007-06-30T08:52:20Z</time>
    </trkpt>
    <trkpt lat="48.3500361" lon="9.2661095">
    <ele>727</ele>
    <time>2007-06-30T08:52:36Z</time>
    </trkpt>
    <trkpt lat="48.3487916" lon="9.2667317">
    <ele>727</ele>
    <time>2007-06-30T08:52:53Z</time>
    </trkpt>
    <trkpt lat="48.3476973" lon="9.2672038">
    <ele>730</ele>
    <time>2007-06-30T08:53:05Z</time>
    </trkpt>
    <trkpt lat="48.3458948" lon="9.2671609">
    <ele>734</ele>
    <time>2007-06-30T08:53:26Z</time>
    </trkpt>
    <trkpt lat="48.3440065" lon="9.2666245">
    <ele>733</ele>
    <time>2007-06-30T08:53:55Z</time>
    </trkpt>
    <trkpt lat="48.3440065" lon="9.2665386">
    <ele>728</ele>
    <time>2007-06-30T08:56:17Z</time>
    </trkpt>
    <trkpt lat="48.3394263714988" lon="9.26592269723997">
    <ele>731</ele>
    <time>2007-06-30T08:56:46Z</time>
    </trkpt>
    <trkpt lat="48.3388976859487" lon="9.26116510475573">
    <ele>730</ele>
    <time>2007-06-30T08:56:50Z</time>
    </trkpt>
    <trkpt lat="48.338924592515" lon="9.25920934843814">
    <ele>729</ele>
    <time>2007-06-30T08:56:54Z</time>
    </trkpt>
    <trkpt lat="48.3384579811885" lon="9.25674527707984">
    <ele>726</ele>
    <time>2007-06-30T08:57:01Z</time>
    </trkpt>
    <trkpt lat="48.3353253589919" lon="9.24995184234117">
    <ele>715</ele>
    <time>2007-06-30T09:08:46Z</time>
    </trkpt>
    <trkpt lat="48.3357882" lon="9.2489004">
    <ele>715</ele>
    <time>2007-06-30T09:09:29Z</time>
    </trkpt>
    <trkpt lat="48.3355522" lon="9.2490077">
    <ele>714</ele>
    <time>2007-06-30T09:09:40Z</time>
    </trkpt>
    <trkpt lat="48.3354235" lon="9.2492437">
    <ele>718</ele>
    <time>2007-06-30T09:11:15Z</time>
    </trkpt>
    <trkpt lat="48.3347583" lon="9.2492223">
    <ele>717</ele>
    <time>2007-06-30T09:11:29Z</time>
    </trkpt>
    <trkpt lat="48.3335781" lon="9.2494154">
    <ele>717</ele>
    <time>2007-06-30T09:11:53Z</time>
    </trkpt>
    <trkpt lat="48.33287" lon="9.2498231">
    <ele>718</ele>
    <time>2007-06-30T09:12:05Z</time>
    </trkpt>
    <trkpt lat="48.3324409" lon="9.249866">
    <ele>718</ele>
    <time>2007-06-30T09:12:12Z</time>
    </trkpt>
    <trkpt lat="48.3319688" lon="9.2496514">
    <ele>717</ele>
    <time>2007-06-30T09:12:20Z</time>
    </trkpt>
    <trkpt lat="48.3314967" lon="9.2491794">
    <ele>717</ele>
    <time>2007-06-30T09:12:35Z</time>
    </trkpt>
    <trkpt lat="48.3314538" lon="9.2490506">
    <ele>714</ele>
    <time>2007-06-30T09:15:03Z</time>
    </trkpt>
    <trkpt lat="48.3313465" lon="9.2479777">
    <ele>713</ele>
    <time>2007-06-30T09:15:18Z</time>
    </trkpt>
    <trkpt lat="48.3312392" lon="9.247098">
    <ele>713</ele>
    <time>2007-06-30T09:15:29Z</time>
    </trkpt>
    <trkpt lat="48.331089" lon="9.246819">
    <ele>713</ele>
    <time>2007-06-30T09:15:33Z</time>
    </trkpt>
    <trkpt lat="48.3308744" lon="9.2465401">
    <ele>711</ele>
    <time>2007-06-30T09:15:42Z</time>
    </trkpt>
    <trkpt lat="48.3306813" lon="9.2462397">
    <ele>713</ele>
    <time>2007-06-30T09:16:33Z</time>
    </trkpt>
    <trkpt lat="48.3305955" lon="9.2460895">
    <ele>713</ele>
    <time>2007-06-30T09:16:35Z</time>
    </trkpt>
    <trkpt lat="48.3302307" lon="9.2459607">
    <ele>713</ele>
    <time>2007-06-30T09:16:40Z</time>
    </trkpt>
    <trkpt lat="48.3292437" lon="9.2462397">
    <ele>709</ele>
    <time>2007-06-30T09:16:52Z</time>
    </trkpt>
    <trkpt lat="48.3287716" lon="9.2462397">
    <ele>709</ele>
    <time>2007-06-30T09:16:58Z</time>
    </trkpt>
    <trkpt lat="48.3286428" lon="9.2462182">
    <ele>708</ele>
    <time>2007-06-30T09:17:06Z</time>
    </trkpt>
    <trkpt lat="48.3286214" lon="9.2461753">
    <ele>710</ele>
    <time>2007-06-30T09:18:42Z</time>
    </trkpt>
    <trkpt lat="48.3285999" lon="9.2457891">
    <ele>712</ele>
    <time>2007-06-30T09:18:50Z</time>
    </trkpt>
    <trkpt lat="48.3287716" lon="9.244287">
    <ele>718</ele>
    <time>2007-06-30T09:19:01Z</time>
    </trkpt>
    <trkpt lat="48.3288789" lon="9.2416263">
    <ele>724</ele>
    <time>2007-06-30T09:19:15Z</time>
    </trkpt>
    <trkpt lat="48.3289433" lon="9.2401671">
    <ele>727</ele>
    <time>2007-06-30T09:19:25Z</time>
    </trkpt>
    <trkpt lat="48.3289647" lon="9.2400813">
    <ele>727</ele>
    <time>2007-06-30T09:19:27Z</time>
    </trkpt>
    <trkpt lat="48.3289433" lon="9.2400384">
    <ele>729</ele>
    <time>2007-06-30T09:19:38Z</time>
    </trkpt>
    <trkpt lat="48.3289433" lon="9.2397809">
    <ele>729</ele>
    <time>2007-06-30T09:20:34Z</time>
    </trkpt>
    <trkpt lat="48.3286428" lon="9.2391372">
    <ele>730</ele>
    <time>2007-06-30T09:20:41Z</time>
    </trkpt>
    <trkpt lat="48.3276129" lon="9.2381501">
    <ele>734</ele>
    <time>2007-06-30T09:20:57Z</time>
    </trkpt>
    <trkpt lat="48.327055" lon="9.2375922">
    <ele>734</ele>
    <time>2007-06-30T09:21:05Z</time>
    </trkpt>
    <trkpt lat="48.3266902" lon="9.2375278">
    <ele>732</ele>
    <time>2007-06-30T09:21:10Z</time>
    </trkpt>
    <trkpt lat="48.3265185" lon="9.2375708">
    <ele>731</ele>
    <time>2007-06-30T09:21:17Z</time>
    </trkpt>
    <trkpt lat="48.3265185" lon="9.2375278">
    <ele>730</ele>
    <time>2007-06-30T09:22:17Z</time>
    </trkpt>
    <trkpt lat="48.3261967" lon="9.2374206">
    <ele>730</ele>
    <time>2007-06-30T09:22:25Z</time>
    </trkpt>
    <trkpt lat="48.3252096" lon="9.2366052">
    <ele>723</ele>
    <time>2007-06-30T09:22:39Z</time>
    </trkpt>
    <trkpt lat="48.3251238" lon="9.2365623">
    <ele>723</ele>
    <time>2007-06-30T09:22:40Z</time>
    </trkpt>
    <trkpt lat="48.3247805" lon="9.2366695">
    <ele>721</ele>
    <time>2007-06-30T09:22:44Z</time>
    </trkpt>
    <trkpt lat="48.3244371" lon="9.2369056">
    <ele>721</ele>
    <time>2007-06-30T09:22:48Z</time>
    </trkpt>
    <trkpt lat="48.3240294" lon="9.2366695">
    <ele>721</ele>
    <time>2007-06-30T09:22:54Z</time>
    </trkpt>
    <trkpt lat="48.3236861" lon="9.2360044">
    <ele>721</ele>
    <time>2007-06-30T09:23:00Z</time>
    </trkpt>
    <trkpt lat="48.323257" lon="9.235661">
    <ele>721</ele>
    <time>2007-06-30T09:23:05Z</time>
    </trkpt>
    <trkpt lat="48.3223557" lon="9.2347813">
    <ele>722</ele>
    <time>2007-06-30T09:23:14Z</time>
    </trkpt>
    <trkpt lat="48.3212185" lon="9.2331076">
    <ele>724</ele>
    <time>2007-06-30T09:23:28Z</time>
    </trkpt>
    <trkpt lat="48.3211756" lon="9.2330217">
    <ele>724</ele>
    <time>2007-06-30T09:23:36Z</time>
    </trkpt>
    <trkpt lat="48.3211112" lon="9.2328715">
    <ele>724</ele>
    <time>2007-06-30T09:23:44Z</time>
    </trkpt>
    <trkpt lat="48.3210468" lon="9.2325497">
    <ele>725</ele>
    <time>2007-06-30T09:25:03Z</time>
    </trkpt>
    <trkpt lat="48.3210897" lon="9.2312837">
    <ele>725</ele>
    <time>2007-06-30T09:25:12Z</time>
    </trkpt>
    <trkpt lat="48.3213258" lon="9.2289877">
    <ele>726</ele>
    <time>2007-06-30T09:25:28Z</time>
    </trkpt>
    <trkpt lat="48.3213043" lon="9.2279792">
    <ele>728</ele>
    <time>2007-06-30T09:25:38Z</time>
    </trkpt>
    <trkpt lat="48.3213043" lon="9.2279363">
    <ele>726</ele>
    <time>2007-06-30T09:25:48Z</time>
    </trkpt>
    <trkpt lat="48.3212399" lon="9.2275071">
    <ele>729</ele>
    <time>2007-06-30T09:26:29Z</time>
    </trkpt>
    <trkpt lat="48.321197" lon="9.2266488">
    <ele>729</ele>
    <time>2007-06-30T09:26:36Z</time>
    </trkpt>
    <trkpt lat="48.3214974" lon="9.225812">
    <ele>728</ele>
    <time>2007-06-30T09:26:44Z</time>
    </trkpt>
    <trkpt lat="48.3216906" lon="9.225533">
    <ele>729</ele>
    <time>2007-06-30T09:26:47Z</time>
    </trkpt>
    <trkpt lat="48.3218622" lon="9.2247176">
    <ele>731</ele>
    <time>2007-06-30T09:26:54Z</time>
    </trkpt>
    <trkpt lat="48.3218837" lon="9.2229152">
    <ele>734</ele>
    <time>2007-06-30T09:27:11Z</time>
    </trkpt>
    <trkpt lat="48.3218837" lon="9.2229152">
    <ele>735</ele>
    <time>2007-06-30T09:27:35Z</time>
    </trkpt>
    <trkpt lat="48.3218837" lon="9.2229366">
    <ele>737</ele>
    <time>2007-06-30T09:28:10Z</time>
    </trkpt>
    <trkpt lat="48.3214974" lon="9.2226577">
    <ele>736</ele>
    <time>2007-06-30T09:28:18Z</time>
    </trkpt>
    <trkpt lat="48.3208537" lon="9.2218423">
    <ele>738</ele>
    <time>2007-06-30T09:28:29Z</time>
    </trkpt>
    <trkpt lat="48.3200598" lon="9.2208338">
    <ele>736</ele>
    <time>2007-06-30T09:28:43Z</time>
    </trkpt>
    <trkpt lat="48.3200169" lon="9.2207909">
    <ele>735</ele>
    <time>2007-06-30T09:28:50Z</time>
    </trkpt>
    <trkpt lat="48.3200169" lon="9.2207909">
    <ele>735</ele>
    <time>2007-06-30T09:29:28Z</time>
    </trkpt>
    <trkpt lat="48.3201027" lon="9.2200613">
    <ele>735</ele>
    <time>2007-06-30T09:29:36Z</time>
    </trkpt>
    <trkpt lat="48.320446" lon="9.2185593">
    <ele>739</ele>
    <time>2007-06-30T09:29:45Z</time>
    </trkpt>
    <trkpt lat="48.3213258" lon="9.2166924">
    <ele>742</ele>
    <time>2007-06-30T09:29:56Z</time>
    </trkpt>
    <trkpt lat="48.3215833" lon="9.2162204">
    <ele>742</ele>
    <time>2007-06-30T09:29:59Z</time>
    </trkpt>
    <trkpt lat="48.3222699" lon="9.214654">
    <ele>739</ele>
    <time>2007-06-30T09:30:09Z</time>
    </trkpt>
    <trkpt lat="48.3226562" lon="9.2133021">
    <ele>740</ele>
    <time>2007-06-30T09:30:18Z</time>
    </trkpt>
    <trkpt lat="48.3227205" lon="9.2132592">
    <ele>737</ele>
    <time>2007-06-30T09:30:26Z</time>
    </trkpt>
    <trkpt lat="48.3229566" lon="9.2134309">
    <ele>731</ele>
    <time>2007-06-30T09:32:04Z</time>
    </trkpt>
    <trkpt lat="48.3236861" lon="9.2133021">
    <ele>733</ele>
    <time>2007-06-30T09:32:12Z</time>
    </trkpt>
    <trkpt lat="48.3264327" lon="9.2124009">
    <ele>736</ele>
    <time>2007-06-30T09:32:41Z</time>
    </trkpt>
    <trkpt lat="48.3280849" lon="9.2114353">
    <ele>738</ele>
    <time>2007-06-30T09:33:00Z</time>
    </trkpt>
    <trkpt lat="48.3293724" lon="9.2102122">
    <ele>742</ele>
    <time>2007-06-30T09:33:17Z</time>
    </trkpt>
    <trkpt lat="48.330338" lon="9.2097616">
    <ele>745</ele>
    <time>2007-06-30T09:33:30Z</time>
    </trkpt>
    <trkpt lat="48.3306384" lon="9.2096543">
    <ele>746</ele>
    <time>2007-06-30T09:33:40Z</time>
    </trkpt>
    <trkpt lat="48.3305955" lon="9.2096758">
    <ele>751</ele>
    <time>2007-06-30T09:34:23Z</time>
    </trkpt>
    <trkpt lat="48.3312821" lon="9.2094183">
    <ele>751</ele>
    <time>2007-06-30T09:34:33Z</time>
    </trkpt>
    <trkpt lat="48.3318615" lon="9.2092252">
    <ele>751</ele>
    <time>2007-06-30T09:34:40Z</time>
    </trkpt>
    <trkpt lat="48.3325267" lon="9.208324">
    <ele>754</ele>
    <time>2007-06-30T09:34:50Z</time>
    </trkpt>
    <trkpt lat="48.3338356" lon="9.2073584">
    <ele>757</ele>
    <time>2007-06-30T09:35:06Z</time>
    </trkpt>
    <trkpt lat="48.3347154" lon="9.2069507">
    <ele>760</ele>
    <time>2007-06-30T09:35:17Z</time>
    </trkpt>
    <trkpt lat="48.3348441" lon="9.2068863">
    <ele>761</ele>
    <time>2007-06-30T09:35:25Z</time>
    </trkpt>
    <trkpt lat="48.3351231" lon="9.2068219">
    <ele>766</ele>
    <time>2007-06-30T09:37:06Z</time>
    </trkpt>
    <trkpt lat="48.3360457" lon="9.2065644">
    <ele>770</ele>
    <time>2007-06-30T09:37:19Z</time>
    </trkpt>
    <trkpt lat="48.3366036" lon="9.2066288">
    <ele>770</ele>
    <time>2007-06-30T09:37:28Z</time>
    </trkpt>
    <trkpt lat="48.3365393" lon="9.2058563">
    <ele>766</ele>
    <time>2007-06-30T09:37:39Z</time>
    </trkpt>
    <trkpt lat="48.3362818" lon="9.2035389">
    <ele>767</ele>
    <time>2007-06-30T09:38:11Z</time>
    </trkpt>
    <trkpt lat="48.3362389" lon="9.2035389">
    <ele>768</ele>
    <time>2007-06-30T09:38:28Z</time>
    </trkpt>
    <trkpt lat="48.3362389" lon="9.2034101">
    <ele>766</ele>
    <time>2007-06-30T09:38:44Z</time>
    </trkpt>
    <trkpt lat="48.3362818" lon="9.2030454">
    <ele>768</ele>
    <time>2007-06-30T09:39:01Z</time>
    </trkpt>
    <trkpt lat="48.3363247" lon="9.2021227">
    <ele>773</ele>
    <time>2007-06-30T09:39:47Z</time>
    </trkpt>
    <trkpt lat="48.3363032" lon="9.2016935">
    <ele>773</ele>
    <time>2007-06-30T09:40:20Z</time>
    </trkpt>
    <trkpt lat="48.3362603" lon="9.2012858">
    <ele>773</ele>
    <time>2007-06-30T09:40:48Z</time>
    </trkpt>
    <trkpt lat="48.3360887" lon="9.2010069">
    <ele>781</ele>
    <time>2007-06-30T09:41:46Z</time>
    </trkpt>
    <trkpt lat="48.3349885" lon="9.2000601">
    <ele>782</ele>
    <time>2007-06-30T09:42:32Z</time>
    </trkpt>
    <trkpt lat="48.3346107" lon="9.1974622">
    <ele>779</ele>
    <time>2007-06-30T09:43:16Z</time>
    </trkpt>
    <trkpt lat="48.3347502" lon="9.1947652">
    <ele>781</ele>
    <time>2007-06-30T09:43:49Z</time>
    </trkpt>
    <trkpt lat="48.3348441" lon="9.1942906">
    <ele>792</ele>
    <time>2007-06-30T09:54:19Z</time>
    </trkpt>
    <trkpt lat="48.3348441" lon="9.1942906">
    <ele>791</ele>
    <time>2007-06-30T09:54:47Z</time>
    </trkpt>
    <trkpt lat="48.334372" lon="9.194355">
    <ele>789</ele>
    <time>2007-06-30T09:54:56Z</time>
    </trkpt>
    <trkpt lat="48.3332562" lon="9.1945267">
    <ele>780</ele>
    <time>2007-06-30T09:55:10Z</time>
    </trkpt>
    <trkpt lat="48.3331704" lon="9.1945052">
    <ele>779</ele>
    <time>2007-06-30T09:55:21Z</time>
    </trkpt>
    <trkpt lat="48.3331704" lon="9.1944194">
    <ele>777</ele>
    <time>2007-06-30T09:55:49Z</time>
    </trkpt>
    <trkpt lat="48.3332562" lon="9.193604">
    <ele>773</ele>
    <time>2007-06-30T09:55:57Z</time>
    </trkpt>
    <trkpt lat="48.3331704" lon="9.1917372">
    <ele>765</ele>
    <time>2007-06-30T09:56:10Z</time>
    </trkpt>
    <trkpt lat="48.3330631" lon="9.1909218">
    <ele>764</ele>
    <time>2007-06-30T09:56:16Z</time>
    </trkpt>
    <trkpt lat="48.3332348" lon="9.1904497">
    <ele>761</ele>
    <time>2007-06-30T09:56:21Z</time>
    </trkpt>
    <trkpt lat="48.3342648" lon="9.1889262">
    <ele>754</ele>
    <time>2007-06-30T09:56:35Z</time>
    </trkpt>
    <trkpt lat="48.334415" lon="9.1884112">
    <ele>753</ele>
    <time>2007-06-30T09:56:39Z</time>
    </trkpt>
    <trkpt lat="48.3344579" lon="9.1868019">
    <ele>749</ele>
    <time>2007-06-30T09:56:51Z</time>
    </trkpt>
    <trkpt lat="48.3342648" lon="9.1851282">
    <ele>745</ele>
    <time>2007-06-30T09:57:07Z</time>
    </trkpt>
    <trkpt lat="48.3342218" lon="9.1851497">
    <ele>740</ele>
    <time>2007-06-30T09:57:18Z</time>
    </trkpt>
    <trkpt lat="48.3341146" lon="9.1850638">
    <ele>725</ele>
    <time>2007-06-30T09:57:57Z</time>
    </trkpt>
    <trkpt lat="48.3340716" lon="9.1850424">
    <ele>721</ele>
    <time>2007-06-30T09:58:15Z</time>
    </trkpt>
    <trkpt lat="48.3340502" lon="9.184978">
    <ele>721</ele>
    <time>2007-06-30T09:58:22Z</time>
    </trkpt>
    <trkpt lat="48.333385" lon="9.1843128">
    <ele>717</ele>
    <time>2007-06-30T09:58:35Z</time>
    </trkpt>
    <trkpt lat="48.3332992" lon="9.1842699">
    <ele>717</ele>
    <time>2007-06-30T09:58:43Z</time>
    </trkpt>
    <trkpt lat="48.3332133" lon="9.1841841">
    <ele>716</ele>
    <time>2007-06-30T09:59:19Z</time>
    </trkpt>
    <trkpt lat="48.3334064" lon="9.1837978">
    <ele>713</ele>
    <time>2007-06-30T09:59:26Z</time>
    </trkpt>
    <trkpt lat="48.3337498" lon="9.1836905">
    <ele>710</ele>
    <time>2007-06-30T09:59:31Z</time>
    </trkpt>
    <trkpt lat="48.3342433" lon="9.183712">
    <ele>708</ele>
    <time>2007-06-30T09:59:42Z</time>
    </trkpt>
    <trkpt lat="48.3342004" lon="9.1836691">
    <ele>707</ele>
    <time>2007-06-30T10:00:24Z</time>
    </trkpt>
    <trkpt lat="48.3342433" lon="9.1834116">
    <ele>706</ele>
    <time>2007-06-30T10:00:29Z</time>
    </trkpt>
    <trkpt lat="48.3342862" lon="9.183197">
    <ele>705</ele>
    <time>2007-06-30T10:00:33Z</time>
    </trkpt>
    <trkpt lat="48.3347154" lon="9.1832185">
    <ele>705</ele>
    <time>2007-06-30T10:00:39Z</time>
    </trkpt>
    <trkpt lat="48.3357453" lon="9.1833901">
    <ele>705</ele>
    <time>2007-06-30T10:00:47Z</time>
    </trkpt>
    <trkpt lat="48.337419" lon="9.1834331">
    <ele>707</ele>
    <time>2007-06-30T10:00:58Z</time>
    </trkpt>
    <trkpt lat="48.3379984" lon="9.1836905">
    <ele>707</ele>
    <time>2007-06-30T10:01:04Z</time>
    </trkpt>
    <trkpt lat="48.3380842" lon="9.1836262">
    <ele>708</ele>
    <time>2007-06-30T10:01:10Z</time>
    </trkpt>
    <trkpt lat="48.3380413" lon="9.1836691">
    <ele>713</ele>
    <time>2007-06-30T10:02:17Z</time>
    </trkpt>
    <trkpt lat="48.3380842" lon="9.1834116">
    <ele>713</ele>
    <time>2007-06-30T10:02:20Z</time>
    </trkpt>
    <trkpt lat="48.3380198" lon="9.182961">
    <ele>713</ele>
    <time>2007-06-30T10:02:25Z</time>
    </trkpt>
    <trkpt lat="48.337934" lon="9.1827464">
    <ele>711</ele>
    <time>2007-06-30T10:02:34Z</time>
    </trkpt>
    <trkpt lat="48.337934" lon="9.1827464">
    <ele>710</ele>
    <time>2007-06-30T10:02:37Z</time>
    </trkpt>
    <trkpt lat="48.3381648" lon="9.1827733">
    <ele>662</ele>
    <time>2007-06-30T10:06:55Z</time>
    </trkpt>
    <trkpt lat="48.3394222" lon="9.1837894">
    <ele>714</ele>
    <time>2007-06-30T10:07:52Z</time>
    </trkpt>
    <trkpt lat="48.3405452" lon="9.1845017">
    <ele>713</ele>
    <time>2007-06-30T10:08:00Z</time>
    </trkpt>
    <trkpt lat="48.3414667" lon="9.1847073">
    <ele>713</ele>
    <time>2007-06-30T10:08:03Z</time>
    </trkpt>
    <trkpt lat="48.3439647" lon="9.1831987">
    <ele>713</ele>
    <time>2007-06-30T10:08:10Z</time>
    </trkpt>
    <trkpt lat="48.3441436" lon="9.1837727">
    <ele>712</ele>
    <time>2007-06-30T10:08:23Z</time>
    </trkpt>
    <trkpt lat="48.3448859" lon="9.1835393">
    <ele>712</ele>
    <time>2007-06-30T10:08:30Z</time>
    </trkpt>
    <trkpt lat="48.3458527" lon="9.183509">
    <ele>712</ele>
    <time>2007-06-30T10:08:39Z</time>
    </trkpt>
    <trkpt lat="48.3469993" lon="9.1835469">
    <ele>712</ele>
    <time>2007-06-30T10:08:50Z</time>
    </trkpt>
    <trkpt lat="48.3480108" lon="9.1836517">
    <ele>711</ele>
    <time>2007-06-30T10:08:53Z</time>
    </trkpt>
    <trkpt lat="48.3494936" lon="9.1843316">
    <ele>713</ele>
    <time>2007-06-30T10:09:02Z</time>
    </trkpt>
    <trkpt lat="48.3501649" lon="9.1858363">
    <ele>715</ele>
    <time>2007-06-30T10:09:11Z</time>
    </trkpt>
    <trkpt lat="48.3505022" lon="9.1862578">
    <ele>719</ele>
    <time>2007-06-30T10:09:16Z</time>
    </trkpt>
    <trkpt lat="48.3509159" lon="9.1873813">
    <ele>720</ele>
    <time>2007-06-30T10:09:22Z</time>
    </trkpt>
    <trkpt lat="48.3510447" lon="9.1878319">
    <ele>721</ele>
    <time>2007-06-30T10:09:26Z</time>
    </trkpt>
    <trkpt lat="48.3512807" lon="9.1881323">
    <ele>723</ele>
    <time>2007-06-30T10:09:33Z</time>
    </trkpt>
    <trkpt lat="48.3513021" lon="9.1881323">
    <ele>724</ele>
    <time>2007-06-30T10:09:41Z</time>
    </trkpt>
    <trkpt lat="48.3514953" lon="9.188025">
    <ele>723</ele>
    <time>2007-06-30T10:10:42Z</time>
    </trkpt>
    <trkpt lat="48.3521175" lon="9.1877675">
    <ele>724</ele>
    <time>2007-06-30T10:10:50Z</time>
    </trkpt>
    <trkpt lat="48.35289" lon="9.187274">
    <ele>725</ele>
    <time>2007-06-30T10:10:58Z</time>
    </trkpt>
    <trkpt lat="48.3534265" lon="9.1860723">
    <ele>728</ele>
    <time>2007-06-30T10:11:08Z</time>
    </trkpt>
    <trkpt lat="48.3538342" lon="9.1840124">
    <ele>734</ele>
    <time>2007-06-30T10:11:21Z</time>
    </trkpt>
    <trkpt lat="48.3540702" lon="9.1825962">
    <ele>737</ele>
    <time>2007-06-30T10:11:29Z</time>
    </trkpt>
    <trkpt lat="48.3540058" lon="9.1818452">
    <ele>739</ele>
    <time>2007-06-30T10:11:33Z</time>
    </trkpt>
    <trkpt lat="48.3538556" lon="9.1798925">
    <ele>749</ele>
    <time>2007-06-30T10:11:44Z</time>
    </trkpt>
    <trkpt lat="48.3538771" lon="9.1793776">
    <ele>749</ele>
    <time>2007-06-30T10:11:47Z</time>
    </trkpt>
    <trkpt lat="48.3540273" lon="9.1776824">
    <ele>757</ele>
    <time>2007-06-30T10:11:59Z</time>
    </trkpt>
    <trkpt lat="48.3540273" lon="9.177382">
    <ele>759</ele>
    <time>2007-06-30T10:12:03Z</time>
    </trkpt>
    <trkpt lat="48.3540916" lon="9.1762018">
    <ele>762</ele>
    <time>2007-06-30T10:12:16Z</time>
    </trkpt>
    <trkpt lat="48.3541131" lon="9.176116">
    <ele>762</ele>
    <time>2007-06-30T10:12:17Z</time>
    </trkpt>
    <trkpt lat="48.3542204" lon="9.17588">
    <ele>762</ele>
    <time>2007-06-30T10:12:21Z</time>
    </trkpt>
    <trkpt lat="48.3544779" lon="9.1754937">
    <ele>762</ele>
    <time>2007-06-30T10:12:29Z</time>
    </trkpt>
    <trkpt lat="48.3547354" lon="9.1750216">
    <ele>761</ele>
    <time>2007-06-30T10:12:43Z</time>
    </trkpt>
    <trkpt lat="48.3551216" lon="9.1742063">
    <ele>759</ele>
    <time>2007-06-30T10:12:57Z</time>
    </trkpt>
    <trkpt lat="48.3555937" lon="9.1734123">
    <ele>758</ele>
    <time>2007-06-30T10:13:11Z</time>
    </trkpt>
    <trkpt lat="48.3560443" lon="9.1715455">
    <ele>766</ele>
    <time>2007-06-30T10:13:33Z</time>
    </trkpt>
    <trkpt lat="48.3563063" lon="9.1694121">
    <ele>781</ele>
    <time>2007-06-30T10:13:46Z</time>
    </trkpt>
    <trkpt lat="48.3568701" lon="9.168267">
    <ele>795</ele>
    <time>2007-06-30T10:13:59Z</time>
    </trkpt>
    <trkpt lat="48.3582476" lon="9.1640209">
    <ele>774</ele>
    <time>2007-06-30T10:14:25Z</time>
    </trkpt>
    <trkpt lat="48.3585183" lon="9.1634146">
    <ele>784</ele>
    <time>2007-06-30T10:15:36Z</time>
    </trkpt>
    <trkpt lat="48.3588338" lon="9.1637135">
    <ele>753</ele>
    <time>2007-06-30T10:20:31Z</time>
    </trkpt>
    <trkpt lat="48.3586836" lon="9.1635418">
    <ele>793</ele>
    <time>2007-06-30T10:21:10Z</time>
    </trkpt>
    <trkpt lat="48.3587265" lon="9.1627264">
    <ele>796</ele>
    <time>2007-06-30T10:21:19Z</time>
    </trkpt>
    <trkpt lat="48.3587265" lon="9.1625977">
    <ele>796</ele>
    <time>2007-06-30T10:21:20Z</time>
    </trkpt>
    <trkpt lat="48.3593059" lon="9.1610312">
    <ele>804</ele>
    <time>2007-06-30T10:21:35Z</time>
    </trkpt>
    <trkpt lat="48.3593917" lon="9.1603231">
    <ele>804</ele>
    <time>2007-06-30T10:21:42Z</time>
    </trkpt>
    <trkpt lat="48.3590913" lon="9.1596365">
    <ele>802</ele>
    <time>2007-06-30T10:21:51Z</time>
    </trkpt>
    <trkpt lat="48.358469" lon="9.1594434">
    <ele>802</ele>
    <time>2007-06-30T10:21:59Z</time>
    </trkpt>
    <trkpt lat="48.3573961" lon="9.1598725">
    <ele>801</ele>
    <time>2007-06-30T10:22:13Z</time>
    </trkpt>
    <trkpt lat="48.3571815" lon="9.1599584">
    <ele>802</ele>
    <time>2007-06-30T10:22:16Z</time>
    </trkpt>
    <trkpt lat="48.3569455" lon="9.159615">
    <ele>799</ele>
    <time>2007-06-30T10:22:23Z</time>
    </trkpt>
    <trkpt lat="48.356967" lon="9.1595507">
    <ele>799</ele>
    <time>2007-06-30T10:22:24Z</time>
    </trkpt>
    <trkpt lat="48.3569884" lon="9.1594648">
    <ele>799</ele>
    <time>2007-06-30T10:22:34Z</time>
    </trkpt>
    <trkpt lat="48.3570099" lon="9.1594434">
    <ele>802</ele>
    <time>2007-06-30T10:23:10Z</time>
    </trkpt>
    <trkpt lat="48.3576107" lon="9.1586924">
    <ele>796</ele>
    <time>2007-06-30T10:23:20Z</time>
    </trkpt>
    <trkpt lat="48.358705" lon="9.1574693">
    <ele>788</ele>
    <time>2007-06-30T10:23:34Z</time>
    </trkpt>
    <trkpt lat="48.3597779" lon="9.1574049">
    <ele>789</ele>
    <time>2007-06-30T10:23:46Z</time>
    </trkpt>
    <trkpt lat="48.3599496" lon="9.1573834">
    <ele>790</ele>
    <time>2007-06-30T10:23:48Z</time>
    </trkpt>
    <trkpt lat="48.3607088" lon="9.1564718">
    <ele>790</ele>
    <time>2007-06-30T10:23:55Z</time>
    </trkpt>
    <trkpt lat="48.3616756" lon="9.1564073">
    <ele>788</ele>
    <time>2007-06-30T10:24:05Z</time>
    </trkpt>
    <trkpt lat="48.3613229" lon="9.1563535">
    <ele>770</ele>
    <time>2007-06-30T10:25:54Z</time>
    </trkpt>
    <trkpt lat="48.3610225" lon="9.1561174">
    <ele>768</ele>
    <time>2007-06-30T10:25:59Z</time>
    </trkpt>
    <trkpt lat="48.3608508" lon="9.1558814">
    <ele>767</ele>
    <time>2007-06-30T10:26:02Z</time>
    </trkpt>
    <trkpt lat="48.3607435" lon="9.1553664">
    <ele>766</ele>
    <time>2007-06-30T10:26:07Z</time>
    </trkpt>
    <trkpt lat="48.3608079" lon="9.1549802">
    <ele>766</ele>
    <time>2007-06-30T10:26:10Z</time>
    </trkpt>
    <trkpt lat="48.3607006" lon="9.1528988">
    <ele>761</ele>
    <time>2007-06-30T10:26:25Z</time>
    </trkpt>
    <trkpt lat="48.3605504" lon="9.1498733">
    <ele>756</ele>
    <time>2007-06-30T10:26:48Z</time>
    </trkpt>
    <trkpt lat="48.3604646" lon="9.1493583">
    <ele>753</ele>
    <time>2007-06-30T10:26:57Z</time>
    </trkpt>
    <trkpt lat="48.3604646" lon="9.1493154">
    <ele>739</ele>
    <time>2007-06-30T10:28:16Z</time>
    </trkpt>
    <trkpt lat="48.3603144" lon="9.1492724">
    <ele>739</ele>
    <time>2007-06-30T10:28:21Z</time>
    </trkpt>
    <trkpt lat="48.3594775" lon="9.1497231">
    <ele>744</ele>
    <time>2007-06-30T10:28:35Z</time>
    </trkpt>
    <trkpt lat="48.3588123" lon="9.149766">
    <ele>748</ele>
    <time>2007-06-30T10:28:46Z</time>
    </trkpt>
    <trkpt lat="48.3580613" lon="9.149766">
    <ele>753</ele>
    <time>2007-06-30T10:28:59Z</time>
    </trkpt>
    <trkpt lat="48.357718" lon="9.1496587">
    <ele>752</ele>
    <time>2007-06-30T10:29:07Z</time>
    </trkpt>
    <trkpt lat="48.3575711" lon="9.1489731">
    <ele>744</ele>
    <time>2007-06-30T10:29:18Z</time>
    </trkpt>
    <trkpt lat="48.3575047" lon="9.1481971">
    <ele>741</ele>
    <time>2007-06-30T10:30:29Z</time>
    </trkpt>
    <trkpt lat="48.357483" lon="9.1475898">
    <ele>750</ele>
    <time>2007-06-30T10:30:38Z</time>
    </trkpt>
    <trkpt lat="48.3569241" lon="9.1477919">
    <ele>737</ele>
    <time>2007-06-30T10:30:48Z</time>
    </trkpt>
    <trkpt lat="48.3569241" lon="9.1477919">
    <ele>733</ele>
    <time>2007-08-10T10:13:25Z</time>
    </trkpt>
    <trkpt lat="48.3568168" lon="9.1476417">
    <ele>729</ele>
    <time>2007-06-30T10:34:40Z</time>
    </trkpt>
    <trkpt lat="48.3567953" lon="9.1471696">
    <ele>728</ele>
    <time>2007-06-30T10:34:53Z</time>
    </trkpt>
    <trkpt lat="48.3567739" lon="9.1471267">
    <ele>728</ele>
    <time>2007-06-30T10:34:55Z</time>
    </trkpt>
    <trkpt lat="48.3567524" lon="9.1471052">
    <ele>728</ele>
    <time>2007-06-30T10:35:04Z</time>
    </trkpt>
    <trkpt lat="48.3567524" lon="9.1469765">
    <ele>732</ele>
    <time>2007-06-30T10:35:16Z</time>
    </trkpt>
    <trkpt lat="48.3567524" lon="9.1468477">
    <ele>733</ele>
    <time>2007-06-30T10:35:46Z</time>
    </trkpt>
    <trkpt lat="48.3567524" lon="9.1468477">
    <ele>735</ele>
    <time>2007-06-30T10:36:24Z</time>
    </trkpt>
    <trkpt lat="48.3566451" lon="9.1468263">
    <ele>734</ele>
    <time>2007-06-30T10:36:28Z</time>
    </trkpt>
    <trkpt lat="48.3564734" lon="9.1469765">
    <ele>733</ele>
    <time>2007-06-30T10:36:34Z</time>
    </trkpt>
    <trkpt lat="48.3561301" lon="9.146719">
    <ele>726</ele>
    <time>2007-06-30T10:36:44Z</time>
    </trkpt>
    <trkpt lat="48.3557653" lon="9.1463113">
    <ele>724</ele>
    <time>2007-06-30T10:36:53Z</time>
    </trkpt>
    <trkpt lat="48.3556795" lon="9.1459036">
    <ele>723</ele>
    <time>2007-06-30T10:37:03Z</time>
    </trkpt>
    <trkpt lat="48.3556795" lon="9.1458392">
    <ele>730</ele>
    <time>2007-06-30T10:37:54Z</time>
    </trkpt>
    <trkpt lat="48.3553791" lon="9.1458392">
    <ele>728</ele>
    <time>2007-06-30T10:38:00Z</time>
    </trkpt>
    <trkpt lat="48.35495" lon="9.1460538">
    <ele>727</ele>
    <time>2007-06-30T10:38:06Z</time>
    </trkpt>
    <trkpt lat="48.3544564" lon="9.145925">
    <ele>725</ele>
    <time>2007-06-30T10:38:13Z</time>
    </trkpt>
    <trkpt lat="48.3542418" lon="9.1457534">
    <ele>724</ele>
    <time>2007-06-30T10:38:17Z</time>
    </trkpt>
    <trkpt lat="48.354156" lon="9.1456676">
    <ele>722</ele>
    <time>2007-06-30T10:38:26Z</time>
    </trkpt>
    <trkpt lat="48.3540058" lon="9.145453">
    <ele>721</ele>
    <time>2007-06-30T10:41:36Z</time>
    </trkpt>
    <trkpt lat="48.3537912" lon="9.1451526">
    <ele>724</ele>
    <time>2007-06-30T10:41:49Z</time>
    </trkpt>
    <trkpt lat="48.3529758" lon="9.1441441">
    <ele>727</ele>
    <time>2007-06-30T10:42:00Z</time>
    </trkpt>
    <trkpt lat="48.3511519" lon="9.142406">
    <ele>735</ele>
    <time>2007-06-30T10:42:23Z</time>
    </trkpt>
    <trkpt lat="48.3492851" lon="9.1406894">
    <ele>744</ele>
    <time>2007-06-30T10:42:48Z</time>
    </trkpt>
    <trkpt lat="48.3475471" lon="9.1386938">
    <ele>759</ele>
    <time>2007-06-30T10:43:13Z</time>
    </trkpt>
    <trkpt lat="48.345809" lon="9.1371274">
    <ele>762</ele>
    <time>2007-06-30T10:43:43Z</time>
    </trkpt>
    <trkpt lat="48.3433414" lon="9.1353893">
    <ele>827</ele>
    <time>2007-06-30T10:44:27Z</time>
    </trkpt>
    <trkpt lat="48.3432126" lon="9.1351748">
    <ele>829</ele>
    <time>2007-06-30T10:44:30Z</time>
    </trkpt>
    <trkpt lat="48.3423328" lon="9.1344237">
    <ele>829</ele>
    <time>2007-06-30T10:44:47Z</time>
    </trkpt>
    <trkpt lat="48.3423972" lon="9.1345739">
    <ele>832</ele>
    <time>2007-06-30T10:45:36Z</time>
    </trkpt>
    <trkpt lat="48.342483" lon="9.1344452">
    <ele>834</ele>
    <time>2007-06-30T10:46:11Z</time>
    </trkpt>
    <trkpt lat="48.3426332" lon="9.1341662">
    <ele>833</ele>
    <time>2007-06-30T10:46:13Z</time>
    </trkpt>
    <trkpt lat="48.3428264" lon="9.1330504">
    <ele>833</ele>
    <time>2007-06-30T10:46:15Z</time>
    </trkpt>
    <trkpt lat="48.3434701" lon="9.132278">
    <ele>833</ele>
    <time>2007-06-30T10:46:34Z</time>
    </trkpt>
    <trkpt lat="48.3434916" lon="9.1322565">
    <ele>833</ele>
    <time>2007-06-30T10:46:36Z</time>
    </trkpt>
    <trkpt lat="48.3438349" lon="9.1320634">
    <ele>833</ele>
    <time>2007-06-30T10:46:47Z</time>
    </trkpt>
    <trkpt lat="48.3443928" lon="9.1317844">
    <ele>833</ele>
    <time>2007-06-30T10:47:00Z</time>
    </trkpt>
    <trkpt lat="48.3449292" lon="9.1316557">
    <ele>834</ele>
    <time>2007-06-30T10:47:11Z</time>
    </trkpt>
    <trkpt lat="48.3449936" lon="9.1316128">
    <ele>834</ele>
    <time>2007-06-30T10:47:13Z</time>
    </trkpt>
    <trkpt lat="48.3450365" lon="9.1315055">
    <ele>837</ele>
    <time>2007-06-30T10:47:27Z</time>
    </trkpt>
    <trkpt lat="48.3450365" lon="9.1314626">
    <ele>845</ele>
    <time>2007-06-30T10:48:23Z</time>
    </trkpt>
    <trkpt lat="48.344779" lon="9.1312265">
    <ele>843</ele>
    <time>2007-06-30T10:48:35Z</time>
    </trkpt>
    <trkpt lat="48.3443499" lon="9.1308618">
    <ele>843</ele>
    <time>2007-06-30T10:48:49Z</time>
    </trkpt>
    <trkpt lat="48.3445001" lon="9.1301537">
    <ele>845</ele>
    <time>2007-06-30T10:49:05Z</time>
    </trkpt>
    <trkpt lat="48.345058" lon="9.1288018">
    <ele>841</ele>
    <time>2007-06-30T10:49:34Z</time>
    </trkpt>
    <trkpt lat="48.3451438" lon="9.1286087">
    <ele>840</ele>
    <time>2007-06-30T10:49:38Z</time>
    </trkpt>
    <trkpt lat="48.3451867" lon="9.1283512">
    <ele>840</ele>
    <time>2007-06-30T10:49:43Z</time>
    </trkpt>
    <trkpt lat="48.3452082" lon="9.1274929">
    <ele>835</ele>
    <time>2007-06-30T10:50:04Z</time>
    </trkpt>
    <trkpt lat="48.3451867" lon="9.1273212">
    <ele>834</ele>
    <time>2007-06-30T10:50:08Z</time>
    </trkpt>
    <trkpt lat="48.345015" lon="9.1272354">
    <ele>834</ele>
    <time>2007-06-30T10:50:12Z</time>
    </trkpt>
    <trkpt lat="48.3444571" lon="9.1269565">
    <ele>833</ele>
    <time>2007-06-30T10:50:25Z</time>
    </trkpt>
    <trkpt lat="48.3441997" lon="9.1267633">
    <ele>831</ele>
    <time>2007-06-30T10:50:32Z</time>
    </trkpt>
    <trkpt lat="48.3441782" lon="9.1266561">
    <ele>826</ele>
    <time>2007-06-30T10:50:46Z</time>
    </trkpt>
    <trkpt lat="48.3440924" lon="9.1263986">
    <ele>815</ele>
    <time>2007-06-30T10:52:17Z</time>
    </trkpt>
    <trkpt lat="48.3440709" lon="9.126184">
    <ele>815</ele>
    <time>2007-06-30T10:52:23Z</time>
    </trkpt>
    <trkpt lat="48.3441353" lon="9.125433">
    <ele>818</ele>
    <time>2007-06-30T10:52:33Z</time>
    </trkpt>
    <trkpt lat="48.3441567" lon="9.1253042">
    <ele>818</ele>
    <time>2007-06-30T10:52:35Z</time>
    </trkpt>
    <trkpt lat="48.3446074" lon="9.1244888">
    <ele>817</ele>
    <time>2007-06-30T10:52:52Z</time>
    </trkpt>
    <trkpt lat="48.3447361" lon="9.1244888">
    <ele>817</ele>
    <time>2007-06-30T10:52:55Z</time>
    </trkpt>
    <trkpt lat="48.3449078" lon="9.1245961">
    <ele>817</ele>
    <time>2007-06-30T10:52:59Z</time>
    </trkpt>
    <trkpt lat="48.3454657" lon="9.1250253">
    <ele>816</ele>
    <time>2007-06-30T10:53:13Z</time>
    </trkpt>
    <trkpt lat="48.3459163" lon="9.125154">
    <ele>815</ele>
    <time>2007-06-30T10:53:23Z</time>
    </trkpt>
    <trkpt lat="48.3469462" lon="9.1242313">
    <ele>814</ele>
    <time>2007-06-30T10:53:46Z</time>
    </trkpt>
    <trkpt lat="48.3481908" lon="9.123373">
    <ele>815</ele>
    <time>2007-06-30T10:54:14Z</time>
    </trkpt>
    <trkpt lat="48.3482981" lon="9.1233087">
    <ele>815</ele>
    <time>2007-06-30T10:54:17Z</time>
    </trkpt>
    <trkpt lat="48.3496499" lon="9.123373">
    <ele>813</ele>
    <time>2007-06-30T10:54:47Z</time>
    </trkpt>
    <trkpt lat="48.3497572" lon="9.1234159">
    <ele>813</ele>
    <time>2007-06-30T10:54:49Z</time>
    </trkpt>
    <trkpt lat="48.3499503" lon="9.1233301">
    <ele>813</ele>
    <time>2007-06-30T10:54:53Z</time>
    </trkpt>
    <trkpt lat="48.3499932" lon="9.1232228">
    <ele>813</ele>
    <time>2007-06-30T10:54:55Z</time>
    </trkpt>
    <trkpt lat="48.3500361" lon="9.1229653">
    <ele>814</ele>
    <time>2007-06-30T10:54:59Z</time>
    </trkpt>
    <trkpt lat="48.3494782" lon="9.1210771">
    <ele>814</ele>
    <time>2007-06-30T10:55:25Z</time>
    </trkpt>
    <trkpt lat="48.3495641" lon="9.1184163">
    <ele>814</ele>
    <time>2007-06-30T10:56:02Z</time>
    </trkpt>
    <trkpt lat="48.349843" lon="9.1169143">
    <ele>814</ele>
    <time>2007-06-30T10:56:21Z</time>
    </trkpt>
    <trkpt lat="48.3505082" lon="9.1145968">
    <ele>819</ele>
    <time>2007-06-30T10:56:49Z</time>
    </trkpt>
    <trkpt lat="48.3511949" lon="9.1130733">
    <ele>826</ele>
    <time>2007-06-30T10:57:10Z</time>
    </trkpt>
    <trkpt lat="48.3523321" lon="9.1113353">
    <ele>826</ele>
    <time>2007-06-30T10:57:39Z</time>
    </trkpt>
    <trkpt lat="48.3524179" lon="9.111228">
    <ele>826</ele>
    <time>2007-06-30T10:57:41Z</time>
    </trkpt>
    <trkpt lat="48.3540702" lon="9.1110563">
    <ele>825</ele>
    <time>2007-06-30T10:58:04Z</time>
    </trkpt>
    <trkpt lat="48.3549929" lon="9.1110778">
    <ele>829</ele>
    <time>2007-06-30T10:58:22Z</time>
    </trkpt>
    <trkpt lat="48.3552933" lon="9.111228">
    <ele>829</ele>
    <time>2007-06-30T10:58:28Z</time>
    </trkpt>
    <trkpt lat="48.3560872" lon="9.1120648">
    <ele>826</ele>
    <time>2007-06-30T10:58:47Z</time>
    </trkpt>
    <trkpt lat="48.356173" lon="9.1121078">
    <ele>839</ele>
    <time>2007-06-30T11:02:30Z</time>
    </trkpt>
    <trkpt lat="48.3565164" lon="9.1123652">
    <ele>833</ele>
    <time>2007-06-30T11:02:40Z</time>
    </trkpt>
    <trkpt lat="48.3565164" lon="9.1120219">
    <ele>831</ele>
    <time>2007-06-30T11:02:46Z</time>
    </trkpt>
    <trkpt lat="48.3559799" lon="9.1106701">
    <ele>825</ele>
    <time>2007-06-30T11:03:01Z</time>
    </trkpt>
    <trkpt lat="48.3562729337502" lon="9.11046410202422">
    <ele>821</ele>
    <time>2007-06-30T11:03:11Z</time>
    </trkpt>
    <trkpt lat="48.3553091198337" lon="9.10735857476837">
    <ele>812</ele>
    <time>2007-06-30T11:04:04Z</time>
    </trkpt>
    <trkpt lat="48.3545852" lon="9.1058421">
    <ele>809</ele>
    <time>2007-06-30T11:04:11Z</time>
    </trkpt>
    <trkpt lat="48.3545852" lon="9.1058421">
    <ele>791</ele>
    <time>2007-06-30T11:05:01Z</time>
    </trkpt>
    <trkpt lat="48.3544779" lon="9.1056061">
    <ele>804</ele>
    <time>2007-06-30T11:40:37Z</time>
    </trkpt>
    <trkpt lat="48.3546495" lon="9.1055846">
    <ele>790</ele>
    <time>2007-06-30T11:40:43Z</time>
    </trkpt>
    <trkpt lat="48.3554006" lon="9.1048765">
    <ele>799</ele>
    <time>2007-06-30T11:40:54Z</time>
    </trkpt>
    <trkpt lat="48.3557653" lon="9.1045547">
    <ele>801</ele>
    <time>2007-06-30T11:41:00Z</time>
    </trkpt>
    <trkpt lat="48.3562589" lon="9.1036534">
    <ele>798</ele>
    <time>2007-06-30T11:41:08Z</time>
    </trkpt>
    <trkpt lat="48.3568597" lon="9.1025376">
    <ele>796</ele>
    <time>2007-06-30T11:41:17Z</time>
    </trkpt>
    <trkpt lat="48.3579755" lon="9.1007996">
    <ele>798</ele>
    <time>2007-06-30T11:41:29Z</time>
    </trkpt>
    <trkpt lat="48.3589625" lon="9.0984607">
    <ele>804</ele>
    <time>2007-06-30T11:41:44Z</time>
    </trkpt>
    <trkpt lat="48.35922" lon="9.0970016">
    <ele>807</ele>
    <time>2007-06-30T11:41:54Z</time>
    </trkpt>
    <trkpt lat="48.3591342" lon="9.0957785">
    <ele>809</ele>
    <time>2007-06-30T11:42:03Z</time>
    </trkpt>
    <trkpt lat="48.3591342" lon="9.0957141">
    <ele>809</ele>
    <time>2007-06-30T11:42:04Z</time>
    </trkpt>
    <trkpt lat="48.3591557" lon="9.0955853">
    <ele>807</ele>
    <time>2007-06-30T11:42:12Z</time>
    </trkpt>
    <trkpt lat="48.3591771" lon="9.0955639">
    <ele>807</ele>
    <time>2007-06-30T11:42:58Z</time>
    </trkpt>
    <trkpt lat="48.3589411" lon="9.0945554">
    <ele>807</ele>
    <time>2007-06-30T11:43:07Z</time>
    </trkpt>
    <trkpt lat="48.3584476" lon="9.0924954">
    <ele>807</ele>
    <time>2007-06-30T11:43:22Z</time>
    </trkpt>
    <trkpt lat="48.3584261" lon="9.0923667">
    <ele>807</ele>
    <time>2007-06-30T11:43:23Z</time>
    </trkpt>
    <trkpt lat="48.3584046" lon="9.0917873">
    <ele>809</ele>
    <time>2007-06-30T11:43:32Z</time>
    </trkpt>
    <trkpt lat="48.3583832" lon="9.0917873">
    <ele>811</ele>
    <time>2007-06-30T11:44:16Z</time>
    </trkpt>
    <trkpt lat="48.3584476" lon="9.0906715">
    <ele>814</ele>
    <time>2007-06-30T11:44:27Z</time>
    </trkpt>
    <trkpt lat="48.358748" lon="9.0884399">
    <ele>815</ele>
    <time>2007-06-30T11:44:40Z</time>
    </trkpt>
    <trkpt lat="48.3593917" lon="9.0844703">
    <ele>816</ele>
    <time>2007-06-30T11:45:01Z</time>
    </trkpt>
    <trkpt lat="48.3599496" lon="9.0825176">
    <ele>822</ele>
    <time>2007-06-30T11:45:11Z</time>
    </trkpt>
    <trkpt lat="48.3601856" lon="9.0803289">
    <ele>829</ele>
    <time>2007-06-30T11:45:23Z</time>
    </trkpt>
    <trkpt lat="48.36025" lon="9.0786552">
    <ele>834</ele>
    <time>2007-06-30T11:45:35Z</time>
    </trkpt>
    <trkpt lat="48.3602715" lon="9.0779686">
    <ele>833</ele>
    <time>2007-06-30T11:45:44Z</time>
    </trkpt>
    <trkpt lat="48.3602715" lon="9.0781832">
    <ele>844</ele>
    <time>2007-06-30T11:47:47Z</time>
    </trkpt>
    <trkpt lat="48.360014" lon="9.0777326">
    <ele>844</ele>
    <time>2007-06-30T11:47:58Z</time>
    </trkpt>
    <trkpt lat="48.359735" lon="9.0770459">
    <ele>847</ele>
    <time>2007-06-30T11:48:08Z</time>
    </trkpt>
    <trkpt lat="48.3595419" lon="9.075973">
    <ele>848</ele>
    <time>2007-06-30T11:48:23Z</time>
    </trkpt>
    <trkpt lat="48.3590913" lon="9.0745997">
    <ele>846</ele>
    <time>2007-06-30T11:48:46Z</time>
    </trkpt>
    <trkpt lat="48.3589411" lon="9.0737414">
    <ele>845</ele>
    <time>2007-06-30T11:48:58Z</time>
    </trkpt>
    <trkpt lat="48.3589196" lon="9.0736556">
    <ele>845</ele>
    <time>2007-06-30T11:48:59Z</time>
    </trkpt>
    <trkpt lat="48.3584261" lon="9.0720892">
    <ele>843</ele>
    <time>2007-06-30T11:49:19Z</time>
    </trkpt>
    <trkpt lat="48.3582759" lon="9.0710378">
    <ele>843</ele>
    <time>2007-06-30T11:49:35Z</time>
    </trkpt>
    <trkpt lat="48.3579111" lon="9.0696859">
    <ele>841</ele>
    <time>2007-06-30T11:49:53Z</time>
    </trkpt>
    <trkpt lat="48.357203" lon="9.0672827">
    <ele>841</ele>
    <time>2007-06-30T11:50:22Z</time>
    </trkpt>
    <trkpt lat="48.3568382" lon="9.0650296">
    <ele>841</ele>
    <time>2007-06-30T11:50:47Z</time>
    </trkpt>
    <trkpt lat="48.3565784928114" lon="9.0630348713352">
    <ele>841</ele>
    <time>2007-06-30T11:51:37Z</time>
    </trkpt>
    <trkpt lat="48.3549387604949" lon="9.06023302333781">
    <ele>841</ele>
    <time>2007-06-30T11:52:01Z</time>
    </trkpt>
    <trkpt lat="48.3546495" lon="9.0588069">
    <ele>842</ele>
    <time>2007-06-30T11:52:08Z</time>
    </trkpt>
    <trkpt lat="48.3546477153038" lon="9.05783766265249">
    <time>2007-06-30T11:52:19Z</time>
    </trkpt>
    <trkpt lat="48.3541759505262" lon="9.05709501742171">
    <ele>841</ele>
    <time>2007-06-30T11:52:30Z</time>
    </trkpt>
    <trkpt lat="48.3536625" lon="9.0551805">
    <ele>841</ele>
    <time>2007-06-30T11:53:00Z</time>
    </trkpt>
    <trkpt lat="48.353126" lon="9.0526056">
    <ele>841</ele>
    <time>2007-06-30T11:53:37Z</time>
    </trkpt>
    <trkpt lat="48.3534298" lon="9.0504641">
    <ele>842</ele>
    <time>2007-06-30T11:54:15Z</time>
    </trkpt>
    <trkpt lat="48.3535877" lon="9.0491487">
    <ele>842</ele>
    <time>2007-06-30T11:54:36Z</time>
    </trkpt>
    <trkpt lat="48.3531006313778" lon="9.04872837400739">
    <time>2007-06-30T11:54:44Z</time>
    </trkpt>
    <trkpt lat="48.3521263" lon="9.0492822">
    <ele>846</ele>
    <time>2007-06-30T11:54:52Z</time>
    </trkpt>
    <trkpt lat="48.350777" lon="9.0501916">
    <ele>848</ele>
    <time>2007-06-30T11:55:20Z</time>
    </trkpt>
    <trkpt lat="48.3493924" lon="9.0502238">
    <ele>871</ele>
    <time>2007-06-30T11:59:10Z</time>
    </trkpt>
    <trkpt lat="48.3486199" lon="9.050138">
    <ele>870</ele>
    <time>2007-06-30T11:59:35Z</time>
    </trkpt>
    <trkpt lat="48.3487487" lon="9.0512538">
    <ele>861</ele>
    <time>2007-06-30T12:03:22Z</time>
    </trkpt>
    <trkpt lat="48.3485556" lon="9.0512753">
    <ele>861</ele>
    <time>2007-06-30T12:04:03Z</time>
    </trkpt>
    <trkpt lat="48.3485126" lon="9.0513182">
    <ele>862</ele>
    <time>2007-06-30T12:04:11Z</time>
    </trkpt>
    <trkpt lat="48.3482766" lon="9.0516829">
    <ele>863</ele>
    <time>2007-06-30T12:04:35Z</time>
    </trkpt>
    <trkpt lat="48.3479548" lon="9.0520692">
    <ele>863</ele>
    <time>2007-06-30T12:05:00Z</time>
    </trkpt>
    <trkpt lat="48.3477402" lon="9.0522194">
    <ele>860</ele>
    <time>2007-06-30T12:05:20Z</time>
    </trkpt>
    <trkpt lat="48.3474827" lon="9.0525198">
    <ele>859</ele>
    <time>2007-06-30T12:05:42Z</time>
    </trkpt>
    <trkpt lat="48.3473325" lon="9.0526915">
    <ele>858</ele>
    <time>2007-06-30T12:06:03Z</time>
    </trkpt>
    <trkpt lat="48.3471823" lon="9.052949">
    <ele>858</ele>
    <time>2007-06-30T12:06:24Z</time>
    </trkpt>
    <trkpt lat="48.3468604" lon="9.0532494">
    <ele>856</ele>
    <time>2007-06-30T12:06:47Z</time>
    </trkpt>
    <trkpt lat="48.3465385" lon="9.0536571">
    <ele>856</ele>
    <time>2007-06-30T12:07:14Z</time>
    </trkpt>
    <trkpt lat="48.3463025" lon="9.0539575">
    <ele>855</ele>
    <time>2007-06-30T12:07:34Z</time>
    </trkpt>
    <trkpt lat="48.3452082" lon="9.0548587">
    <ele>852</ele>
    <time>2007-06-30T12:08:07Z</time>
    </trkpt>
    <trkpt lat="48.3452082" lon="9.0548587">
    <ele>851</ele>
    <time>2007-06-30T12:09:24Z</time>
    </trkpt>
    <trkpt lat="48.3448434" lon="9.0551376">
    <ele>851</ele>
    <time>2007-06-30T12:09:46Z</time>
    </trkpt>
    <trkpt lat="48.344779" lon="9.0551591">
    <ele>853</ele>
    <time>2007-06-30T12:09:55Z</time>
    </trkpt>
    <trkpt lat="48.3446288" lon="9.0551591">
    <ele>850</ele>
    <time>2007-06-30T12:10:06Z</time>
    </trkpt>
    <trkpt lat="48.3440924" lon="9.055438">
    <ele>848</ele>
    <time>2007-06-30T12:10:42Z</time>
    </trkpt>
    <trkpt lat="48.3428678142726" lon="9.05576711724665">
    <ele>848</ele>
    <time>2007-06-30T12:11:21Z</time>
    </trkpt>
    <trkpt lat="48.340981" lon="9.0561891">
    <ele>861</ele>
    <time>2007-06-30T12:31:53Z</time>
    </trkpt>
    <trkpt lat="48.3404875" lon="9.0566611">
    <ele>857</ele>
    <time>2007-06-30T12:32:03Z</time>
    </trkpt>
    <trkpt lat="48.3393717" lon="9.0569615">
    <ele>857</ele>
    <time>2007-06-30T12:32:22Z</time>
    </trkpt>
    <trkpt lat="48.3389425" lon="9.0571117">
    <ele>856</ele>
    <time>2007-06-30T12:32:29Z</time>
    </trkpt>
    <trkpt lat="48.3386636" lon="9.0573049">
    <ele>860</ele>
    <time>2007-06-30T12:32:35Z</time>
    </trkpt>
    <trkpt lat="48.3384705" lon="9.0573263">
    <ele>860</ele>
    <time>2007-06-30T12:32:39Z</time>
    </trkpt>
    <trkpt lat="48.3368182" lon="9.0570259">
    <ele>862</ele>
    <time>2007-06-30T12:33:11Z</time>
    </trkpt>
    <trkpt lat="48.3359599" lon="9.0562749">
    <ele>866</ele>
    <time>2007-06-30T12:33:28Z</time>
    </trkpt>
    <trkpt lat="48.3355951" lon="9.0560389">
    <ele>867</ele>
    <time>2007-06-30T12:33:35Z</time>
    </trkpt>
    <trkpt lat="48.334953738124" lon="9.05609568257275">
    <time>2007-06-30T12:33:41Z</time>
    </trkpt>
    <trkpt lat="48.3347154" lon="9.0587854">
    <ele>862</ele>
    <time>2007-06-30T12:34:07Z</time>
    </trkpt>
    <trkpt lat="48.3346725" lon="9.0591717">
    <ele>862</ele>
    <time>2007-06-30T12:34:11Z</time>
    </trkpt>
    <trkpt lat="48.3345222" lon="9.0624762">
    <ele>856</ele>
    <time>2007-06-30T12:34:46Z</time>
    </trkpt>
    <trkpt lat="48.3346295" lon="9.0638924">
    <ele>848</ele>
    <time>2007-06-30T12:35:02Z</time>
    </trkpt>
    <trkpt lat="48.3347797" lon="9.0646648">
    <ele>845</ele>
    <time>2007-06-30T12:35:11Z</time>
    </trkpt>
    <trkpt lat="48.3353376" lon="9.0660167">
    <ele>840</ele>
    <time>2007-06-30T12:35:28Z</time>
    </trkpt>
    <trkpt lat="48.3354235" lon="9.0662956">
    <ele>841</ele>
    <time>2007-06-30T12:35:35Z</time>
    </trkpt>
    <trkpt lat="48.3355308" lon="9.0668106">
    <ele>843</ele>
    <time>2007-06-30T12:35:43Z</time>
    </trkpt>
    <trkpt lat="48.3355951" lon="9.0672398">
    <ele>842</ele>
    <time>2007-06-30T12:35:53Z</time>
    </trkpt>
    <trkpt lat="48.3356166" lon="9.0672183">
    <ele>843</ele>
    <time>2007-06-30T12:37:29Z</time>
    </trkpt>
    <trkpt lat="48.3355522" lon="9.06739">
    <ele>843</ele>
    <time>2007-06-30T12:37:33Z</time>
    </trkpt>
    <trkpt lat="48.3348656" lon="9.0686345">
    <ele>842</ele>
    <time>2007-06-30T12:37:49Z</time>
    </trkpt>
    <trkpt lat="48.3347368" lon="9.0691066">
    <ele>844</ele>
    <time>2007-06-30T12:37:53Z</time>
    </trkpt>
    <trkpt lat="48.3335951671828" lon="9.07318960067158">
    <ele>846</ele>
    <time>2007-06-30T12:38:17Z</time>
    </trkpt>
    <trkpt lat="48.3329558" lon="9.0759945">
    <ele>833</ele>
    <time>2007-06-30T12:38:52Z</time>
    </trkpt>
    <trkpt lat="48.33287" lon="9.077239">
    <ele>830</ele>
    <time>2007-06-30T12:39:01Z</time>
    </trkpt>
    <trkpt lat="48.3328485" lon="9.0787411">
    <ele>828</ele>
    <time>2007-06-30T12:39:11Z</time>
    </trkpt>
    <trkpt lat="48.3325052" lon="9.0795135">
    <ele>826</ele>
    <time>2007-06-30T12:39:19Z</time>
    </trkpt>
    <trkpt lat="48.3324409" lon="9.0795565">
    <ele>827</ele>
    <time>2007-06-30T12:39:20Z</time>
    </trkpt>
    <trkpt lat="48.3316898" lon="9.0800714">
    <ele>826</ele>
    <time>2007-06-30T12:39:30Z</time>
    </trkpt>
    <trkpt lat="48.3309174" lon="9.0814233">
    <ele>816</ele>
    <time>2007-06-30T12:39:43Z</time>
    </trkpt>
    <trkpt lat="48.3301449" lon="9.0835476">
    <ele>813</ele>
    <time>2007-06-30T12:40:02Z</time>
    </trkpt>
    <trkpt lat="48.3298445" lon="9.0844059">
    <ele>814</ele>
    <time>2007-06-30T12:40:11Z</time>
    </trkpt>
    <trkpt lat="48.3296299" lon="9.0863585">
    <ele>811</ele>
    <time>2007-06-30T12:40:26Z</time>
    </trkpt>
    <trkpt lat="48.3296084" lon="9.086616">
    <ele>811</ele>
    <time>2007-06-30T12:40:28Z</time>
    </trkpt>
    <trkpt lat="48.3299088" lon="9.0873241">
    <ele>811</ele>
    <time>2007-06-30T12:40:35Z</time>
    </trkpt>
    <trkpt lat="48.3301663" lon="9.087646">
    <ele>809</ele>
    <time>2007-06-30T12:40:39Z</time>
    </trkpt>
    <trkpt lat="48.3307457" lon="9.0888047">
    <ele>809</ele>
    <time>2007-06-30T12:40:54Z</time>
    </trkpt>
    <trkpt lat="48.3307457" lon="9.0887618">
    <ele>810</ele>
    <time>2007-06-30T12:41:41Z</time>
    </trkpt>
    <trkpt lat="48.3307028" lon="9.088912">
    <ele>809</ele>
    <time>2007-06-30T12:41:45Z</time>
    </trkpt>
    <trkpt lat="48.3304238" lon="9.0898561">
    <ele>809</ele>
    <time>2007-06-30T12:41:54Z</time>
    </trkpt>
    <trkpt lat="48.3303809" lon="9.091208">
    <ele>809</ele>
    <time>2007-06-30T12:42:04Z</time>
    </trkpt>
    <trkpt lat="48.3298445" lon="9.0923452">
    <ele>806</ele>
    <time>2007-06-30T12:42:15Z</time>
    </trkpt>
    <trkpt lat="48.3283854" lon="9.0943837">
    <ele>802</ele>
    <time>2007-06-30T12:42:35Z</time>
    </trkpt>
    <trkpt lat="48.3282781" lon="9.09477">
    <ele>804</ele>
    <time>2007-06-30T12:42:39Z</time>
    </trkpt>
    <trkpt lat="48.3282781" lon="9.0948343">
    <ele>804</ele>
    <time>2007-06-30T12:42:48Z</time>
    </trkpt>
    <trkpt lat="48.3282995" lon="9.0948129">
    <ele>806</ele>
    <time>2007-06-30T12:43:58Z</time>
    </trkpt>
    <trkpt lat="48.3277202" lon="9.0954566">
    <ele>806</ele>
    <time>2007-06-30T12:44:06Z</time>
    </trkpt>
    <trkpt lat="48.3270129715904" lon="9.09654427290726">
    <ele>806</ele>
    <time>2007-06-30T12:44:17Z</time>
    </trkpt>
    <trkpt lat="48.3257246" lon="9.0970445">
    <ele>811</ele>
    <time>2007-06-30T12:46:39Z</time>
    </trkpt>
    <trkpt lat="48.3252954" lon="9.097259">
    <ele>814</ele>
    <time>2007-06-30T12:48:16Z</time>
    </trkpt>
    <trkpt lat="48.3244801" lon="9.0985036">
    <ele>815</ele>
    <time>2007-06-30T12:48:31Z</time>
    </trkpt>
    <trkpt lat="48.3243513" lon="9.0986538">
    <ele>816</ele>
    <time>2007-06-30T12:48:33Z</time>
    </trkpt>
    <trkpt lat="48.3242011" lon="9.0988684">
    <ele>806</ele>
    <time>2007-06-30T12:48:37Z</time>
    </trkpt>
    <trkpt lat="48.3241367" lon="9.0989542">
    <ele>806</ele>
    <time>2007-06-30T12:48:39Z</time>
    </trkpt>
    <trkpt lat="48.3239865" lon="9.0990829">
    <ele>809</ele>
    <time>2007-06-30T12:48:42Z</time>
    </trkpt>
    <trkpt lat="48.3238792" lon="9.0991473">
    <ele>811</ele>
    <time>2007-06-30T12:48:51Z</time>
    </trkpt>
    <trkpt lat="48.3238792" lon="9.0991259">
    <ele>833</ele>
    <time>2007-06-30T12:49:42Z</time>
    </trkpt>
    <trkpt lat="48.3237076" lon="9.0991902">
    <ele>821</ele>
    <time>2007-06-30T12:50:02Z</time>
    </trkpt>
    <trkpt lat="48.3229995" lon="9.0994692">
    <ele>824</ele>
    <time>2007-06-30T12:50:12Z</time>
    </trkpt>
    <trkpt lat="48.3219433" lon="9.1009322">
    <ele>826</ele>
    <time>2007-06-30T12:50:22Z</time>
    </trkpt>
    <trkpt lat="48.3212289295999" lon="9.10341032145808">
    <time>2007-06-30T12:50:29Z</time>
    </trkpt>
    <trkpt lat="48.3206814" lon="9.1041322">
    <ele>829</ele>
    <time>2007-06-30T12:50:37Z</time>
    </trkpt>
    <trkpt lat="48.3206814" lon="9.1041322">
    <ele>827</ele>
    <time>2007-06-30T12:53:02Z</time>
    </trkpt>
    <trkpt lat="48.3203062537679" lon="9.10438604653085">
    <ele>828</ele>
    <time>2007-06-30T12:53:10Z</time>
    </trkpt>
    <trkpt lat="48.3204031" lon="9.1057348">
    <ele>830</ele>
    <time>2007-06-30T12:53:26Z</time>
    </trkpt>
    <trkpt lat="48.3203816" lon="9.105885">
    <ele>832</ele>
    <time>2007-06-30T12:53:36Z</time>
    </trkpt>
    <trkpt lat="48.3203602" lon="9.105885">
    <ele>829</ele>
    <time>2007-06-30T12:55:49Z</time>
    </trkpt>
    <trkpt lat="48.3203602" lon="9.1059709">
    <ele>843</ele>
    <time>2007-06-30T12:56:34Z</time>
    </trkpt>
    <trkpt lat="48.3202314" lon="9.1062927">
    <ele>843</ele>
    <time>2007-06-30T12:56:39Z</time>
    </trkpt>
    <trkpt lat="48.3203487401306" lon="9.10708293540515">
    <ele>844</ele>
    <time>2007-06-30T12:56:47Z</time>
    </trkpt>
    <trkpt lat="48.3195877" lon="9.1080523">
    <ele>823</ele>
    <time>2007-06-30T12:58:16Z</time>
    </trkpt>
    <trkpt lat="48.3198452" lon="9.1097045">
    <ele>813</ele>
    <time>2007-06-30T12:58:31Z</time>
    </trkpt>
    <trkpt lat="48.3196092" lon="9.1103697">
    <ele>807</ele>
    <time>2007-06-30T12:58:39Z</time>
    </trkpt>
    <trkpt lat="48.319416" lon="9.1108203">
    <ele>804</ele>
    <time>2007-06-30T12:58:45Z</time>
    </trkpt>
    <trkpt lat="48.3188581" lon="9.1111422">
    <ele>811</ele>
    <time>2007-06-30T12:58:55Z</time>
    </trkpt>
    <trkpt lat="48.3178711" lon="9.1115713">
    <ele>823</ele>
    <time>2007-06-30T12:59:13Z</time>
    </trkpt>
    <trkpt lat="48.3178282" lon="9.1116571">
    <ele>823</ele>
    <time>2007-06-30T12:59:15Z</time>
    </trkpt>
    <trkpt lat="48.3178282" lon="9.1119576">
    <ele>825</ele>
    <time>2007-06-30T12:59:22Z</time>
    </trkpt>
    <trkpt lat="48.3178282" lon="9.111979">
    <ele>824</ele>
    <time>2007-06-30T12:59:44Z</time>
    </trkpt>
    <trkpt lat="48.3163097" lon="9.11464">
    <ele>836</ele>
    <time>2007-06-30T13:02:16Z</time>
    </trkpt>
    <trkpt lat="48.317637" lon="9.113834">
    <ele>835</ele>
    <time>2007-06-30T13:02:29Z</time>
    </trkpt>
    <trkpt lat="48.3183403968063" lon="9.11473060826189">
    <time>2007-06-30T13:02:41Z</time>
    </trkpt>
    <trkpt lat="48.3183543" lon="9.1159592">
    <ele>836</ele>
    <time>2007-06-30T13:02:54Z</time>
    </trkpt>
    <trkpt lat="48.3183989" lon="9.1162964">
    <ele>877</ele>
    <time>2007-06-30T13:05:05Z</time>
    </trkpt>
    <trkpt lat="48.3182401" lon="9.1177792">
    <ele>879</ele>
    <time>2007-06-30T13:05:22Z</time>
    </trkpt>
    <trkpt lat="48.316823" lon="9.1184501">
    <ele>879</ele>
    <time>2007-06-30T13:05:31Z</time>
    </trkpt>
    <trkpt lat="48.3159318483647" lon="9.11759031309307">
    <ele>879</ele>
    <time>2007-06-30T13:05:43Z</time>
    </trkpt>
    <trkpt lat="48.3155052946365" lon="9.11698260980962">
    <ele>882</ele>
    <time>2007-06-30T13:05:56Z</time>
    </trkpt>
    <trkpt lat="48.3148241" lon="9.1172791">
    <ele>881</ele>
    <time>2007-06-30T13:06:03Z</time>
    </trkpt>
    <trkpt lat="48.3145237" lon="9.1174078">
    <ele>881</ele>
    <time>2007-06-30T13:06:08Z</time>
    </trkpt>
    <trkpt lat="48.3140302" lon="9.1179228">
    <ele>884</ele>
    <time>2007-06-30T13:06:21Z</time>
    </trkpt>
    <trkpt lat="48.313601" lon="9.1185021">
    <ele>882</ele>
    <time>2007-06-30T13:06:33Z</time>
    </trkpt>
    <trkpt lat="48.3128929" lon="9.1192317">
    <ele>892</ele>
    <time>2007-06-30T13:07:20Z</time>
    </trkpt>
    <trkpt lat="48.3128929" lon="9.1192317">
    <ele>1001</ele>
    <time>2007-06-30T13:08:47Z</time>
    </trkpt>
    <trkpt lat="48.3127427" lon="9.1192532">
    <ele>933</ele>
    <time>2007-06-30T13:09:09Z</time>
    </trkpt>
    <trkpt lat="48.3122921" lon="9.1197038">
    <ele>931</ele>
    <time>2007-06-30T13:09:22Z</time>
    </trkpt>
    <trkpt lat="48.312099" lon="9.1199183">
    <ele>935</ele>
    <time>2007-06-30T13:09:31Z</time>
    </trkpt>
    <trkpt lat="48.3120775" lon="9.1200686">
    <ele>918</ele>
    <time>2007-06-30T13:10:08Z</time>
    </trkpt>
    <trkpt lat="48.3120131" lon="9.1200686">
    <ele>916</ele>
    <time>2007-06-30T13:10:11Z</time>
    </trkpt>
    <trkpt lat="48.3118415" lon="9.1198969">
    <ele>915</ele>
    <time>2007-06-30T13:10:15Z</time>
    </trkpt>
    <trkpt lat="48.3112192" lon="9.1183734">
    <ele>911</ele>
    <time>2007-06-30T13:10:35Z</time>
    </trkpt>
    <trkpt lat="48.3105969" lon="9.1147041">
    <ele>912</ele>
    <time>2007-06-30T13:11:18Z</time>
    </trkpt>
    <trkpt lat="48.3104897" lon="9.1144252">
    <ele>912</ele>
    <time>2007-06-30T13:11:22Z</time>
    </trkpt>
    <trkpt lat="48.3103609" lon="9.1141033">
    <ele>912</ele>
    <time>2007-06-30T13:11:27Z</time>
    </trkpt>
    <trkpt lat="48.3101034" lon="9.1137815">
    <ele>912</ele>
    <time>2007-06-30T13:11:33Z</time>
    </trkpt>
    <trkpt lat="48.3093953" lon="9.1138458">
    <ele>911</ele>
    <time>2007-06-30T13:11:46Z</time>
    </trkpt>
    <trkpt lat="48.3084726" lon="9.1135883">
    <ele>910</ele>
    <time>2007-06-30T13:12:03Z</time>
    </trkpt>
    <trkpt lat="48.307271" lon="9.1130948">
    <ele>910</ele>
    <time>2007-06-30T13:12:24Z</time>
    </trkpt>
    <trkpt lat="48.3065414" lon="9.1128373">
    <ele>909</ele>
    <time>2007-06-30T13:12:36Z</time>
    </trkpt>
    <trkpt lat="48.3059992197411" lon="9.11281571292005">
    <ele>901</ele>
    <time>2007-06-30T13:12:53Z</time>
    </trkpt>
    <trkpt lat="48.3053246364516" lon="9.11291532663761">
    <ele>901</ele>
    <time>2007-06-30T13:12:55Z</time>
    </trkpt>
    <trkpt lat="48.3046950186111" lon="9.11301503701512">
    <ele>901</ele>
    <time>2007-06-30T13:12:57Z</time>
    </trkpt>
    <trkpt lat="48.3040195699217" lon="9.11399082482063">
    <ele>899</ele>
    <time>2007-06-30T13:13:21Z</time>
    </trkpt>
    <trkpt lat="48.3036368600592" lon="9.11449545798959">
    <ele>898</ele>
    <time>2007-06-30T13:13:31Z</time>
    </trkpt>
    <trkpt lat="48.3024465387021" lon="9.11321226281526">
    <ele>898</ele>
    <time>2007-06-30T13:13:58Z</time>
    </trkpt>
    <trkpt lat="48.3015923242789" lon="9.11307558317402">
    <ele>898</ele>
    <time>2007-06-30T13:14:16Z</time>
    </trkpt>
    <trkpt lat="48.3010912" lon="9.1133094">
    <ele>898</ele>
    <time>2007-06-30T13:14:21Z</time>
    </trkpt>
    <trkpt lat="48.3008337" lon="9.1134167">
    <ele>898</ele>
    <time>2007-06-30T13:14:27Z</time>
    </trkpt>
    <trkpt lat="48.3002758" lon="9.1134167">
    <ele>898</ele>
    <time>2007-06-30T13:14:38Z</time>
    </trkpt>
    <trkpt lat="48.3000183" lon="9.1130948">
    <ele>898</ele>
    <time>2007-06-30T13:14:46Z</time>
    </trkpt>
    <trkpt lat="48.2967353" lon="9.1107774">
    <ele>804</ele>
    <time>2007-06-30T13:17:46Z</time>
    </trkpt>
    <trkpt lat="48.2957268" lon="9.1102624">
    <ele>802</ele>
    <time>2007-06-30T13:18:01Z</time>
    </trkpt>
    <trkpt lat="48.2945681" lon="9.1098976">
    <ele>798</ele>
    <time>2007-06-30T13:18:17Z</time>
    </trkpt>
    <trkpt lat="48.294096" lon="9.1097474">
    <ele>795</ele>
    <time>2007-06-30T13:18:26Z</time>
    </trkpt>
    <trkpt lat="48.2940531" lon="9.109726">
    <ele>791</ele>
    <time>2007-06-30T13:20:18Z</time>
    </trkpt>
    <trkpt lat="48.2935166" lon="9.108696">
    <ele>794</ele>
    <time>2007-06-30T13:20:22Z</time>
    </trkpt>
    <trkpt lat="48.2932591" lon="9.1078591">
    <ele>790</ele>
    <time>2007-06-30T13:20:39Z</time>
    </trkpt>
    <trkpt lat="48.2928944" lon="9.1068292">
    <ele>773</ele>
    <time>2007-06-30T13:20:53Z</time>
    </trkpt>
    <trkpt lat="48.29283" lon="9.1066146">
    <ele>763</ele>
    <time>2007-06-30T13:21:01Z</time>
    </trkpt>
    <trkpt lat="48.2928085" lon="9.1065931">
    <ele>736</ele>
    <time>2007-06-30T13:22:06Z</time>
    </trkpt>
    <trkpt lat="48.2927012" lon="9.1065502">
    <ele>736</ele>
    <time>2007-06-30T13:22:10Z</time>
    </trkpt>
    <trkpt lat="48.292551" lon="9.1065931">
    <ele>736</ele>
    <time>2007-06-30T13:22:13Z</time>
    </trkpt>
    <trkpt lat="48.2924652" lon="9.1065931">
    <ele>733</ele>
    <time>2007-06-30T13:22:21Z</time>
    </trkpt>
    <trkpt lat="48.2923794" lon="9.1065288">
    <ele>718</ele>
    <time>2007-06-30T13:22:58Z</time>
    </trkpt>
    <trkpt lat="48.2917571" lon="9.1069579">
    <ele>721</ele>
    <time>2007-06-30T13:23:07Z</time>
    </trkpt>
    <trkpt lat="48.2906842" lon="9.1077518">
    <ele>721</ele>
    <time>2007-06-30T13:23:23Z</time>
    </trkpt>
    <trkpt lat="48.2905126" lon="9.107945">
    <ele>720</ele>
    <time>2007-06-30T13:23:26Z</time>
    </trkpt>
    <trkpt lat="48.2901692" lon="9.1085243">
    <ele>724</ele>
    <time>2007-06-30T13:23:33Z</time>
    </trkpt>
    <trkpt lat="48.290062" lon="9.1086745">
    <ele>726</ele>
    <time>2007-06-30T13:23:41Z</time>
    </trkpt>
    <trkpt lat="48.290062" lon="9.1086745">
    <ele>729</ele>
    <time>2007-06-30T13:24:52Z</time>
    </trkpt>
    <trkpt lat="48.2895684" lon="9.1094899">
    <ele>727</ele>
    <time>2007-06-30T13:24:59Z</time>
    </trkpt>
    <trkpt lat="48.2893324" lon="9.1092753">
    <ele>728</ele>
    <time>2007-06-30T13:25:03Z</time>
    </trkpt>
    <trkpt lat="48.2891393" lon="9.1091681">
    <ele>728</ele>
    <time>2007-06-30T13:25:07Z</time>
    </trkpt>
    <trkpt lat="48.2890964" lon="9.1091466">
    <ele>730</ele>
    <time>2007-06-30T13:25:17Z</time>
    </trkpt>
    <trkpt lat="48.2888818" lon="9.1090822">
    <ele>734</ele>
    <time>2007-06-30T13:26:12Z</time>
    </trkpt>
    <trkpt lat="48.288517" lon="9.1089749">
    <ele>731</ele>
    <time>2007-06-30T13:26:18Z</time>
    </trkpt>
    <trkpt lat="48.2881951" lon="9.1093397">
    <ele>733</ele>
    <time>2007-06-30T13:26:26Z</time>
    </trkpt>
    <trkpt lat="48.2881308" lon="9.1096401">
    <ele>733</ele>
    <time>2007-06-30T13:26:29Z</time>
    </trkpt>
    <trkpt lat="48.2877874" lon="9.1105199">
    <ele>730</ele>
    <time>2007-06-30T13:26:38Z</time>
    </trkpt>
    <trkpt lat="48.2875514" lon="9.1108203">
    <ele>730</ele>
    <time>2007-06-30T13:26:44Z</time>
    </trkpt>
    <trkpt lat="48.2874441" lon="9.1110778">
    <ele>728</ele>
    <time>2007-06-30T13:26:48Z</time>
    </trkpt>
    <trkpt lat="48.287251" lon="9.1115928">
    <ele>728</ele>
    <time>2007-06-30T13:26:59Z</time>
    </trkpt>
    <trkpt lat="48.2872081" lon="9.1115499">
    <ele>724</ele>
    <time>2007-06-30T13:27:14Z</time>
    </trkpt>
    <trkpt lat="48.2869291" lon="9.1115069">
    <ele>723</ele>
    <time>2007-06-30T13:28:09Z</time>
    </trkpt>
    <trkpt lat="48.2863498" lon="9.1112709">
    <ele>730</ele>
    <time>2007-06-30T13:28:20Z</time>
    </trkpt>
    <trkpt lat="48.2858562" lon="9.1109705">
    <ele>733</ele>
    <time>2007-06-30T13:28:30Z</time>
    </trkpt>
    <trkpt lat="48.2855129" lon="9.1105199">
    <ele>733</ele>
    <time>2007-06-30T13:28:38Z</time>
    </trkpt>
    <trkpt lat="48.2852554" lon="9.1098762">
    <ele>741</ele>
    <time>2007-06-30T13:28:47Z</time>
    </trkpt>
    <trkpt lat="48.2852769" lon="9.1092324">
    <ele>748</ele>
    <time>2007-06-30T13:29:01Z</time>
    </trkpt>
    <trkpt lat="48.2852769" lon="9.1091895">
    <ele>749</ele>
    <time>2007-06-30T13:29:02Z</time>
    </trkpt>
    <trkpt lat="48.2852983" lon="9.1091037">
    <ele>752</ele>
    <time>2007-06-30T13:29:21Z</time>
    </trkpt>
    <trkpt lat="48.2852983" lon="9.1091037">
    <ele>760</ele>
    <time>2007-06-30T13:30:00Z</time>
    </trkpt>
    <trkpt lat="48.2852983" lon="9.1090393">
    <ele>760</ele>
    <time>2007-06-30T13:30:02Z</time>
    </trkpt>
    <trkpt lat="48.2854271" lon="9.1077733">
    <ele>764</ele>
    <time>2007-06-30T13:30:21Z</time>
    </trkpt>
    <trkpt lat="48.285749" lon="9.1056705">
    <ele>762</ele>
    <time>2007-06-30T13:30:53Z</time>
    </trkpt>
    <trkpt lat="48.285749" lon="9.1055846">
    <ele>761</ele>
    <time>2007-06-30T13:31:13Z</time>
    </trkpt>
    <trkpt lat="48.2858348" lon="9.1052628">
    <ele>773</ele>
    <time>2007-06-30T13:32:48Z</time>
    </trkpt>
    <trkpt lat="48.2860279" lon="9.1047478">
    <ele>774</ele>
    <time>2007-06-30T13:33:09Z</time>
    </trkpt>
    <trkpt lat="48.2860708" lon="9.1046405">
    <ele>774</ele>
    <time>2007-06-30T13:33:11Z</time>
    </trkpt>
    <trkpt lat="48.2866716" lon="9.103117">
    <ele>775</ele>
    <time>2007-06-30T13:33:35Z</time>
    </trkpt>
    <trkpt lat="48.2868648" lon="9.1024303">
    <ele>777</ele>
    <time>2007-06-30T13:33:47Z</time>
    </trkpt>
    <trkpt lat="48.2875069799415" lon="9.10078190519715">
    <time>2007-06-30T13:34:09Z</time>
    </trkpt>
    <trkpt lat="48.2874403248112" lon="9.09987218822728">
    <ele>774</ele>
    <time>2007-06-30T13:34:32Z</time>
    </trkpt>
    <trkpt lat="48.286678016085" lon="9.09741148798865">
    <ele>776</ele>
    <time>2007-06-30T13:34:49Z</time>
    </trkpt>
    <trkpt lat="48.2866502" lon="9.0967655">
    <ele>799</ele>
    <time>2007-06-30T13:35:48Z</time>
    </trkpt>
    <trkpt lat="48.2867575" lon="9.0954137">
    <ele>808</ele>
    <time>2007-06-30T13:36:06Z</time>
    </trkpt>
    <trkpt lat="48.2870793" lon="9.0939116">
    <ele>809</ele>
    <time>2007-06-30T13:36:30Z</time>
    </trkpt>
    <trkpt lat="48.287155266942" lon="9.09118008306803">
    <ele>812</ele>
    <time>2007-06-30T13:37:16Z</time>
    </trkpt>
    <trkpt lat="48.2867513717527" lon="9.09016872683127">
    <ele>812</ele>
    <time>2007-06-30T13:37:26Z</time>
    </trkpt>
    <trkpt lat="48.2866618877865" lon="9.08959587585177">
    <time>2007-06-30T13:37:46Z</time>
    </trkpt>
    <trkpt lat="48.2850194" lon="9.0876245">
    <ele>812</ele>
    <time>2007-06-30T13:38:07Z</time>
    </trkpt>
    <trkpt lat="48.2839251" lon="9.0857148">
    <ele>812</ele>
    <time>2007-06-30T13:38:39Z</time>
    </trkpt>
    <trkpt lat="48.2833028" lon="9.0847921">
    <ele>815</ele>
    <time>2007-06-30T13:38:59Z</time>
    </trkpt>
    <trkpt lat="48.2831097" lon="9.0847278">
    <ele>820</ele>
    <time>2007-06-30T13:39:34Z</time>
    </trkpt>
    <trkpt lat="48.2831097" lon="9.0847278">
    <ele>834</ele>
    <time>2007-06-30T13:40:08Z</time>
    </trkpt>
    <trkpt lat="48.2821012" lon="9.0839767">
    <ele>835</ele>
    <time>2007-06-30T13:40:25Z</time>
    </trkpt>
    <trkpt lat="48.2810926" lon="9.0835261">
    <ele>836</ele>
    <time>2007-06-30T13:40:45Z</time>
    </trkpt>
    <trkpt lat="48.2806635" lon="9.0837836">
    <ele>842</ele>
    <time>2007-06-30T13:41:37Z</time>
    </trkpt>
    <trkpt lat="48.2801056" lon="9.0843415">
    <ele>848</ele>
    <time>2007-06-30T13:41:52Z</time>
    </trkpt>
    <trkpt lat="48.2799554" lon="9.0844917">
    <ele>849</ele>
    <time>2007-06-30T13:42:03Z</time>
    </trkpt>
    <trkpt lat="48.2799339" lon="9.0845346">
    <ele>860</ele>
    <time>2007-06-30T13:42:46Z</time>
    </trkpt>
    <trkpt lat="48.2786036" lon="9.0854573">
    <ele>860</ele>
    <time>2007-06-30T13:43:11Z</time>
    </trkpt>
    <trkpt lat="48.2785177" lon="9.0856934">
    <ele>860</ele>
    <time>2007-06-30T13:43:22Z</time>
    </trkpt>
    <trkpt lat="48.2784963" lon="9.0856934">
    <ele>861</ele>
    <time>2007-06-30T13:44:29Z</time>
    </trkpt>
    <trkpt lat="48.2783675" lon="9.085629">
    <ele>861</ele>
    <time>2007-06-30T13:44:33Z</time>
    </trkpt>
    <trkpt lat="48.2780027" lon="9.0852642">
    <ele>857</ele>
    <time>2007-06-30T13:44:46Z</time>
    </trkpt>
    <trkpt lat="48.2769728" lon="9.0845776">
    <ele>859</ele>
    <time>2007-06-30T13:45:05Z</time>
    </trkpt>
    <trkpt lat="48.2766938" lon="9.0844274">
    <ele>862</ele>
    <time>2007-06-30T13:45:15Z</time>
    </trkpt>
    <trkpt lat="48.2767797" lon="9.084363">
    <ele>865</ele>
    <time>2007-06-30T13:46:10Z</time>
    </trkpt>
    <trkpt lat="48.2770893386015" lon="9.08267441786309">
    <ele>866</ele>
    <time>2007-06-30T13:46:31Z</time>
    </trkpt>
    <trkpt lat="48.276608" lon="9.0799427">
    <ele>866</ele>
    <time>2007-06-30T13:47:01Z</time>
    </trkpt>
    <trkpt lat="48.2760804410904" lon="9.0786310829757">
    <ele>866</ele>
    <time>2007-06-30T13:47:17Z</time>
    </trkpt>
    <trkpt lat="48.2752347" lon="9.0774322">
    <ele>868</ele>
    <time>2007-06-30T13:47:44Z</time>
    </trkpt>
    <trkpt lat="48.2752991" lon="9.0774536">
    <ele>887</ele>
    <time>2007-06-30T13:50:45Z</time>
    </trkpt>
    <trkpt lat="48.2743055401389" lon="9.07677597464885">
    <ele>887</ele>
    <time>2007-06-30T13:50:46Z</time>
    </trkpt>
    <trkpt lat="48.2733679" lon="9.0752864">
    <ele>888</ele>
    <time>2007-06-30T13:50:57Z</time>
    </trkpt>
    <trkpt lat="48.2729387" lon="9.0745783">
    <ele>879</ele>
    <time>2007-06-30T13:51:17Z</time>
    </trkpt>
    <trkpt lat="48.2729173" lon="9.0745139">
    <ele>879</ele>
    <time>2007-06-30T13:51:26Z</time>
    </trkpt>
    <trkpt lat="48.2730031" lon="9.0745997">
    <ele>878</ele>
    <time>2007-06-30T13:51:44Z</time>
    </trkpt>
    <trkpt lat="48.2729602" lon="9.0745354">
    <ele>875</ele>
    <time>2007-06-30T13:52:09Z</time>
    </trkpt>
    <trkpt lat="48.2730246" lon="9.0746641">
    <ele>863</ele>
    <time>2007-06-30T13:53:19Z</time>
    </trkpt>
    <trkpt lat="48.2730246" lon="9.0746641">
    <ele>863</ele>
    <time>2007-06-30T13:53:21Z</time>
    </trkpt>
    <trkpt lat="48.2729387" lon="9.0745139">
    <ele>863</ele>
    <time>2007-06-30T13:53:27Z</time>
    </trkpt>
    <trkpt lat="48.2726812" lon="9.0747714">
    <ele>863</ele>
    <time>2007-06-30T13:53:35Z</time>
    </trkpt>
    <trkpt lat="48.2718444" lon="9.0758228">
    <ele>865</ele>
    <time>2007-06-30T13:53:57Z</time>
    </trkpt>
    <trkpt lat="48.2709861" lon="9.0770459">
    <ele>863</ele>
    <time>2007-06-30T13:54:23Z</time>
    </trkpt>
    <trkpt lat="48.2704926" lon="9.0783334">
    <ele>867</ele>
    <time>2007-06-30T13:54:44Z</time>
    </trkpt>
    <trkpt lat="48.2704496" lon="9.078548">
    <ele>868</ele>
    <time>2007-06-30T13:54:47Z</time>
    </trkpt>
    <trkpt lat="48.2703209" lon="9.0798783">
    <ele>868</ele>
    <time>2007-06-30T13:55:04Z</time>
    </trkpt>
    <trkpt lat="48.270278" lon="9.0803933">
    <ele>867</ele>
    <time>2007-06-30T13:55:11Z</time>
    </trkpt>
    <trkpt lat="48.2695913" lon="9.0812516">
    <ele>865</ele>
    <time>2007-06-30T13:55:27Z</time>
    </trkpt>
    <trkpt lat="48.2690334" lon="9.0820885">
    <ele>865</ele>
    <time>2007-06-30T13:55:45Z</time>
    </trkpt>
    <trkpt lat="48.2690334" lon="9.0820456">
    <ele>869</ele>
    <time>2007-06-30T13:57:05Z</time>
    </trkpt>
    <trkpt lat="48.2682395" lon="9.0820241">
    <ele>864</ele>
    <time>2007-06-30T13:57:15Z</time>
    </trkpt>
    <trkpt lat="48.2674241" lon="9.0820026">
    <ele>861</ele>
    <time>2007-06-30T13:57:25Z</time>
    </trkpt>
    <trkpt lat="48.2673168" lon="9.0818739">
    <ele>860</ele>
    <time>2007-06-30T13:57:32Z</time>
    </trkpt>
    <trkpt lat="48.2672524" lon="9.0817022">
    <ele>868</ele>
    <time>2007-06-30T13:58:03Z</time>
    </trkpt>
    <trkpt lat="48.2674885" lon="9.0804577">
    <ele>870</ele>
    <time>2007-06-30T13:58:18Z</time>
    </trkpt>
    <trkpt lat="48.2677391486703" lon="9.07878666353396">
    <time>2007-06-30T13:58:33Z</time>
    </trkpt>
    <trkpt lat="48.2679206705038" lon="9.07632862880814">
    <ele>876</ele>
    <time>2007-06-30T13:58:48Z</time>
    </trkpt>
    <trkpt lat="48.2680789155945" lon="9.07501551471044">
    <ele>882</ele>
    <time>2007-06-30T13:59:20Z</time>
    </trkpt>
    <trkpt lat="48.2675177336141" lon="9.0736340075456">
    <ele>888</ele>
    <time>2007-06-30T14:00:32Z</time>
    </trkpt>
    <trkpt lat="48.2667375" lon="9.0727973">
    <ele>887</ele>
    <time>2007-06-30T14:00:50Z</time>
    </trkpt>
    <trkpt lat="48.2659864" lon="9.072175">
    <ele>887</ele>
    <time>2007-06-30T14:01:06Z</time>
    </trkpt>
    <trkpt lat="48.2657504" lon="9.0721321">
    <ele>887</ele>
    <time>2007-06-30T14:01:11Z</time>
    </trkpt>
    <trkpt lat="48.2649136" lon="9.0725827">
    <ele>887</ele>
    <time>2007-06-30T14:01:30Z</time>
    </trkpt>
    <trkpt lat="48.2643557" lon="9.0730119">
    <ele>887</ele>
    <time>2007-06-30T14:01:49Z</time>
    </trkpt>
    <trkpt lat="48.2645059" lon="9.0720677">
    <ele>887</ele>
    <time>2007-06-30T14:03:43Z</time>
    </trkpt>
    <trkpt lat="48.2645963683294" lon="9.07137369708986">
    <ele>887</ele>
    <time>2007-06-30T14:03:46Z</time>
    </trkpt>
    <trkpt lat="48.2644844" lon="9.0700078">
    <ele>887</ele>
    <time>2007-06-30T14:03:49Z</time>
    </trkpt>
    <trkpt lat="48.2640807993526" lon="9.06884750372145">
    <ele>887</ele>
    <time>2007-06-30T14:04:06Z</time>
    </trkpt>
    <trkpt lat="48.2637155" lon="9.0658315">
    <ele>888</ele>
    <time>2007-06-30T14:04:45Z</time>
    </trkpt>
    <trkpt lat="48.2637169" lon="9.0633061">
    <ele>986</ele>
    <time>2007-06-30T14:06:33Z</time>
    </trkpt>
    <trkpt lat="48.263583" lon="9.0615212">
    <ele>986</ele>
    <time>2007-06-30T14:06:34Z</time>
    </trkpt>
    <trkpt lat="48.2629993" lon="9.0598369">
    <ele>904</ele>
    <time>2007-06-30T14:06:35Z</time>
    </trkpt>
    <trkpt lat="48.2625726" lon="9.0589946">
    <ele>986</ele>
    <time>2007-06-30T14:06:37Z</time>
    </trkpt>
    <trkpt lat="48.2621980375793" lon="9.05833938298388">
    <ele>985</ele>
    <time>2007-06-30T14:07:07Z</time>
    </trkpt>
    <trkpt lat="48.2627034" lon="9.0572405">
    <ele>903</ele>
    <time>2007-06-30T14:08:00Z</time>
    </trkpt>
    <trkpt lat="48.2629339" lon="9.0557288">
    <ele>894</ele>
    <time>2007-06-30T14:08:52Z</time>
    </trkpt>
    <trkpt lat="48.2627093" lon="9.0553245">
    <ele>890</ele>
    <time>2007-06-30T14:09:05Z</time>
    </trkpt>
    <trkpt lat="48.2623272" lon="9.0551558">
    <ele>882</ele>
    <time>2007-06-30T14:09:19Z</time>
    </trkpt>
    <trkpt lat="48.2620811" lon="9.0549874">
    <ele>880</ele>
    <time>2007-06-30T14:10:11Z</time>
    </trkpt>
    <trkpt lat="48.2620811" lon="9.054687">
    <ele>877</ele>
    <time>2007-06-30T14:10:34Z</time>
    </trkpt>
    <trkpt lat="48.2621241" lon="9.0543866">
    <ele>876</ele>
    <time>2007-06-30T14:10:38Z</time>
    </trkpt>
    <trkpt lat="48.262167" lon="9.0542364">
    <ele>874</ele>
    <time>2007-06-30T14:10:47Z</time>
    </trkpt>
    <trkpt lat="48.262167" lon="9.0541935">
    <ele>874</ele>
    <time>2007-06-30T14:10:53Z</time>
    </trkpt>
    <trkpt lat="48.2619953" lon="9.0539575">
    <ele>874</ele>
    <time>2007-06-30T14:10:57Z</time>
    </trkpt>
    <trkpt lat="48.261416" lon="9.0527129">
    <ele>875</ele>
    <time>2007-06-30T14:11:07Z</time>
    </trkpt>
    <trkpt lat="48.2610941" lon="9.0518761">
    <ele>876</ele>
    <time>2007-06-30T14:11:15Z</time>
    </trkpt>
    <trkpt lat="48.261137" lon="9.0517473">
    <ele>876</ele>
    <time>2007-06-30T14:11:23Z</time>
    </trkpt>
    <trkpt lat="48.2611799" lon="9.0517044">
    <ele>878</ele>
    <time>2007-06-30T14:14:00Z</time>
    </trkpt>
    <trkpt lat="48.2617807" lon="9.0515327">
    <ele>878</ele>
    <time>2007-06-30T14:14:08Z</time>
    </trkpt>
    <trkpt lat="48.262167" lon="9.0512323">
    <ele>879</ele>
    <time>2007-06-30T14:14:13Z</time>
    </trkpt>
    <trkpt lat="48.2627678" lon="9.050374">
    <ele>878</ele>
    <time>2007-06-30T14:14:22Z</time>
    </trkpt>
    <trkpt lat="48.2630897" lon="9.050138">
    <ele>878</ele>
    <time>2007-06-30T14:14:26Z</time>
    </trkpt>
    <trkpt lat="48.2636261" lon="9.0499234">
    <ele>879</ele>
    <time>2007-06-30T14:14:32Z</time>
    </trkpt>
    <trkpt lat="48.2640123" lon="9.0494299">
    <ele>882</ele>
    <time>2007-06-30T14:14:38Z</time>
    </trkpt>
    <trkpt lat="48.2641625" lon="9.049108">
    <ele>883</ele>
    <time>2007-06-30T14:14:41Z</time>
    </trkpt>
    <trkpt lat="48.2649136" lon="9.0483356">
    <ele>885</ele>
    <time>2007-06-30T14:14:52Z</time>
    </trkpt>
    <trkpt lat="48.2657719" lon="9.0474343">
    <ele>889</ele>
    <time>2007-06-30T14:15:06Z</time>
    </trkpt>
    <trkpt lat="48.2660723" lon="9.0471339">
    <ele>891</ele>
    <time>2007-06-30T14:15:11Z</time>
    </trkpt>
    <trkpt lat="48.2662225" lon="9.0467906">
    <ele>894</ele>
    <time>2007-06-30T14:15:15Z</time>
    </trkpt>
    <trkpt lat="48.2669091" lon="9.0453315">
    <ele>900</ele>
    <time>2007-06-30T14:15:33Z</time>
    </trkpt>
    <trkpt lat="48.2677674" lon="9.0437865">
    <ele>903</ele>
    <time>2007-06-30T14:15:54Z</time>
    </trkpt>
    <trkpt lat="48.2689047" lon="9.0416837">
    <ele>907</ele>
    <time>2007-06-30T14:16:22Z</time>
    </trkpt>
    <trkpt lat="48.2690763" lon="9.0412116">
    <ele>908</ele>
    <time>2007-06-30T14:16:29Z</time>
    </trkpt>
    <trkpt lat="48.269763" lon="9.0399885">
    <ele>906</ele>
    <time>2007-06-30T14:16:49Z</time>
    </trkpt>
    <trkpt lat="48.2698703" lon="9.0398169">
    <ele>906</ele>
    <time>2007-06-30T14:16:58Z</time>
    </trkpt>
    <trkpt lat="48.2698703" lon="9.0398812">
    <ele>903</ele>
    <time>2007-06-30T14:17:41Z</time>
    </trkpt>
    <trkpt lat="48.2699347" lon="9.0399456">
    <ele>905</ele>
    <time>2007-06-30T14:17:53Z</time>
    </trkpt>
    <trkpt lat="48.2702136" lon="9.0402031">
    <ele>905</ele>
    <time>2007-06-30T14:18:23Z</time>
    </trkpt>
    <trkpt lat="48.271544" lon="9.0418124">
    <ele>905</ele>
    <time>2007-06-30T14:18:49Z</time>
    </trkpt>
    <trkpt lat="48.2725954" lon="9.0437007">
    <ele>905</ele>
    <time>2007-06-30T14:19:14Z</time>
    </trkpt>
    <trkpt lat="48.2727242" lon="9.0439367">
    <ele>905</ele>
    <time>2007-06-30T14:19:17Z</time>
    </trkpt>
    <trkpt lat="48.2727242" lon="9.0439796">
    <ele>904</ele>
    <time>2007-06-30T14:19:39Z</time>
    </trkpt>
    <trkpt lat="48.2727027" lon="9.0439582">
    <ele>906</ele>
    <time>2007-06-30T14:20:22Z</time>
    </trkpt>
    <trkpt lat="48.2728529" lon="9.0441084">
    <ele>905</ele>
    <time>2007-06-30T14:20:26Z</time>
    </trkpt>
    <trkpt lat="48.2729816" lon="9.044323">
    <ele>903</ele>
    <time>2007-06-30T14:20:29Z</time>
    </trkpt>
    <trkpt lat="48.2735181" lon="9.046061">
    <ele>900</ele>
    <time>2007-06-30T14:20:50Z</time>
    </trkpt>
    <trkpt lat="48.2740068162243" lon="9.04696914435147">
    <ele>900</ele>
    <time>2007-06-30T14:21:05Z</time>
    </trkpt>
    <trkpt lat="48.2742476" lon="9.0475845">
    <ele>900</ele>
    <time>2007-06-30T14:21:09Z</time>
    </trkpt>
    <trkpt lat="48.2756209" lon="9.0486574">
    <ele>900</ele>
    <time>2007-06-30T14:21:30Z</time>
    </trkpt>
    <trkpt lat="48.276329" lon="9.0493226">
    <ele>898</ele>
    <time>2007-06-30T14:21:45Z</time>
    </trkpt>
    <trkpt lat="48.2763076" lon="9.0493226">
    <ele>894</ele>
    <time>2007-06-30T14:22:08Z</time>
    </trkpt>
    <trkpt lat="48.2762861" lon="9.0493011">
    <ele>891</ele>
    <time>2007-06-30T14:22:41Z</time>
    </trkpt>
    <trkpt lat="48.2764578" lon="9.0493441">
    <ele>890</ele>
    <time>2007-06-30T14:22:47Z</time>
    </trkpt>
    <trkpt lat="48.2766938" lon="9.0494084">
    <ele>889</ele>
    <time>2007-06-30T14:22:52Z</time>
    </trkpt>
    <trkpt lat="48.2770801" lon="9.0492582">
    <ele>886</ele>
    <time>2007-06-30T14:22:59Z</time>
    </trkpt>
    <trkpt lat="48.2773376" lon="9.0486145">
    <ele>885</ele>
    <time>2007-06-30T14:23:07Z</time>
    </trkpt>
    <trkpt lat="48.2783461" lon="9.0463185">
    <ele>866</ele>
    <time>2007-06-30T14:25:02Z</time>
    </trkpt>
    <trkpt lat="48.2786036" lon="9.0457821">
    <ele>866</ele>
    <time>2007-06-30T14:25:14Z</time>
    </trkpt>
    <trkpt lat="48.2790112" lon="9.0446877">
    <ele>870</ele>
    <time>2007-06-30T14:25:31Z</time>
    </trkpt>
    <trkpt lat="48.2792473" lon="9.0443873">
    <ele>867</ele>
    <time>2007-06-30T14:26:04Z</time>
    </trkpt>
    <trkpt lat="48.2794619" lon="9.0438938">
    <ele>867</ele>
    <time>2007-06-30T14:26:11Z</time>
    </trkpt>
    <trkpt lat="48.2800561331056" lon="9.0434042382138">
    <ele>870</ele>
    <time>2007-06-30T14:26:24Z</time>
    </trkpt>
    <trkpt lat="48.2798991914604" lon="9.04222518624742">
    <time>2007-06-30T14:26:47Z</time>
    </trkpt>
    <trkpt lat="48.2795477" lon="9.0419197">
    <ele>867</ele>
    <time>2007-06-30T14:27:10Z</time>
    </trkpt>
    <trkpt lat="48.2789683" lon="9.040997">
    <ele>867</ele>
    <time>2007-06-30T14:27:31Z</time>
    </trkpt>
    <trkpt lat="48.2787967" lon="9.0406108">
    <ele>872</ele>
    <time>2007-06-30T14:27:53Z</time>
    </trkpt>
    <trkpt lat="48.2787323" lon="9.0404177">
    <ele>874</ele>
    <time>2007-06-30T14:28:28Z</time>
    </trkpt>
    <trkpt lat="48.278389" lon="9.0397096">
    <ele>879</ele>
    <time>2007-06-30T14:28:42Z</time>
    </trkpt>
    <trkpt lat="48.2773805" lon="9.0372205">
    <ele>898</ele>
    <time>2007-06-30T14:29:05Z</time>
    </trkpt>
    <trkpt lat="48.2771873" lon="9.0365124">
    <ele>901</ele>
    <time>2007-06-30T14:29:14Z</time>
    </trkpt>
    <trkpt lat="48.2771659" lon="9.0361905">
    <ele>901</ele>
    <time>2007-06-30T14:29:18Z</time>
    </trkpt>
    <trkpt lat="48.2771659" lon="9.0358686">
    <ele>901</ele>
    <time>2007-06-30T14:29:22Z</time>
    </trkpt>
    <trkpt lat="48.2774878" lon="9.0344739">
    <ele>902</ele>
    <time>2007-06-30T14:29:39Z</time>
    </trkpt>
    <trkpt lat="48.2777452" lon="9.0326071">
    <ele>904</ele>
    <time>2007-06-30T14:30:03Z</time>
    </trkpt>
    <trkpt lat="48.2779598" lon="9.0309763">
    <ele>905</ele>
    <time>2007-06-30T14:30:23Z</time>
    </trkpt>
    <trkpt lat="48.2789683" lon="9.0282083">
    <ele>905</ele>
    <time>2007-06-30T14:31:01Z</time>
    </trkpt>
    <trkpt lat="48.2789898" lon="9.028101">
    <ele>907</ele>
    <time>2007-06-30T14:31:11Z</time>
    </trkpt>
    <trkpt lat="48.2789683" lon="9.028101">
    <ele>908</ele>
    <time>2007-06-30T14:31:41Z</time>
    </trkpt>
    <trkpt lat="48.2790542" lon="9.0280366">
    <ele>908</ele>
    <time>2007-06-30T14:31:47Z</time>
    </trkpt>
    <trkpt lat="48.2791829" lon="9.0282512">
    <ele>908</ele>
    <time>2007-06-30T14:31:52Z</time>
    </trkpt>
    <trkpt lat="48.2797194" lon="9.0288734">
    <ele>905</ele>
    <time>2007-06-30T14:32:04Z</time>
    </trkpt>
    <trkpt lat="48.2801056" lon="9.0293241">
    <ele>905</ele>
    <time>2007-06-30T14:32:18Z</time>
    </trkpt>
    <trkpt lat="48.2800412" lon="9.0292597">
    <ele>908</ele>
    <time>2007-06-30T14:32:47Z</time>
    </trkpt>
    <trkpt lat="48.2801056" lon="9.0292382">
    <ele>909</ele>
    <time>2007-06-30T14:32:53Z</time>
    </trkpt>
    <trkpt lat="48.2810068" lon="9.0289378">
    <ele>910</ele>
    <time>2007-06-30T14:33:10Z</time>
    </trkpt>
    <trkpt lat="48.2822189477671" lon="9.02932577176345">
    <time>2007-06-30T14:33:27Z</time>
    </trkpt>
    <trkpt lat="48.2834780774142" lon="9.02898963499567">
    <ele>910</ele>
    <time>2007-06-30T14:33:44Z</time>
    </trkpt>
    <trkpt lat="48.2838607" lon="9.0276718">
    <ele>910</ele>
    <time>2007-06-30T14:34:08Z</time>
    </trkpt>
    <trkpt lat="48.2843542" lon="9.0271783">
    <ele>910</ele>
    <time>2007-06-30T14:34:18Z</time>
    </trkpt>
    <trkpt lat="48.2844615" lon="9.027071">
    <ele>910</ele>
    <time>2007-06-30T14:34:20Z</time>
    </trkpt>
    <trkpt lat="48.2854271" lon="9.0264487">
    <ele>910</ele>
    <time>2007-06-30T14:34:39Z</time>
    </trkpt>
    <trkpt lat="48.2856417" lon="9.02632">
    <ele>909</ele>
    <time>2007-06-30T14:34:48Z</time>
    </trkpt>
    <trkpt lat="48.2857919" lon="9.0259981">
    <ele>912</ele>
    <time>2007-06-30T14:35:40Z</time>
    </trkpt>
    <trkpt lat="48.2861352" lon="9.0255046">
    <ele>914</ele>
    <time>2007-06-30T14:36:01Z</time>
    </trkpt>
    <trkpt lat="48.2863498" lon="9.0252042">
    <ele>923</ele>
    <time>2007-06-30T14:36:19Z</time>
    </trkpt>
    <trkpt lat="48.2865644" lon="9.0247107">
    <ele>923</ele>
    <time>2007-06-30T14:36:26Z</time>
    </trkpt>
    <trkpt lat="48.2868648" lon="9.023509">
    <ele>923</ele>
    <time>2007-06-30T14:36:47Z</time>
    </trkpt>
    <trkpt lat="48.2873154" lon="9.021771">
    <ele>923</ele>
    <time>2007-06-30T14:37:11Z</time>
    </trkpt>
    <trkpt lat="48.2876801" lon="9.0208054">
    <ele>925</ele>
    <time>2007-06-30T14:37:24Z</time>
    </trkpt>
    <trkpt lat="48.288238" lon="9.0195823">
    <ele>925</ele>
    <time>2007-06-30T14:37:45Z</time>
    </trkpt>
    <trkpt lat="48.2893029865355" lon="9.02046946705598">
    <ele>925</ele>
    <time>2007-06-30T14:38:07Z</time>
    </trkpt>
    <trkpt lat="48.2903624" lon="9.0208912">
    <ele>927</ele>
    <time>2007-06-30T14:38:17Z</time>
    </trkpt>
    <trkpt lat="48.2904911" lon="9.0209556">
    <ele>928</ele>
    <time>2007-06-30T14:38:20Z</time>
    </trkpt>
    <trkpt lat="48.2910919" lon="9.0215564">
    <ele>932</ele>
    <time>2007-06-30T14:38:34Z</time>
    </trkpt>
    <trkpt lat="48.2913709" lon="9.0216637">
    <ele>933</ele>
    <time>2007-06-30T14:38:39Z</time>
    </trkpt>
    <trkpt lat="48.2918" lon="9.0216637">
    <ele>932</ele>
    <time>2007-06-30T14:38:46Z</time>
    </trkpt>
    <trkpt lat="48.2922935" lon="9.0212345">
    <ele>932</ele>
    <time>2007-06-30T14:38:58Z</time>
    </trkpt>
    <trkpt lat="48.2924008" lon="9.0209985">
    <ele>932</ele>
    <time>2007-06-30T14:39:11Z</time>
    </trkpt>
    <trkpt lat="48.2924008" lon="9.0209341">
    <ele>935</ele>
    <time>2007-06-30T14:39:46Z</time>
    </trkpt>
    <trkpt lat="48.2922506" lon="9.0207839">
    <ele>935</ele>
    <time>2007-06-30T14:39:50Z</time>
    </trkpt>
    <trkpt lat="48.2921433" lon="9.0206552">
    <ele>935</ele>
    <time>2007-06-30T14:39:53Z</time>
    </trkpt>
    <trkpt lat="48.2920908904718" lon="9.02033581563655">
    <ele>933</ele>
    <time>2007-06-30T14:40:05Z</time>
    </trkpt>
    <trkpt lat="48.2921809392548" lon="9.01966202186294">
    <ele>933</ele>
    <time>2007-06-30T14:40:10Z</time>
    </trkpt>
    <trkpt lat="48.292428319545" lon="9.01925781716657">
    <ele>932</ele>
    <time>2007-06-30T14:40:13Z</time>
    </trkpt>
    <trkpt lat="48.2931704518305" lon="9.01804517964747">
    <ele>924</ele>
    <time>2007-06-30T14:40:39Z</time>
    </trkpt>
    <trkpt lat="48.2939347514642" lon="9.01878668682646">
    <time>2007-06-30T14:41:17Z</time>
    </trkpt>
    <trkpt lat="48.2951263113539" lon="9.0189892844474">
    <ele>927</ele>
    <time>2007-06-30T14:41:56Z</time>
    </trkpt>
    <trkpt lat="48.2962281086963" lon="9.01814733954822">
    <ele>923</ele>
    <time>2007-06-30T14:42:39Z</time>
    </trkpt>
    <trkpt lat="48.2973299844466" lon="9.01673254575892">
    <ele>914</ele>
    <time>2007-06-30T14:42:57Z</time>
    </trkpt>
    <trkpt lat="48.2984304" lon="9.0156555">
    <ele>913</ele>
    <time>2007-06-30T14:43:11Z</time>
    </trkpt>
    <trkpt lat="48.2985806" lon="9.0152478">
    <ele>913</ele>
    <time>2007-06-30T14:43:17Z</time>
    </trkpt>
    <trkpt lat="48.2986665" lon="9.0148187">
    <ele>913</ele>
    <time>2007-06-30T14:43:23Z</time>
    </trkpt>
    <trkpt lat="48.2986879" lon="9.0124369">
    <ele>912</ele>
    <time>2007-06-30T14:43:54Z</time>
    </trkpt>
    <trkpt lat="48.2986021" lon="9.0105486">
    <ele>914</ele>
    <time>2007-06-30T14:44:17Z</time>
    </trkpt>
    <trkpt lat="48.2982373" lon="9.0082526">
    <ele>915</ele>
    <time>2007-06-30T14:44:43Z</time>
    </trkpt>
    <trkpt lat="48.2981944" lon="9.0081239">
    <ele>915</ele>
    <time>2007-06-30T14:44:45Z</time>
    </trkpt>
    <trkpt lat="48.2980442" lon="9.0077376">
    <ele>915</ele>
    <time>2007-06-30T14:44:51Z</time>
    </trkpt>
    <trkpt lat="48.2978082" lon="9.0073943">
    <ele>917</ele>
    <time>2007-06-30T14:45:02Z</time>
    </trkpt>
    <trkpt lat="48.2976365" lon="9.0073085">
    <ele>916</ele>
    <time>2007-06-30T14:46:00Z</time>
    </trkpt>
    <trkpt lat="48.2974434" lon="9.0070939">
    <ele>916</ele>
    <time>2007-06-30T14:46:04Z</time>
    </trkpt>
    <trkpt lat="48.2967567" lon="9.0066004">
    <ele>914</ele>
    <time>2007-06-30T14:46:17Z</time>
    </trkpt>
    <trkpt lat="48.2964134" lon="9.0059566">
    <ele>914</ele>
    <time>2007-06-30T14:46:26Z</time>
    </trkpt>
    <trkpt lat="48.2963061" lon="9.0051413">
    <ele>914</ele>
    <time>2007-06-30T14:46:35Z</time>
    </trkpt>
    <trkpt lat="48.2961774" lon="9.0045834">
    <ele>914</ele>
    <time>2007-06-30T14:46:41Z</time>
    </trkpt>
    <trkpt lat="48.2956195" lon="9.0037894">
    <ele>916</ele>
    <time>2007-06-30T14:46:53Z</time>
    </trkpt>
    <trkpt lat="48.2952976" lon="9.0035534">
    <ele>916</ele>
    <time>2007-06-30T14:46:59Z</time>
    </trkpt>
    <trkpt lat="48.2949972" lon="9.0035748">
    <ele>914</ele>
    <time>2007-06-30T14:47:09Z</time>
    </trkpt>
    <trkpt lat="48.294847" lon="9.0035963">
    <ele>912</ele>
    <time>2007-06-30T14:47:50Z</time>
    </trkpt>
    <trkpt lat="48.2947612" lon="9.0035534">
    <ele>911</ele>
    <time>2007-06-30T14:47:52Z</time>
    </trkpt>
    <trkpt lat="48.2945681" lon="9.0032744">
    <ele>907</ele>
    <time>2007-06-30T14:47:58Z</time>
    </trkpt>
    <trkpt lat="48.2944393" lon="9.0022659">
    <ele>900</ele>
    <time>2007-06-30T14:48:14Z</time>
    </trkpt>
    <trkpt lat="48.2943964" lon="9.0000558">
    <ele>896</ele>
    <time>2007-06-30T14:48:45Z</time>
    </trkpt>
    <trkpt lat="48.2941538" lon="8.9990579">
    <ele>884</ele>
    <time>2007-06-30T14:48:54Z</time>
    </trkpt>
    <trkpt lat="48.2922652" lon="8.9973396">
    <ele>867</ele>
    <time>2007-06-30T14:48:58Z</time>
    </trkpt>
    <trkpt lat="48.2912085" lon="8.9962616">
    <ele>864</ele>
    <time>2007-06-30T14:49:00Z</time>
    </trkpt>
    <trkpt lat="48.2899045" lon="8.9982494">
    <ele>851</ele>
    <time>2007-06-30T14:49:01Z</time>
    </trkpt>
    <trkpt lat="48.2867569" lon="9.0010119">
    <ele>819</ele>
    <time>2007-06-30T14:49:01Z</time>
    </trkpt>
    <trkpt lat="48.285925" lon="9.0021573">
    <ele>816</ele>
    <time>2007-06-30T14:49:02Z</time>
    </trkpt>
    <trkpt lat="48.2848459" lon="9.0009782">
    <ele>811</ele>
    <time>2007-06-30T14:49:02Z</time>
    </trkpt>
    <trkpt lat="48.284666" lon="8.9987549">
    <ele>809</ele>
    <time>2007-06-30T14:49:02Z</time>
    </trkpt>
    <trkpt lat="48.2842388" lon="8.9977106">
    <ele>894</ele>
    <time>2007-06-30T14:49:02Z</time>
    </trkpt>
    <trkpt lat="48.283272" lon="8.9967001">
    <ele>895</ele>
    <time>2007-06-30T14:50:02Z</time>
    </trkpt>
    <trkpt lat="48.2830472" lon="8.9966664">
    <ele>853</ele>
    <time>2007-07-01T08:40:37Z</time>
    </trkpt>
    <trkpt lat="48.2802818" lon="8.9968013">
    <ele>848</ele>
    <time>2007-07-01T08:40:41Z</time>
    </trkpt>
    <trkpt lat="48.2763472" lon="8.9950501">
    <ele>824</ele>
    <time>2007-07-01T08:40:59Z</time>
    </trkpt>
    <trkpt lat="48.2750655" lon="8.9926927">
    <ele>826</ele>
    <time>2007-07-01T08:41:16Z</time>
    </trkpt>
    <trkpt lat="48.2748181" lon="8.9904698">
    <ele>826</ele>
    <time>2007-07-01T08:41:19Z</time>
    </trkpt>
    <trkpt lat="48.2755824" lon="8.9895266">
    <ele>826</ele>
    <time>2007-07-01T08:41:30Z</time>
    </trkpt>
    <trkpt lat="48.2761788" lon="8.989327">
    <ele>830</ele>
    <time>2007-07-01T08:41:49Z</time>
    </trkpt>
    <trkpt lat="48.276032" lon="8.9891897">
    <ele>818</ele>
    <time>2007-07-01T08:44:05Z</time>
    </trkpt>
    <trkpt lat="48.2761359" lon="8.9875245">
    <ele>819</ele>
    <time>2007-07-01T08:44:27Z</time>
    </trkpt>
    <trkpt lat="48.276329" lon="8.9862156">
    <ele>820</ele>
    <time>2007-07-01T08:44:45Z</time>
    </trkpt>
    <trkpt lat="48.2760286" lon="8.9859581">
    <ele>821</ele>
    <time>2007-07-01T08:44:51Z</time>
    </trkpt>
    <trkpt lat="48.2759428" lon="8.9858508">
    <ele>821</ele>
    <time>2007-07-01T08:44:53Z</time>
    </trkpt>
    <trkpt lat="48.2758355" lon="8.9859796">
    <ele>820</ele>
    <time>2007-07-01T08:44:56Z</time>
    </trkpt>
    <trkpt lat="48.2749987" lon="8.9876962">
    <ele>820</ele>
    <time>2007-07-01T08:45:14Z</time>
    </trkpt>
    <trkpt lat="48.2739258" lon="8.9890909">
    <ele>821</ele>
    <time>2007-07-01T08:45:34Z</time>
    </trkpt>
    <trkpt lat="48.2738614" lon="8.9891338">
    <ele>820</ele>
    <time>2007-07-01T08:45:35Z</time>
    </trkpt>
    <trkpt lat="48.2735395" lon="8.9885974">
    <ele>824</ele>
    <time>2007-07-01T08:45:46Z</time>
    </trkpt>
    <trkpt lat="48.2726383" lon="8.9871168">
    <ele>827</ele>
    <time>2007-07-01T08:46:21Z</time>
    </trkpt>
    <trkpt lat="48.2725096" lon="8.9869022">
    <ele>822</ele>
    <time>2007-07-01T08:46:36Z</time>
    </trkpt>
    <trkpt lat="48.2726598" lon="8.9868379">
    <ele>830</ele>
    <time>2007-07-01T08:49:23Z</time>
    </trkpt>
    <trkpt lat="48.2727456" lon="8.9860868">
    <ele>834</ele>
    <time>2007-07-01T08:49:51Z</time>
    </trkpt>
    <trkpt lat="48.2727885" lon="8.9854431">
    <ele>837</ele>
    <time>2007-07-01T08:50:22Z</time>
    </trkpt>
    <trkpt lat="48.2727885" lon="8.9843488">
    <ele>838</ele>
    <time>2007-07-01T08:51:25Z</time>
    </trkpt>
    <trkpt lat="48.2727027" lon="8.9833617">
    <ele>841</ele>
    <time>2007-07-01T08:52:35Z</time>
    </trkpt>
    <trkpt lat="48.2725954" lon="8.9819241">
    <ele>850</ele>
    <time>2007-07-01T08:54:05Z</time>
    </trkpt>
    <trkpt lat="48.2726169" lon="8.9818168">
    <ele>850</ele>
    <time>2007-07-01T08:54:30Z</time>
    </trkpt>
    <trkpt lat="48.2725525" lon="8.9816236">
    <ele>855</ele>
    <time>2007-07-01T08:54:52Z</time>
    </trkpt>
    <trkpt lat="48.2724667" lon="8.9810658">
    <ele>863</ele>
    <time>2007-07-01T08:55:27Z</time>
    </trkpt>
    <trkpt lat="48.2723379" lon="8.9800572">
    <ele>907</ele>
    <time>2007-07-01T08:56:36Z</time>
    </trkpt>
    <trkpt lat="48.2711363" lon="8.9791775">
    <ele>905</ele>
    <time>2007-07-01T08:57:40Z</time>
    </trkpt>
    <trkpt lat="48.2711148" lon="8.9791775">
    <ele>906</ele>
    <time>2007-07-01T08:57:50Z</time>
    </trkpt>
    <trkpt lat="48.2711148" lon="8.9792418">
    <ele>907</ele>
    <time>2007-07-01T08:58:35Z</time>
    </trkpt>
    <trkpt lat="48.2712221" lon="8.9789414">
    <ele>906</ele>
    <time>2007-07-01T08:58:43Z</time>
    </trkpt>
    <trkpt lat="48.2717371" lon="8.977139">
    <ele>906</ele>
    <time>2007-07-01T08:59:08Z</time>
    </trkpt>
    <trkpt lat="48.2720375" lon="8.9760232">
    <ele>905</ele>
    <time>2007-07-01T08:59:22Z</time>
    </trkpt>
    <trkpt lat="48.272016" lon="8.9735556">
    <ele>900</ele>
    <time>2007-07-01T08:59:49Z</time>
    </trkpt>
    <trkpt lat="48.2719088" lon="8.9717746">
    <ele>896</ele>
    <time>2007-07-01T09:00:07Z</time>
    </trkpt>
    <trkpt lat="48.2718444" lon="8.9708519">
    <ele>894</ele>
    <time>2007-07-01T09:00:16Z</time>
    </trkpt>
    <trkpt lat="48.2719088" lon="8.9705086">
    <ele>894</ele>
    <time>2007-07-01T09:00:20Z</time>
    </trkpt>
    <trkpt lat="48.2719088" lon="8.9702296">
    <ele>894</ele>
    <time>2007-07-01T09:00:26Z</time>
    </trkpt>
    <trkpt lat="48.2719302" lon="8.9701438">
    <ele>893</ele>
    <time>2007-07-01T09:00:35Z</time>
    </trkpt>
    <trkpt lat="48.2721663" lon="8.9701009">
    <ele>896</ele>
    <time>2007-07-01T09:01:52Z</time>
    </trkpt>
    <trkpt lat="48.2728314" lon="8.9699721">
    <ele>895</ele>
    <time>2007-07-01T09:02:04Z</time>
    </trkpt>
    <trkpt lat="48.2729173" lon="8.969779">
    <ele>895</ele>
    <time>2007-07-01T09:02:08Z</time>
    </trkpt>
    <trkpt lat="48.2729387" lon="8.9694142">
    <ele>896</ele>
    <time>2007-07-01T09:02:16Z</time>
    </trkpt>
    <trkpt lat="48.2730031" lon="8.9693284">
    <ele>896</ele>
    <time>2007-07-01T09:02:22Z</time>
    </trkpt>
    <trkpt lat="48.2731533" lon="8.9693284">
    <ele>894</ele>
    <time>2007-07-01T09:02:27Z</time>
    </trkpt>
    <trkpt lat="48.2731318" lon="8.9690924">
    <ele>896</ele>
    <time>2007-07-01T09:02:31Z</time>
    </trkpt>
    <trkpt lat="48.2731533" lon="8.9684272">
    <ele>898</ele>
    <time>2007-07-01T09:02:43Z</time>
    </trkpt>
    <trkpt lat="48.2732821" lon="8.9660239">
    <ele>903</ele>
    <time>2007-07-01T09:03:29Z</time>
    </trkpt>
    <trkpt lat="48.2732821" lon="8.9642429">
    <ele>902</ele>
    <time>2007-07-01T09:03:55Z</time>
    </trkpt>
    <trkpt lat="48.2732606" lon="8.9639425">
    <ele>902</ele>
    <time>2007-07-01T09:03:59Z</time>
    </trkpt>
    <trkpt lat="48.2733464" lon="8.9631057">
    <ele>902</ele>
    <time>2007-07-01T09:04:10Z</time>
    </trkpt>
    <trkpt lat="48.273325" lon="8.9626765">
    <ele>902</ele>
    <time>2007-07-01T09:04:16Z</time>
    </trkpt>
    <trkpt lat="48.2730889" lon="8.9621615">
    <ele>900</ele>
    <time>2007-07-01T09:04:25Z</time>
    </trkpt>
    <trkpt lat="48.2731104" lon="8.9620757">
    <ele>900</ele>
    <time>2007-07-01T09:04:26Z</time>
    </trkpt>
    <trkpt lat="48.2732391" lon="8.9607024">
    <ele>904</ele>
    <time>2007-07-01T09:04:46Z</time>
    </trkpt>
    <trkpt lat="48.2731962" lon="8.9595437">
    <ele>908</ele>
    <time>2007-07-01T09:05:06Z</time>
    </trkpt>
    <trkpt lat="48.2732177" lon="8.957355">
    <ele>909</ele>
    <time>2007-07-01T09:05:41Z</time>
    </trkpt>
    <trkpt lat="48.2733035" lon="8.9547586">
    <ele>906</ele>
    <time>2007-07-01T09:06:15Z</time>
    </trkpt>
    <trkpt lat="48.273325" lon="8.9543295">
    <ele>905</ele>
    <time>2007-07-01T09:06:22Z</time>
    </trkpt>
    <trkpt lat="48.2744408" lon="8.9544582">
    <ele>910</ele>
    <time>2007-07-01T09:06:46Z</time>
    </trkpt>
    <trkpt lat="48.2744837" lon="8.9544797">
    <ele>910</ele>
    <time>2007-07-01T09:06:47Z</time>
    </trkpt>
    <trkpt lat="48.2746339" lon="8.9542437">
    <ele>910</ele>
    <time>2007-07-01T09:06:52Z</time>
    </trkpt>
    <trkpt lat="48.2747412" lon="8.9529562">
    <ele>911</ele>
    <time>2007-07-01T09:07:11Z</time>
    </trkpt>
    <trkpt lat="48.2751703" lon="8.9514112">
    <ele>913</ele>
    <time>2007-07-01T09:07:40Z</time>
    </trkpt>
    <trkpt lat="48.2758999" lon="8.9501452">
    <ele>913</ele>
    <time>2007-07-01T09:08:03Z</time>
    </trkpt>
    <trkpt lat="48.2772303" lon="8.9476347">
    <ele>912</ele>
    <time>2007-07-01T09:08:41Z</time>
    </trkpt>
    <trkpt lat="48.2779169" lon="8.9464331">
    <ele>915</ele>
    <time>2007-07-01T09:09:04Z</time>
    </trkpt>
    <trkpt lat="48.2786465" lon="8.9454031">
    <ele>919</ele>
    <time>2007-07-01T09:09:35Z</time>
    </trkpt>
    <trkpt lat="48.2793546" lon="8.9443731">
    <ele>923</ele>
    <time>2007-07-01T09:10:02Z</time>
    </trkpt>
    <trkpt lat="48.2801914" lon="8.9431715">
    <ele>922</ele>
    <time>2007-07-01T09:10:27Z</time>
    </trkpt>
    <trkpt lat="48.281256" lon="8.9411885">
    <ele>906</ele>
    <time>2007-07-01T09:10:27Z</time>
    </trkpt>
    <trkpt lat="48.2814344" lon="8.9383925">
    <ele>869</ele>
    <time>2007-07-01T09:10:28Z</time>
    </trkpt>
    <trkpt lat="48.2816434496509" lon="8.93716452258951">
    <time>2007-07-01T09:10:28Z</time>
    </trkpt>
    <trkpt lat="48.2812305" lon="8.9354285">
    <ele>869</ele>
    <time>2007-07-01T09:10:29Z</time>
    </trkpt>
    <trkpt lat="48.2803983" lon="8.9348906">
    <ele>866</ele>
    <time>2007-07-01T09:10:30Z</time>
    </trkpt>
    <trkpt lat="48.2795202" lon="8.9326686">
    <ele>922</ele>
    <time>2007-07-01T09:10:34Z</time>
    </trkpt>
    <trkpt lat="48.278403254134" lon="8.93248664003974">
    <time>2007-07-01T09:32:47Z</time>
    </trkpt>
    <trkpt lat="48.2775642" lon="8.9328059">
    <ele>843</ele>
    <time>2007-07-01T09:55:01Z</time>
    </trkpt>
    <trkpt lat="48.276216" lon="8.9340876">
    <ele>840</ele>
    <time>2007-07-01T09:59:49Z</time>
    </trkpt>
    <trkpt lat="48.2751145" lon="8.9344258">
    <ele>840</ele>
    <time>2007-07-01T09:59:53Z</time>
    </trkpt>
    <trkpt lat="48.2747169115554" lon="8.93397341652743">
    <ele>841</ele>
    <time>2007-07-01T10:00:04Z</time>
    </trkpt>
    <trkpt lat="48.2739222" lon="8.9330802">
    <ele>841</ele>
    <time>2007-07-01T10:00:21Z</time>
    </trkpt>
    <trkpt lat="48.2734565884245" lon="8.93178589443508">
    <time>2007-07-01T10:00:23Z</time>
    </trkpt>
    <trkpt lat="48.2734323" lon="8.9303827">
    <ele>841</ele>
    <time>2007-07-01T10:00:26Z</time>
    </trkpt>
    <trkpt lat="48.2731318" lon="8.9286661">
    <ele>841</ele>
    <time>2007-07-01T10:00:43Z</time>
    </trkpt>
    <trkpt lat="48.2729816" lon="8.9278293">
    <ele>841</ele>
    <time>2007-07-01T10:00:51Z</time>
    </trkpt>
    <trkpt lat="48.2729387" lon="8.9269495">
    <ele>841</ele>
    <time>2007-07-01T10:00:58Z</time>
    </trkpt>
    <trkpt lat="48.2727027" lon="8.9263916">
    <ele>839</ele>
    <time>2007-07-01T10:01:03Z</time>
    </trkpt>
    <trkpt lat="48.2718229" lon="8.9252973">
    <ele>822</ele>
    <time>2007-07-01T10:01:16Z</time>
    </trkpt>
    <trkpt lat="48.2716513" lon="8.9249325">
    <ele>811</ele>
    <time>2007-07-01T10:01:23Z</time>
    </trkpt>
    <trkpt lat="48.2716942" lon="8.9248681">
    <ele>802</ele>
    <time>2007-07-01T10:01:39Z</time>
    </trkpt>
    <trkpt lat="48.2716942" lon="8.9248681">
    <ele>802</ele>
    <time>2007-07-01T10:02:04Z</time>
    </trkpt>
    <trkpt lat="48.2718015" lon="8.9243317">
    <ele>758</ele>
    <time>2007-07-01T10:03:34Z</time>
    </trkpt>
    <trkpt lat="48.2718015" lon="8.9243317">
    <ele>758</ele>
    <time>2007-07-01T10:03:35Z</time>
    </trkpt>
    <trkpt lat="48.2713509" lon="8.9242244">
    <ele>752</ele>
    <time>2007-07-01T10:03:45Z</time>
    </trkpt>
    <trkpt lat="48.2713079" lon="8.9242029">
    <ele>752</ele>
    <time>2007-07-01T10:03:46Z</time>
    </trkpt>
    <trkpt lat="48.2709335080056" lon="8.92384136027944">
    <ele>752</ele>
    <time>2007-07-01T10:03:58Z</time>
    </trkpt>
    <trkpt lat="48.2704384347948" lon="8.9231685522265">
    <ele>735</ele>
    <time>2007-07-01T10:04:48Z</time>
    </trkpt>
    <trkpt lat="48.2705355" lon="8.9219069">
    <ele>726</ele>
    <time>2007-07-01T10:05:52Z</time>
    </trkpt>
    <trkpt lat="48.2704496" lon="8.9216065">
    <ele>723</ele>
    <time>2007-07-01T10:06:00Z</time>
    </trkpt>
    <trkpt lat="48.270514" lon="8.9215207">
    <ele>720</ele>
    <time>2007-07-01T10:06:02Z</time>
    </trkpt>
    <trkpt lat="48.2705998" lon="8.9214134">
    <ele>719</ele>
    <time>2007-07-01T10:06:04Z</time>
    </trkpt>
    <trkpt lat="48.27075" lon="8.921113">
    <ele>710</ele>
    <time>2007-07-01T10:07:20Z</time>
    </trkpt>
    <trkpt lat="48.2707286" lon="8.9209843">
    <ele>710</ele>
    <time>2007-07-01T10:07:22Z</time>
    </trkpt>
    <trkpt lat="48.2707715" lon="8.9206624">
    <ele>708</ele>
    <time>2007-07-01T10:07:26Z</time>
    </trkpt>
    <trkpt lat="48.270793" lon="8.9204907">
    <ele>707</ele>
    <time>2007-07-01T10:07:28Z</time>
    </trkpt>
    <trkpt lat="48.2707286" lon="8.919332">
    <ele>704</ele>
    <time>2007-07-01T10:07:41Z</time>
    </trkpt>
    <trkpt lat="48.27075" lon="8.9188385">
    <ele>704</ele>
    <time>2007-07-01T10:07:46Z</time>
    </trkpt>
    <trkpt lat="48.2708359" lon="8.918066">
    <ele>685</ele>
    <time>2007-07-01T10:08:47Z</time>
    </trkpt>
    <trkpt lat="48.2704926" lon="8.9176154">
    <ele>681</ele>
    <time>2007-07-01T10:08:52Z</time>
    </trkpt>
    <trkpt lat="48.2696926745075" lon="8.91764669214864">
    <ele>677</ele>
    <time>2007-07-01T10:09:04Z</time>
    </trkpt>
    <trkpt lat="48.2697201" lon="8.9173794">
    <ele>679</ele>
    <time>2007-07-01T10:09:17Z</time>
    </trkpt>
    <trkpt lat="48.2699132" lon="8.9172077">
    <ele>679</ele>
    <time>2007-07-01T10:10:04Z</time>
    </trkpt>
    <trkpt lat="48.2699619614503" lon="8.91693904515355">
    <ele>686</ele>
    <time>2007-07-01T10:10:09Z</time>
    </trkpt>
    <trkpt lat="48.2702314888368" lon="8.91656816082068">
    <ele>691</ele>
    <time>2007-07-01T10:10:15Z</time>
    </trkpt>
    <trkpt lat="48.2703883543096" lon="8.91586068526856">
    <ele>695</ele>
    <time>2007-07-01T10:10:18Z</time>
    </trkpt>
    <trkpt lat="48.2703193588303" lon="8.91377281787887">
    <ele>704</ele>
    <time>2007-07-01T10:10:30Z</time>
    </trkpt>
    <trkpt lat="48.2702046315215" lon="8.9107420779928">
    <ele>733</ele>
    <time>2007-07-01T10:13:14Z</time>
    </trkpt>
    <trkpt lat="48.2701355431166" lon="8.90865422511075">
    <ele>738</ele>
    <time>2007-07-01T10:13:34Z</time>
    </trkpt>
    <trkpt lat="48.2698205405665" lon="8.90835169548646">
    <ele>737</ele>
    <time>2007-07-01T10:13:38Z</time>
    </trkpt>
    <trkpt lat="48.2696128" lon="8.9082384">
    <ele>737</ele>
    <time>2007-07-01T10:13:42Z</time>
    </trkpt>
    <trkpt lat="48.2691836" lon="8.9085174">
    <ele>736</ele>
    <time>2007-07-01T10:13:47Z</time>
    </trkpt>
    <trkpt lat="48.268133860824" lon="8.90778222487129">
    <ele>736</ele>
    <time>2007-07-01T10:14:01Z</time>
    </trkpt>
    <trkpt lat="48.2652551442611" lon="8.90667616879409">
    <ele>740</ele>
    <time>2007-07-01T10:14:06Z</time>
    </trkpt>
    <trkpt lat="48.2642882668802" lon="8.90654323635974">
    <ele>744</ele>
    <time>2007-07-01T10:14:30Z</time>
    </trkpt>
    <trkpt lat="48.2626006627244" lon="8.90486271088335">
    <ele>745</ele>
    <time>2007-07-01T10:14:44Z</time>
    </trkpt>
    <trkpt lat="48.2623752176468" lon="8.9041223476653">
    <ele>746</ele>
    <time>2007-07-01T10:15:00Z</time>
    </trkpt>
    <trkpt lat="48.2623745410412" lon="8.90331422358642">
    <ele>748</ele>
    <time>2007-07-01T10:15:04Z</time>
    </trkpt>
    <trkpt lat="48.2621884" lon="8.9015007">
    <ele>754</ele>
    <time>2007-07-01T10:15:20Z</time>
    </trkpt>
    <trkpt lat="48.2618326530775" lon="8.90062152281935">
    <time>2007-07-01T10:15:29Z</time>
    </trkpt>
    <trkpt lat="48.2619953" lon="8.8993335">
    <ele>758</ele>
    <time>2007-07-01T10:15:39Z</time>
    </trkpt>
    <trkpt lat="48.2622957" lon="8.8982177">
    <ele>768</ele>
    <time>2007-07-01T10:15:57Z</time>
    </trkpt>
    <trkpt lat="48.2623172" lon="8.8981318">
    <ele>768</ele>
    <time>2007-07-01T10:15:58Z</time>
    </trkpt>
    <trkpt lat="48.2624459" lon="8.8980675">
    <ele>775</ele>
    <time>2007-07-01T10:17:05Z</time>
    </trkpt>
    <trkpt lat="48.2627034" lon="8.8980246">
    <ele>775</ele>
    <time>2007-07-01T10:17:10Z</time>
    </trkpt>
    <trkpt lat="48.2636046" lon="8.8977027">
    <ele>775</ele>
    <time>2007-07-01T10:17:21Z</time>
    </trkpt>
    <trkpt lat="48.2652354" lon="8.8968873">
    <ele>775</ele>
    <time>2007-07-01T10:17:41Z</time>
    </trkpt>
    <trkpt lat="48.2653856" lon="8.8968873">
    <ele>774</ele>
    <time>2007-07-01T10:17:43Z</time>
    </trkpt>
    <trkpt lat="48.2655144" lon="8.8969517">
    <ele>774</ele>
    <time>2007-07-01T10:17:45Z</time>
    </trkpt>
    <trkpt lat="48.2659676973645" lon="8.89852570316016">
    <ele>774</ele>
    <time>2007-07-01T10:17:49Z</time>
    </trkpt>
    <trkpt lat="48.2661701034687" lon="8.89859265125316">
    <ele>774</ele>
    <time>2007-07-01T10:17:52Z</time>
    </trkpt>
    <trkpt lat="48.2662593198211" lon="8.89778428815996">
    <ele>772</ele>
    <time>2007-07-01T10:18:06Z</time>
    </trkpt>
    <trkpt lat="48.266054792539" lon="8.89536014584757">
    <ele>770</ele>
    <time>2007-07-01T10:18:11Z</time>
    </trkpt>
    <trkpt lat="48.2660508" lon="8.8949776">
    <ele>766</ele>
    <time>2007-07-01T10:18:33Z</time>
    </trkpt>
    <trkpt lat="48.265357390683" lon="8.89489013553187">
    <ele>766</ele>
    <time>2007-07-01T10:18:40Z</time>
    </trkpt>
    <trkpt lat="48.2638741282728" lon="8.89556663422071">
    <ele>759</ele>
    <time>2007-07-01T10:18:53Z</time>
    </trkpt>
    <trkpt lat="48.2632210766485" lon="8.89442310136149">
    <ele>760</ele>
    <time>2007-07-01T10:19:01Z</time>
    </trkpt>
    <trkpt lat="48.2632425653235" lon="8.89334553836892">
    <ele>760</ele>
    <time>2007-07-01T10:19:11Z</time>
    </trkpt>
    <trkpt lat="48.263668737394" lon="8.89226712405203">
    <ele>759</ele>
    <time>2007-07-01T10:19:40Z</time>
    </trkpt>
    <trkpt lat="48.2644926" lon="8.8915733">
    <ele>759</ele>
    <time>2007-07-01T10:19:46Z</time>
    </trkpt>
    <trkpt lat="48.2649871" lon="8.8914039">
    <ele>759</ele>
    <time>2007-07-01T10:19:52Z</time>
    </trkpt>
    <trkpt lat="48.2656461920619" lon="8.89115172497377">
    <ele>648</ele>
    <time>2007-07-01T10:20:02Z</time>
    </trkpt>
    <trkpt lat="48.2658362" lon="8.8901496">
    <ele>655</ele>
    <time>2007-07-01T10:20:05Z</time>
    </trkpt>
    <trkpt lat="48.2659221" lon="8.8899565">
    <ele>658</ele>
    <time>2007-07-01T10:20:13Z</time>
    </trkpt>
    <trkpt lat="48.2659221" lon="8.8899779">
    <ele>646</ele>
    <time>2007-07-01T10:21:09Z</time>
    </trkpt>
    <trkpt lat="48.2658174" lon="8.8897858">
    <ele>633</ele>
    <time>2007-07-01T10:55:37Z</time>
    </trkpt>
    <trkpt lat="48.2656646" lon="8.8887548">
    <ele>637</ele>
    <time>2007-07-01T10:55:44Z</time>
    </trkpt>
    <trkpt lat="48.2656002" lon="8.8886261">
    <ele>628</ele>
    <time>2007-07-01T10:55:51Z</time>
    </trkpt>
    <trkpt lat="48.2655144" lon="8.888433">
    <ele>624</ele>
    <time>2007-07-01T10:55:55Z</time>
    </trkpt>
    <trkpt lat="48.2652998" lon="8.8880253">
    <ele>623</ele>
    <time>2007-07-01T10:56:02Z</time>
    </trkpt>
    <trkpt lat="48.2644507653985" lon="8.88718081915422">
    <ele>619</ele>
    <time>2007-07-01T10:56:22Z</time>
    </trkpt>
    <trkpt lat="48.2627198408473" lon="8.88745400522635">
    <ele>619</ele>
    <time>2007-07-01T10:56:28Z</time>
    </trkpt>
    <trkpt lat="48.2621884" lon="8.8866735">
    <ele>625</ele>
    <time>2007-07-01T10:57:34Z</time>
    </trkpt>
    <trkpt lat="48.2620168" lon="8.8865018">
    <ele>626</ele>
    <time>2007-07-01T10:57:40Z</time>
    </trkpt>
    <trkpt lat="48.2617378" lon="8.8860941">
    <ele>632</ele>
    <time>2007-07-01T10:58:10Z</time>
    </trkpt>
    <trkpt lat="48.261888" lon="8.8856649">
    <ele>646</ele>
    <time>2007-07-01T11:01:15Z</time>
    </trkpt>
    <trkpt lat="48.261652" lon="8.8846993">
    <ele>638</ele>
    <time>2007-07-01T11:01:27Z</time>
    </trkpt>
    <trkpt lat="48.2615662" lon="8.8845277">
    <ele>637</ele>
    <time>2007-07-01T11:01:38Z</time>
    </trkpt>
    <trkpt lat="48.2614589" lon="8.8841414">
    <ele>632</ele>
    <time>2007-07-01T11:02:17Z</time>
    </trkpt>
    <trkpt lat="48.2611585" lon="8.8824034">
    <ele>631</ele>
    <time>2007-07-01T11:02:42Z</time>
    </trkpt>
    <trkpt lat="48.2610941" lon="8.882103">
    <ele>631</ele>
    <time>2007-07-01T11:02:46Z</time>
    </trkpt>
    <trkpt lat="48.2606435" lon="8.8811159">
    <ele>633</ele>
    <time>2007-07-01T11:02:56Z</time>
    </trkpt>
    <trkpt lat="48.2605362" lon="8.880837">
    <ele>632</ele>
    <time>2007-07-01T11:02:59Z</time>
    </trkpt>
    <trkpt lat="48.2603738772963" lon="8.87981593374852">
    <ele>627</ele>
    <time>2007-07-01T11:03:18Z</time>
    </trkpt>
    <trkpt lat="48.2606862949031" lon="8.87759292969">
    <ele>626</ele>
    <time>2007-07-01T11:03:35Z</time>
    </trkpt>
    <trkpt lat="48.2616735" lon="8.8752794">
    <ele>618</ele>
    <time>2007-07-01T11:03:50Z</time>
    </trkpt>
    <trkpt lat="48.2618963729071" lon="8.87388616692253">
    <ele>617</ele>
    <time>2007-07-01T11:04:08Z</time>
    </trkpt>
    <trkpt lat="48.2622099" lon="8.872447">
    <ele>625</ele>
    <time>2007-07-01T11:05:35Z</time>
    </trkpt>
    <trkpt lat="48.2622743" lon="8.8722539">
    <ele>624</ele>
    <time>2007-07-01T11:05:40Z</time>
    </trkpt>
    <trkpt lat="48.262544977555" lon="8.87082041893883">
    <ele>624</ele>
    <time>2007-07-01T11:06:02Z</time>
    </trkpt>
    <trkpt lat="48.2627238925048" lon="8.86997816504541">
    <ele>622</ele>
    <time>2007-07-01T11:06:14Z</time>
    </trkpt>
    <trkpt lat="48.2626106377599" lon="8.86923766720069">
    <ele>621</ele>
    <time>2007-07-01T11:06:18Z</time>
    </trkpt>
    <trkpt lat="48.2622743" lon="8.8678122">
    <ele>589</ele>
    <time>2007-07-01T11:07:58Z</time>
    </trkpt>
    <trkpt lat="48.2628965" lon="8.8671041">
    <ele>589</ele>
    <time>2007-07-01T11:08:13Z</time>
    </trkpt>
    <trkpt lat="48.264134575714" lon="8.86499097578234">
    <ele>589</ele>
    <time>2007-07-01T11:08:39Z</time>
    </trkpt>
    <trkpt lat="48.2650112919157" lon="8.86488764596312">
    <ele>588</ele>
    <time>2007-07-01T11:08:58Z</time>
    </trkpt>
    <trkpt lat="48.2651281" lon="8.8640785">
    <ele>587</ele>
    <time>2007-07-01T11:09:04Z</time>
    </trkpt>
    <trkpt lat="48.2650638" lon="8.8626194">
    <ele>581</ele>
    <time>2007-07-01T11:09:19Z</time>
    </trkpt>
    <trkpt lat="48.2650423" lon="8.8622975">
    <ele>580</ele>
    <time>2007-07-01T11:09:23Z</time>
    </trkpt>
    <trkpt lat="48.2650852" lon="8.8620186">
    <ele>578</ele>
    <time>2007-07-01T11:09:27Z</time>
    </trkpt>
    <trkpt lat="48.2655573" lon="8.8612247">
    <ele>575</ele>
    <time>2007-07-01T11:09:40Z</time>
    </trkpt>
    <trkpt lat="48.267454360714" lon="8.85858393809056">
    <time>2007-07-01T11:16:28Z</time>
    </trkpt>
    <trkpt lat="48.2670263132806" lon="8.85787794502598">
    <time>2007-07-01T11:19:52Z</time>
    </trkpt>
    <trkpt lat="48.2681932479029" lon="8.85612357214989">
    <time>2007-07-01T11:21:34Z</time>
    </trkpt>
    <trkpt lat="48.2692063643498" lon="8.8572320489817">
    <time>2007-07-01T11:22:25Z</time>
    </trkpt>
    <trkpt lat="48.2701492" lon="8.8563323">
    <ele>539</ele>
    <time>2007-07-01T11:23:16Z</time>
    </trkpt>
    <trkpt lat="48.2701063" lon="8.8562036">
    <ele>539</ele>
    <time>2007-07-01T11:23:20Z</time>
    </trkpt>
    <trkpt lat="48.2694626" lon="8.8556457">
    <ele>538</ele>
    <time>2007-07-01T11:23:38Z</time>
    </trkpt>
    <trkpt lat="48.2694197" lon="8.8556242">
    <ele>537</ele>
    <time>2007-07-01T11:23:40Z</time>
    </trkpt>
    <trkpt lat="48.2682824" lon="8.8546586">
    <ele>535</ele>
    <time>2007-07-01T11:25:34Z</time>
    </trkpt>
    <trkpt lat="48.2671666" lon="8.8534999">
    <ele>533</ele>
    <time>2007-07-01T11:27:42Z</time>
    </trkpt>
    <trkpt lat="48.2671666" lon="8.8535428">
    <ele>529</ele>
    <time>2007-07-01T11:36:19Z</time>
    </trkpt>
    <trkpt lat="48.2669306" lon="8.8533282">
    <ele>527</ele>
    <time>2007-07-01T11:40:11Z</time>
    </trkpt>
    <trkpt lat="48.2660294" lon="8.8523412">
    <ele>527</ele>
    <time>2007-07-01T11:40:33Z</time>
    </trkpt>
    <trkpt lat="48.2659864" lon="8.8522983">
    <ele>527</ele>
    <time>2007-07-01T11:40:34Z</time>
    </trkpt>
    <trkpt lat="48.2660508" lon="8.8518906">
    <ele>526</ele>
    <time>2007-07-01T11:40:44Z</time>
    </trkpt>
    <trkpt lat="48.2660937" lon="8.8518476">
    <ele>530</ele>
    <time>2007-07-01T11:41:52Z</time>
    </trkpt>
    <trkpt lat="48.2662225" lon="8.8517833">
    <ele>530</ele>
    <time>2007-07-01T11:41:55Z</time>
    </trkpt>
    <trkpt lat="48.2663890536907" lon="8.85175094683258">
    <ele>531</ele>
    <time>2007-07-01T11:42:02Z</time>
    </trkpt>
    <trkpt lat="48.2663727" lon="8.8514829">
    <ele>532</ele>
    <time>2007-07-01T11:42:59Z</time>
    </trkpt>
    <trkpt lat="48.2664371" lon="8.8510108">
    <ele>531</ele>
    <time>2007-07-01T11:43:10Z</time>
    </trkpt>
    <trkpt lat="48.2665014" lon="8.8494229">
    <ele>528</ele>
    <time>2007-07-01T11:43:33Z</time>
    </trkpt>
    <trkpt lat="48.2665229" lon="8.8489079">
    <ele>528</ele>
    <time>2007-07-01T11:43:47Z</time>
    </trkpt>
    <trkpt lat="48.2662654" lon="8.8489079">
    <ele>549</ele>
    <time>2007-07-01T11:44:45Z</time>
    </trkpt>
    <trkpt lat="48.2651496" lon="8.8489294">
    <ele>537</ele>
    <time>2007-07-01T11:45:09Z</time>
    </trkpt>
    <trkpt lat="48.2651067" lon="8.8489294">
    <ele>537</ele>
    <time>2007-07-01T11:45:10Z</time>
    </trkpt>
    <trkpt lat="48.2650852" lon="8.8487577">
    <ele>535</ele>
    <time>2007-07-01T11:45:14Z</time>
    </trkpt>
    <trkpt lat="48.2649779" lon="8.8486505">
    <ele>534</ele>
    <time>2007-07-01T11:45:18Z</time>
    </trkpt>
    <trkpt lat="48.2647204" lon="8.8485432">
    <ele>532</ele>
    <time>2007-07-01T11:45:24Z</time>
    </trkpt>
    <trkpt lat="48.2637334" lon="8.8475347">
    <ele>531</ele>
    <time>2007-07-01T11:45:48Z</time>
    </trkpt>
    <trkpt lat="48.263669" lon="8.8473845">
    <ele>525</ele>
    <time>2007-07-01T11:47:11Z</time>
    </trkpt>
    <trkpt lat="48.2631969" lon="8.8469982">
    <ele>526</ele>
    <time>2007-07-01T11:47:24Z</time>
    </trkpt>
    <trkpt lat="48.2625103" lon="8.8467193">
    <ele>526</ele>
    <time>2007-07-01T11:47:41Z</time>
    </trkpt>
    <trkpt lat="48.2614790320785" lon="8.84513189710056">
    <ele>528</ele>
    <time>2007-07-01T11:48:08Z</time>
    </trkpt>
    <trkpt lat="48.2606435" lon="8.8442087">
    <ele>532</ele>
    <time>2007-07-01T11:48:39Z</time>
    </trkpt>
    <trkpt lat="48.2601714" lon="8.8436294">
    <ele>533</ele>
    <time>2007-07-01T11:48:53Z</time>
    </trkpt>
    <trkpt lat="48.2598925" lon="8.8432646">
    <ele>533</ele>
    <time>2007-07-01T11:49:02Z</time>
    </trkpt>
    <trkpt lat="48.2599139" lon="8.8428998">
    <ele>569</ele>
    <time>2007-07-01T12:50:43Z</time>
    </trkpt>
    <trkpt lat="48.2599139" lon="8.8428569">
    <ele>523</ele>
    <time>2007-07-01T12:50:55Z</time>
    </trkpt>
    <trkpt lat="48.2598281" lon="8.8426852">
    <ele>532</ele>
    <time>2007-07-01T12:51:01Z</time>
    </trkpt>
    <trkpt lat="48.2594204" lon="8.8419342">
    <ele>536</ele>
    <time>2007-07-01T12:51:12Z</time>
    </trkpt>
    <trkpt lat="48.2585835" lon="8.8396382">
    <ele>541</ele>
    <time>2007-07-01T12:51:39Z</time>
    </trkpt>
    <trkpt lat="48.2581115" lon="8.8383722">
    <ele>541</ele>
    <time>2007-07-01T12:51:56Z</time>
    </trkpt>
    <trkpt lat="48.2580471" lon="8.8383722">
    <ele>543</ele>
    <time>2007-07-01T12:52:06Z</time>
    </trkpt>
    <trkpt lat="48.257854" lon="8.8384581">
    <ele>554</ele>
    <time>2007-07-01T12:53:35Z</time>
    </trkpt>
    <trkpt lat="48.2574034" lon="8.8385224">
    <ele>552</ele>
    <time>2007-07-01T12:53:42Z</time>
    </trkpt>
    <trkpt lat="48.2569098" lon="8.8384581">
    <ele>550</ele>
    <time>2007-07-01T12:53:51Z</time>
    </trkpt>
    <trkpt lat="48.2561428646031" lon="8.83952548987185">
    <ele>550</ele>
    <time>2007-07-01T12:53:57Z</time>
    </trkpt>
    <trkpt lat="48.2554722" lon="8.8398957">
    <ele>549</ele>
    <time>2007-07-01T12:54:23Z</time>
    </trkpt>
    <trkpt lat="48.2554293" lon="8.8399601">
    <ele>554</ele>
    <time>2007-07-01T12:57:29Z</time>
    </trkpt>
    <trkpt lat="48.2549143" lon="8.8399172">
    <ele>550</ele>
    <time>2007-07-01T13:00:28Z</time>
    </trkpt>
    <trkpt lat="48.2541418" lon="8.8397241">
    <ele>549</ele>
    <time>2007-07-01T13:00:47Z</time>
    </trkpt>
    <trkpt lat="48.2540131" lon="8.8393593">
    <ele>551</ele>
    <time>2007-07-01T13:00:59Z</time>
    </trkpt>
    <trkpt lat="48.2539272" lon="8.838501">
    <ele>551</ele>
    <time>2007-07-01T13:01:24Z</time>
    </trkpt>
    <trkpt lat="48.2538629" lon="8.8376641">
    <ele>551</ele>
    <time>2007-07-01T13:02:07Z</time>
    </trkpt>
    <trkpt lat="48.2537985" lon="8.8377929">
    <ele>562</ele>
    <time>2007-07-01T13:02:58Z</time>
    </trkpt>
    <trkpt lat="48.2534122" lon="8.8378572">
    <ele>559</ele>
    <time>2007-07-01T13:03:08Z</time>
    </trkpt>
    <trkpt lat="48.2524681" lon="8.83775">
    <ele>559</ele>
    <time>2007-07-01T13:03:31Z</time>
    </trkpt>
    <trkpt lat="48.2515084431164" lon="8.83745277570652">
    <ele>561</ele>
    <time>2007-07-01T13:03:59Z</time>
    </trkpt>
    <trkpt lat="48.2498666144915" lon="8.83705401471946">
    <ele>562</ele>
    <time>2007-07-01T13:04:28Z</time>
    </trkpt>
    <trkpt lat="48.2495713" lon="8.8365912">
    <ele>564</ele>
    <time>2007-07-01T13:05:03Z</time>
    </trkpt>
    <trkpt lat="48.2490563" lon="8.8359904">
    <ele>566</ele>
    <time>2007-07-01T13:05:26Z</time>
    </trkpt>
    <trkpt lat="48.2486701" lon="8.8351321">
    <ele>570</ele>
    <time>2007-07-01T13:05:53Z</time>
    </trkpt>
    <trkpt lat="48.2485199" lon="8.835175">
    <ele>572</ele>
    <time>2007-07-01T13:06:00Z</time>
    </trkpt>
    <trkpt lat="48.247962" lon="8.8356686">
    <ele>575</ele>
    <time>2007-07-01T13:06:22Z</time>
    </trkpt>
    <trkpt lat="48.2473612" lon="8.8354754">
    <ele>576</ele>
    <time>2007-07-01T13:06:40Z</time>
    </trkpt>
    <trkpt lat="48.2462883" lon="8.8349175">
    <ele>576</ele>
    <time>2007-07-01T13:07:09Z</time>
    </trkpt>
    <trkpt lat="48.24543" lon="8.8345098">
    <ele>579</ele>
    <time>2007-07-01T13:07:27Z</time>
    </trkpt>
    <trkpt lat="48.2440996" lon="8.8341236">
    <ele>581</ele>
    <time>2007-07-01T13:07:58Z</time>
    </trkpt>
    <trkpt lat="48.2434344" lon="8.8340592">
    <ele>581</ele>
    <time>2007-07-01T13:08:13Z</time>
    </trkpt>
    <trkpt lat="48.2433271" lon="8.8340807">
    <ele>581</ele>
    <time>2007-07-01T13:08:15Z</time>
    </trkpt>
    <trkpt lat="48.2432413" lon="8.8341022">
    <ele>581</ele>
    <time>2007-07-01T13:08:17Z</time>
    </trkpt>
    <trkpt lat="48.2429838" lon="8.8343382">
    <ele>584</ele>
    <time>2007-07-01T13:08:22Z</time>
    </trkpt>
    <trkpt lat="48.2421684" lon="8.8359261">
    <ele>586</ele>
    <time>2007-07-01T13:08:37Z</time>
    </trkpt>
    <trkpt lat="48.241632" lon="8.8365483">
    <ele>585</ele>
    <time>2007-07-01T13:08:49Z</time>
    </trkpt>
    <trkpt lat="48.2412672" lon="8.8363767">
    <ele>586</ele>
    <time>2007-07-01T13:08:58Z</time>
    </trkpt>
    <trkpt lat="48.2406664" lon="8.835454">
    <ele>588</ele>
    <time>2007-07-01T13:09:23Z</time>
    </trkpt>
    <trkpt lat="48.2405591" lon="8.8352823">
    <ele>587</ele>
    <time>2007-07-01T13:09:35Z</time>
    </trkpt>
    <trkpt lat="48.2405806" lon="8.8353467">
    <ele>586</ele>
    <time>2007-07-01T13:10:35Z</time>
    </trkpt>
    <trkpt lat="48.2403874" lon="8.8352609">
    <ele>589</ele>
    <time>2007-07-01T13:10:44Z</time>
    </trkpt>
    <trkpt lat="48.2395935" lon="8.8350892">
    <ele>593</ele>
    <time>2007-07-01T13:11:11Z</time>
    </trkpt>
    <trkpt lat="48.2391" lon="8.8343811">
    <ele>599</ele>
    <time>2007-07-01T13:11:50Z</time>
    </trkpt>
    <trkpt lat="48.2390238221009" lon="8.83291503609866">
    <ele>603</ele>
    <time>2007-07-01T13:12:05Z</time>
    </trkpt>
    <trkpt lat="48.2390005062546" lon="8.8323429505338">
    <ele>607</ele>
    <time>2007-07-01T13:13:04Z</time>
    </trkpt>
    <trkpt lat="48.2379842" lon="8.8307977">
    <ele>607</ele>
    <time>2007-07-01T13:13:11Z</time>
    </trkpt>
    <trkpt lat="48.2374907" lon="8.8304973">
    <ele>607</ele>
    <time>2007-07-01T13:13:28Z</time>
    </trkpt>
    <trkpt lat="48.2374477" lon="8.8305187">
    <ele>604</ele>
    <time>2007-07-01T13:14:22Z</time>
    </trkpt>
    <trkpt lat="48.2373619" lon="8.82936">
    <ele>607</ele>
    <time>2007-07-01T13:14:42Z</time>
    </trkpt>
    <trkpt lat="48.2372332" lon="8.8277721">
    <ele>611</ele>
    <time>2007-07-01T13:15:11Z</time>
    </trkpt>
    <trkpt lat="48.2371902" lon="8.8277292">
    <ele>612</ele>
    <time>2007-07-01T13:15:23Z</time>
    </trkpt>
    <trkpt lat="48.2369971" lon="8.827579">
    <ele>612</ele>
    <time>2007-07-01T13:16:39Z</time>
    </trkpt>
    <trkpt lat="48.2369328" lon="8.8275146">
    <ele>612</ele>
    <time>2007-07-01T13:16:41Z</time>
    </trkpt>
    <trkpt lat="48.2367611" lon="8.8274288">
    <ele>613</ele>
    <time>2007-07-01T13:16:45Z</time>
    </trkpt>
    <trkpt lat="48.2354522" lon="8.8272142">
    <ele>616</ele>
    <time>2007-07-01T13:17:17Z</time>
    </trkpt>
    <trkpt lat="48.2348299" lon="8.8271713">
    <ele>618</ele>
    <time>2007-07-01T13:17:34Z</time>
    </trkpt>
    <trkpt lat="48.2341433" lon="8.8263774">
    <ele>621</ele>
    <time>2007-07-01T13:17:58Z</time>
    </trkpt>
    <trkpt lat="48.2340789" lon="8.826077">
    <ele>622</ele>
    <time>2007-07-01T13:18:06Z</time>
    </trkpt>
    <trkpt lat="48.2338858" lon="8.8258624">
    <ele>623</ele>
    <time>2007-07-01T13:18:13Z</time>
    </trkpt>
    <trkpt lat="48.2336926" lon="8.8259482">
    <ele>622</ele>
    <time>2007-07-01T13:18:18Z</time>
    </trkpt>
    <trkpt lat="48.2330704" lon="8.8268924">
    <ele>622</ele>
    <time>2007-07-01T13:18:35Z</time>
    </trkpt>
    <trkpt lat="48.2328129" lon="8.8272572">
    <ele>622</ele>
    <time>2007-07-01T13:18:41Z</time>
    </trkpt>
    <trkpt lat="48.2326627" lon="8.8275576">
    <ele>622</ele>
    <time>2007-07-01T13:18:46Z</time>
    </trkpt>
    <trkpt lat="48.2324481" lon="8.8290811">
    <ele>623</ele>
    <time>2007-07-01T13:19:05Z</time>
    </trkpt>
    <trkpt lat="48.2324052" lon="8.8295102">
    <ele>623</ele>
    <time>2007-07-01T13:19:10Z</time>
    </trkpt>
    <trkpt lat="48.2323623" lon="8.8295746">
    <ele>622</ele>
    <time>2007-07-01T13:19:18Z</time>
    </trkpt>
    <trkpt lat="48.2323837" lon="8.8294888">
    <ele>624</ele>
    <time>2007-07-01T13:21:46Z</time>
    </trkpt>
    <trkpt lat="48.2316208179708" lon="8.8287999767163">
    <ele>598</ele>
    <time>2007-07-01T14:06:53Z</time>
    </trkpt>
    <trkpt lat="48.2309257406554" lon="8.83008104325075">
    <ele>603</ele>
    <time>2007-07-01T14:07:17Z</time>
    </trkpt>
    <trkpt lat="48.2307744" lon="8.8309264">
    <ele>608</ele>
    <time>2007-07-01T14:07:28Z</time>
    </trkpt>
    <trkpt lat="48.2304096" lon="8.8319778">
    <ele>620</ele>
    <time>2007-07-01T14:07:39Z</time>
    </trkpt>
    <trkpt lat="48.2303023" lon="8.8328362">
    <ele>631</ele>
    <time>2007-07-01T14:07:47Z</time>
    </trkpt>
    <trkpt lat="48.2302594" lon="8.833437">
    <ele>640</ele>
    <time>2007-07-01T14:07:53Z</time>
    </trkpt>
    <trkpt lat="48.2300019" lon="8.8340378">
    <ele>645</ele>
    <time>2007-07-01T14:08:01Z</time>
    </trkpt>
    <trkpt lat="48.2298946" lon="8.8341236">
    <ele>645</ele>
    <time>2007-07-01T14:08:03Z</time>
    </trkpt>
    <trkpt lat="48.2295513" lon="8.834188">
    <ele>647</ele>
    <time>2007-07-01T14:08:08Z</time>
    </trkpt>
    <trkpt lat="48.2289505" lon="8.8344669">
    <ele>649</ele>
    <time>2007-07-01T14:08:21Z</time>
    </trkpt>
    <trkpt lat="48.2288647" lon="8.8344884">
    <ele>649</ele>
    <time>2007-07-01T14:08:24Z</time>
    </trkpt>
    <trkpt lat="48.2284141" lon="8.8341022">
    <ele>682</ele>
    <time>2007-07-02T04:32:36Z</time>
    </trkpt>
    <trkpt lat="48.2284141" lon="8.8340592">
    <ele>669</ele>
    <time>2007-07-02T04:33:16Z</time>
    </trkpt>
    <trkpt lat="48.2283282" lon="8.8339949">
    <ele>669</ele>
    <time>2007-07-02T04:33:19Z</time>
    </trkpt>
    <trkpt lat="48.2282424" lon="8.833952">
    <ele>669</ele>
    <time>2007-07-02T04:33:21Z</time>
    </trkpt>
    <trkpt lat="48.2272553" lon="8.8331795">
    <ele>669</ele>
    <time>2007-07-02T04:33:39Z</time>
    </trkpt>
    <trkpt lat="48.2266974" lon="8.8323855">
    <ele>670</ele>
    <time>2007-07-02T04:33:51Z</time>
    </trkpt>
    <trkpt lat="48.2263651380599" lon="8.83245151908824">
    <ele>671</ele>
    <time>2007-07-02T04:33:55Z</time>
    </trkpt>
    <trkpt lat="48.2265472" lon="8.8334155">
    <ele>679</ele>
    <time>2007-07-02T04:34:08Z</time>
    </trkpt>
    <trkpt lat="48.226839964268" lon="8.83430064138507">
    <ele>679</ele>
    <time>2007-07-02T04:34:45Z</time>
    </trkpt>
    <trkpt lat="48.2268691" lon="8.8371491">
    <ele>699</ele>
    <time>2007-07-02T04:34:50Z</time>
    </trkpt>
    <trkpt lat="48.226912" lon="8.8375139">
    <ele>706</ele>
    <time>2007-07-02T04:34:54Z</time>
    </trkpt>
    <trkpt lat="48.2271695" lon="8.8396168">
    <ele>705</ele>
    <time>2007-07-02T04:35:17Z</time>
    </trkpt>
    <trkpt lat="48.2272553" lon="8.8409901">
    <ele>705</ele>
    <time>2007-07-02T04:35:32Z</time>
    </trkpt>
    <trkpt lat="48.2281719" lon="8.8434304">
    <ele>704</ele>
    <time>2007-07-02T04:36:15Z</time>
    </trkpt>
    <trkpt lat="48.2282044598807" lon="8.84543421366201">
    <time>2007-07-02T04:36:28Z</time>
    </trkpt>
    <trkpt lat="48.2277708" lon="8.8460563">
    <ele>704</ele>
    <time>2007-07-02T04:36:40Z</time>
    </trkpt>
    <trkpt lat="48.2272840065755" lon="8.84644645147507">
    <ele>701</ele>
    <time>2007-07-02T04:36:51Z</time>
    </trkpt>
    <trkpt lat="48.227058094512" lon="8.8456395578729">
    <time>2007-07-02T04:37:39Z</time>
    </trkpt>
    <trkpt lat="48.2258431030475" lon="8.8449702527929">
    <ele>698</ele>
    <time>2007-07-02T04:38:27Z</time>
    </trkpt>
    <trkpt lat="48.2249665350089" lon="8.8451747841042">
    <ele>698</ele>
    <time>2007-07-02T04:38:35Z</time>
    </trkpt>
    <trkpt lat="48.2245383117855" lon="8.844402192898">
    <ele>701</ele>
    <time>2007-07-02T04:38:57Z</time>
    </trkpt>
    <trkpt lat="48.2244255773996" lon="8.84416700559184">
    <ele>703</ele>
    <time>2007-07-02T04:39:04Z</time>
    </trkpt>
    <trkpt lat="48.224659" lon="8.8440156">
    <ele>733</ele>
    <time>2007-07-02T04:40:35Z</time>
    </trkpt>
    <trkpt lat="48.2247448" lon="8.8439512">
    <ele>733</ele>
    <time>2007-07-02T04:40:38Z</time>
    </trkpt>
    <trkpt lat="48.2253465154127" lon="8.84352490554008">
    <time>2007-07-02T04:40:47Z</time>
    </trkpt>
    <trkpt lat="48.225953283536" lon="8.84332116800101">
    <ele>733</ele>
    <time>2007-07-02T04:40:56Z</time>
    </trkpt>
    <trkpt lat="48.2259893" lon="8.8425565">
    <ele>734</ele>
    <time>2007-07-02T04:41:16Z</time>
    </trkpt>
    <trkpt lat="48.2255694142465" lon="8.84211102063379">
    <ele>734</ele>
    <time>2007-07-02T04:41:36Z</time>
    </trkpt>
    <trkpt lat="48.2253208492981" lon="8.84120330029293">
    <ele>734</ele>
    <time>2007-07-02T04:41:39Z</time>
    </trkpt>
    <trkpt lat="48.2253868531961" lon="8.84016001958248">
    <time>2007-07-02T04:41:51Z</time>
    </trkpt>
    <trkpt lat="48.2250023" lon="8.8380504">
    <ele>735</ele>
    <time>2007-07-02T04:42:03Z</time>
    </trkpt>
    <trkpt lat="48.2243586" lon="8.8353682">
    <ele>745</ele>
    <time>2007-07-02T04:42:34Z</time>
    </trkpt>
    <trkpt lat="48.2233996180941" lon="8.83400892874405">
    <ele>755</ele>
    <time>2007-07-02T04:42:59Z</time>
    </trkpt>
    <trkpt lat="48.2229488367845" lon="8.83323652744995">
    <time>2007-07-02T04:43:33Z</time>
    </trkpt>
    <trkpt lat="48.2219131468398" lon="8.83223053089645">
    <ele>830</ele>
    <time>2007-07-02T04:44:08Z</time>
    </trkpt>
    <trkpt lat="48.220810097465" lon="8.83129208555808">
    <ele>829</ele>
    <time>2007-07-02T04:44:28Z</time>
    </trkpt>
    <trkpt lat="48.2190100149534" lon="8.83032234000154">
    <ele>829</ele>
    <time>2007-07-02T04:44:59Z</time>
    </trkpt>
    <trkpt lat="48.2173907852091" lon="8.83002490908941">
    <ele>827</ele>
    <time>2007-07-02T04:45:24Z</time>
    </trkpt>
    <trkpt lat="48.2166934110792" lon="8.82975808199025">
    <ele>829</ele>
    <time>2007-07-02T04:45:44Z</time>
    </trkpt>
    <trkpt lat="48.216289212976" lon="8.83009583871439">
    <ele>833</ele>
    <time>2007-07-02T04:45:57Z</time>
    </trkpt>
    <trkpt lat="48.2161752015935" lon="8.82901968486624">
    <ele>833</ele>
    <time>2007-07-02T04:47:28Z</time>
    </trkpt>
    <trkpt lat="48.2155677072917" lon="8.82871893676572">
    <ele>835</ele>
    <time>2007-07-02T04:52:17Z</time>
    </trkpt>
    <trkpt lat="48.215566904165" lon="8.82818068028105">
    <ele>836</ele>
    <time>2007-07-02T04:52:20Z</time>
    </trkpt>
    <trkpt lat="48.2154764181612" lon="8.82781093051117">
    <ele>839</ele>
    <time>2007-07-02T04:52:44Z</time>
    </trkpt>
    <trkpt lat="48.2147554937821" lon="8.82683776844254">
    <ele>839</ele>
    <time>2007-07-02T04:53:02Z</time>
    </trkpt>
    <trkpt lat="48.2143593" lon="8.8257122">
    <ele>842</ele>
    <time>2007-07-02T04:53:10Z</time>
    </trkpt>
    <trkpt lat="48.2138014" lon="8.8239956">
    <ele>845</ele>
    <time>2007-07-02T04:53:31Z</time>
    </trkpt>
    <trkpt lat="48.2136297" lon="8.8226652">
    <ele>848</ele>
    <time>2007-07-02T04:53:48Z</time>
    </trkpt>
    <trkpt lat="48.2135224" lon="8.8214636">
    <ele>848</ele>
    <time>2007-07-02T04:54:04Z</time>
    </trkpt>
    <trkpt lat="48.2140036948503" lon="8.82041503004467">
    <ele>859</ele>
    <time>2007-07-02T04:55:29Z</time>
    </trkpt>
    <trkpt lat="48.2132006" lon="8.8200259">
    <ele>859</ele>
    <time>2007-07-02T04:55:43Z</time>
    </trkpt>
    <trkpt lat="48.2118702" lon="8.8200903">
    <ele>858</ele>
    <time>2007-07-02T04:56:11Z</time>
    </trkpt>
    <trkpt lat="48.2106776630367" lon="8.82136852370379">
    <ele>858</ele>
    <time>2007-07-02T04:56:40Z</time>
    </trkpt>
    <trkpt lat="48.2060072719548" lon="8.82535368757405">
    <ele>858</ele>
    <time>2007-07-02T04:57:39Z</time>
    </trkpt>
    <trkpt lat="48.2056928144732" lon="8.82555656503931">
    <ele>856</ele>
    <time>2007-07-02T04:58:29Z</time>
    </trkpt>
    <trkpt lat="48.2053041" lon="8.8249183">
    <ele>854</ele>
    <time>2007-07-02T04:58:34Z</time>
    </trkpt>
    <trkpt lat="48.2052633284429" lon="8.82404447319868">
    <ele>850</ele>
    <time>2007-07-02T04:58:53Z</time>
    </trkpt>
    <trkpt lat="48.2045446391313" lon="8.82455144448581">
    <ele>843</ele>
    <time>2007-07-02T04:59:00Z</time>
    </trkpt>
    <trkpt lat="48.2044349299635" lon="8.82633441628464">
    <ele>841</ele>
    <time>2007-07-02T04:59:02Z</time>
    </trkpt>
    <trkpt lat="48.2048643859311" lon="8.82784650298618">
    <ele>837</ele>
    <time>2007-07-02T04:59:32Z</time>
    </trkpt>
    <trkpt lat="48.2048657421625" lon="8.82875462155531">
    <ele>837</ele>
    <time>2007-07-02T04:59:54Z</time>
    </trkpt>
    <trkpt lat="48.2044849774359" lon="8.82973127505597">
    <ele>829</ele>
    <time>2007-07-02T05:00:11Z</time>
    </trkpt>
    <trkpt lat="48.2025990683779" lon="8.83155369142808">
    <ele>763</ele>
    <time>2007-07-02T05:02:55Z</time>
    </trkpt>
    <trkpt lat="48.2018709" lon="8.8320422">
    <ele>763</ele>
    <time>2007-07-02T05:02:58Z</time>
    </trkpt>
    <trkpt lat="48.2009697" lon="8.8326645">
    <ele>760</ele>
    <time>2007-07-02T05:03:10Z</time>
    </trkpt>
    <trkpt lat="48.2005405" lon="8.8327932">
    <ele>756</ele>
    <time>2007-07-02T05:03:15Z</time>
    </trkpt>
    <trkpt lat="48.2001543" lon="8.8330507">
    <ele>753</ele>
    <time>2007-07-02T05:03:20Z</time>
    </trkpt>
    <trkpt lat="48.1990385" lon="8.8341665">
    <ele>750</ele>
    <time>2007-07-02T05:03:35Z</time>
    </trkpt>
    <trkpt lat="48.1989527" lon="8.8343167">
    <ele>747</ele>
    <time>2007-07-02T05:03:43Z</time>
    </trkpt>
    <trkpt lat="48.1988025" lon="8.8344026">
    <ele>742</ele>
    <time>2007-07-02T05:04:41Z</time>
    </trkpt>
    <trkpt lat="48.1984806" lon="8.8346386">
    <ele>740</ele>
    <time>2007-07-02T05:04:51Z</time>
    </trkpt>
    <trkpt lat="48.1984591" lon="8.8346601">
    <ele>739</ele>
    <time>2007-07-02T05:04:53Z</time>
    </trkpt>
    <trkpt lat="48.1983948" lon="8.8346171">
    <ele>739</ele>
    <time>2007-07-02T05:04:58Z</time>
    </trkpt>
    <trkpt lat="48.1983733" lon="8.8345528">
    <ele>738</ele>
    <time>2007-07-02T05:05:23Z</time>
    </trkpt>
    <trkpt lat="48.1982446" lon="8.8343596">
    <ele>736</ele>
    <time>2007-07-02T05:05:50Z</time>
    </trkpt>
    <trkpt lat="48.19803" lon="8.834188">
    <ele>737</ele>
    <time>2007-07-02T05:06:01Z</time>
    </trkpt>
    <trkpt lat="48.1980085" lon="8.834188">
    <ele>737</ele>
    <time>2007-07-02T05:06:34Z</time>
    </trkpt>
    <trkpt lat="48.1975365" lon="8.834188">
    <ele>744</ele>
    <time>2007-07-02T05:06:49Z</time>
    </trkpt>
    <trkpt lat="48.1974506" lon="8.834188">
    <ele>738</ele>
    <time>2007-07-02T05:07:47Z</time>
    </trkpt>
    <trkpt lat="48.1970644" lon="8.8338661">
    <ele>743</ele>
    <time>2007-07-02T05:07:55Z</time>
    </trkpt>
    <trkpt lat="48.1965709" lon="8.8327074">
    <ele>749</ele>
    <time>2007-07-02T05:08:09Z</time>
    </trkpt>
    <trkpt lat="48.1954930538161" lon="8.8306690278628">
    <ele>754</ele>
    <time>2007-07-02T05:09:17Z</time>
    </trkpt>
    <trkpt lat="48.195199282135" lon="8.829661160001">
    <ele>758</ele>
    <time>2007-07-02T05:09:35Z</time>
    </trkpt>
    <trkpt lat="48.1955624" lon="8.8285017">
    <ele>759</ele>
    <time>2007-07-02T05:09:40Z</time>
    </trkpt>
    <trkpt lat="48.1957769" lon="8.8281155">
    <ele>761</ele>
    <time>2007-07-02T05:09:45Z</time>
    </trkpt>
    <trkpt lat="48.1966116539819" lon="8.82693254657778">
    <ele>769</ele>
    <time>2007-07-02T05:10:09Z</time>
    </trkpt>
    <trkpt lat="48.196678038208" lon="8.82622611756434">
    <ele>769</ele>
    <time>2007-07-02T05:10:10Z</time>
    </trkpt>
    <trkpt lat="48.1961599066964" lon="8.82555529986904">
    <ele>770</ele>
    <time>2007-07-02T05:10:17Z</time>
    </trkpt>
    <trkpt lat="48.1960465707609" lon="8.82495037309522">
    <ele>770</ele>
    <time>2007-07-02T05:10:19Z</time>
    </trkpt>
    <trkpt lat="48.1964484366921" lon="8.8230994267221">
    <ele>771</ele>
    <time>2007-07-02T05:10:33Z</time>
    </trkpt>
    <trkpt lat="48.1958638225625" lon="8.82306781092658">
    <ele>771</ele>
    <time>2007-07-02T05:10:48Z</time>
    </trkpt>
    <trkpt lat="48.1951677742277" lon="8.82367550857357">
    <ele>771</ele>
    <time>2007-07-02T05:10:56Z</time>
    </trkpt>
    <trkpt lat="48.194378844222" lon="8.82236674971084">
    <ele>771</ele>
    <time>2007-07-02T05:11:07Z</time>
    </trkpt>
    <trkpt lat="48.1943325758422" lon="8.8215262272288">
    <ele>773</ele>
    <time>2007-07-02T05:11:41Z</time>
    </trkpt>
    <trkpt lat="48.1945334063341" lon="8.82055033435889">
    <ele>773</ele>
    <time>2007-07-02T05:11:48Z</time>
    </trkpt>
    <trkpt lat="48.1954765" lon="8.8199186">
    <ele>773</ele>
    <time>2007-07-02T05:11:56Z</time>
    </trkpt>
    <trkpt lat="48.1954082481887" lon="8.81926941542608">
    <ele>773</ele>
    <time>2007-07-02T05:12:02Z</time>
    </trkpt>
    <trkpt lat="48.1953478" lon="8.8185883">
    <ele>773</ele>
    <time>2007-07-02T05:12:12Z</time>
    </trkpt>
    <trkpt lat="48.1950045" lon="8.8183737">
    <ele>773</ele>
    <time>2007-07-02T05:12:17Z</time>
    </trkpt>
    <trkpt lat="48.1941891" lon="8.8182235">
    <ele>774</ele>
    <time>2007-07-02T05:12:27Z</time>
    </trkpt>
    <trkpt lat="48.1940818" lon="8.8180518">
    <ele>774</ele>
    <time>2007-07-02T05:12:30Z</time>
    </trkpt>
    <trkpt lat="48.1938672" lon="8.8174081">
    <ele>776</ele>
    <time>2007-07-02T05:12:38Z</time>
    </trkpt>
    <trkpt lat="48.1937814" lon="8.8166571">
    <ele>778</ele>
    <time>2007-07-02T05:12:46Z</time>
    </trkpt>
    <trkpt lat="48.1938457" lon="8.8163996">
    <ele>778</ele>
    <time>2007-07-02T05:12:49Z</time>
    </trkpt>
    <trkpt lat="48.1946158401593" lon="8.8158085714815">
    <ele>778</ele>
    <time>2007-07-02T05:13:08Z</time>
    </trkpt>
    <trkpt lat="48.1953350318954" lon="8.81563785397085">
    <ele>778</ele>
    <time>2007-07-02T05:13:13Z</time>
    </trkpt>
    <trkpt lat="48.1956266111051" lon="8.81519964202537">
    <ele>778</ele>
    <time>2007-07-02T05:13:19Z</time>
    </trkpt>
    <trkpt lat="48.195939531743" lon="8.81405515283329">
    <ele>786</ele>
    <time>2007-07-02T05:13:31Z</time>
    </trkpt>
    <trkpt lat="48.1958254798055" lon="8.81304671727235">
    <ele>787</ele>
    <time>2007-07-02T05:13:41Z</time>
    </trkpt>
    <trkpt lat="48.1950154839671" lon="8.81267975881585">
    <ele>791</ele>
    <time>2007-07-02T05:13:56Z</time>
    </trkpt>
    <trkpt lat="48.1945430635087" lon="8.8125133436268">
    <ele>791</ele>
    <time>2007-07-02T05:13:58Z</time>
    </trkpt>
    <trkpt lat="48.1945968" lon="8.8120651">
    <ele>788</ele>
    <time>2007-07-02T05:14:05Z</time>
    </trkpt>
    <trkpt lat="48.1946182" lon="8.8117003">
    <ele>787</ele>
    <time>2007-07-02T05:14:09Z</time>
    </trkpt>
    <trkpt lat="48.1948328" lon="8.811121">
    <ele>784</ele>
    <time>2007-07-02T05:14:15Z</time>
    </trkpt>
    <trkpt lat="48.1950341075563" lon="8.81032574790195">
    <ele>777</ele>
    <time>2007-07-02T05:14:36Z</time>
    </trkpt>
    <trkpt lat="48.1948755025009" lon="8.80958652490384">
    <ele>771</ele>
    <time>2007-07-02T05:15:39Z</time>
    </trkpt>
    <trkpt lat="48.1945539" lon="8.8085461">
    <ele>765</ele>
    <time>2007-07-02T05:15:51Z</time>
    </trkpt>
    <trkpt lat="48.1942105" lon="8.807795">
    <ele>764</ele>
    <time>2007-07-02T05:15:58Z</time>
    </trkpt>
    <trkpt lat="48.194232" lon="8.8071299">
    <ele>760</ele>
    <time>2007-07-02T05:16:04Z</time>
    </trkpt>
    <trkpt lat="48.1943393" lon="8.8067651">
    <ele>757</ele>
    <time>2007-07-02T05:16:08Z</time>
    </trkpt>
    <trkpt lat="48.1941462" lon="8.8065505">
    <ele>751</ele>
    <time>2007-07-02T05:16:13Z</time>
    </trkpt>
    <trkpt lat="48.1938887" lon="8.8061857">
    <ele>740</ele>
    <time>2007-07-02T05:16:20Z</time>
    </trkpt>
    <trkpt lat="48.1938457" lon="8.8058853">
    <ele>736</ele>
    <time>2007-07-02T05:16:23Z</time>
    </trkpt>
    <trkpt lat="48.1936741" lon="8.8055205">
    <ele>729</ele>
    <time>2007-07-02T05:16:28Z</time>
    </trkpt>
    <trkpt lat="48.1930947" lon="8.8048983">
    <ele>718</ele>
    <time>2007-07-02T05:16:40Z</time>
    </trkpt>
    <trkpt lat="48.1925368" lon="8.8037395">
    <ele>702</ele>
    <time>2007-07-02T05:16:56Z</time>
    </trkpt>
    <trkpt lat="48.1925154" lon="8.8036323">
    <ele>698</ele>
    <time>2007-07-02T05:17:05Z</time>
    </trkpt>
    <trkpt lat="48.1926012" lon="8.8034391">
    <ele>689</ele>
    <time>2007-07-02T05:18:13Z</time>
    </trkpt>
    <trkpt lat="48.1928158" lon="8.8024521">
    <ele>686</ele>
    <time>2007-07-02T05:18:22Z</time>
    </trkpt>
    <trkpt lat="48.1928587" lon="8.8020015">
    <ele>686</ele>
    <time>2007-07-02T05:18:25Z</time>
    </trkpt>
    <trkpt lat="48.1928802" lon="8.8017011">
    <ele>686</ele>
    <time>2007-07-02T05:18:27Z</time>
    </trkpt>
    <trkpt lat="48.1929874" lon="8.8005638">
    <ele>686</ele>
    <time>2007-07-02T05:18:34Z</time>
    </trkpt>
    <trkpt lat="48.1934381" lon="8.7994909">
    <ele>685</ele>
    <time>2007-07-02T05:18:42Z</time>
    </trkpt>
    <trkpt lat="48.1935453" lon="8.798933">
    <ele>684</ele>
    <time>2007-07-02T05:18:46Z</time>
    </trkpt>
    <trkpt lat="48.1935453" lon="8.7971735">
    <ele>683</ele>
    <time>2007-07-02T05:18:58Z</time>
    </trkpt>
    <trkpt lat="48.1936741" lon="8.7969589">
    <ele>681</ele>
    <time>2007-07-02T05:19:04Z</time>
    </trkpt>
    <trkpt lat="48.1936955" lon="8.7970018">
    <ele>677</ele>
    <time>2007-07-02T05:19:46Z</time>
    </trkpt>
    <trkpt lat="48.1940174" lon="8.7968302">
    <ele>676</ele>
    <time>2007-07-02T05:19:53Z</time>
    </trkpt>
    <trkpt lat="48.1941032" lon="8.79668">
    <ele>676</ele>
    <time>2007-07-02T05:19:55Z</time>
    </trkpt>
    <trkpt lat="48.1941891" lon="8.796401">
    <ele>676</ele>
    <time>2007-07-02T05:19:58Z</time>
    </trkpt>
    <trkpt lat="48.1945968" lon="8.7951136">
    <ele>677</ele>
    <time>2007-07-02T05:20:11Z</time>
    </trkpt>
    <trkpt lat="48.1947684" lon="8.7948561">
    <ele>677</ele>
    <time>2007-07-02T05:20:20Z</time>
    </trkpt>
    <trkpt lat="48.1948328" lon="8.7948346">
    <ele>676</ele>
    <time>2007-07-02T05:20:53Z</time>
    </trkpt>
    <trkpt lat="48.1947041" lon="8.7944698">
    <ele>675</ele>
    <time>2007-07-02T05:21:02Z</time>
    </trkpt>
    <trkpt lat="48.1946611" lon="8.794384">
    <ele>674</ele>
    <time>2007-07-02T05:21:58Z</time>
    </trkpt>
    <trkpt lat="48.1946826" lon="8.7941265">
    <ele>674</ele>
    <time>2007-07-02T05:22:01Z</time>
    </trkpt>
    <trkpt lat="48.1950903" lon="8.793118">
    <ele>676</ele>
    <time>2007-07-02T05:22:10Z</time>
    </trkpt>
    <trkpt lat="48.1953692" lon="8.7924528">
    <ele>676</ele>
    <time>2007-07-02T05:22:16Z</time>
    </trkpt>
    <trkpt lat="48.1953692" lon="8.792088">
    <ele>676</ele>
    <time>2007-07-02T05:22:20Z</time>
    </trkpt>
    <trkpt lat="48.1950903" lon="8.7917662">
    <ele>679</ele>
    <time>2007-07-02T05:22:25Z</time>
    </trkpt>
    <trkpt lat="48.1939745" lon="8.7913156">
    <ele>684</ele>
    <time>2007-07-02T05:22:39Z</time>
    </trkpt>
    <trkpt lat="48.1938887" lon="8.7912941">
    <ele>684</ele>
    <time>2007-07-02T05:22:40Z</time>
    </trkpt>
    <trkpt lat="48.1935453" lon="8.7906075">
    <ele>684</ele>
    <time>2007-07-02T05:22:47Z</time>
    </trkpt>
    <trkpt lat="48.1935453" lon="8.7905002">
    <ele>684</ele>
    <time>2007-07-02T05:22:56Z</time>
    </trkpt>
    <trkpt lat="48.1935668" lon="8.7905002">
    <ele>685</ele>
    <time>2007-07-02T05:23:46Z</time>
    </trkpt>
    <trkpt lat="48.1933951" lon="8.789835">
    <ele>686</ele>
    <time>2007-07-02T05:23:54Z</time>
    </trkpt>
    <trkpt lat="48.1928587" lon="8.7885046">
    <ele>687</ele>
    <time>2007-07-02T05:24:03Z</time>
    </trkpt>
    <trkpt lat="48.1926656" lon="8.7879682">
    <ele>687</ele>
    <time>2007-07-02T05:24:06Z</time>
    </trkpt>
    <trkpt lat="48.1924081" lon="8.7864447">
    <ele>687</ele>
    <time>2007-07-02T05:24:13Z</time>
    </trkpt>
    <trkpt lat="48.1919789" lon="8.7852001">
    <ele>691</ele>
    <time>2007-07-02T05:24:19Z</time>
    </trkpt>
    <trkpt lat="48.1916785" lon="8.7846208">
    <ele>693</ele>
    <time>2007-07-02T05:24:22Z</time>
    </trkpt>
    <trkpt lat="48.1913781" lon="8.783741">
    <ele>694</ele>
    <time>2007-07-02T05:24:26Z</time>
    </trkpt>
    <trkpt lat="48.1907344" lon="8.7826467">
    <ele>698</ele>
    <time>2007-07-02T05:24:32Z</time>
    </trkpt>
    <trkpt lat="48.1903297072494" lon="8.78193025201664">
    <ele>702</ele>
    <time>2007-07-02T05:24:39Z</time>
    </trkpt>
    <trkpt lat="48.1898761" lon="8.7787628">
    <ele>711</ele>
    <time>2007-07-02T05:24:49Z</time>
    </trkpt>
    <trkpt lat="48.1888247" lon="8.7761235">
    <ele>715</ele>
    <time>2007-07-02T05:25:02Z</time>
    </trkpt>
    <trkpt lat="48.1886959" lon="8.7757373">
    <ele>715</ele>
    <time>2007-07-02T05:25:04Z</time>
    </trkpt>
    <trkpt lat="48.1884599" lon="8.775351">
    <ele>718</ele>
    <time>2007-07-02T05:25:10Z</time>
    </trkpt>
    <trkpt lat="48.1883526" lon="8.7756729">
    <ele>721</ele>
    <time>2007-07-02T05:25:15Z</time>
    </trkpt>
    <trkpt lat="48.1880736" lon="8.7769175">
    <ele>725</ele>
    <time>2007-07-02T05:25:25Z</time>
    </trkpt>
    <trkpt lat="48.1878161" lon="8.7775397">
    <ele>725</ele>
    <time>2007-07-02T05:25:30Z</time>
    </trkpt>
    <trkpt lat="48.187526" lon="8.777519">
    <ele>725</ele>
    <time>2007-07-02T05:25:39Z</time>
    </trkpt>
    <trkpt lat="48.1876647953079" lon="8.7757549360886">
    <ele>729</ele>
    <time>2007-07-02T05:26:00Z</time>
    </trkpt>
    <trkpt lat="48.1872064" lon="8.7750323">
    <ele>729</ele>
    <time>2007-07-02T05:26:22Z</time>
    </trkpt>
    <trkpt lat="48.1870249" lon="8.7741925">
    <ele>729</ele>
    <time>2007-07-02T05:26:26Z</time>
    </trkpt>
    <trkpt lat="48.1870282" lon="8.7758736">
    <ele>731</ele>
    <time>2007-07-02T05:26:50Z</time>
    </trkpt>
    <trkpt lat="48.1858878395468" lon="8.77535922627021">
    <time>2007-07-02T05:26:56Z</time>
    </trkpt>
    <trkpt lat="48.1852266" lon="8.7743685">
    <ele>731</ele>
    <time>2007-07-02T05:27:02Z</time>
    </trkpt>
    <trkpt lat="48.1863291" lon="8.7748008">
    <ele>731</ele>
    <time>2007-07-02T05:27:08Z</time>
    </trkpt>
    <trkpt lat="48.1863353289086" lon="8.77424774227533">
    <ele>732</ele>
    <time>2007-07-02T05:27:11Z</time>
    </trkpt>
    <trkpt lat="48.1854343" lon="8.7739134">
    <ele>732</ele>
    <time>2007-07-02T05:27:17Z</time>
    </trkpt>
    <trkpt lat="48.185091" lon="8.773849">
    <ele>732</ele>
    <time>2007-07-02T05:27:21Z</time>
    </trkpt>
    <trkpt lat="48.185091" lon="8.773849">
    <ele>732</ele>
    <time>2007-07-02T05:27:31Z</time>
    </trkpt>
    <trkpt lat="48.1844167" lon="8.7741367">
    <ele>732</ele>
    <time>2007-07-02T05:27:36Z</time>
    </trkpt>
    <trkpt lat="48.1844608" lon="8.7736995">
    <ele>732</ele>
    <time>2007-07-02T05:27:38Z</time>
    </trkpt>
    <trkpt lat="48.1846697238842" lon="8.77331366900647">
    <ele>732</ele>
    <time>2007-07-02T05:27:42Z</time>
    </trkpt>
    <trkpt lat="48.1840982" lon="8.7722217">
    <ele>732</ele>
    <time>2007-07-02T05:27:55Z</time>
    </trkpt>
    <trkpt lat="48.1837591" lon="8.7713155">
    <ele>732</ele>
    <time>2007-07-02T05:28:00Z</time>
    </trkpt>
    <trkpt lat="48.1833529" lon="8.7707591">
    <ele>844</ele>
    <time>2007-07-02T05:28:09Z</time>
    </trkpt>
    <trkpt lat="48.1821908400491" lon="8.77043333350649">
    <ele>860</ele>
    <time>2007-07-02T05:29:54Z</time>
    </trkpt>
    <trkpt lat="48.1814260771058" lon="8.77026865389002">
    <ele>860</ele>
    <time>2007-07-02T05:29:58Z</time>
    </trkpt>
    <trkpt lat="48.1809574110992" lon="8.77201891305032">
    <ele>859</ele>
    <time>2007-07-02T05:30:08Z</time>
    </trkpt>
    <trkpt lat="48.1810141" lon="8.7726045">
    <ele>859</ele>
    <time>2007-07-02T05:30:11Z</time>
    </trkpt>
    <trkpt lat="48.1805205" lon="8.7752652">
    <ele>855</ele>
    <time>2007-07-02T05:30:22Z</time>
    </trkpt>
    <trkpt lat="48.1794834773511" lon="8.77710170516753">
    <ele>855</ele>
    <time>2007-07-02T05:30:28Z</time>
    </trkpt>
    <trkpt lat="48.1781363730473" lon="8.7780824293782">
    <ele>848</ele>
    <time>2007-07-02T05:30:39Z</time>
    </trkpt>
    <trkpt lat="48.1776881" lon="8.7788272">
    <ele>846</ele>
    <time>2007-07-02T05:30:53Z</time>
    </trkpt>
    <trkpt lat="48.1775968416487" lon="8.77811837419093">
    <ele>842</ele>
    <time>2007-07-02T05:31:00Z</time>
    </trkpt>
    <trkpt lat="48.1759501" lon="8.7776041">
    <ele>834</ele>
    <time>2007-07-02T05:32:34Z</time>
    </trkpt>
    <trkpt lat="48.1753922" lon="8.7767673">
    <ele>838</ele>
    <time>2007-07-02T05:32:41Z</time>
    </trkpt>
    <trkpt lat="48.1752419" lon="8.7761021">
    <ele>841</ele>
    <time>2007-07-02T05:32:45Z</time>
    </trkpt>
    <trkpt lat="48.174684" lon="8.7738919">
    <ele>844</ele>
    <time>2007-07-02T05:32:57Z</time>
    </trkpt>
    <trkpt lat="48.1742764" lon="8.7724972">
    <ele>844</ele>
    <time>2007-07-02T05:33:04Z</time>
    </trkpt>
    <trkpt lat="48.1743407" lon="8.7707376">
    <ele>844</ele>
    <time>2007-07-02T05:33:12Z</time>
    </trkpt>
    <trkpt lat="48.1743407" lon="8.7698364">
    <ele>844</ele>
    <time>2007-07-02T05:33:16Z</time>
    </trkpt>
    <trkpt lat="48.1738901" lon="8.7679482">
    <ele>843</ele>
    <time>2007-07-02T05:33:26Z</time>
    </trkpt>
    <trkpt lat="48.173697" lon="8.7674546">
    <ele>843</ele>
    <time>2007-07-02T05:33:32Z</time>
    </trkpt>
    <trkpt lat="48.173697" lon="8.7674332">
    <ele>843</ele>
    <time>2007-07-02T05:33:46Z</time>
    </trkpt>
    <trkpt lat="48.1735039" lon="8.767004">
    <ele>846</ele>
    <time>2007-07-02T05:34:55Z</time>
    </trkpt>
    <trkpt lat="48.1729031" lon="8.7658024">
    <ele>846</ele>
    <time>2007-07-02T05:35:05Z</time>
    </trkpt>
    <trkpt lat="48.1718516" lon="8.7633991">
    <ele>848</ele>
    <time>2007-07-02T05:35:22Z</time>
    </trkpt>
    <trkpt lat="48.1713581" lon="8.7631416">
    <ele>850</ele>
    <time>2007-07-02T05:35:29Z</time>
    </trkpt>
    <trkpt lat="48.1709075" lon="8.7632704">
    <ele>852</ele>
    <time>2007-07-02T05:35:39Z</time>
    </trkpt>
    <trkpt lat="48.169899" lon="8.7634635">
    <ele>855</ele>
    <time>2007-07-02T05:35:52Z</time>
    </trkpt>
    <trkpt lat="48.1690916686408" lon="8.76360158753716">
    <ele>856</ele>
    <time>2007-07-02T05:35:58Z</time>
    </trkpt>
    <trkpt lat="48.16810039962" lon="8.76263144863564">
    <ele>862</ele>
    <time>2007-07-02T05:36:09Z</time>
    </trkpt>
    <trkpt lat="48.1671524" lon="8.7613821">
    <ele>868</ele>
    <time>2007-07-02T05:36:27Z</time>
    </trkpt>
    <trkpt lat="48.166573" lon="8.7607384">
    <ele>868</ele>
    <time>2007-07-02T05:36:43Z</time>
    </trkpt>
    <trkpt lat="48.1664658" lon="8.7606096">
    <ele>868</ele>
    <time>2007-07-02T05:36:46Z</time>
    </trkpt>
    <trkpt lat="48.1657791" lon="8.7595367">
    <ele>921</ele>
    <time>2007-07-02T05:37:09Z</time>
    </trkpt>
    <trkpt lat="48.1657362" lon="8.7592793">
    <ele>924</ele>
    <time>2007-07-02T05:38:38Z</time>
    </trkpt>
    <trkpt lat="48.1656504" lon="8.7591076">
    <ele>924</ele>
    <time>2007-07-02T05:38:41Z</time>
    </trkpt>
    <trkpt lat="48.165307" lon="8.7587214">
    <ele>924</ele>
    <time>2007-07-02T05:38:50Z</time>
    </trkpt>
    <trkpt lat="48.1652212" lon="8.7586355">
    <ele>924</ele>
    <time>2007-07-02T05:38:52Z</time>
    </trkpt>
    <trkpt lat="48.1645131" lon="8.7574768">
    <ele>924</ele>
    <time>2007-07-02T05:39:12Z</time>
    </trkpt>
    <trkpt lat="48.1642342" lon="8.7570047">
    <ele>924</ele>
    <time>2007-07-02T05:39:20Z</time>
    </trkpt>
    <trkpt lat="48.1633759" lon="8.7547517">
    <ele>924</ele>
    <time>2007-07-02T05:39:53Z</time>
    </trkpt>
    <trkpt lat="48.1629682" lon="8.753829">
    <ele>924</ele>
    <time>2007-07-02T05:40:06Z</time>
    </trkpt>
    <trkpt lat="48.1619811" lon="8.7526488">
    <ele>923</ele>
    <time>2007-07-02T05:41:23Z</time>
    </trkpt>
    <trkpt lat="48.1612515" lon="8.7525845">
    <ele>923</ele>
    <time>2007-07-02T05:41:36Z</time>
    </trkpt>
    <trkpt lat="48.1605695336984" lon="8.75248380605611">
    <ele>923</ele>
    <time>2007-07-02T05:42:00Z</time>
    </trkpt>
    <trkpt lat="48.1593803782119" lon="8.7536320782059">
    <ele>923</ele>
    <time>2007-07-02T05:42:34Z</time>
    </trkpt>
    <trkpt lat="48.1567025" lon="8.7539577">
    <ele>925</ele>
    <time>2007-07-02T05:43:06Z</time>
    </trkpt>
    <trkpt lat="48.1553342620958" lon="8.75405467111724">
    <ele>925</ele>
    <time>2007-07-02T05:43:43Z</time>
    </trkpt>
    <trkpt lat="48.1545704071184" lon="8.75432713223828">
    <ele>928</ele>
    <time>2007-07-02T05:43:57Z</time>
    </trkpt>
    <trkpt lat="48.1540847" lon="8.753829">
    <ele>951</ele>
    <time>2007-07-02T05:46:41Z</time>
    </trkpt>
    <trkpt lat="48.1535912" lon="8.7535501">
    <ele>950</ele>
    <time>2007-07-02T05:46:51Z</time>
    </trkpt>
    <trkpt lat="48.153162" lon="8.7534857">
    <ele>947</ele>
    <time>2007-07-02T05:47:04Z</time>
    </trkpt>
    <trkpt lat="48.1532264" lon="8.7534857">
    <ele>951</ele>
    <time>2007-07-02T05:47:22Z</time>
    </trkpt>
    <trkpt lat="48.1532478" lon="8.7534857">
    <ele>951</ele>
    <time>2007-07-02T05:48:56Z</time>
    </trkpt>
    <trkpt lat="48.1529982297465" lon="8.75510744394767">
    <time>2007-07-02T05:49:26Z</time>
    </trkpt>
    <trkpt lat="48.1523895" lon="8.7555242">
    <ele>925</ele>
    <time>2007-07-02T05:49:57Z</time>
    </trkpt>
    <trkpt lat="48.1523895" lon="8.7555027">
    <ele>925</ele>
    <time>2007-07-02T05:50:00Z</time>
    </trkpt>
    <trkpt lat="48.1504369" lon="8.7560391">
    <ele>925</ele>
    <time>2007-07-02T05:50:01Z</time>
    </trkpt>
    <trkpt lat="48.1502438" lon="8.7560177">
    <ele>925</ele>
    <time>2007-07-02T05:50:05Z</time>
    </trkpt>
    <trkpt lat="48.1499219" lon="8.7559748">
    <ele>925</ele>
    <time>2007-07-02T05:50:09Z</time>
    </trkpt>
    <trkpt lat="48.1487707345798" lon="8.75482517971664">
    <ele>906</ele>
    <time>2007-07-02T05:50:25Z</time>
    </trkpt>
    <trkpt lat="48.1481625387859" lon="8.75429052235699">
    <ele>903</ele>
    <time>2007-07-02T05:50:45Z</time>
    </trkpt>
    <trkpt lat="48.1470895" lon="8.753593">
    <ele>898</ele>
    <time>2007-07-02T05:51:34Z</time>
    </trkpt>
    <trkpt lat="48.1463578108046" lon="8.75147707586115">
    <ele>895</ele>
    <time>2007-07-02T05:52:08Z</time>
    </trkpt>
    <trkpt lat="48.1452012" lon="8.7493873">
    <ele>888</ele>
    <time>2007-07-02T05:52:24Z</time>
    </trkpt>
    <trkpt lat="48.1445146" lon="8.7475848">
    <ele>886</ele>
    <time>2007-07-02T05:52:46Z</time>
    </trkpt>
    <trkpt lat="48.1443858" lon="8.7474561">
    <ele>883</ele>
    <time>2007-07-02T05:52:49Z</time>
    </trkpt>
    <trkpt lat="48.1442142" lon="8.7473273">
    <ele>877</ele>
    <time>2007-07-02T05:52:58Z</time>
    </trkpt>
    <trkpt lat="48.1442142" lon="8.7473917">
    <ele>866</ele>
    <time>2007-07-02T05:54:19Z</time>
    </trkpt>
    <trkpt lat="48.1440425" lon="8.7475204">
    <ele>864</ele>
    <time>2007-07-02T05:54:23Z</time>
    </trkpt>
    <trkpt lat="48.1423939587171" lon="8.7483720263772">
    <time>2007-07-02T05:54:35Z</time>
    </trkpt>
    <trkpt lat="48.1410243145294" lon="8.74921853218921">
    <ele>844</ele>
    <time>2007-07-02T05:54:39Z</time>
    </trkpt>
    <trkpt lat="48.1408024" lon="8.7492156">
    <ele>846</ele>
    <time>2007-07-02T05:54:48Z</time>
    </trkpt>
    <trkpt lat="48.1399655" lon="8.7491941">
    <ele>847</ele>
    <time>2007-07-02T05:54:56Z</time>
    </trkpt>
    <trkpt lat="48.1395149" lon="8.7491941">
    <ele>846</ele>
    <time>2007-07-02T05:55:03Z</time>
    </trkpt>
    <trkpt lat="48.1394291" lon="8.7491941">
    <ele>846</ele>
    <time>2007-07-02T05:55:04Z</time>
    </trkpt>
    <trkpt lat="48.1381845" lon="8.7491727">
    <ele>845</ele>
    <time>2007-07-02T05:55:16Z</time>
    </trkpt>
    <trkpt lat="48.1371546" lon="8.7499666">
    <ele>850</ele>
    <time>2007-07-02T05:55:26Z</time>
    </trkpt>
    <trkpt lat="48.1365538" lon="8.7512755">
    <ele>858</ele>
    <time>2007-07-02T05:55:36Z</time>
    </trkpt>
    <trkpt lat="48.1362534" lon="8.7519407">
    <ele>860</ele>
    <time>2007-07-02T05:55:41Z</time>
    </trkpt>
    <trkpt lat="48.135438" lon="8.7530994">
    <ele>853</ele>
    <time>2007-07-02T05:55:52Z</time>
    </trkpt>
    <trkpt lat="48.1347728" lon="8.7535071">
    <ele>850</ele>
    <time>2007-07-02T05:55:59Z</time>
    </trkpt>
    <trkpt lat="48.1342149" lon="8.7539363">
    <ele>852</ele>
    <time>2007-07-02T05:56:07Z</time>
    </trkpt>
    <trkpt lat="48.1341505" lon="8.7539577">
    <ele>852</ele>
    <time>2007-07-02T05:56:08Z</time>
    </trkpt>
    <trkpt lat="48.1337643" lon="8.7542582">
    <ele>856</ele>
    <time>2007-07-02T05:56:15Z</time>
    </trkpt>
    <trkpt lat="48.1335926" lon="8.7544727">
    <ele>858</ele>
    <time>2007-07-02T05:56:19Z</time>
    </trkpt>
    <trkpt lat="48.1334853" lon="8.75458">
    <ele>860</ele>
    <time>2007-07-02T05:56:27Z</time>
    </trkpt>
    <trkpt lat="48.1334853" lon="8.7545586">
    <ele>862</ele>
    <time>2007-07-02T05:57:19Z</time>
    </trkpt>
    <trkpt lat="48.1334853" lon="8.7546229">
    <ele>862</ele>
    <time>2007-07-02T05:57:35Z</time>
    </trkpt>
    <trkpt lat="48.1332493" lon="8.7549663">
    <ele>862</ele>
    <time>2007-07-02T05:57:41Z</time>
    </trkpt>
    <trkpt lat="48.1328416" lon="8.7558246">
    <ele>857</ele>
    <time>2007-07-02T05:57:57Z</time>
    </trkpt>
    <trkpt lat="48.1327558" lon="8.7560391">
    <ele>853</ele>
    <time>2007-07-02T05:58:35Z</time>
    </trkpt>
    <trkpt lat="48.1324124" lon="8.7568331">
    <ele>848</ele>
    <time>2007-07-02T05:58:51Z</time>
    </trkpt>
    <trkpt lat="48.1323266" lon="8.7572622">
    <ele>849</ele>
    <time>2007-07-02T05:59:07Z</time>
    </trkpt>
    <trkpt lat="48.1323051" lon="8.7572193">
    <ele>854</ele>
    <time>2007-07-02T05:59:51Z</time>
    </trkpt>
    <trkpt lat="48.1322837" lon="8.7572193">
    <ele>854</ele>
    <time>2007-07-02T05:59:53Z</time>
    </trkpt>
    <trkpt lat="48.1317902" lon="8.7574983">
    <ele>855</ele>
    <time>2007-07-02T06:00:04Z</time>
    </trkpt>
    <trkpt lat="48.1317687" lon="8.7575412">
    <ele>854</ele>
    <time>2007-07-02T06:00:05Z</time>
    </trkpt>
    <trkpt lat="48.1318116" lon="8.7577772">
    <ele>854</ele>
    <time>2007-07-02T06:00:10Z</time>
    </trkpt>
    <trkpt lat="48.1326914" lon="8.7589788">
    <ele>858</ele>
    <time>2007-07-02T06:00:37Z</time>
    </trkpt>
    <trkpt lat="48.1326699" lon="8.7589574">
    <ele>855</ele>
    <time>2007-07-02T06:01:29Z</time>
    </trkpt>
    <trkpt lat="48.132627" lon="8.7588716">
    <ele>846</ele>
    <time>2007-07-02T06:32:52Z</time>
    </trkpt>
    <trkpt lat="48.1320047" lon="8.7613392">
    <ele>841</ele>
    <time>2007-07-02T06:33:09Z</time>
    </trkpt>
    <trkpt lat="48.1319833" lon="8.7614036">
    <ele>841</ele>
    <time>2007-07-02T06:33:26Z</time>
    </trkpt>
    <trkpt lat="48.1319189" lon="8.7615967">
    <ele>841</ele>
    <time>2007-07-02T06:33:33Z</time>
    </trkpt>
    <trkpt lat="48.1313994" lon="8.7623454">
    <ele>839</ele>
    <time>2007-07-02T06:34:00Z</time>
    </trkpt>
    <trkpt lat="48.1312425" lon="8.7625813">
    <ele>839</ele>
    <time>2007-07-02T06:35:02Z</time>
    </trkpt>
    <trkpt lat="48.130846" lon="8.7633991">
    <ele>839</ele>
    <time>2007-07-02T06:35:27Z</time>
    </trkpt>
    <trkpt lat="48.1307817" lon="8.7634635">
    <ele>826</ele>
    <time>2007-07-02T06:35:31Z</time>
    </trkpt>
    <trkpt lat="48.13061" lon="8.7636137">
    <ele>830</ele>
    <time>2007-07-02T06:35:44Z</time>
    </trkpt>
    <trkpt lat="48.1296308" lon="8.7660144">
    <ele>832</ele>
    <time>2007-07-02T06:36:17Z</time>
    </trkpt>
    <trkpt lat="48.1295189" lon="8.7662836">
    <ele>832</ele>
    <time>2007-07-02T06:38:23Z</time>
    </trkpt>
    <trkpt lat="48.1281209" lon="8.7657595">
    <ele>819</ele>
    <time>2007-07-02T06:40:02Z</time>
    </trkpt>
    <trkpt lat="48.1281209" lon="8.7656307">
    <ele>818</ele>
    <time>2007-07-02T06:40:26Z</time>
    </trkpt>
    <trkpt lat="48.1280556" lon="8.7653499">
    <ele>818</ele>
    <time>2007-07-02T06:42:42Z</time>
    </trkpt>
    <trkpt lat="48.1267301" lon="8.7658932">
    <ele>818</ele>
    <time>2007-07-02T06:42:55Z</time>
    </trkpt>
    <trkpt lat="48.1261063999299" lon="8.76514222211586">
    <ele>816</ele>
    <time>2007-07-02T06:43:26Z</time>
    </trkpt>
    <trkpt lat="48.1267476" lon="8.7641287">
    <ele>816</ele>
    <time>2007-07-02T06:44:12Z</time>
    </trkpt>
    <trkpt lat="48.1270244975299" lon="8.76332453557982">
    <ele>816</ele>
    <time>2007-07-02T06:44:42Z</time>
    </trkpt>
    <trkpt lat="48.1267741282565" lon="8.76184802575198">
    <ele>816</ele>
    <time>2007-07-02T06:44:54Z</time>
    </trkpt>
    <trkpt lat="48.1258642" lon="8.7602889">
    <ele>835</ele>
    <time>2007-07-02T06:44:58Z</time>
    </trkpt>
    <trkpt lat="48.1248346095134" lon="8.75900252858199">
    <time>2007-07-02T06:45:19Z</time>
    </trkpt>
    <trkpt lat="48.1243098" lon="8.7588521">
    <ele>840</ele>
    <time>2007-07-02T06:45:40Z</time>
    </trkpt>
    <trkpt lat="48.1235097082483" lon="8.75978109060818">
    <ele>842</ele>
    <time>2007-07-02T06:46:26Z</time>
    </trkpt>
    <trkpt lat="48.1231421" lon="8.7595292">
    <ele>835</ele>
    <time>2007-07-02T07:28:00Z</time>
    </trkpt>
    <trkpt lat="48.1225381282377" lon="8.75750215178965">
    <ele>860</ele>
    <time>2007-07-02T07:28:17Z</time>
    </trkpt>
    <trkpt lat="48.1222415" lon="8.7570691">
    <ele>861</ele>
    <time>2007-07-02T07:28:28Z</time>
    </trkpt>
    <trkpt lat="48.1218982" lon="8.7567043">
    <ele>827</ele>
    <time>2007-07-02T07:28:34Z</time>
    </trkpt>
    <trkpt lat="48.1210760004685" lon="8.75717323869127">
    <ele>822</ele>
    <time>2007-07-02T07:28:57Z</time>
    </trkpt>
    <trkpt lat="48.1207152723515" lon="8.75670482943439">
    <time>2007-07-02T07:29:08Z</time>
    </trkpt>
    <trkpt lat="48.1198163638396" lon="8.75691054583127">
    <ele>820</ele>
    <time>2007-07-02T07:29:19Z</time>
    </trkpt>
    <trkpt lat="48.1195682648958" lon="8.75654235291827">
    <ele>820</ele>
    <time>2007-07-02T07:29:20Z</time>
    </trkpt>
    <trkpt lat="48.1191171015429" lon="8.75583934248413">
    <ele>820</ele>
    <time>2007-07-02T07:29:34Z</time>
    </trkpt>
    <trkpt lat="48.1179917186813" lon="8.75527385805164">
    <ele>821</ele>
    <time>2007-07-02T07:29:40Z</time>
    </trkpt>
    <trkpt lat="48.1173172888189" lon="8.75531063805769">
    <ele>821</ele>
    <time>2007-07-02T07:29:46Z</time>
    </trkpt>
    <trkpt lat="48.1164861894495" lon="8.7556839256847">
    <ele>822</ele>
    <time>2007-07-02T07:29:49Z</time>
    </trkpt>
    <trkpt lat="48.1160577903241" lon="8.75511516127957">
    <ele>822</ele>
    <time>2007-07-02T07:29:51Z</time>
    </trkpt>
    <trkpt lat="48.1152485314879" lon="8.75518615815501">
    <ele>824</ele>
    <time>2007-07-02T07:29:56Z</time>
    </trkpt>
    <trkpt lat="48.115139" lon="8.7549663">
    <ele>824</ele>
    <time>2007-07-02T07:30:39Z</time>
    </trkpt>
    <trkpt lat="48.1138088071965" lon="8.75482367518736">
    <ele>825</ele>
    <time>2007-07-02T07:31:04Z</time>
    </trkpt>
    <trkpt lat="48.1136023580752" lon="8.75291090493993">
    <ele>825</ele>
    <time>2007-07-02T07:31:31Z</time>
    </trkpt>
    <trkpt lat="48.112657044089" lon="8.75244540118449">
    <ele>827</ele>
    <time>2007-07-02T07:31:42Z</time>
    </trkpt>
    <trkpt lat="48.1124139" lon="8.7525845">
    <ele>840</ele>
    <time>2007-07-02T07:33:38Z</time>
    </trkpt>
    <trkpt lat="48.1124139" lon="8.7526274">
    <ele>841</ele>
    <time>2007-07-02T07:33:40Z</time>
    </trkpt>
    <trkpt lat="48.1126928" lon="8.7531638">
    <ele>841</ele>
    <time>2007-07-02T07:33:54Z</time>
    </trkpt>
    <trkpt lat="48.1127945416034" lon="8.75365340752463">
    <ele>841</ele>
    <time>2007-07-02T07:34:04Z</time>
    </trkpt>
    <trkpt lat="48.1126758" lon="8.7541054">
    <ele>841</ele>
    <time>2007-07-02T07:34:11Z</time>
    </trkpt>
    <trkpt lat="48.1127995552407" lon="8.7560035691553">
    <ele>843</ele>
    <time>2007-07-02T07:34:26Z</time>
    </trkpt>
    <trkpt lat="48.1124170522537" lon="8.75587108467217">
    <ele>844</ele>
    <time>2007-07-02T07:34:32Z</time>
    </trkpt>
    <trkpt lat="48.1117272" lon="8.7548804">
    <ele>845</ele>
    <time>2007-07-02T07:34:47Z</time>
    </trkpt>
    <trkpt lat="48.1112552" lon="8.7553954">
    <ele>847</ele>
    <time>2007-07-02T07:34:52Z</time>
    </trkpt>
    <trkpt lat="48.1115643917536" lon="8.75668088200593">
    <ele>847</ele>
    <time>2007-07-02T07:35:01Z</time>
    </trkpt>
    <trkpt lat="48.1118131" lon="8.7569833">
    <ele>854</ele>
    <time>2007-07-02T07:35:22Z</time>
    </trkpt>
    <trkpt lat="48.1118345" lon="8.7571979">
    <ele>862</ele>
    <time>2007-07-02T07:35:26Z</time>
    </trkpt>
    <trkpt lat="48.1117702" lon="8.7572193">
    <ele>977</ele>
    <time>2007-07-02T07:35:43Z</time>
    </trkpt>
    <trkpt lat="48.1118345" lon="8.7572622">
    <ele>935</ele>
    <time>2007-07-02T07:36:47Z</time>
    </trkpt>
    <trkpt lat="48.1112123" lon="8.7571549">
    <ele>935</ele>
    <time>2007-07-02T07:36:59Z</time>
    </trkpt>
    <trkpt lat="48.1109762" lon="8.7571549">
    <ele>935</ele>
    <time>2007-07-02T07:37:03Z</time>
    </trkpt>
    <trkpt lat="48.110311" lon="8.7569404">
    <ele>935</ele>
    <time>2007-07-02T07:37:15Z</time>
    </trkpt>
    <trkpt lat="48.1102681" lon="8.7569618">
    <ele>935</ele>
    <time>2007-07-02T07:37:17Z</time>
    </trkpt>
    <trkpt lat="48.1106114" lon="8.757391">
    <ele>936</ele>
    <time>2007-07-02T07:37:29Z</time>
    </trkpt>
    <trkpt lat="48.1106544" lon="8.7574553">
    <ele>936</ele>
    <time>2007-07-02T07:37:31Z</time>
    </trkpt>
    <trkpt lat="48.1109977" lon="8.7576699">
    <ele>937</ele>
    <time>2007-07-02T07:37:45Z</time>
    </trkpt>
    <trkpt lat="48.111702127583" lon="8.75802316634333">
    <ele>938</ele>
    <time>2007-07-02T07:38:10Z</time>
    </trkpt>
    <trkpt lat="48.1116358071277" lon="8.75856065084291">
    <ele>943</ele>
    <time>2007-07-02T07:38:17Z</time>
    </trkpt>
    <trkpt lat="48.1109315" lon="8.7585454">
    <ele>958</ele>
    <time>2007-07-02T07:39:16Z</time>
    </trkpt>
    <trkpt lat="48.109045" lon="8.7574768">
    <ele>960</ele>
    <time>2007-07-02T07:39:41Z</time>
    </trkpt>
    <trkpt lat="48.1086802" lon="8.7571979">
    <ele>962</ele>
    <time>2007-07-02T07:39:44Z</time>
    </trkpt>
    <trkpt lat="48.1075215" lon="8.7555027">
    <ele>965</ele>
    <time>2007-07-02T07:39:56Z</time>
    </trkpt>
    <trkpt lat="48.106771644105" lon="8.75492428691429">
    <ele>966</ele>
    <time>2007-07-02T07:39:59Z</time>
    </trkpt>
    <trkpt lat="48.1056935839345" lon="8.75546652326291">
    <ele>974</ele>
    <time>2007-07-02T07:40:26Z</time>
    </trkpt>
    <trkpt lat="48.1054401" lon="8.7551165">
    <ele>976</ele>
    <time>2007-07-02T07:42:03Z</time>
    </trkpt>
    <trkpt lat="48.105011" lon="8.7551379">
    <ele>976</ele>
    <time>2007-07-02T07:42:13Z</time>
    </trkpt>
    <trkpt lat="48.1038737" lon="8.755331">
    <ele>974</ele>
    <time>2007-07-02T07:42:33Z</time>
    </trkpt>
    <trkpt lat="48.1025692432488" lon="8.75588415120125">
    <ele>976</ele>
    <time>2007-07-02T07:43:00Z</time>
    </trkpt>
    <trkpt lat="48.1008053" lon="8.75664">
    <ele>978</ele>
    <time>2007-07-02T07:43:31Z</time>
    </trkpt>
    <trkpt lat="48.0983162" lon="8.7576485">
    <ele>980</ele>
    <time>2007-07-02T07:44:17Z</time>
    </trkpt>
    <trkpt lat="48.0982947" lon="8.7576485">
    <ele>984</ele>
    <time>2007-07-02T07:44:24Z</time>
    </trkpt>
    <trkpt lat="48.0982733" lon="8.7576914">
    <ele>984</ele>
    <time>2007-07-02T07:45:05Z</time>
    </trkpt>
    <trkpt lat="48.0983591" lon="8.7580347">
    <ele>985</ele>
    <time>2007-07-02T07:45:10Z</time>
    </trkpt>
    <trkpt lat="48.0994534" lon="8.7600303">
    <ele>986</ele>
    <time>2007-07-02T07:45:38Z</time>
    </trkpt>
    <trkpt lat="48.1003332" lon="8.7617254">
    <ele>985</ele>
    <time>2007-07-02T07:46:04Z</time>
    </trkpt>
    <trkpt lat="48.1006044865452" lon="8.76247241637805">
    <ele>985</ele>
    <time>2007-07-02T07:46:27Z</time>
    </trkpt>
    <trkpt lat="48.0997966750619" lon="8.7632481467053">
    <ele>991</ele>
    <time>2007-07-02T07:47:22Z</time>
    </trkpt>
    <trkpt lat="48.0994152162435" lon="8.76361911715752">
    <ele>991</ele>
    <time>2007-07-02T07:47:29Z</time>
    </trkpt>
    <trkpt lat="48.0985093" lon="8.7653518">
    <ele>960</ele>
    <time>2007-07-02T07:47:48Z</time>
    </trkpt>
    <trkpt lat="48.0986166" lon="8.7652659">
    <ele>987</ele>
    <time>2007-07-02T07:49:30Z</time>
    </trkpt>
    <trkpt lat="48.0976431468813" lon="8.76564109294605">
    <ele>971</ele>
    <time>2007-07-02T07:49:33Z</time>
    </trkpt>
    <trkpt lat="48.096589357619" lon="8.76708911350569">
    <ele>972</ele>
    <time>2007-07-02T07:49:36Z</time>
    </trkpt>
    <trkpt lat="48.0960939721759" lon="8.76672215572255">
    <ele>963</ele>
    <time>2007-07-02T07:49:47Z</time>
    </trkpt>
    <trkpt lat="48.0953033569813" lon="8.76491334708985">
    <ele>961</ele>
    <time>2007-07-02T07:51:24Z</time>
    </trkpt>
    <trkpt lat="48.0947757" lon="8.76297">
    <ele>960</ele>
    <time>2007-07-02T07:51:44Z</time>
    </trkpt>
    <trkpt lat="48.0947113" lon="8.7628198">
    <ele>960</ele>
    <time>2007-07-02T07:51:46Z</time>
    </trkpt>
    <trkpt lat="48.0946448388951" lon="8.76176149677551">
    <ele>960</ele>
    <time>2007-07-02T07:52:00Z</time>
    </trkpt>
    <trkpt lat="48.0931831341587" lon="8.76163400370587">
    <ele>960</ele>
    <time>2007-07-02T07:52:08Z</time>
    </trkpt>
    <trkpt lat="48.0921578" lon="8.7626266">
    <ele>959</ele>
    <time>2007-07-02T07:52:37Z</time>
    </trkpt>
    <trkpt lat="48.0911388738147" lon="8.7624824507102">
    <ele>959</ele>
    <time>2007-07-02T07:52:47Z</time>
    </trkpt>
    <trkpt lat="48.0904841" lon="8.7621117">
    <ele>969</ele>
    <time>2007-07-02T07:54:17Z</time>
    </trkpt>
    <trkpt lat="48.0888748" lon="8.7601161">
    <ele>972</ele>
    <time>2007-07-02T07:54:39Z</time>
    </trkpt>
    <trkpt lat="48.0888104" lon="8.7600732">
    <ele>974</ele>
    <time>2007-07-02T07:54:46Z</time>
    </trkpt>
    <trkpt lat="48.0879736" lon="8.7591505">
    <ele>977</ele>
    <time>2007-07-02T07:55:35Z</time>
    </trkpt>
    <trkpt lat="48.0875783694087" lon="8.75860615674017">
    <ele>973</ele>
    <time>2007-07-02T07:55:57Z</time>
    </trkpt>
    <trkpt lat="48.086792503033" lon="8.75911319141325">
    <ele>978</ele>
    <time>2007-07-02T07:58:17Z</time>
    </trkpt>
    <trkpt lat="48.0871994521285" lon="8.7601851283247">
    <ele>977</ele>
    <time>2007-07-02T07:58:28Z</time>
    </trkpt>
    <trkpt lat="48.0872012696157" lon="8.76105761264729">
    <ele>977</ele>
    <time>2007-07-02T07:58:45Z</time>
    </trkpt>
    <trkpt lat="48.0870460433946" lon="8.76209860835564">
    <ele>977</ele>
    <time>2007-07-02T07:58:56Z</time>
    </trkpt>
    <trkpt lat="48.0872772284747" lon="8.76518482876393">
    <ele>976</ele>
    <time>2007-07-02T07:59:47Z</time>
    </trkpt>
    <trkpt lat="48.0870938" lon="8.7658882">
    <ele>976</ele>
    <time>2007-07-02T07:59:49Z</time>
    </trkpt>
    <trkpt lat="48.0866958009051" lon="8.76673110124469">
    <ele>976</ele>
    <time>2007-07-02T07:59:52Z</time>
    </trkpt>
    <trkpt lat="48.0867076" lon="8.7686563">
    <ele>977</ele>
    <time>2007-07-02T08:00:15Z</time>
    </trkpt>
    <trkpt lat="48.0866647" lon="8.7706733">
    <ele>977</ele>
    <time>2007-07-02T08:00:41Z</time>
    </trkpt>
    <trkpt lat="48.0865745920287" lon="8.77357727819975">
    <ele>976</ele>
    <time>2007-07-02T08:01:15Z</time>
    </trkpt>
    <trkpt lat="48.0856784787358" lon="8.77522547590733">
    <ele>982</ele>
    <time>2007-07-02T08:03:22Z</time>
    </trkpt>
    <trkpt lat="48.0859273701095" lon="8.77602974941921">
    <ele>987</ele>
    <time>2007-07-02T08:03:41Z</time>
    </trkpt>
    <trkpt lat="48.083725" lon="8.7788916">
    <ele>967</ele>
    <time>2007-07-02T08:05:35Z</time>
    </trkpt>
    <trkpt lat="48.0835319" lon="8.7791061">
    <ele>967</ele>
    <time>2007-07-02T08:05:38Z</time>
    </trkpt>
    <trkpt lat="48.0825448" lon="8.7805438">
    <ele>965</ele>
    <time>2007-07-02T08:06:02Z</time>
    </trkpt>
    <trkpt lat="48.0807456640277" lon="8.78229314009089">
    <ele>959</ele>
    <time>2007-07-02T08:06:44Z</time>
    </trkpt>
    <trkpt lat="48.079917442396" lon="8.78424268951765">
    <ele>954</ele>
    <time>2007-07-02T08:07:38Z</time>
    </trkpt>
    <trkpt lat="48.0791759" lon="8.7862945">
    <ele>944</ele>
    <time>2007-07-02T08:08:07Z</time>
    </trkpt>
    <trkpt lat="48.0790043" lon="8.787303">
    <ele>942</ele>
    <time>2007-07-02T08:08:18Z</time>
    </trkpt>
    <trkpt lat="48.0789399" lon="8.7874317">
    <ele>940</ele>
    <time>2007-07-02T08:08:26Z</time>
    </trkpt>
    <trkpt lat="48.0789614" lon="8.7874103">
    <ele>940</ele>
    <time>2007-07-02T08:08:28Z</time>
    </trkpt>
    <trkpt lat="48.0789614" lon="8.7873673">
    <ele>941</ele>
    <time>2007-07-02T08:08:51Z</time>
    </trkpt>
    <trkpt lat="48.0789614" lon="8.7873673">
    <ele>944</ele>
    <time>2007-07-02T08:09:29Z</time>
    </trkpt>
    <trkpt lat="48.0788541" lon="8.7874317">
    <ele>944</ele>
    <time>2007-07-02T08:09:34Z</time>
    </trkpt>
    <trkpt lat="48.0782104" lon="8.7873673">
    <ele>942</ele>
    <time>2007-07-02T08:09:42Z</time>
    </trkpt>
    <trkpt lat="48.0772662" lon="8.787818">
    <ele>943</ele>
    <time>2007-07-02T08:09:52Z</time>
    </trkpt>
    <trkpt lat="48.0755281" lon="8.7891698">
    <ele>943</ele>
    <time>2007-07-02T08:10:11Z</time>
    </trkpt>
    <trkpt lat="48.0751419" lon="8.7893414">
    <ele>942</ele>
    <time>2007-07-02T08:10:16Z</time>
    </trkpt>
    <trkpt lat="48.0748415" lon="8.7898779">
    <ele>941</ele>
    <time>2007-07-02T08:10:23Z</time>
    </trkpt>
    <trkpt lat="48.07482" lon="8.7899852">
    <ele>942</ele>
    <time>2007-07-02T08:10:33Z</time>
    </trkpt>
    <trkpt lat="48.07482" lon="8.7899637">
    <ele>940</ele>
    <time>2007-07-02T08:10:59Z</time>
    </trkpt>
    <trkpt lat="48.0747771" lon="8.7918305">
    <ele>942</ele>
    <time>2007-07-02T08:11:18Z</time>
    </trkpt>
    <trkpt lat="48.0747557" lon="8.7922382">
    <ele>942</ele>
    <time>2007-07-02T08:11:22Z</time>
    </trkpt>
    <trkpt lat="48.0747128" lon="8.7924743">
    <ele>942</ele>
    <time>2007-07-02T08:11:24Z</time>
    </trkpt>
    <trkpt lat="48.0743361617409" lon="8.79359265731889">
    <ele>940</ele>
    <time>2007-07-02T08:11:29Z</time>
    </trkpt>
    <trkpt lat="48.0737686" lon="8.7930322">
    <ele>938</ele>
    <time>2007-07-02T08:11:38Z</time>
    </trkpt>
    <trkpt lat="48.0737686" lon="8.7930322">
    <ele>939</ele>
    <time>2007-07-02T08:12:34Z</time>
    </trkpt>
    <trkpt lat="48.0736828" lon="8.7932682">
    <ele>937</ele>
    <time>2007-07-02T08:12:44Z</time>
    </trkpt>
    <trkpt lat="48.0736613" lon="8.7933326">
    <ele>936</ele>
    <time>2007-07-02T08:12:54Z</time>
    </trkpt>
    <trkpt lat="48.0735491751466" lon="8.7935622562481">
    <ele>938</ele>
    <time>2007-07-02T08:12:58Z</time>
    </trkpt>
    <trkpt lat="48.0745625" lon="8.7938476">
    <ele>939</ele>
    <time>2007-07-02T08:13:08Z</time>
    </trkpt>
    <trkpt lat="48.0747771" lon="8.7939119">
    <ele>939</ele>
    <time>2007-07-02T08:13:10Z</time>
    </trkpt>
    <trkpt lat="48.0752921" lon="8.7938261">
    <ele>938</ele>
    <time>2007-07-02T08:13:14Z</time>
    </trkpt>
    <trkpt lat="48.0755281" lon="8.7937403">
    <ele>936</ele>
    <time>2007-07-02T08:13:16Z</time>
    </trkpt>
    <trkpt lat="48.0760225525928" lon="8.79365301261995">
    <time>2007-07-02T08:13:19Z</time>
    </trkpt>
    <trkpt lat="48.0764723" lon="8.7941051">
    <ele>932</ele>
    <time>2007-07-02T08:13:23Z</time>
    </trkpt>
    <trkpt lat="48.076601" lon="8.7942553">
    <ele>931</ele>
    <time>2007-07-02T08:13:24Z</time>
    </trkpt>
    <trkpt lat="48.0775881" lon="8.7959075">
    <ele>928</ele>
    <time>2007-07-02T08:13:35Z</time>
    </trkpt>
    <trkpt lat="48.0777168" lon="8.7961435">
    <ele>927</ele>
    <time>2007-07-02T08:13:38Z</time>
    </trkpt>
    <trkpt lat="48.0777383" lon="8.7963367">
    <ele>926</ele>
    <time>2007-07-02T08:13:46Z</time>
    </trkpt>
    <trkpt lat="48.0777383" lon="8.7963367">
    <ele>926</ele>
    <time>2007-07-02T08:14:34Z</time>
    </trkpt>
    <trkpt lat="48.0773306" lon="8.7970233">
    <ele>925</ele>
    <time>2007-07-02T08:14:42Z</time>
    </trkpt>
    <trkpt lat="48.0763865" lon="8.7984824">
    <ele>913</ele>
    <time>2007-07-02T08:14:53Z</time>
    </trkpt>
    <trkpt lat="48.07585" lon="8.799212">
    <ele>908</ele>
    <time>2007-07-02T08:14:58Z</time>
    </trkpt>
    <trkpt lat="48.0753994" lon="8.7995553">
    <ele>910</ele>
    <time>2007-07-02T08:15:02Z</time>
    </trkpt>
    <trkpt lat="48.0749917" lon="8.7997055">
    <ele>914</ele>
    <time>2007-07-02T08:15:06Z</time>
    </trkpt>
    <trkpt lat="48.07482" lon="8.800199">
    <ele>915</ele>
    <time>2007-07-02T08:15:11Z</time>
    </trkpt>
    <trkpt lat="48.074863" lon="8.8003278">
    <ele>915</ele>
    <time>2007-07-02T08:15:12Z</time>
    </trkpt>
    <trkpt lat="48.0754767748122" lon="8.80294848413407">
    <ele>913</ele>
    <time>2007-07-02T08:15:26Z</time>
    </trkpt>
    <trkpt lat="48.0742414963805" lon="8.80372482713943">
    <ele>911</ele>
    <time>2007-07-02T08:16:23Z</time>
    </trkpt>
    <trkpt lat="48.073050093411" lon="8.8038635508533">
    <ele>902</ele>
    <time>2007-07-02T08:16:31Z</time>
    </trkpt>
    <trkpt lat="48.072567" lon="8.8037181">
    <ele>906</ele>
    <time>2007-07-02T08:16:39Z</time>
    </trkpt>
    <trkpt lat="48.0716443" lon="8.8043404">
    <ele>907</ele>
    <time>2007-07-02T08:16:46Z</time>
    </trkpt>
    <trkpt lat="48.0706903982246" lon="8.80450990446426">
    <ele>908</ele>
    <time>2007-07-02T08:16:51Z</time>
    </trkpt>
    <trkpt lat="48.0691835946096" lon="8.80428079133375">
    <time>2007-07-02T08:17:02Z</time>
    </trkpt>
    <trkpt lat="48.0676317" lon="8.8037181">
    <ele>894</ele>
    <time>2007-07-02T08:17:13Z</time>
    </trkpt>
    <trkpt lat="48.0655503" lon="8.8031173">
    <ele>887</ele>
    <time>2007-07-02T08:17:27Z</time>
    </trkpt>
    <trkpt lat="48.064456" lon="8.8027096">
    <ele>886</ele>
    <time>2007-07-02T08:17:35Z</time>
    </trkpt>
    <trkpt lat="48.0624604" lon="8.8018298">
    <ele>888</ele>
    <time>2007-07-02T08:17:50Z</time>
    </trkpt>
    <trkpt lat="48.0620742" lon="8.8018513">
    <ele>888</ele>
    <time>2007-07-02T08:17:55Z</time>
    </trkpt>
    <trkpt lat="48.0615376050704" lon="8.80340417693323">
    <ele>885</ele>
    <time>2007-07-02T08:18:04Z</time>
    </trkpt>
    <trkpt lat="48.0605078" lon="8.8048124">
    <ele>895</ele>
    <time>2007-07-02T08:18:20Z</time>
    </trkpt>
    <trkpt lat="48.0603361" lon="8.8051128">
    <ele>896</ele>
    <time>2007-07-02T08:18:22Z</time>
    </trkpt>
    <trkpt lat="48.0591559" lon="8.8057137">
    <ele>896</ele>
    <time>2007-07-02T08:18:31Z</time>
    </trkpt>
    <trkpt lat="48.0569243" lon="8.8067007">
    <ele>897</ele>
    <time>2007-07-02T08:18:47Z</time>
    </trkpt>
    <trkpt lat="48.055594" lon="8.8065076">
    <ele>897</ele>
    <time>2007-07-02T08:18:57Z</time>
    </trkpt>
    <trkpt lat="48.0554438" lon="8.8065076">
    <ele>895</ele>
    <time>2007-07-02T08:18:58Z</time>
    </trkpt>
    <trkpt lat="48.0548859" lon="8.8066578">
    <ele>894</ele>
    <time>2007-07-02T08:19:02Z</time>
    </trkpt>
    <trkpt lat="48.0540339112038" lon="8.80688693464712">
    <ele>895</ele>
    <time>2007-07-02T08:19:10Z</time>
    </trkpt>
    <trkpt lat="48.0524585828986" lon="8.80602091942412">
    <time>2007-07-02T08:19:18Z</time>
    </trkpt>
    <trkpt lat="48.0513024" lon="8.8059497">
    <ele>887</ele>
    <time>2007-07-02T08:19:26Z</time>
    </trkpt>
    <trkpt lat="48.0510449" lon="8.8058853">
    <ele>885</ele>
    <time>2007-07-02T08:19:30Z</time>
    </trkpt>
    <trkpt lat="48.051002" lon="8.8060141">
    <ele>882</ele>
    <time>2007-07-02T08:19:34Z</time>
    </trkpt>
    <trkpt lat="48.0510235" lon="8.8060355">
    <ele>863</ele>
    <time>2007-07-02T08:19:56Z</time>
    </trkpt>
    <trkpt lat="48.0510235" lon="8.8064432">
    <ele>854</ele>
    <time>2007-07-02T08:21:18Z</time>
    </trkpt>
    <trkpt lat="48.0509591" lon="8.8081384">
    <ele>850</ele>
    <time>2007-07-02T08:21:34Z</time>
    </trkpt>
    <trkpt lat="48.0509038" lon="8.8083556">
    <ele>849</ele>
    <time>2007-07-02T08:24:04Z</time>
    </trkpt>
    <trkpt lat="48.0508089" lon="8.8093185">
    <ele>854</ele>
    <time>2007-07-02T08:24:25Z</time>
    </trkpt>
    <trkpt lat="48.0508089" lon="8.8112068">
    <ele>848</ele>
    <time>2007-07-02T08:24:46Z</time>
    </trkpt>
    <trkpt lat="48.051166582023" lon="8.81330264630775">
    <ele>847</ele>
    <time>2007-07-02T08:25:22Z</time>
    </trkpt>
    <trkpt lat="48.0514854133464" lon="8.81581655813365">
    <time>2007-07-02T08:25:44Z</time>
    </trkpt>
    <trkpt lat="48.0514097" lon="8.8186955">
    <ele>845</ele>
    <time>2007-07-02T08:26:06Z</time>
    </trkpt>
    <trkpt lat="48.0513883" lon="8.8188243">
    <ele>831</ele>
    <time>2007-07-02T08:26:12Z</time>
    </trkpt>
    <trkpt lat="48.0513883" lon="8.8188672">
    <ele>810</ele>
    <time>2007-07-02T08:26:42Z</time>
    </trkpt>
    <trkpt lat="48.05124541732" lon="8.82044511062763">
    <ele>803</ele>
    <time>2007-07-02T08:26:56Z</time>
    </trkpt>
    <trkpt lat="48.0509776488086" lon="8.82175386199163">
    <ele>778</ele>
    <time>2007-07-02T08:32:11Z</time>
    </trkpt>
    <trkpt lat="48.0502725" lon="8.823545">
    <ele>774</ele>
    <time>2007-07-02T08:32:40Z</time>
    </trkpt>
    <trkpt lat="48.0498433" lon="8.8244247">
    <ele>773</ele>
    <time>2007-07-02T08:32:53Z</time>
    </trkpt>
    <trkpt lat="48.0490279" lon="8.8262272">
    <ele>774</ele>
    <time>2007-07-02T08:33:19Z</time>
    </trkpt>
    <trkpt lat="48.0480864002694" lon="8.82776606351815">
    <ele>773</ele>
    <time>2007-07-02T08:33:55Z</time>
    </trkpt>
    <trkpt lat="48.0469178974688" lon="8.82820586532705">
    <ele>771</ele>
    <time>2007-07-02T08:34:01Z</time>
    </trkpt>
    <trkpt lat="48.0458307" lon="8.8284159">
    <ele>769</ele>
    <time>2007-07-02T08:34:16Z</time>
    </trkpt>
    <trkpt lat="48.0448274582341" lon="8.82858164534072">
    <ele>766</ele>
    <time>2007-07-02T08:34:50Z</time>
    </trkpt>
    <trkpt lat="48.0427408" lon="8.8301754">
    <ele>765</ele>
    <time>2007-07-02T08:35:12Z</time>
    </trkpt>
    <trkpt lat="48.0415483536902" lon="8.83097299394777">
    <ele>761</ele>
    <time>2007-07-02T08:35:47Z</time>
    </trkpt>
    <trkpt lat="48.0364966" lon="8.8304543">
    <ele>749</ele>
    <time>2007-07-02T08:37:01Z</time>
    </trkpt>
    <trkpt lat="48.0357910676878" lon="8.8300196291841">
    <ele>746</ele>
    <time>2007-07-02T08:37:21Z</time>
    </trkpt>
    <trkpt lat="48.0346513" lon="8.8294888">
    <ele>743</ele>
    <time>2007-07-02T08:37:39Z</time>
    </trkpt>
    <trkpt lat="48.0341578" lon="8.8291025">
    <ele>743</ele>
    <time>2007-07-02T08:37:50Z</time>
    </trkpt>
    <trkpt lat="48.0328059" lon="8.8283515">
    <ele>743</ele>
    <time>2007-07-02T08:38:15Z</time>
    </trkpt>
    <trkpt lat="48.0316472" lon="8.8278794">
    <ele>739</ele>
    <time>2007-07-02T08:38:35Z</time>
    </trkpt>
    <trkpt lat="48.0308962" lon="8.8272142">
    <ele>736</ele>
    <time>2007-07-02T08:38:51Z</time>
    </trkpt>
    <trkpt lat="48.0308104" lon="8.8271713">
    <ele>738</ele>
    <time>2007-07-02T08:38:59Z</time>
    </trkpt>
    <trkpt lat="48.0307031" lon="8.8271928">
    <ele>722</ele>
    <time>2007-07-02T08:46:52Z</time>
    </trkpt>
    <trkpt lat="48.0311966" lon="8.8261414">
    <ele>720</ele>
    <time>2007-07-02T08:47:10Z</time>
    </trkpt>
    <trkpt lat="48.0317974" lon="8.8247895">
    <ele>719</ele>
    <time>2007-07-02T08:47:30Z</time>
    </trkpt>
    <trkpt lat="48.0322051" lon="8.8234806">
    <ele>732</ele>
    <time>2007-07-02T08:50:29Z</time>
    </trkpt>
    <trkpt lat="48.0322051" lon="8.8233948">
    <ele>732</ele>
    <time>2007-07-02T08:50:31Z</time>
    </trkpt>
    <trkpt lat="48.0322051" lon="8.823266">
    <ele>732</ele>
    <time>2007-07-02T08:50:33Z</time>
    </trkpt>
    <trkpt lat="48.0323173618188" lon="8.82262274700044">
    <ele>740</ele>
    <time>2007-07-02T08:50:45Z</time>
    </trkpt>
    <trkpt lat="48.0318432802261" lon="8.82138408057597">
    <ele>781</ele>
    <time>2007-07-02T08:51:23Z</time>
    </trkpt>
    <trkpt lat="48.0313907229355" lon="8.8195419812566">
    <time>2007-07-02T08:51:35Z</time>
    </trkpt>
    <trkpt lat="48.0312548707598" lon="8.81893907644975">
    <ele>765</ele>
    <time>2007-07-02T08:51:48Z</time>
    </trkpt>
    <trkpt lat="48.0308962" lon="8.8181162">
    <ele>765</ele>
    <time>2007-07-02T08:52:01Z</time>
    </trkpt>
    <trkpt lat="48.0305314" lon="8.8179231">
    <ele>764</ele>
    <time>2007-07-02T08:52:08Z</time>
    </trkpt>
    <trkpt lat="48.0290038891716" lon="8.81730450067122">
    <ele>765</ele>
    <time>2007-07-02T08:52:34Z</time>
    </trkpt>
    <trkpt lat="48.0283427" lon="8.8178802">
    <ele>765</ele>
    <time>2007-07-02T08:52:51Z</time>
    </trkpt>
    <trkpt lat="48.0271150882523" lon="8.81721062089566">
    <ele>762</ele>
    <time>2007-07-02T08:53:23Z</time>
    </trkpt>
    <trkpt lat="48.0253607090479" lon="8.81681461709494">
    <ele>766</ele>
    <time>2007-07-02T08:54:02Z</time>
    </trkpt>
    <trkpt lat="48.0245054134942" lon="8.81624786400174">
    <ele>767</ele>
    <time>2007-07-02T08:54:05Z</time>
    </trkpt>
    <trkpt lat="48.0236864" lon="8.8163567">
    <ele>763</ele>
    <time>2007-07-02T08:54:21Z</time>
    </trkpt>
    <trkpt lat="48.0232143" lon="8.8156271">
    <ele>762</ele>
    <time>2007-07-02T08:54:35Z</time>
    </trkpt>
    <trkpt lat="48.0229139" lon="8.814919">
    <ele>762</ele>
    <time>2007-07-02T08:54:47Z</time>
    </trkpt>
    <trkpt lat="48.022871" lon="8.8147902">
    <ele>762</ele>
    <time>2007-07-02T08:54:49Z</time>
    </trkpt>
    <trkpt lat="48.021512045808" lon="8.81438167651163">
    <ele>764</ele>
    <time>2007-07-02T08:55:18Z</time>
    </trkpt>
    <trkpt lat="48.0212831" lon="8.8134813">
    <ele>764</ele>
    <time>2007-07-02T08:55:44Z</time>
    </trkpt>
    <trkpt lat="48.020618" lon="8.8114214">
    <ele>764</ele>
    <time>2007-07-02T08:55:45Z</time>
    </trkpt>
    <trkpt lat="48.0202961" lon="8.8105416">
    <ele>798</ele>
    <time>2007-07-02T08:55:57Z</time>
    </trkpt>
    <trkpt lat="48.0199528" lon="8.8091683">
    <ele>828</ele>
    <time>2007-07-02T08:56:18Z</time>
    </trkpt>
    <trkpt lat="48.0186653" lon="8.806057">
    <ele>838</ele>
    <time>2007-07-02T08:58:26Z</time>
    </trkpt>
    <trkpt lat="48.0187941" lon="8.8059282">
    <ele>839</ele>
    <time>2007-07-02T08:58:30Z</time>
    </trkpt>
    <trkpt lat="48.0192018" lon="8.8055634">
    <ele>841</ele>
    <time>2007-07-02T08:58:37Z</time>
    </trkpt>
    <trkpt lat="48.0192018" lon="8.8053918">
    <ele>842</ele>
    <time>2007-07-02T08:58:45Z</time>
    </trkpt>
    <trkpt lat="48.0190516" lon="8.8050699">
    <ele>844</ele>
    <time>2007-07-02T08:59:29Z</time>
    </trkpt>
    <trkpt lat="48.0184722" lon="8.8038039">
    <ele>843</ele>
    <time>2007-07-02T08:59:51Z</time>
    </trkpt>
    <trkpt lat="48.0184293" lon="8.8037181">
    <ele>843</ele>
    <time>2007-07-02T08:59:59Z</time>
    </trkpt>
    <trkpt lat="48.0184507" lon="8.8037181">
    <ele>843</ele>
    <time>2007-07-02T09:00:47Z</time>
    </trkpt>
    <trkpt lat="48.0184722" lon="8.8030744">
    <ele>844</ele>
    <time>2007-07-02T09:00:59Z</time>
    </trkpt>
    <trkpt lat="48.018558" lon="8.8019371">
    <ele>848</ele>
    <time>2007-07-02T09:01:16Z</time>
    </trkpt>
    <trkpt lat="48.0185366" lon="8.8015938">
    <ele>849</ele>
    <time>2007-07-02T09:01:22Z</time>
    </trkpt>
    <trkpt lat="48.0176353" lon="8.8007998">
    <ele>849</ele>
    <time>2007-07-02T09:01:44Z</time>
    </trkpt>
    <trkpt lat="48.016777" lon="8.7993193">
    <ele>848</ele>
    <time>2007-07-02T09:02:13Z</time>
    </trkpt>
    <trkpt lat="48.016541" lon="8.7987828">
    <ele>846</ele>
    <time>2007-07-02T09:02:27Z</time>
    </trkpt>
    <trkpt lat="48.0163693" lon="8.7985682">
    <ele>848</ele>
    <time>2007-07-02T09:03:46Z</time>
    </trkpt>
    <trkpt lat="48.0164123" lon="8.7978816">
    <ele>849</ele>
    <time>2007-07-02T09:03:59Z</time>
    </trkpt>
    <trkpt lat="48.0168414" lon="8.7962294">
    <ele>852</ele>
    <time>2007-07-02T09:04:33Z</time>
    </trkpt>
    <trkpt lat="48.0169916" lon="8.7958646">
    <ele>855</ele>
    <time>2007-07-02T09:04:52Z</time>
    </trkpt>
    <trkpt lat="48.0174208" lon="8.7942982">
    <ele>857</ele>
    <time>2007-07-02T09:05:16Z</time>
    </trkpt>
    <trkpt lat="48.0177641" lon="8.7925816">
    <ele>854</ele>
    <time>2007-07-02T09:05:39Z</time>
    </trkpt>
    <trkpt lat="48.0179787" lon="8.7914014">
    <ele>856</ele>
    <time>2007-07-02T09:05:57Z</time>
    </trkpt>
    <trkpt lat="48.0179572" lon="8.7914872">
    <ele>859</ele>
    <time>2007-07-02T09:06:25Z</time>
    </trkpt>
    <trkpt lat="48.0181718" lon="8.7903929">
    <ele>858</ele>
    <time>2007-07-02T09:06:39Z</time>
    </trkpt>
    <trkpt lat="48.0184293" lon="8.7895989">
    <ele>859</ele>
    <time>2007-07-02T09:06:51Z</time>
    </trkpt>
    <trkpt lat="48.0184722" lon="8.7894917">
    <ele>858</ele>
    <time>2007-07-02T09:07:05Z</time>
    </trkpt>
    <trkpt lat="48.0184507" lon="8.7894058">
    <ele>846</ele>
    <time>2007-07-02T09:08:14Z</time>
    </trkpt>
    <trkpt lat="48.0171847" lon="8.7882257">
    <ele>845</ele>
    <time>2007-07-02T09:08:44Z</time>
    </trkpt>
    <trkpt lat="48.0164337" lon="8.7874317">
    <ele>841</ele>
    <time>2007-07-02T09:09:08Z</time>
    </trkpt>
    <trkpt lat="48.0162406" lon="8.7871313">
    <ele>834</ele>
    <time>2007-07-02T09:09:23Z</time>
    </trkpt>
    <trkpt lat="48.0164123" lon="8.7870455">
    <ele>830</ele>
    <time>2007-07-02T09:10:59Z</time>
    </trkpt>
    <trkpt lat="48.0175296892955" lon="8.78691599392834">
    <ele>830</ele>
    <time>2007-07-02T09:11:25Z</time>
    </trkpt>
    <trkpt lat="48.0199562595184" lon="8.78600112330701">
    <ele>831</ele>
    <time>2007-07-02T09:11:53Z</time>
    </trkpt>
    <trkpt lat="48.0209613" lon="8.7856722">
    <ele>818</ele>
    <time>2007-07-02T09:12:33Z</time>
    </trkpt>
    <trkpt lat="48.0210790741197" lon="8.78525915788035">
    <ele>743</ele>
    <time>2007-07-02T09:13:41Z</time>
    </trkpt>
    <trkpt lat="48.0194829742337" lon="8.78539984017076">
    <ele>738</ele>
    <time>2007-07-02T09:13:52Z</time>
    </trkpt>
    <trkpt lat="48.0176374819604" lon="8.78443564393843">
    <ele>738</ele>
    <time>2007-07-02T09:14:37Z</time>
    </trkpt>
    <trkpt lat="48.0156595967579" lon="8.78481250898909">
    <ele>741</ele>
    <time>2007-07-02T09:15:03Z</time>
    </trkpt>
    <trkpt lat="48.0132525696849" lon="8.78415233594596">
    <ele>746</ele>
    <time>2007-07-02T09:15:43Z</time>
    </trkpt>
    <trkpt lat="48.011198" lon="8.7843418">
    <ele>756</ele>
    <time>2007-07-02T09:17:32Z</time>
    </trkpt>
    <trkpt lat="48.0094689" lon="8.7846857">
    <ele>752</ele>
    <time>2007-07-02T09:18:02Z</time>
    </trkpt>
    <trkpt lat="48.0092217" lon="8.7847202">
    <ele>752</ele>
    <time>2007-07-02T09:18:05Z</time>
    </trkpt>
    <trkpt lat="48.0087498" lon="8.7848897">
    <ele>751</ele>
    <time>2007-07-02T09:18:13Z</time>
    </trkpt>
    <trkpt lat="48.0081883" lon="8.7851936">
    <ele>750</ele>
    <time>2007-07-02T09:18:15Z</time>
    </trkpt>
    <trkpt lat="48.0078741" lon="8.7854965">
    <ele>738</ele>
    <time>2007-07-02T09:18:33Z</time>
    </trkpt>
    <trkpt lat="48.0077176" lon="8.7859662">
    <ele>733</ele>
    <time>2007-07-02T09:18:53Z</time>
    </trkpt>
    <trkpt lat="48.0076512" lon="8.7865696">
    <ele>733</ele>
    <time>2007-07-02T09:18:59Z</time>
    </trkpt>
    <trkpt lat="48.0074644" lon="8.7873888">
    <ele>725</ele>
    <time>2007-07-02T09:22:10Z</time>
    </trkpt>
    <trkpt lat="48.0074" lon="8.7874532">
    <ele>723</ele>
    <time>2007-07-02T09:22:14Z</time>
    </trkpt>
    <trkpt lat="48.0072498" lon="8.7875175">
    <ele>722</ele>
    <time>2007-07-02T09:22:23Z</time>
    </trkpt>
    <trkpt lat="48.007164" lon="8.7874103">
    <ele>720</ele>
    <time>2007-07-02T09:22:27Z</time>
    </trkpt>
    <trkpt lat="48.0067778" lon="8.7863588">
    <ele>717</ele>
    <time>2007-07-02T09:22:35Z</time>
    </trkpt>
    <trkpt lat="48.0059248442876" lon="8.78525506025048">
    <ele>712</ele>
    <time>2007-07-02T09:22:46Z</time>
    </trkpt>
    <trkpt lat="48.0058765" lon="8.7842989">
    <ele>708</ele>
    <time>2007-07-02T09:22:50Z</time>
    </trkpt>
    <trkpt lat="48.0057693" lon="8.7838483">
    <ele>703</ele>
    <time>2007-07-02T09:22:54Z</time>
    </trkpt>
    <trkpt lat="48.0057263" lon="8.7836337">
    <ele>702</ele>
    <time>2007-07-02T09:22:56Z</time>
    </trkpt>
    <trkpt lat="48.0056834" lon="8.7826037">
    <ele>695</ele>
    <time>2007-07-02T09:23:05Z</time>
    </trkpt>
    <trkpt lat="48.0056405" lon="8.7816596">
    <ele>689</ele>
    <time>2007-07-02T09:23:16Z</time>
    </trkpt>
    <trkpt lat="48.0050611" lon="8.7812734">
    <ele>685</ele>
    <time>2007-07-02T09:23:26Z</time>
    </trkpt>
    <trkpt lat="48.0049109" lon="8.7810159">
    <ele>683</ele>
    <time>2007-07-02T09:23:30Z</time>
    </trkpt>
    <trkpt lat="48.0042312874861" lon="8.78140918089643">
    <ele>624</ele>
    <time>2007-07-02T09:28:06Z</time>
    </trkpt>
    <trkpt lat="48.0033016" lon="8.7822604">
    <ele>671</ele>
    <time>2007-07-02T09:28:23Z</time>
    </trkpt>
    <trkpt lat="48.0024862" lon="8.7825394">
    <ele>674</ele>
    <time>2007-07-02T09:28:33Z</time>
    </trkpt>
    <trkpt lat="48.0016065" lon="8.7824965">
    <ele>674</ele>
    <time>2007-07-02T09:28:46Z</time>
    </trkpt>
    <trkpt lat="48.0016494" lon="8.7819815">
    <ele>671</ele>
    <time>2007-07-02T09:29:00Z</time>
    </trkpt>
    <trkpt lat="48.0017352" lon="8.7815523">
    <ele>673</ele>
    <time>2007-07-02T09:30:03Z</time>
    </trkpt>
    <trkpt lat="48.0020028267364" lon="8.78007851122294">
    <ele>674</ele>
    <time>2007-07-02T09:30:22Z</time>
    </trkpt>
    <trkpt lat="48.0013061" lon="8.7801147">
    <ele>672</ele>
    <time>2007-07-02T09:30:30Z</time>
    </trkpt>
    <trkpt lat="47.9998899" lon="8.7799644">
    <ele>669</ele>
    <time>2007-07-02T09:30:46Z</time>
    </trkpt>
    <trkpt lat="47.9996967" lon="8.7800074">
    <ele>668</ele>
    <time>2007-07-02T09:30:49Z</time>
    </trkpt>
    <trkpt lat="47.9994607" lon="8.7799215">
    <ele>667</ele>
    <time>2007-07-02T09:30:53Z</time>
    </trkpt>
    <trkpt lat="47.999332" lon="8.7798142">
    <ele>667</ele>
    <time>2007-07-02T09:30:55Z</time>
    </trkpt>
    <trkpt lat="47.9989457" lon="8.7794065">
    <ele>666</ele>
    <time>2007-07-02T09:31:01Z</time>
    </trkpt>
    <trkpt lat="47.9987741" lon="8.7794924">
    <ele>666</ele>
    <time>2007-07-02T09:31:05Z</time>
    </trkpt>
    <trkpt lat="47.9986453" lon="8.779664">
    <ele>667</ele>
    <time>2007-07-02T09:31:14Z</time>
    </trkpt>
    <trkpt lat="47.9986238" lon="8.779707">
    <ele>669</ele>
    <time>2007-07-02T09:32:18Z</time>
    </trkpt>
    <trkpt lat="47.9980016" lon="8.7798142">
    <ele>668</ele>
    <time>2007-07-02T09:32:27Z</time>
    </trkpt>
    <trkpt lat="47.9972076" lon="8.7797713">
    <ele>667</ele>
    <time>2007-07-02T09:32:38Z</time>
    </trkpt>
    <trkpt lat="47.9965639" lon="8.7798572">
    <ele>667</ele>
    <time>2007-07-02T09:32:47Z</time>
    </trkpt>
    <trkpt lat="47.9949446142405" lon="8.7810129399648">
    <ele>666</ele>
    <time>2007-07-02T09:32:59Z</time>
    </trkpt>
    <trkpt lat="47.9945683" lon="8.7811446">
    <ele>664</ele>
    <time>2007-07-02T09:34:22Z</time>
    </trkpt>
    <trkpt lat="47.9945469" lon="8.78196">
    <ele>662</ele>
    <time>2007-07-02T09:34:33Z</time>
    </trkpt>
    <trkpt lat="47.9943538" lon="8.7826896">
    <ele>664</ele>
    <time>2007-07-02T09:34:46Z</time>
    </trkpt>
    <trkpt lat="47.9940319" lon="8.7835479">
    <ele>665</ele>
    <time>2007-07-02T09:34:54Z</time>
    </trkpt>
    <trkpt lat="47.9933882" lon="8.7845135">
    <ele>664</ele>
    <time>2007-07-02T09:35:04Z</time>
    </trkpt>
    <trkpt lat="47.9927444" lon="8.7851572">
    <ele>664</ele>
    <time>2007-07-02T09:35:13Z</time>
    </trkpt>
    <trkpt lat="47.9927444" lon="8.785522">
    <ele>664</ele>
    <time>2007-07-02T09:35:18Z</time>
    </trkpt>
    <trkpt lat="47.9928088" lon="8.7857151">
    <ele>663</ele>
    <time>2007-07-02T09:35:20Z</time>
    </trkpt>
    <trkpt lat="47.9928517" lon="8.7862945">
    <ele>662</ele>
    <time>2007-07-02T09:35:25Z</time>
    </trkpt>
    <trkpt lat="47.992444" lon="8.7877536">
    <ele>661</ele>
    <time>2007-07-02T09:35:37Z</time>
    </trkpt>
    <trkpt lat="47.9913282" lon="8.7906718">
    <ele>658</ele>
    <time>2007-07-02T09:36:02Z</time>
    </trkpt>
    <trkpt lat="47.9914141" lon="8.7916589">
    <ele>658</ele>
    <time>2007-07-02T09:36:11Z</time>
    </trkpt>
    <trkpt lat="47.9914784" lon="8.7917447">
    <ele>658</ele>
    <time>2007-07-02T09:36:12Z</time>
    </trkpt>
    <trkpt lat="47.9916286" lon="8.7920237">
    <ele>659</ele>
    <time>2007-07-02T09:36:16Z</time>
    </trkpt>
    <trkpt lat="47.9916072" lon="8.7922812">
    <ele>659</ele>
    <time>2007-07-02T09:36:20Z</time>
    </trkpt>
    <trkpt lat="47.9914999" lon="8.7925386">
    <ele>659</ele>
    <time>2007-07-02T09:36:24Z</time>
    </trkpt>
    <trkpt lat="47.991457" lon="8.7929249">
    <ele>659</ele>
    <time>2007-07-02T09:36:29Z</time>
    </trkpt>
    <trkpt lat="47.9915857" lon="8.7932038">
    <ele>661</ele>
    <time>2007-07-02T09:36:33Z</time>
    </trkpt>
    <trkpt lat="47.9916501" lon="8.7933111">
    <ele>660</ele>
    <time>2007-07-02T09:36:42Z</time>
    </trkpt>
    <trkpt lat="47.9916286" lon="8.793354">
    <ele>663</ele>
    <time>2007-07-02T09:37:24Z</time>
    </trkpt>
    <trkpt lat="47.9913282" lon="8.7939978">
    <ele>664</ele>
    <time>2007-07-02T09:37:33Z</time>
    </trkpt>
    <trkpt lat="47.9906416" lon="8.7955213">
    <ele>665</ele>
    <time>2007-07-02T09:37:51Z</time>
    </trkpt>
    <trkpt lat="47.9894614" lon="8.7978172">
    <ele>665</ele>
    <time>2007-07-02T09:38:21Z</time>
    </trkpt>
    <trkpt lat="47.9893756" lon="8.7979889">
    <ele>665</ele>
    <time>2007-07-02T09:38:23Z</time>
    </trkpt>
    <trkpt lat="47.9892254" lon="8.7979674">
    <ele>663</ele>
    <time>2007-07-02T09:38:30Z</time>
    </trkpt>
    <trkpt lat="47.9892254" lon="8.7979245">
    <ele>662</ele>
    <time>2007-07-02T09:38:40Z</time>
    </trkpt>
    <trkpt lat="47.9892254" lon="8.7979031">
    <ele>663</ele>
    <time>2007-07-02T09:39:49Z</time>
    </trkpt>
    <trkpt lat="47.9892039" lon="8.7978387">
    <ele>662</ele>
    <time>2007-07-02T09:39:52Z</time>
    </trkpt>
    <trkpt lat="47.9886031" lon="8.7988687">
    <ele>661</ele>
    <time>2007-07-02T09:42:01Z</time>
    </trkpt>
    <trkpt lat="47.9886031" lon="8.7989116">
    <ele>650</ele>
    <time>2007-07-02T09:42:58Z</time>
    </trkpt>
    <trkpt lat="47.9883242" lon="8.7995553">
    <ele>649</ele>
    <time>2007-07-02T09:43:08Z</time>
    </trkpt>
    <trkpt lat="47.9882813" lon="8.7997913">
    <ele>649</ele>
    <time>2007-07-02T09:43:16Z</time>
    </trkpt>
    <trkpt lat="47.9880881" lon="8.8001132">
    <ele>649</ele>
    <time>2007-07-02T09:43:52Z</time>
    </trkpt>
    <trkpt lat="47.9877877" lon="8.8004994">
    <ele>649</ele>
    <time>2007-07-02T09:43:58Z</time>
    </trkpt>
    <trkpt lat="47.9863071" lon="8.8015079">
    <ele>649</ele>
    <time>2007-07-02T09:44:24Z</time>
    </trkpt>
    <trkpt lat="47.9860067" lon="8.8016152">
    <ele>649</ele>
    <time>2007-07-02T09:44:29Z</time>
    </trkpt>
    <trkpt lat="47.9857278" lon="8.8016367">
    <ele>649</ele>
    <time>2007-07-02T09:44:34Z</time>
    </trkpt>
    <trkpt lat="47.9855776" lon="8.8015938">
    <ele>650</ele>
    <time>2007-07-02T09:44:44Z</time>
    </trkpt>
    <trkpt lat="47.9855776" lon="8.8015938">
    <ele>653</ele>
    <time>2007-07-02T09:45:31Z</time>
    </trkpt>
    <trkpt lat="47.9855561" lon="8.8011432">
    <ele>612</ele>
    <time>2007-07-02T10:02:01Z</time>
    </trkpt>
    <trkpt lat="47.9855347" lon="8.8010359">
    <ele>636</ele>
    <time>2007-07-02T10:02:27Z</time>
    </trkpt>
    <trkpt lat="47.9852986" lon="8.8009501">
    <ele>641</ele>
    <time>2007-07-02T10:04:09Z</time>
    </trkpt>
    <trkpt lat="47.9849768" lon="8.799963">
    <ele>640</ele>
    <time>2007-07-02T10:04:23Z</time>
    </trkpt>
    <trkpt lat="47.9848266" lon="8.7994695">
    <ele>642</ele>
    <time>2007-07-02T10:04:50Z</time>
    </trkpt>
    <trkpt lat="47.9846764" lon="8.7989759">
    <ele>652</ele>
    <time>2007-07-02T10:05:18Z</time>
    </trkpt>
    <trkpt lat="47.9845262" lon="8.7985468">
    <ele>653</ele>
    <time>2007-07-02T10:05:39Z</time>
    </trkpt>
    <trkpt lat="47.984097" lon="8.7982035">
    <ele>651</ele>
    <time>2007-07-02T10:06:17Z</time>
    </trkpt>
    <trkpt lat="47.9837322" lon="8.7978816">
    <ele>652</ele>
    <time>2007-07-02T10:06:44Z</time>
    </trkpt>
    <trkpt lat="47.9832602" lon="8.7974954">
    <ele>651</ele>
    <time>2007-07-02T10:07:18Z</time>
    </trkpt>
    <trkpt lat="47.9829812" lon="8.7972808">
    <ele>649</ele>
    <time>2007-07-02T10:07:36Z</time>
    </trkpt>
    <trkpt lat="47.9828095" lon="8.7971091">
    <ele>647</ele>
    <time>2007-07-02T10:08:30Z</time>
    </trkpt>
    <trkpt lat="47.9827666" lon="8.7972808">
    <ele>651</ele>
    <time>2007-07-02T10:08:45Z</time>
    </trkpt>
    <trkpt lat="47.9825642994298" lon="8.79787705310394">
    <ele>650</ele>
    <time>2007-07-02T10:10:11Z</time>
    </trkpt>
    <trkpt lat="47.9821658" lon="8.7973022">
    <ele>649</ele>
    <time>2007-07-02T10:10:58Z</time>
    </trkpt>
    <trkpt lat="47.9817152" lon="8.7969375">
    <ele>650</ele>
    <time>2007-07-02T10:11:31Z</time>
    </trkpt>
    <trkpt lat="47.9815865" lon="8.7968516">
    <ele>649</ele>
    <time>2007-07-02T10:11:43Z</time>
    </trkpt>
    <trkpt lat="47.9813933" lon="8.7972164">
    <ele>646</ele>
    <time>2007-07-02T10:12:05Z</time>
    </trkpt>
    <trkpt lat="47.9811144" lon="8.7977958">
    <ele>644</ele>
    <time>2007-07-02T10:12:37Z</time>
    </trkpt>
    <trkpt lat="47.9808998" lon="8.798182">
    <ele>643</ele>
    <time>2007-07-02T10:12:59Z</time>
    </trkpt>
    <trkpt lat="47.9805994" lon="8.7980533">
    <ele>646</ele>
    <time>2007-07-02T10:13:24Z</time>
    </trkpt>
  </trkseg>
</trk>
<extensions>
</extensions>
</gpx>
